<?xml version="1.0" encoding="UTF-8" standalone="no" ?>
<gpx xmlns="http://www.topografix.com/GPX/1/1" xmlns:xsi="http://www.w3.org/2001/XMLSchema-instance" xsi:schemaLocation="http://www.topografix.com/GPX/1/1 http://www.topografix.com/GPX/1/1/gpx.xsd" version="1.1" creator="VisuGPX - https://www.visugpx.com">
  <metadata>
    <name>Vélotrip Camargue &amp; Lubéron J1</name>
  </metadata>
  <trk>
    <name><![CDATA[Vélotrip Camargue & Lubéron J1]]></name>
    <trkseg>
      <trkpt lat="43.73445" lon="4.81415">
        <ele>82.3</ele>
        <time>2022-08-28T07:07:39Z</time>
      </trkpt>
      <trkpt lat="43.73445" lon="4.81415">
        <ele>82.3</ele>
        <time>2022-08-28T07:07:43Z</time>
      </trkpt>
      <trkpt lat="43.73445" lon="4.81415">
        <ele>82.3</ele>
        <time>2022-08-28T07:07:44Z</time>
      </trkpt>
      <trkpt lat="43.73443" lon="4.81412">
        <ele>82.2</ele>
        <time>2022-08-28T07:07:48Z</time>
      </trkpt>
      <trkpt lat="43.73442" lon="4.81411">
        <ele>82.1</ele>
        <time>2022-08-28T07:07:49Z</time>
      </trkpt>
      <trkpt lat="43.73387" lon="4.81419">
        <ele>80.1</ele>
        <time>2022-08-28T07:08:06Z</time>
      </trkpt>
      <trkpt lat="43.73361" lon="4.81442">
        <ele>79</ele>
        <time>2022-08-28T07:08:15Z</time>
      </trkpt>
      <trkpt lat="43.73354" lon="4.81446">
        <ele>78.7</ele>
        <time>2022-08-28T07:08:17Z</time>
      </trkpt>
      <trkpt lat="43.73349" lon="4.81448">
        <ele>78.6</ele>
        <time>2022-08-28T07:08:18Z</time>
      </trkpt>
      <trkpt lat="43.73345" lon="4.81449">
        <ele>78.4</ele>
        <time>2022-08-28T07:08:19Z</time>
      </trkpt>
      <trkpt lat="43.7334" lon="4.8145">
        <ele>78.1</ele>
        <time>2022-08-28T07:08:20Z</time>
      </trkpt>
      <trkpt lat="43.73329" lon="4.81452">
        <ele>77.6</ele>
        <time>2022-08-28T07:08:22Z</time>
      </trkpt>
      <trkpt lat="43.73318" lon="4.81454">
        <ele>77.2</ele>
        <time>2022-08-28T07:08:24Z</time>
      </trkpt>
      <trkpt lat="43.73294" lon="4.81462">
        <ele>76.4</ele>
        <time>2022-08-28T07:08:28Z</time>
      </trkpt>
      <trkpt lat="43.73281" lon="4.81467">
        <ele>76</ele>
        <time>2022-08-28T07:08:30Z</time>
      </trkpt>
      <trkpt lat="43.73275" lon="4.8147">
        <ele>75.9</ele>
        <time>2022-08-28T07:08:31Z</time>
      </trkpt>
      <trkpt lat="43.7327" lon="4.81473">
        <ele>75.7</ele>
        <time>2022-08-28T07:08:32Z</time>
      </trkpt>
      <trkpt lat="43.73263" lon="4.81476">
        <ele>75.6</ele>
        <time>2022-08-28T07:08:33Z</time>
      </trkpt>
      <trkpt lat="43.73247" lon="4.81484">
        <ele>75.4</ele>
        <time>2022-08-28T07:08:36Z</time>
      </trkpt>
      <trkpt lat="43.73236" lon="4.81489">
        <ele>75.2</ele>
        <time>2022-08-28T07:08:38Z</time>
      </trkpt>
      <trkpt lat="43.73231" lon="4.8149">
        <ele>75.1</ele>
        <time>2022-08-28T07:08:39Z</time>
      </trkpt>
      <trkpt lat="43.73208" lon="4.81494">
        <ele>74.6</ele>
        <time>2022-08-28T07:08:43Z</time>
      </trkpt>
      <trkpt lat="43.73202" lon="4.81494">
        <ele>74.5</ele>
        <time>2022-08-28T07:08:44Z</time>
      </trkpt>
      <trkpt lat="43.73191" lon="4.81495">
        <ele>74.2</ele>
        <time>2022-08-28T07:08:46Z</time>
      </trkpt>
      <trkpt lat="43.73185" lon="4.81495">
        <ele>74.1</ele>
        <time>2022-08-28T07:08:47Z</time>
      </trkpt>
      <trkpt lat="43.73179" lon="4.81495">
        <ele>74</ele>
        <time>2022-08-28T07:08:48Z</time>
      </trkpt>
      <trkpt lat="43.73173" lon="4.81496">
        <ele>73.9</ele>
        <time>2022-08-28T07:08:49Z</time>
      </trkpt>
      <trkpt lat="43.73168" lon="4.81497">
        <ele>73.9</ele>
        <time>2022-08-28T07:08:50Z</time>
      </trkpt>
      <trkpt lat="43.7316" lon="4.81499">
        <ele>73.7</ele>
        <time>2022-08-28T07:08:52Z</time>
      </trkpt>
      <trkpt lat="43.73105" lon="4.81504">
        <ele>72.1</ele>
        <time>2022-08-28T07:09:10Z</time>
      </trkpt>
      <trkpt lat="43.731" lon="4.81504">
        <ele>72</ele>
        <time>2022-08-28T07:09:11Z</time>
      </trkpt>
      <trkpt lat="43.73079" lon="4.81504">
        <ele>71.3</ele>
        <time>2022-08-28T07:09:15Z</time>
      </trkpt>
      <trkpt lat="43.73074" lon="4.81503">
        <ele>71.1</ele>
        <time>2022-08-28T07:09:16Z</time>
      </trkpt>
      <trkpt lat="43.73056" lon="4.81503">
        <ele>70.6</ele>
        <time>2022-08-28T07:09:19Z</time>
      </trkpt>
      <trkpt lat="43.7305" lon="4.81503">
        <ele>70.4</ele>
        <time>2022-08-28T07:09:20Z</time>
      </trkpt>
      <trkpt lat="43.73038" lon="4.81503">
        <ele>70.1</ele>
        <time>2022-08-28T07:09:22Z</time>
      </trkpt>
      <trkpt lat="43.73031" lon="4.81503">
        <ele>69.9</ele>
        <time>2022-08-28T07:09:23Z</time>
      </trkpt>
      <trkpt lat="43.72971" lon="4.81489">
        <ele>67.6</ele>
        <time>2022-08-28T07:09:32Z</time>
      </trkpt>
      <trkpt lat="43.72937" lon="4.81469">
        <ele>66.9</ele>
        <time>2022-08-28T07:09:37Z</time>
      </trkpt>
      <trkpt lat="43.72916" lon="4.81458">
        <ele>66.2</ele>
        <time>2022-08-28T07:09:40Z</time>
      </trkpt>
      <trkpt lat="43.72886" lon="4.81446">
        <ele>65.1</ele>
        <time>2022-08-28T07:09:44Z</time>
      </trkpt>
      <trkpt lat="43.72871" lon="4.81442">
        <ele>64.6</ele>
        <time>2022-08-28T07:09:46Z</time>
      </trkpt>
      <trkpt lat="43.72812" lon="4.81439">
        <ele>63.3</ele>
        <time>2022-08-28T07:09:53Z</time>
      </trkpt>
      <trkpt lat="43.72753" lon="4.81437">
        <ele>61.6</ele>
        <time>2022-08-28T07:10:00Z</time>
      </trkpt>
      <trkpt lat="43.72693" lon="4.81435">
        <ele>59.6</ele>
        <time>2022-08-28T07:10:07Z</time>
      </trkpt>
      <trkpt lat="43.72631" lon="4.81426">
        <ele>57.2</ele>
        <time>2022-08-28T07:10:14Z</time>
      </trkpt>
      <trkpt lat="43.72614" lon="4.81416">
        <ele>56.7</ele>
        <time>2022-08-28T07:10:16Z</time>
      </trkpt>
      <trkpt lat="43.726" lon="4.81401">
        <ele>55.8</ele>
        <time>2022-08-28T07:10:18Z</time>
      </trkpt>
      <trkpt lat="43.72563" lon="4.81332">
        <ele>53.5</ele>
        <time>2022-08-28T07:10:25Z</time>
      </trkpt>
      <trkpt lat="43.72523" lon="4.81272">
        <ele>52.3</ele>
        <time>2022-08-28T07:10:32Z</time>
      </trkpt>
      <trkpt lat="43.72479" lon="4.81227">
        <ele>51.2</ele>
        <time>2022-08-28T07:10:39Z</time>
      </trkpt>
      <trkpt lat="43.72431" lon="4.81187">
        <ele>49.7</ele>
        <time>2022-08-28T07:10:46Z</time>
      </trkpt>
      <trkpt lat="43.72382" lon="4.81149">
        <ele>48.1</ele>
        <time>2022-08-28T07:10:54Z</time>
      </trkpt>
      <trkpt lat="43.72332" lon="4.81112">
        <ele>46.6</ele>
        <time>2022-08-28T07:11:02Z</time>
      </trkpt>
      <trkpt lat="43.72284" lon="4.81076">
        <ele>45.3</ele>
        <time>2022-08-28T07:11:12Z</time>
      </trkpt>
      <trkpt lat="43.72281" lon="4.8108">
        <ele>45.3</ele>
        <time>2022-08-28T07:11:14Z</time>
      </trkpt>
      <trkpt lat="43.72274" lon="4.81155">
        <ele>44.1</ele>
        <time>2022-08-28T07:11:24Z</time>
      </trkpt>
      <trkpt lat="43.72273" lon="4.81162">
        <ele>44.1</ele>
        <time>2022-08-28T07:11:25Z</time>
      </trkpt>
      <trkpt lat="43.72272" lon="4.81167">
        <ele>44.1</ele>
        <time>2022-08-28T07:11:26Z</time>
      </trkpt>
      <trkpt lat="43.72253" lon="4.81244">
        <ele>45.1</ele>
        <time>2022-08-28T07:11:44Z</time>
      </trkpt>
      <trkpt lat="43.72245" lon="4.81295">
        <ele>45.4</ele>
        <time>2022-08-28T07:11:54Z</time>
      </trkpt>
      <trkpt lat="43.72236" lon="4.8135">
        <ele>45.5</ele>
        <time>2022-08-28T07:12:10Z</time>
      </trkpt>
      <trkpt lat="43.72232" lon="4.81367">
        <ele>45.6</ele>
        <time>2022-08-28T07:13:09Z</time>
      </trkpt>
      <trkpt lat="43.72239" lon="4.81327">
        <ele>45.5</ele>
        <time>2022-08-28T07:13:35Z</time>
      </trkpt>
      <trkpt lat="43.72242" lon="4.81312">
        <ele>45.5</ele>
        <time>2022-08-28T07:15:33Z</time>
      </trkpt>
      <trkpt lat="43.72242" lon="4.8131">
        <ele>45.4</ele>
        <time>2022-08-28T07:15:34Z</time>
      </trkpt>
      <trkpt lat="43.72245" lon="4.81284">
        <ele>45.3</ele>
        <time>2022-08-28T07:15:41Z</time>
      </trkpt>
      <trkpt lat="43.72249" lon="4.81246">
        <ele>45.1</ele>
        <time>2022-08-28T07:15:50Z</time>
      </trkpt>
      <trkpt lat="43.72256" lon="4.8121">
        <ele>44.9</ele>
        <time>2022-08-28T07:15:59Z</time>
      </trkpt>
      <trkpt lat="43.72262" lon="4.8119">
        <ele>44.4</ele>
        <time>2022-08-28T07:16:02Z</time>
      </trkpt>
      <trkpt lat="43.72267" lon="4.81158">
        <ele>44.1</ele>
        <time>2022-08-28T07:16:07Z</time>
      </trkpt>
      <trkpt lat="43.72269" lon="4.81149">
        <ele>44.1</ele>
        <time>2022-08-28T07:16:09Z</time>
      </trkpt>
      <trkpt lat="43.72269" lon="4.81145">
        <ele>44.1</ele>
        <time>2022-08-28T07:16:10Z</time>
      </trkpt>
      <trkpt lat="43.72269" lon="4.81122">
        <ele>44.4</ele>
        <time>2022-08-28T07:16:16Z</time>
      </trkpt>
      <trkpt lat="43.72272" lon="4.81099">
        <ele>44.9</ele>
        <time>2022-08-28T07:16:22Z</time>
      </trkpt>
      <trkpt lat="43.72273" lon="4.81095">
        <ele>45</ele>
        <time>2022-08-28T07:16:24Z</time>
      </trkpt>
      <trkpt lat="43.72273" lon="4.81087">
        <ele>45.2</ele>
        <time>2022-08-28T07:16:48Z</time>
      </trkpt>
      <trkpt lat="43.72251" lon="4.81064">
        <ele>44.6</ele>
        <time>2022-08-28T07:16:58Z</time>
      </trkpt>
      <trkpt lat="43.72248" lon="4.81062">
        <ele>44.5</ele>
        <time>2022-08-28T07:16:59Z</time>
      </trkpt>
      <trkpt lat="43.72195" lon="4.8103">
        <ele>42.9</ele>
        <time>2022-08-28T07:17:11Z</time>
      </trkpt>
      <trkpt lat="43.72147" lon="4.81003">
        <ele>41.6</ele>
        <time>2022-08-28T07:17:20Z</time>
      </trkpt>
      <trkpt lat="43.72111" lon="4.80982">
        <ele>40.7</ele>
        <time>2022-08-28T07:17:27Z</time>
      </trkpt>
      <trkpt lat="43.72069" lon="4.80961">
        <ele>39.7</ele>
        <time>2022-08-28T07:17:35Z</time>
      </trkpt>
      <trkpt lat="43.7205" lon="4.8095">
        <ele>39.2</ele>
        <time>2022-08-28T07:17:41Z</time>
      </trkpt>
      <trkpt lat="43.72022" lon="4.80933">
        <ele>38.3</ele>
        <time>2022-08-28T07:17:52Z</time>
      </trkpt>
      <trkpt lat="43.7201" lon="4.80926">
        <ele>37.8</ele>
        <time>2022-08-28T07:17:55Z</time>
      </trkpt>
      <trkpt lat="43.71963" lon="4.809">
        <ele>36</ele>
        <time>2022-08-28T07:18:04Z</time>
      </trkpt>
      <trkpt lat="43.7194" lon="4.80888">
        <ele>35.4</ele>
        <time>2022-08-28T07:18:08Z</time>
      </trkpt>
      <trkpt lat="43.71918" lon="4.80871">
        <ele>34.7</ele>
        <time>2022-08-28T07:18:12Z</time>
      </trkpt>
      <trkpt lat="43.71902" lon="4.80858">
        <ele>34.1</ele>
        <time>2022-08-28T07:18:15Z</time>
      </trkpt>
      <trkpt lat="43.71897" lon="4.80854">
        <ele>33.9</ele>
        <time>2022-08-28T07:18:16Z</time>
      </trkpt>
      <trkpt lat="43.71891" lon="4.8085">
        <ele>33.8</ele>
        <time>2022-08-28T07:18:17Z</time>
      </trkpt>
      <trkpt lat="43.71879" lon="4.80844">
        <ele>33.4</ele>
        <time>2022-08-28T07:18:19Z</time>
      </trkpt>
      <trkpt lat="43.71847" lon="4.80827">
        <ele>32.5</ele>
        <time>2022-08-28T07:18:24Z</time>
      </trkpt>
      <trkpt lat="43.7184" lon="4.80823">
        <ele>32.3</ele>
        <time>2022-08-28T07:18:25Z</time>
      </trkpt>
      <trkpt lat="43.71789" lon="4.8079">
        <ele>31.1</ele>
        <time>2022-08-28T07:18:33Z</time>
      </trkpt>
      <trkpt lat="43.71748" lon="4.80762">
        <ele>30.4</ele>
        <time>2022-08-28T07:18:40Z</time>
      </trkpt>
      <trkpt lat="43.71742" lon="4.80758">
        <ele>30.3</ele>
        <time>2022-08-28T07:18:41Z</time>
      </trkpt>
      <trkpt lat="43.71695" lon="4.80712">
        <ele>29.1</ele>
        <time>2022-08-28T07:18:50Z</time>
      </trkpt>
      <trkpt lat="43.7167" lon="4.80669">
        <ele>28.1</ele>
        <time>2022-08-28T07:18:56Z</time>
      </trkpt>
      <trkpt lat="43.71655" lon="4.80628">
        <ele>27.3</ele>
        <time>2022-08-28T07:19:05Z</time>
      </trkpt>
      <trkpt lat="43.71654" lon="4.80626">
        <ele>27.3</ele>
        <time>2022-08-28T07:21:15Z</time>
      </trkpt>
      <trkpt lat="43.71654" lon="4.80626">
        <ele>27.3</ele>
        <time>2022-08-28T07:22:10Z</time>
      </trkpt>
      <trkpt lat="43.71648" lon="4.80622">
        <ele>27</ele>
        <time>2022-08-28T07:22:38Z</time>
      </trkpt>
      <trkpt lat="43.71622" lon="4.80599">
        <ele>26.1</ele>
        <time>2022-08-28T07:22:47Z</time>
      </trkpt>
      <trkpt lat="43.71618" lon="4.80596">
        <ele>26</ele>
        <time>2022-08-28T07:22:48Z</time>
      </trkpt>
      <trkpt lat="43.7161" lon="4.80589">
        <ele>25.7</ele>
        <time>2022-08-28T07:22:50Z</time>
      </trkpt>
      <trkpt lat="43.7156" lon="4.80547">
        <ele>24.5</ele>
        <time>2022-08-28T07:23:01Z</time>
      </trkpt>
      <trkpt lat="43.7151" lon="4.80505">
        <ele>23.4</ele>
        <time>2022-08-28T07:23:11Z</time>
      </trkpt>
      <trkpt lat="43.71494" lon="4.80493">
        <ele>23</ele>
        <time>2022-08-28T07:23:14Z</time>
      </trkpt>
      <trkpt lat="43.71473" lon="4.80476">
        <ele>22.6</ele>
        <time>2022-08-28T07:23:18Z</time>
      </trkpt>
      <trkpt lat="43.71468" lon="4.80472">
        <ele>22.4</ele>
        <time>2022-08-28T07:23:19Z</time>
      </trkpt>
      <trkpt lat="43.71463" lon="4.80467">
        <ele>22.3</ele>
        <time>2022-08-28T07:23:20Z</time>
      </trkpt>
      <trkpt lat="43.71457" lon="4.80463">
        <ele>22.2</ele>
        <time>2022-08-28T07:23:21Z</time>
      </trkpt>
      <trkpt lat="43.71452" lon="4.80459">
        <ele>22.1</ele>
        <time>2022-08-28T07:23:22Z</time>
      </trkpt>
      <trkpt lat="43.71447" lon="4.80455">
        <ele>22</ele>
        <time>2022-08-28T07:23:23Z</time>
      </trkpt>
      <trkpt lat="43.71442" lon="4.80451">
        <ele>21.9</ele>
        <time>2022-08-28T07:23:24Z</time>
      </trkpt>
      <trkpt lat="43.71436" lon="4.80447">
        <ele>21.8</ele>
        <time>2022-08-28T07:23:25Z</time>
      </trkpt>
      <trkpt lat="43.71431" lon="4.80443">
        <ele>21.7</ele>
        <time>2022-08-28T07:23:26Z</time>
      </trkpt>
      <trkpt lat="43.71426" lon="4.80438">
        <ele>21.6</ele>
        <time>2022-08-28T07:23:27Z</time>
      </trkpt>
      <trkpt lat="43.714" lon="4.80418">
        <ele>21.1</ele>
        <time>2022-08-28T07:23:32Z</time>
      </trkpt>
      <trkpt lat="43.71395" lon="4.80414">
        <ele>21</ele>
        <time>2022-08-28T07:23:33Z</time>
      </trkpt>
      <trkpt lat="43.7139" lon="4.8041">
        <ele>20.9</ele>
        <time>2022-08-28T07:23:34Z</time>
      </trkpt>
      <trkpt lat="43.71373" lon="4.80397">
        <ele>20.5</ele>
        <time>2022-08-28T07:23:37Z</time>
      </trkpt>
      <trkpt lat="43.71368" lon="4.80392">
        <ele>20.4</ele>
        <time>2022-08-28T07:23:38Z</time>
      </trkpt>
      <trkpt lat="43.71357" lon="4.80384">
        <ele>20.2</ele>
        <time>2022-08-28T07:23:40Z</time>
      </trkpt>
      <trkpt lat="43.71336" lon="4.80366">
        <ele>19.8</ele>
        <time>2022-08-28T07:23:44Z</time>
      </trkpt>
      <trkpt lat="43.71318" lon="4.80347">
        <ele>19.5</ele>
        <time>2022-08-28T07:23:48Z</time>
      </trkpt>
      <trkpt lat="43.71314" lon="4.80334">
        <ele>19.6</ele>
        <time>2022-08-28T07:23:50Z</time>
      </trkpt>
      <trkpt lat="43.71313" lon="4.8032">
        <ele>19.6</ele>
        <time>2022-08-28T07:23:52Z</time>
      </trkpt>
      <trkpt lat="43.71315" lon="4.80307">
        <ele>19.6</ele>
        <time>2022-08-28T07:23:54Z</time>
      </trkpt>
      <trkpt lat="43.71323" lon="4.80284">
        <ele>19.5</ele>
        <time>2022-08-28T07:23:58Z</time>
      </trkpt>
      <trkpt lat="43.71325" lon="4.80278">
        <ele>19.5</ele>
        <time>2022-08-28T07:23:59Z</time>
      </trkpt>
      <trkpt lat="43.7133" lon="4.80267">
        <ele>19.6</ele>
        <time>2022-08-28T07:24:01Z</time>
      </trkpt>
      <trkpt lat="43.71333" lon="4.80255">
        <ele>19.6</ele>
        <time>2022-08-28T07:24:03Z</time>
      </trkpt>
      <trkpt lat="43.71335" lon="4.8025">
        <ele>19.6</ele>
        <time>2022-08-28T07:24:04Z</time>
      </trkpt>
      <trkpt lat="43.7134" lon="4.80239">
        <ele>19.5</ele>
        <time>2022-08-28T07:24:06Z</time>
      </trkpt>
      <trkpt lat="43.71341" lon="4.80233">
        <ele>19.5</ele>
        <time>2022-08-28T07:24:07Z</time>
      </trkpt>
      <trkpt lat="43.71343" lon="4.80227">
        <ele>19.5</ele>
        <time>2022-08-28T07:24:08Z</time>
      </trkpt>
      <trkpt lat="43.71345" lon="4.80221">
        <ele>19.5</ele>
        <time>2022-08-28T07:24:09Z</time>
      </trkpt>
      <trkpt lat="43.71347" lon="4.80215">
        <ele>19.4</ele>
        <time>2022-08-28T07:24:10Z</time>
      </trkpt>
      <trkpt lat="43.71352" lon="4.80197">
        <ele>19.4</ele>
        <time>2022-08-28T07:24:13Z</time>
      </trkpt>
      <trkpt lat="43.71358" lon="4.8018">
        <ele>19.3</ele>
        <time>2022-08-28T07:24:16Z</time>
      </trkpt>
      <trkpt lat="43.71373" lon="4.8014">
        <ele>19.5</ele>
        <time>2022-08-28T07:24:24Z</time>
      </trkpt>
      <trkpt lat="43.71378" lon="4.80125">
        <ele>19.6</ele>
        <time>2022-08-28T07:24:27Z</time>
      </trkpt>
      <trkpt lat="43.71388" lon="4.80101">
        <ele>19.7</ele>
        <time>2022-08-28T07:24:32Z</time>
      </trkpt>
      <trkpt lat="43.71407" lon="4.80068">
        <ele>19.9</ele>
        <time>2022-08-28T07:24:40Z</time>
      </trkpt>
      <trkpt lat="43.71415" lon="4.80054">
        <ele>20.2</ele>
        <time>2022-08-28T07:24:44Z</time>
      </trkpt>
      <trkpt lat="43.71421" lon="4.80043">
        <ele>20.3</ele>
        <time>2022-08-28T07:24:47Z</time>
      </trkpt>
      <trkpt lat="43.7143" lon="4.8002">
        <ele>20.3</ele>
        <time>2022-08-28T07:24:52Z</time>
      </trkpt>
      <trkpt lat="43.71438" lon="4.79993">
        <ele>20.2</ele>
        <time>2022-08-28T07:24:57Z</time>
      </trkpt>
      <trkpt lat="43.71444" lon="4.79977">
        <ele>20.2</ele>
        <time>2022-08-28T07:25:00Z</time>
      </trkpt>
      <trkpt lat="43.71445" lon="4.79971">
        <ele>20.1</ele>
        <time>2022-08-28T07:25:01Z</time>
      </trkpt>
      <trkpt lat="43.71449" lon="4.79959">
        <ele>20.1</ele>
        <time>2022-08-28T07:25:03Z</time>
      </trkpt>
      <trkpt lat="43.71454" lon="4.79942">
        <ele>20</ele>
        <time>2022-08-28T07:25:06Z</time>
      </trkpt>
      <trkpt lat="43.71456" lon="4.79936">
        <ele>19.9</ele>
        <time>2022-08-28T07:25:07Z</time>
      </trkpt>
      <trkpt lat="43.71458" lon="4.79931">
        <ele>19.9</ele>
        <time>2022-08-28T07:25:08Z</time>
      </trkpt>
      <trkpt lat="43.71462" lon="4.7992">
        <ele>19.9</ele>
        <time>2022-08-28T07:25:10Z</time>
      </trkpt>
      <trkpt lat="43.71466" lon="4.79909">
        <ele>19.8</ele>
        <time>2022-08-28T07:25:12Z</time>
      </trkpt>
      <trkpt lat="43.71468" lon="4.79903">
        <ele>19.8</ele>
        <time>2022-08-28T07:25:13Z</time>
      </trkpt>
      <trkpt lat="43.71494" lon="4.79841">
        <ele>19.6</ele>
        <time>2022-08-28T07:25:24Z</time>
      </trkpt>
      <trkpt lat="43.71497" lon="4.79835">
        <ele>19.7</ele>
        <time>2022-08-28T07:25:25Z</time>
      </trkpt>
      <trkpt lat="43.71501" lon="4.79829">
        <ele>19.7</ele>
        <time>2022-08-28T07:25:26Z</time>
      </trkpt>
      <trkpt lat="43.71511" lon="4.79812">
        <ele>19.7</ele>
        <time>2022-08-28T07:25:30Z</time>
      </trkpt>
      <trkpt lat="43.71515" lon="4.79798">
        <ele>19.7</ele>
        <time>2022-08-28T07:25:33Z</time>
      </trkpt>
      <trkpt lat="43.71517" lon="4.79792">
        <ele>19.6</ele>
        <time>2022-08-28T07:25:34Z</time>
      </trkpt>
      <trkpt lat="43.71519" lon="4.79787">
        <ele>19.6</ele>
        <time>2022-08-28T07:25:35Z</time>
      </trkpt>
      <trkpt lat="43.71522" lon="4.79781">
        <ele>19.6</ele>
        <time>2022-08-28T07:25:36Z</time>
      </trkpt>
      <trkpt lat="43.71528" lon="4.79768">
        <ele>19.4</ele>
        <time>2022-08-28T07:25:38Z</time>
      </trkpt>
      <trkpt lat="43.71533" lon="4.79756">
        <ele>19.3</ele>
        <time>2022-08-28T07:25:40Z</time>
      </trkpt>
      <trkpt lat="43.71536" lon="4.7975">
        <ele>19.2</ele>
        <time>2022-08-28T07:25:41Z</time>
      </trkpt>
      <trkpt lat="43.71548" lon="4.79727">
        <ele>18.8</ele>
        <time>2022-08-28T07:25:45Z</time>
      </trkpt>
      <trkpt lat="43.71578" lon="4.79666">
        <ele>17.9</ele>
        <time>2022-08-28T07:25:55Z</time>
      </trkpt>
      <trkpt lat="43.71593" lon="4.79638">
        <ele>17.6</ele>
        <time>2022-08-28T07:26:00Z</time>
      </trkpt>
      <trkpt lat="43.71602" lon="4.79613">
        <ele>17.3</ele>
        <time>2022-08-28T07:26:04Z</time>
      </trkpt>
      <trkpt lat="43.71604" lon="4.79606">
        <ele>17.3</ele>
        <time>2022-08-28T07:26:05Z</time>
      </trkpt>
      <trkpt lat="43.71611" lon="4.7958">
        <ele>17.1</ele>
        <time>2022-08-28T07:26:09Z</time>
      </trkpt>
      <trkpt lat="43.71614" lon="4.79566">
        <ele>17</ele>
        <time>2022-08-28T07:26:11Z</time>
      </trkpt>
      <trkpt lat="43.71616" lon="4.79559">
        <ele>16.9</ele>
        <time>2022-08-28T07:26:12Z</time>
      </trkpt>
      <trkpt lat="43.71617" lon="4.79552">
        <ele>16.9</ele>
        <time>2022-08-28T07:26:13Z</time>
      </trkpt>
      <trkpt lat="43.71623" lon="4.79526">
        <ele>16.6</ele>
        <time>2022-08-28T07:26:17Z</time>
      </trkpt>
      <trkpt lat="43.71624" lon="4.79505">
        <ele>16.4</ele>
        <time>2022-08-28T07:26:20Z</time>
      </trkpt>
      <trkpt lat="43.71615" lon="4.79466">
        <ele>16.2</ele>
        <time>2022-08-28T07:26:26Z</time>
      </trkpt>
      <trkpt lat="43.71618" lon="4.7939">
        <ele>15.9</ele>
        <time>2022-08-28T07:26:37Z</time>
      </trkpt>
      <trkpt lat="43.71626" lon="4.79357">
        <ele>15.8</ele>
        <time>2022-08-28T07:26:42Z</time>
      </trkpt>
      <trkpt lat="43.71634" lon="4.79325">
        <ele>15.8</ele>
        <time>2022-08-28T07:26:47Z</time>
      </trkpt>
      <trkpt lat="43.71649" lon="4.79267">
        <ele>15.7</ele>
        <time>2022-08-28T07:26:56Z</time>
      </trkpt>
      <trkpt lat="43.71654" lon="4.79248">
        <ele>15.6</ele>
        <time>2022-08-28T07:26:59Z</time>
      </trkpt>
      <trkpt lat="43.71656" lon="4.79242">
        <ele>15.6</ele>
        <time>2022-08-28T07:27:00Z</time>
      </trkpt>
      <trkpt lat="43.71658" lon="4.79236">
        <ele>15.6</ele>
        <time>2022-08-28T07:27:01Z</time>
      </trkpt>
      <trkpt lat="43.71662" lon="4.79223">
        <ele>15.6</ele>
        <time>2022-08-28T07:27:03Z</time>
      </trkpt>
      <trkpt lat="43.71665" lon="4.7921">
        <ele>15.6</ele>
        <time>2022-08-28T07:27:05Z</time>
      </trkpt>
      <trkpt lat="43.71667" lon="4.79203">
        <ele>15.6</ele>
        <time>2022-08-28T07:27:06Z</time>
      </trkpt>
      <trkpt lat="43.71673" lon="4.79177">
        <ele>15.7</ele>
        <time>2022-08-28T07:27:10Z</time>
      </trkpt>
      <trkpt lat="43.71681" lon="4.79152">
        <ele>15.7</ele>
        <time>2022-08-28T07:27:14Z</time>
      </trkpt>
      <trkpt lat="43.71682" lon="4.79145">
        <ele>15.7</ele>
        <time>2022-08-28T07:27:15Z</time>
      </trkpt>
      <trkpt lat="43.71688" lon="4.79126">
        <ele>15.8</ele>
        <time>2022-08-28T07:27:18Z</time>
      </trkpt>
      <trkpt lat="43.71704" lon="4.79073">
        <ele>16</ele>
        <time>2022-08-28T07:27:27Z</time>
      </trkpt>
      <trkpt lat="43.71706" lon="4.79067">
        <ele>16</ele>
        <time>2022-08-28T07:27:28Z</time>
      </trkpt>
      <trkpt lat="43.71714" lon="4.79034">
        <ele>16.2</ele>
        <time>2022-08-28T07:27:34Z</time>
      </trkpt>
      <trkpt lat="43.71737" lon="4.7896">
        <ele>16.6</ele>
        <time>2022-08-28T07:27:47Z</time>
      </trkpt>
      <trkpt lat="43.7176" lon="4.78889">
        <ele>17.2</ele>
        <time>2022-08-28T07:28:00Z</time>
      </trkpt>
      <trkpt lat="43.71761" lon="4.78884">
        <ele>17.3</ele>
        <time>2022-08-28T07:28:01Z</time>
      </trkpt>
      <trkpt lat="43.71764" lon="4.78873">
        <ele>17.3</ele>
        <time>2022-08-28T07:28:03Z</time>
      </trkpt>
      <trkpt lat="43.71764" lon="4.78868">
        <ele>17.4</ele>
        <time>2022-08-28T07:28:04Z</time>
      </trkpt>
      <trkpt lat="43.71773" lon="4.78833">
        <ele>17.6</ele>
        <time>2022-08-28T07:28:10Z</time>
      </trkpt>
      <trkpt lat="43.71775" lon="4.78828">
        <ele>17.6</ele>
        <time>2022-08-28T07:28:11Z</time>
      </trkpt>
      <trkpt lat="43.71776" lon="4.78822">
        <ele>17.6</ele>
        <time>2022-08-28T07:28:12Z</time>
      </trkpt>
      <trkpt lat="43.71778" lon="4.78816">
        <ele>17.7</ele>
        <time>2022-08-28T07:28:13Z</time>
      </trkpt>
      <trkpt lat="43.71779" lon="4.7881">
        <ele>17.7</ele>
        <time>2022-08-28T07:28:14Z</time>
      </trkpt>
      <trkpt lat="43.71781" lon="4.78805">
        <ele>17.8</ele>
        <time>2022-08-28T07:28:15Z</time>
      </trkpt>
      <trkpt lat="43.71785" lon="4.78787">
        <ele>17.9</ele>
        <time>2022-08-28T07:28:18Z</time>
      </trkpt>
      <trkpt lat="43.71787" lon="4.78769">
        <ele>18</ele>
        <time>2022-08-28T07:28:21Z</time>
      </trkpt>
      <trkpt lat="43.71788" lon="4.78756">
        <ele>18.1</ele>
        <time>2022-08-28T07:28:23Z</time>
      </trkpt>
      <trkpt lat="43.71788" lon="4.7875">
        <ele>18.2</ele>
        <time>2022-08-28T07:28:24Z</time>
      </trkpt>
      <trkpt lat="43.71788" lon="4.78706">
        <ele>18.5</ele>
        <time>2022-08-28T07:28:31Z</time>
      </trkpt>
      <trkpt lat="43.71786" lon="4.78675">
        <ele>18.7</ele>
        <time>2022-08-28T07:28:37Z</time>
      </trkpt>
      <trkpt lat="43.71787" lon="4.78652">
        <ele>18.9</ele>
        <time>2022-08-28T07:28:41Z</time>
      </trkpt>
      <trkpt lat="43.71787" lon="4.78601">
        <ele>19.2</ele>
        <time>2022-08-28T07:28:49Z</time>
      </trkpt>
      <trkpt lat="43.71787" lon="4.78594">
        <ele>19.3</ele>
        <time>2022-08-28T07:28:50Z</time>
      </trkpt>
      <trkpt lat="43.71787" lon="4.78588">
        <ele>19.3</ele>
        <time>2022-08-28T07:28:51Z</time>
      </trkpt>
      <trkpt lat="43.7179" lon="4.78535">
        <ele>19.9</ele>
        <time>2022-08-28T07:29:00Z</time>
      </trkpt>
      <trkpt lat="43.7179" lon="4.78529">
        <ele>20</ele>
        <time>2022-08-28T07:29:01Z</time>
      </trkpt>
      <trkpt lat="43.7179" lon="4.78497">
        <ele>20.4</ele>
        <time>2022-08-28T07:29:06Z</time>
      </trkpt>
      <trkpt lat="43.71795" lon="4.78448">
        <ele>21.4</ele>
        <time>2022-08-28T07:29:16Z</time>
      </trkpt>
      <trkpt lat="43.71801" lon="4.78412">
        <ele>22.7</ele>
        <time>2022-08-28T07:29:25Z</time>
      </trkpt>
      <trkpt lat="43.71792" lon="4.784">
        <ele>22.6</ele>
        <time>2022-08-28T07:29:29Z</time>
      </trkpt>
      <trkpt lat="43.71789" lon="4.78398">
        <ele>22.5</ele>
        <time>2022-08-28T07:29:30Z</time>
      </trkpt>
      <trkpt lat="43.71783" lon="4.78394">
        <ele>22.5</ele>
        <time>2022-08-28T07:29:32Z</time>
      </trkpt>
      <trkpt lat="43.71781" lon="4.78392">
        <ele>22.5</ele>
        <time>2022-08-28T07:29:33Z</time>
      </trkpt>
      <trkpt lat="43.71778" lon="4.7839">
        <ele>22.4</ele>
        <time>2022-08-28T07:29:34Z</time>
      </trkpt>
      <trkpt lat="43.71775" lon="4.78389">
        <ele>22.4</ele>
        <time>2022-08-28T07:29:35Z</time>
      </trkpt>
      <trkpt lat="43.71725" lon="4.78354">
        <ele>22</ele>
        <time>2022-08-28T07:29:50Z</time>
      </trkpt>
      <trkpt lat="43.71705" lon="4.78344">
        <ele>22</ele>
        <time>2022-08-28T07:29:55Z</time>
      </trkpt>
      <trkpt lat="43.71692" lon="4.78339">
        <ele>22</ele>
        <time>2022-08-28T07:29:58Z</time>
      </trkpt>
      <trkpt lat="43.71672" lon="4.78328">
        <ele>22</ele>
        <time>2022-08-28T07:30:03Z</time>
      </trkpt>
      <trkpt lat="43.71642" lon="4.78315">
        <ele>21.8</ele>
        <time>2022-08-28T07:30:10Z</time>
      </trkpt>
      <trkpt lat="43.71592" lon="4.78285">
        <ele>20.6</ele>
        <time>2022-08-28T07:30:19Z</time>
      </trkpt>
      <trkpt lat="43.71583" lon="4.78279">
        <ele>20.4</ele>
        <time>2022-08-28T07:30:21Z</time>
      </trkpt>
      <trkpt lat="43.71578" lon="4.78275">
        <ele>20.3</ele>
        <time>2022-08-28T07:30:22Z</time>
      </trkpt>
      <trkpt lat="43.71573" lon="4.78272">
        <ele>20.2</ele>
        <time>2022-08-28T07:30:23Z</time>
      </trkpt>
      <trkpt lat="43.71564" lon="4.78266">
        <ele>20</ele>
        <time>2022-08-28T07:30:25Z</time>
      </trkpt>
      <trkpt lat="43.71535" lon="4.78242">
        <ele>19.5</ele>
        <time>2022-08-28T07:30:31Z</time>
      </trkpt>
      <trkpt lat="43.7153" lon="4.78239">
        <ele>19.4</ele>
        <time>2022-08-28T07:30:32Z</time>
      </trkpt>
      <trkpt lat="43.71526" lon="4.78236">
        <ele>19.4</ele>
        <time>2022-08-28T07:30:33Z</time>
      </trkpt>
      <trkpt lat="43.71518" lon="4.78229">
        <ele>19.3</ele>
        <time>2022-08-28T07:30:35Z</time>
      </trkpt>
      <trkpt lat="43.71505" lon="4.78212">
        <ele>19.1</ele>
        <time>2022-08-28T07:30:38Z</time>
      </trkpt>
      <trkpt lat="43.71501" lon="4.78205">
        <ele>19.1</ele>
        <time>2022-08-28T07:30:39Z</time>
      </trkpt>
      <trkpt lat="43.71469" lon="4.78139">
        <ele>18.7</ele>
        <time>2022-08-28T07:30:50Z</time>
      </trkpt>
      <trkpt lat="43.71447" lon="4.7809">
        <ele>18.5</ele>
        <time>2022-08-28T07:30:59Z</time>
      </trkpt>
      <trkpt lat="43.71434" lon="4.78044">
        <ele>18.3</ele>
        <time>2022-08-28T07:31:06Z</time>
      </trkpt>
      <trkpt lat="43.71432" lon="4.78037">
        <ele>18.3</ele>
        <time>2022-08-28T07:31:07Z</time>
      </trkpt>
      <trkpt lat="43.71422" lon="4.77995">
        <ele>18.2</ele>
        <time>2022-08-28T07:31:13Z</time>
      </trkpt>
      <trkpt lat="43.7142" lon="4.77982">
        <ele>18.2</ele>
        <time>2022-08-28T07:31:15Z</time>
      </trkpt>
      <trkpt lat="43.71414" lon="4.77962">
        <ele>18</ele>
        <time>2022-08-28T07:31:18Z</time>
      </trkpt>
      <trkpt lat="43.71383" lon="4.77893">
        <ele>17.5</ele>
        <time>2022-08-28T07:31:29Z</time>
      </trkpt>
      <trkpt lat="43.71374" lon="4.77873">
        <ele>17.4</ele>
        <time>2022-08-28T07:31:32Z</time>
      </trkpt>
      <trkpt lat="43.71364" lon="4.77853">
        <ele>17.4</ele>
        <time>2022-08-28T07:31:35Z</time>
      </trkpt>
      <trkpt lat="43.71331" lon="4.77792">
        <ele>17.5</ele>
        <time>2022-08-28T07:31:45Z</time>
      </trkpt>
      <trkpt lat="43.71295" lon="4.77749">
        <ele>17.6</ele>
        <time>2022-08-28T07:31:54Z</time>
      </trkpt>
      <trkpt lat="43.71291" lon="4.77745">
        <ele>17.6</ele>
        <time>2022-08-28T07:31:55Z</time>
      </trkpt>
      <trkpt lat="43.71287" lon="4.7774">
        <ele>17.6</ele>
        <time>2022-08-28T07:31:56Z</time>
      </trkpt>
      <trkpt lat="43.71283" lon="4.77736">
        <ele>17.6</ele>
        <time>2022-08-28T07:31:57Z</time>
      </trkpt>
      <trkpt lat="43.71275" lon="4.77728">
        <ele>17.6</ele>
        <time>2022-08-28T07:31:59Z</time>
      </trkpt>
      <trkpt lat="43.71268" lon="4.7772">
        <ele>17.6</ele>
        <time>2022-08-28T07:32:01Z</time>
      </trkpt>
      <trkpt lat="43.71264" lon="4.77715">
        <ele>17.6</ele>
        <time>2022-08-28T07:32:02Z</time>
      </trkpt>
      <trkpt lat="43.71256" lon="4.77705">
        <ele>17.6</ele>
        <time>2022-08-28T07:32:04Z</time>
      </trkpt>
      <trkpt lat="43.71253" lon="4.777">
        <ele>17.6</ele>
        <time>2022-08-28T07:32:05Z</time>
      </trkpt>
      <trkpt lat="43.71242" lon="4.77684">
        <ele>17.7</ele>
        <time>2022-08-28T07:32:08Z</time>
      </trkpt>
      <trkpt lat="43.71227" lon="4.7766">
        <ele>17.7</ele>
        <time>2022-08-28T07:32:12Z</time>
      </trkpt>
      <trkpt lat="43.71185" lon="4.77608">
        <ele>17.6</ele>
        <time>2022-08-28T07:32:22Z</time>
      </trkpt>
      <trkpt lat="43.71147" lon="4.77573">
        <ele>17.4</ele>
        <time>2022-08-28T07:32:30Z</time>
      </trkpt>
      <trkpt lat="43.71138" lon="4.77562">
        <ele>17.3</ele>
        <time>2022-08-28T07:32:32Z</time>
      </trkpt>
      <trkpt lat="43.7113" lon="4.77551">
        <ele>17.2</ele>
        <time>2022-08-28T07:32:34Z</time>
      </trkpt>
      <trkpt lat="43.71114" lon="4.77527">
        <ele>16.9</ele>
        <time>2022-08-28T07:32:38Z</time>
      </trkpt>
      <trkpt lat="43.71079" lon="4.77459">
        <ele>16.1</ele>
        <time>2022-08-28T07:32:48Z</time>
      </trkpt>
      <trkpt lat="43.71049" lon="4.77389">
        <ele>15.6</ele>
        <time>2022-08-28T07:32:57Z</time>
      </trkpt>
      <trkpt lat="43.71044" lon="4.77372">
        <ele>15.5</ele>
        <time>2022-08-28T07:32:59Z</time>
      </trkpt>
      <trkpt lat="43.71038" lon="4.77296">
        <ele>15.3</ele>
        <time>2022-08-28T07:33:08Z</time>
      </trkpt>
      <trkpt lat="43.71038" lon="4.77219">
        <ele>15.4</ele>
        <time>2022-08-28T07:33:18Z</time>
      </trkpt>
      <trkpt lat="43.71032" lon="4.77142">
        <ele>15.4</ele>
        <time>2022-08-28T07:33:29Z</time>
      </trkpt>
      <trkpt lat="43.71023" lon="4.77063">
        <ele>15</ele>
        <time>2022-08-28T07:33:40Z</time>
      </trkpt>
      <trkpt lat="43.71018" lon="4.77026">
        <ele>14.8</ele>
        <time>2022-08-28T07:33:45Z</time>
      </trkpt>
      <trkpt lat="43.71007" lon="4.76952">
        <ele>14.5</ele>
        <time>2022-08-28T07:33:55Z</time>
      </trkpt>
      <trkpt lat="43.70996" lon="4.76913">
        <ele>14.3</ele>
        <time>2022-08-28T07:34:01Z</time>
      </trkpt>
      <trkpt lat="43.70978" lon="4.76876">
        <ele>13.9</ele>
        <time>2022-08-28T07:34:07Z</time>
      </trkpt>
      <trkpt lat="43.70966" lon="4.76849">
        <ele>13.7</ele>
        <time>2022-08-28T07:34:11Z</time>
      </trkpt>
      <trkpt lat="43.7096" lon="4.76826">
        <ele>13.6</ele>
        <time>2022-08-28T07:34:14Z</time>
      </trkpt>
      <trkpt lat="43.70952" lon="4.76799">
        <ele>13.5</ele>
        <time>2022-08-28T07:34:18Z</time>
      </trkpt>
      <trkpt lat="43.70946" lon="4.76777">
        <ele>13.5</ele>
        <time>2022-08-28T07:34:21Z</time>
      </trkpt>
      <trkpt lat="43.70938" lon="4.76748">
        <ele>13.3</ele>
        <time>2022-08-28T07:34:25Z</time>
      </trkpt>
      <trkpt lat="43.70934" lon="4.76733">
        <ele>13.3</ele>
        <time>2022-08-28T07:34:27Z</time>
      </trkpt>
      <trkpt lat="43.70911" lon="4.76659">
        <ele>13.1</ele>
        <time>2022-08-28T07:34:37Z</time>
      </trkpt>
      <trkpt lat="43.70909" lon="4.76651">
        <ele>13.1</ele>
        <time>2022-08-28T07:34:38Z</time>
      </trkpt>
      <trkpt lat="43.70903" lon="4.7663">
        <ele>13.1</ele>
        <time>2022-08-28T07:34:41Z</time>
      </trkpt>
      <trkpt lat="43.70898" lon="4.7661">
        <ele>13</ele>
        <time>2022-08-28T07:34:44Z</time>
      </trkpt>
      <trkpt lat="43.7089" lon="4.76543">
        <ele>12.7</ele>
        <time>2022-08-28T07:34:53Z</time>
      </trkpt>
      <trkpt lat="43.70889" lon="4.76507">
        <ele>12.7</ele>
        <time>2022-08-28T07:34:58Z</time>
      </trkpt>
      <trkpt lat="43.70888" lon="4.765">
        <ele>12.7</ele>
        <time>2022-08-28T07:34:59Z</time>
      </trkpt>
      <trkpt lat="43.70887" lon="4.76492">
        <ele>12.7</ele>
        <time>2022-08-28T07:35:00Z</time>
      </trkpt>
      <trkpt lat="43.70887" lon="4.76485">
        <ele>12.7</ele>
        <time>2022-08-28T07:35:01Z</time>
      </trkpt>
      <trkpt lat="43.7088" lon="4.76423">
        <ele>12.8</ele>
        <time>2022-08-28T07:35:10Z</time>
      </trkpt>
      <trkpt lat="43.70874" lon="4.76356">
        <ele>13</ele>
        <time>2022-08-28T07:35:20Z</time>
      </trkpt>
      <trkpt lat="43.70872" lon="4.76344">
        <ele>13.1</ele>
        <time>2022-08-28T07:35:22Z</time>
      </trkpt>
      <trkpt lat="43.7087" lon="4.76332">
        <ele>13.1</ele>
        <time>2022-08-28T07:35:24Z</time>
      </trkpt>
      <trkpt lat="43.70868" lon="4.76319">
        <ele>13.2</ele>
        <time>2022-08-28T07:35:26Z</time>
      </trkpt>
      <trkpt lat="43.70868" lon="4.76305">
        <ele>13.3</ele>
        <time>2022-08-28T07:35:28Z</time>
      </trkpt>
      <trkpt lat="43.70868" lon="4.76299">
        <ele>13.3</ele>
        <time>2022-08-28T07:35:29Z</time>
      </trkpt>
      <trkpt lat="43.70868" lon="4.76235">
        <ele>13.6</ele>
        <time>2022-08-28T07:35:39Z</time>
      </trkpt>
      <trkpt lat="43.70867" lon="4.76218">
        <ele>13.8</ele>
        <time>2022-08-28T07:35:42Z</time>
      </trkpt>
      <trkpt lat="43.70866" lon="4.76213">
        <ele>13.8</ele>
        <time>2022-08-28T07:35:43Z</time>
      </trkpt>
      <trkpt lat="43.70865" lon="4.76207">
        <ele>13.9</ele>
        <time>2022-08-28T07:35:44Z</time>
      </trkpt>
      <trkpt lat="43.70863" lon="4.76197">
        <ele>14</ele>
        <time>2022-08-28T07:35:46Z</time>
      </trkpt>
      <trkpt lat="43.70855" lon="4.76144">
        <ele>14.6</ele>
        <time>2022-08-28T07:35:56Z</time>
      </trkpt>
      <trkpt lat="43.70852" lon="4.76129">
        <ele>14.9</ele>
        <time>2022-08-28T07:35:59Z</time>
      </trkpt>
      <trkpt lat="43.70851" lon="4.76123">
        <ele>15</ele>
        <time>2022-08-28T07:36:00Z</time>
      </trkpt>
      <trkpt lat="43.70831" lon="4.76049">
        <ele>15.9</ele>
        <time>2022-08-28T07:36:15Z</time>
      </trkpt>
      <trkpt lat="43.7082" lon="4.75982">
        <ele>16.6</ele>
        <time>2022-08-28T07:36:29Z</time>
      </trkpt>
      <trkpt lat="43.70813" lon="4.75933">
        <ele>16.3</ele>
        <time>2022-08-28T07:36:37Z</time>
      </trkpt>
      <trkpt lat="43.70808" lon="4.75908">
        <ele>16.1</ele>
        <time>2022-08-28T07:36:41Z</time>
      </trkpt>
      <trkpt lat="43.70785" lon="4.7584">
        <ele>15.5</ele>
        <time>2022-08-28T07:36:52Z</time>
      </trkpt>
      <trkpt lat="43.70759" lon="4.75776">
        <ele>14.8</ele>
        <time>2022-08-28T07:37:02Z</time>
      </trkpt>
      <trkpt lat="43.70757" lon="4.7577">
        <ele>14.7</ele>
        <time>2022-08-28T07:37:03Z</time>
      </trkpt>
      <trkpt lat="43.70755" lon="4.75764">
        <ele>14.6</ele>
        <time>2022-08-28T07:37:04Z</time>
      </trkpt>
      <trkpt lat="43.70747" lon="4.75745">
        <ele>14.4</ele>
        <time>2022-08-28T07:37:07Z</time>
      </trkpt>
      <trkpt lat="43.70744" lon="4.75738">
        <ele>14.3</ele>
        <time>2022-08-28T07:37:08Z</time>
      </trkpt>
      <trkpt lat="43.70741" lon="4.75731">
        <ele>14.2</ele>
        <time>2022-08-28T07:37:09Z</time>
      </trkpt>
      <trkpt lat="43.70739" lon="4.75725">
        <ele>14.1</ele>
        <time>2022-08-28T07:37:10Z</time>
      </trkpt>
      <trkpt lat="43.70734" lon="4.75711">
        <ele>13.9</ele>
        <time>2022-08-28T07:37:12Z</time>
      </trkpt>
      <trkpt lat="43.70729" lon="4.75697">
        <ele>13.8</ele>
        <time>2022-08-28T07:37:14Z</time>
      </trkpt>
      <trkpt lat="43.70727" lon="4.7569">
        <ele>13.7</ele>
        <time>2022-08-28T07:37:15Z</time>
      </trkpt>
      <trkpt lat="43.70725" lon="4.75683">
        <ele>13.6</ele>
        <time>2022-08-28T07:37:16Z</time>
      </trkpt>
      <trkpt lat="43.7072" lon="4.7567">
        <ele>13.6</ele>
        <time>2022-08-28T07:37:18Z</time>
      </trkpt>
      <trkpt lat="43.70706" lon="4.75622">
        <ele>13.4</ele>
        <time>2022-08-28T07:37:25Z</time>
      </trkpt>
      <trkpt lat="43.707" lon="4.75603">
        <ele>13.5</ele>
        <time>2022-08-28T07:37:28Z</time>
      </trkpt>
      <trkpt lat="43.70696" lon="4.7559">
        <ele>13.6</ele>
        <time>2022-08-28T07:37:30Z</time>
      </trkpt>
      <trkpt lat="43.70691" lon="4.7557">
        <ele>14</ele>
        <time>2022-08-28T07:37:33Z</time>
      </trkpt>
      <trkpt lat="43.70692" lon="4.75556">
        <ele>14.3</ele>
        <time>2022-08-28T07:37:35Z</time>
      </trkpt>
      <trkpt lat="43.70696" lon="4.75546">
        <ele>14.5</ele>
        <time>2022-08-28T07:37:37Z</time>
      </trkpt>
      <trkpt lat="43.70726" lon="4.75527">
        <ele>15.6</ele>
        <time>2022-08-28T07:37:48Z</time>
      </trkpt>
      <trkpt lat="43.70745" lon="4.75516">
        <ele>16.5</ele>
        <time>2022-08-28T07:37:56Z</time>
      </trkpt>
      <trkpt lat="43.70757" lon="4.75507">
        <ele>17.1</ele>
        <time>2022-08-28T07:38:00Z</time>
      </trkpt>
      <trkpt lat="43.7076" lon="4.75505">
        <ele>17.3</ele>
        <time>2022-08-28T07:38:01Z</time>
      </trkpt>
      <trkpt lat="43.70763" lon="4.75503">
        <ele>17.5</ele>
        <time>2022-08-28T07:38:02Z</time>
      </trkpt>
      <trkpt lat="43.70766" lon="4.75501">
        <ele>17.6</ele>
        <time>2022-08-28T07:38:03Z</time>
      </trkpt>
      <trkpt lat="43.70771" lon="4.75497">
        <ele>17.9</ele>
        <time>2022-08-28T07:38:05Z</time>
      </trkpt>
      <trkpt lat="43.70774" lon="4.75495">
        <ele>18.1</ele>
        <time>2022-08-28T07:38:06Z</time>
      </trkpt>
      <trkpt lat="43.70779" lon="4.75492">
        <ele>18.4</ele>
        <time>2022-08-28T07:38:08Z</time>
      </trkpt>
      <trkpt lat="43.70794" lon="4.75483">
        <ele>19.2</ele>
        <time>2022-08-28T07:38:14Z</time>
      </trkpt>
      <trkpt lat="43.70796" lon="4.75483">
        <ele>19.3</ele>
        <time>2022-08-28T07:38:15Z</time>
      </trkpt>
      <trkpt lat="43.70798" lon="4.75482">
        <ele>19.4</ele>
        <time>2022-08-28T07:38:16Z</time>
      </trkpt>
      <trkpt lat="43.708" lon="4.75481">
        <ele>19.6</ele>
        <time>2022-08-28T07:38:17Z</time>
      </trkpt>
      <trkpt lat="43.70803" lon="4.7548">
        <ele>19.7</ele>
        <time>2022-08-28T07:38:18Z</time>
      </trkpt>
      <trkpt lat="43.70821" lon="4.7547">
        <ele>20.7</ele>
        <time>2022-08-28T07:38:26Z</time>
      </trkpt>
      <trkpt lat="43.70824" lon="4.75469">
        <ele>20.9</ele>
        <time>2022-08-28T07:38:27Z</time>
      </trkpt>
      <trkpt lat="43.70826" lon="4.75468">
        <ele>21</ele>
        <time>2022-08-28T07:38:28Z</time>
      </trkpt>
      <trkpt lat="43.7088" lon="4.75446">
        <ele>23.5</ele>
        <time>2022-08-28T07:38:48Z</time>
      </trkpt>
      <trkpt lat="43.70889" lon="4.7544">
        <ele>24</ele>
        <time>2022-08-28T07:38:52Z</time>
      </trkpt>
      <trkpt lat="43.70899" lon="4.75435">
        <ele>24.6</ele>
        <time>2022-08-28T07:38:56Z</time>
      </trkpt>
      <trkpt lat="43.70922" lon="4.75423">
        <ele>26</ele>
        <time>2022-08-28T07:39:06Z</time>
      </trkpt>
      <trkpt lat="43.70925" lon="4.75421">
        <ele>26.2</ele>
        <time>2022-08-28T07:39:07Z</time>
      </trkpt>
      <trkpt lat="43.70927" lon="4.75419">
        <ele>26.3</ele>
        <time>2022-08-28T07:39:08Z</time>
      </trkpt>
      <trkpt lat="43.70918" lon="4.75363">
        <ele>26.2</ele>
        <time>2022-08-28T07:39:23Z</time>
      </trkpt>
      <trkpt lat="43.709" lon="4.75295">
        <ele>25.9</ele>
        <time>2022-08-28T07:39:36Z</time>
      </trkpt>
      <trkpt lat="43.70896" lon="4.75277">
        <ele>26</ele>
        <time>2022-08-28T07:39:40Z</time>
      </trkpt>
      <trkpt lat="43.70892" lon="4.75263">
        <ele>26</ele>
        <time>2022-08-28T07:39:43Z</time>
      </trkpt>
      <trkpt lat="43.70886" lon="4.75246">
        <ele>25.9</ele>
        <time>2022-08-28T07:39:46Z</time>
      </trkpt>
      <trkpt lat="43.70884" lon="4.75238">
        <ele>25.9</ele>
        <time>2022-08-28T07:39:47Z</time>
      </trkpt>
      <trkpt lat="43.70882" lon="4.75231">
        <ele>25.8</ele>
        <time>2022-08-28T07:39:48Z</time>
      </trkpt>
      <trkpt lat="43.70875" lon="4.75206">
        <ele>25.3</ele>
        <time>2022-08-28T07:39:51Z</time>
      </trkpt>
      <trkpt lat="43.70866" lon="4.7517">
        <ele>24.7</ele>
        <time>2022-08-28T07:39:55Z</time>
      </trkpt>
      <trkpt lat="43.70863" lon="4.75162">
        <ele>24.6</ele>
        <time>2022-08-28T07:39:56Z</time>
      </trkpt>
      <trkpt lat="43.70857" lon="4.75146">
        <ele>24.3</ele>
        <time>2022-08-28T07:39:58Z</time>
      </trkpt>
      <trkpt lat="43.70848" lon="4.75122">
        <ele>24</ele>
        <time>2022-08-28T07:40:01Z</time>
      </trkpt>
      <trkpt lat="43.70842" lon="4.75106">
        <ele>23.8</ele>
        <time>2022-08-28T07:40:03Z</time>
      </trkpt>
      <trkpt lat="43.7084" lon="4.75098">
        <ele>23.7</ele>
        <time>2022-08-28T07:40:04Z</time>
      </trkpt>
      <trkpt lat="43.70825" lon="4.75064">
        <ele>23.3</ele>
        <time>2022-08-28T07:40:09Z</time>
      </trkpt>
      <trkpt lat="43.70822" lon="4.75057">
        <ele>23.3</ele>
        <time>2022-08-28T07:40:10Z</time>
      </trkpt>
      <trkpt lat="43.708" lon="4.74988">
        <ele>23</ele>
        <time>2022-08-28T07:40:19Z</time>
      </trkpt>
      <trkpt lat="43.70786" lon="4.74952">
        <ele>22.8</ele>
        <time>2022-08-28T07:40:25Z</time>
      </trkpt>
      <trkpt lat="43.70776" lon="4.74928">
        <ele>22.6</ele>
        <time>2022-08-28T07:40:29Z</time>
      </trkpt>
      <trkpt lat="43.70761" lon="4.74896">
        <ele>22.5</ele>
        <time>2022-08-28T07:40:34Z</time>
      </trkpt>
      <trkpt lat="43.70752" lon="4.74871">
        <ele>22.6</ele>
        <time>2022-08-28T07:40:38Z</time>
      </trkpt>
      <trkpt lat="43.70745" lon="4.74847">
        <ele>22.7</ele>
        <time>2022-08-28T07:40:42Z</time>
      </trkpt>
      <trkpt lat="43.7074" lon="4.74815">
        <ele>22.8</ele>
        <time>2022-08-28T07:40:48Z</time>
      </trkpt>
      <trkpt lat="43.70736" lon="4.74794">
        <ele>22.9</ele>
        <time>2022-08-28T07:40:52Z</time>
      </trkpt>
      <trkpt lat="43.70735" lon="4.74776">
        <ele>23</ele>
        <time>2022-08-28T07:40:55Z</time>
      </trkpt>
      <trkpt lat="43.70734" lon="4.7477">
        <ele>23</ele>
        <time>2022-08-28T07:40:56Z</time>
      </trkpt>
      <trkpt lat="43.70734" lon="4.74763">
        <ele>23.1</ele>
        <time>2022-08-28T07:40:57Z</time>
      </trkpt>
      <trkpt lat="43.70733" lon="4.74757">
        <ele>23.1</ele>
        <time>2022-08-28T07:40:58Z</time>
      </trkpt>
      <trkpt lat="43.70731" lon="4.74742">
        <ele>23.2</ele>
        <time>2022-08-28T07:41:00Z</time>
      </trkpt>
      <trkpt lat="43.70729" lon="4.74729">
        <ele>23.4</ele>
        <time>2022-08-28T07:41:02Z</time>
      </trkpt>
      <trkpt lat="43.70727" lon="4.74691">
        <ele>23.6</ele>
        <time>2022-08-28T07:41:09Z</time>
      </trkpt>
      <trkpt lat="43.70727" lon="4.74667">
        <ele>23.6</ele>
        <time>2022-08-28T07:41:13Z</time>
      </trkpt>
      <trkpt lat="43.70725" lon="4.74644">
        <ele>23.7</ele>
        <time>2022-08-28T07:41:17Z</time>
      </trkpt>
      <trkpt lat="43.70722" lon="4.74626">
        <ele>23.6</ele>
        <time>2022-08-28T07:41:20Z</time>
      </trkpt>
      <trkpt lat="43.70719" lon="4.74606">
        <ele>23.5</ele>
        <time>2022-08-28T07:41:23Z</time>
      </trkpt>
      <trkpt lat="43.70712" lon="4.7458">
        <ele>23.4</ele>
        <time>2022-08-28T07:41:27Z</time>
      </trkpt>
      <trkpt lat="43.70706" lon="4.74562">
        <ele>23.4</ele>
        <time>2022-08-28T07:41:30Z</time>
      </trkpt>
      <trkpt lat="43.70683" lon="4.74493">
        <ele>23</ele>
        <time>2022-08-28T07:41:40Z</time>
      </trkpt>
      <trkpt lat="43.70676" lon="4.74473">
        <ele>23</ele>
        <time>2022-08-28T07:41:43Z</time>
      </trkpt>
      <trkpt lat="43.70673" lon="4.74467">
        <ele>23</ele>
        <time>2022-08-28T07:41:44Z</time>
      </trkpt>
      <trkpt lat="43.70671" lon="4.74461">
        <ele>22.9</ele>
        <time>2022-08-28T07:41:45Z</time>
      </trkpt>
      <trkpt lat="43.70669" lon="4.74455">
        <ele>22.9</ele>
        <time>2022-08-28T07:41:46Z</time>
      </trkpt>
      <trkpt lat="43.70667" lon="4.74447">
        <ele>22.9</ele>
        <time>2022-08-28T07:41:47Z</time>
      </trkpt>
      <trkpt lat="43.70663" lon="4.74431">
        <ele>22.9</ele>
        <time>2022-08-28T07:41:49Z</time>
      </trkpt>
      <trkpt lat="43.70661" lon="4.74423">
        <ele>22.9</ele>
        <time>2022-08-28T07:41:50Z</time>
      </trkpt>
      <trkpt lat="43.70657" lon="4.744">
        <ele>22.9</ele>
        <time>2022-08-28T07:41:53Z</time>
      </trkpt>
      <trkpt lat="43.70652" lon="4.7437">
        <ele>23.1</ele>
        <time>2022-08-28T07:41:58Z</time>
      </trkpt>
      <trkpt lat="43.7065" lon="4.74344">
        <ele>23.3</ele>
        <time>2022-08-28T07:42:02Z</time>
      </trkpt>
      <trkpt lat="43.70649" lon="4.74338">
        <ele>23.3</ele>
        <time>2022-08-28T07:42:03Z</time>
      </trkpt>
      <trkpt lat="43.70648" lon="4.74317">
        <ele>23.3</ele>
        <time>2022-08-28T07:42:06Z</time>
      </trkpt>
      <trkpt lat="43.70645" lon="4.74291">
        <ele>23.2</ele>
        <time>2022-08-28T07:42:10Z</time>
      </trkpt>
      <trkpt lat="43.70644" lon="4.74285">
        <ele>23.2</ele>
        <time>2022-08-28T07:42:11Z</time>
      </trkpt>
      <trkpt lat="43.70634" lon="4.74221">
        <ele>23.3</ele>
        <time>2022-08-28T07:42:22Z</time>
      </trkpt>
      <trkpt lat="43.70628" lon="4.74191">
        <ele>23.4</ele>
        <time>2022-08-28T07:42:27Z</time>
      </trkpt>
      <trkpt lat="43.70625" lon="4.74168">
        <ele>23.5</ele>
        <time>2022-08-28T07:42:31Z</time>
      </trkpt>
      <trkpt lat="43.70624" lon="4.74151">
        <ele>23.5</ele>
        <time>2022-08-28T07:42:34Z</time>
      </trkpt>
      <trkpt lat="43.70622" lon="4.74128">
        <ele>23.7</ele>
        <time>2022-08-28T07:42:38Z</time>
      </trkpt>
      <trkpt lat="43.7062" lon="4.7405">
        <ele>24.6</ele>
        <time>2022-08-28T07:42:52Z</time>
      </trkpt>
      <trkpt lat="43.70618" lon="4.74008">
        <ele>24.9</ele>
        <time>2022-08-28T07:42:59Z</time>
      </trkpt>
      <trkpt lat="43.70618" lon="4.74">
        <ele>24.9</ele>
        <time>2022-08-28T07:43:00Z</time>
      </trkpt>
      <trkpt lat="43.70616" lon="4.73965">
        <ele>25.2</ele>
        <time>2022-08-28T07:43:05Z</time>
      </trkpt>
      <trkpt lat="43.70615" lon="4.73952">
        <ele>25.2</ele>
        <time>2022-08-28T07:43:07Z</time>
      </trkpt>
      <trkpt lat="43.70611" lon="4.73916">
        <ele>25.3</ele>
        <time>2022-08-28T07:43:12Z</time>
      </trkpt>
      <trkpt lat="43.7061" lon="4.7391">
        <ele>25.3</ele>
        <time>2022-08-28T07:43:13Z</time>
      </trkpt>
      <trkpt lat="43.70608" lon="4.73878">
        <ele>25.1</ele>
        <time>2022-08-28T07:43:18Z</time>
      </trkpt>
      <trkpt lat="43.70608" lon="4.73872">
        <ele>25.1</ele>
        <time>2022-08-28T07:43:19Z</time>
      </trkpt>
      <trkpt lat="43.70606" lon="4.7385">
        <ele>25.2</ele>
        <time>2022-08-28T07:43:22Z</time>
      </trkpt>
      <trkpt lat="43.70606" lon="4.7382">
        <ele>25.2</ele>
        <time>2022-08-28T07:43:26Z</time>
      </trkpt>
      <trkpt lat="43.70605" lon="4.7376">
        <ele>25.3</ele>
        <time>2022-08-28T07:43:34Z</time>
      </trkpt>
      <trkpt lat="43.70605" lon="4.73753">
        <ele>25.3</ele>
        <time>2022-08-28T07:43:35Z</time>
      </trkpt>
      <trkpt lat="43.70604" lon="4.73747">
        <ele>25.4</ele>
        <time>2022-08-28T07:43:36Z</time>
      </trkpt>
      <trkpt lat="43.70604" lon="4.73739">
        <ele>25.4</ele>
        <time>2022-08-28T07:43:37Z</time>
      </trkpt>
      <trkpt lat="43.70604" lon="4.73731">
        <ele>25.4</ele>
        <time>2022-08-28T07:43:38Z</time>
      </trkpt>
      <trkpt lat="43.70604" lon="4.73724">
        <ele>25.4</ele>
        <time>2022-08-28T07:43:39Z</time>
      </trkpt>
      <trkpt lat="43.70603" lon="4.73686">
        <ele>25.6</ele>
        <time>2022-08-28T07:43:45Z</time>
      </trkpt>
      <trkpt lat="43.70598" lon="4.73605">
        <ele>25.2</ele>
        <time>2022-08-28T07:43:56Z</time>
      </trkpt>
      <trkpt lat="43.70593" lon="4.73548">
        <ele>24.6</ele>
        <time>2022-08-28T07:44:03Z</time>
      </trkpt>
      <trkpt lat="43.70591" lon="4.73521">
        <ele>24.3</ele>
        <time>2022-08-28T07:44:06Z</time>
      </trkpt>
      <trkpt lat="43.7059" lon="4.73512">
        <ele>24.2</ele>
        <time>2022-08-28T07:44:07Z</time>
      </trkpt>
      <trkpt lat="43.70588" lon="4.73494">
        <ele>24</ele>
        <time>2022-08-28T07:44:09Z</time>
      </trkpt>
      <trkpt lat="43.70577" lon="4.73417">
        <ele>23.3</ele>
        <time>2022-08-28T07:44:17Z</time>
      </trkpt>
      <trkpt lat="43.70571" lon="4.73373">
        <ele>23</ele>
        <time>2022-08-28T07:44:22Z</time>
      </trkpt>
      <trkpt lat="43.70564" lon="4.73337">
        <ele>23</ele>
        <time>2022-08-28T07:44:26Z</time>
      </trkpt>
      <trkpt lat="43.70561" lon="4.73289">
        <ele>23</ele>
        <time>2022-08-28T07:44:32Z</time>
      </trkpt>
      <trkpt lat="43.70558" lon="4.73252">
        <ele>23</ele>
        <time>2022-08-28T07:44:37Z</time>
      </trkpt>
      <trkpt lat="43.70556" lon="4.73237">
        <ele>22.9</ele>
        <time>2022-08-28T07:44:39Z</time>
      </trkpt>
      <trkpt lat="43.7055" lon="4.73175">
        <ele>22.5</ele>
        <time>2022-08-28T07:44:47Z</time>
      </trkpt>
      <trkpt lat="43.70544" lon="4.73098">
        <ele>22.2</ele>
        <time>2022-08-28T07:44:57Z</time>
      </trkpt>
      <trkpt lat="43.70534" lon="4.73025">
        <ele>22.3</ele>
        <time>2022-08-28T07:45:06Z</time>
      </trkpt>
      <trkpt lat="43.70528" lon="4.72953">
        <ele>22.4</ele>
        <time>2022-08-28T07:45:16Z</time>
      </trkpt>
      <trkpt lat="43.70525" lon="4.72927">
        <ele>22.5</ele>
        <time>2022-08-28T07:45:20Z</time>
      </trkpt>
      <trkpt lat="43.70519" lon="4.72876">
        <ele>22.5</ele>
        <time>2022-08-28T07:45:27Z</time>
      </trkpt>
      <trkpt lat="43.70518" lon="4.72868">
        <ele>22.5</ele>
        <time>2022-08-28T07:45:28Z</time>
      </trkpt>
      <trkpt lat="43.70517" lon="4.72861">
        <ele>22.5</ele>
        <time>2022-08-28T07:45:29Z</time>
      </trkpt>
      <trkpt lat="43.70516" lon="4.72853">
        <ele>22.5</ele>
        <time>2022-08-28T07:45:30Z</time>
      </trkpt>
      <trkpt lat="43.70516" lon="4.72839">
        <ele>22.5</ele>
        <time>2022-08-28T07:45:32Z</time>
      </trkpt>
      <trkpt lat="43.70515" lon="4.72832">
        <ele>22.5</ele>
        <time>2022-08-28T07:45:33Z</time>
      </trkpt>
      <trkpt lat="43.70514" lon="4.72811">
        <ele>22.5</ele>
        <time>2022-08-28T07:45:36Z</time>
      </trkpt>
      <trkpt lat="43.70512" lon="4.72797">
        <ele>22.5</ele>
        <time>2022-08-28T07:45:38Z</time>
      </trkpt>
      <trkpt lat="43.70512" lon="4.72789">
        <ele>22.4</ele>
        <time>2022-08-28T07:45:39Z</time>
      </trkpt>
      <trkpt lat="43.70511" lon="4.72782">
        <ele>22.4</ele>
        <time>2022-08-28T07:45:40Z</time>
      </trkpt>
      <trkpt lat="43.70507" lon="4.72706">
        <ele>22.4</ele>
        <time>2022-08-28T07:45:52Z</time>
      </trkpt>
      <trkpt lat="43.70504" lon="4.72672">
        <ele>22.4</ele>
        <time>2022-08-28T07:45:57Z</time>
      </trkpt>
      <trkpt lat="43.70501" lon="4.72625">
        <ele>22.8</ele>
        <time>2022-08-28T07:46:04Z</time>
      </trkpt>
      <trkpt lat="43.705" lon="4.72588">
        <ele>23.2</ele>
        <time>2022-08-28T07:46:10Z</time>
      </trkpt>
      <trkpt lat="43.705" lon="4.72539">
        <ele>23.5</ele>
        <time>2022-08-28T07:46:18Z</time>
      </trkpt>
      <trkpt lat="43.70499" lon="4.72514">
        <ele>23.5</ele>
        <time>2022-08-28T07:46:22Z</time>
      </trkpt>
      <trkpt lat="43.70498" lon="4.72501">
        <ele>23.6</ele>
        <time>2022-08-28T07:46:24Z</time>
      </trkpt>
      <trkpt lat="43.70498" lon="4.72494">
        <ele>23.6</ele>
        <time>2022-08-28T07:46:25Z</time>
      </trkpt>
      <trkpt lat="43.70497" lon="4.72482">
        <ele>23.6</ele>
        <time>2022-08-28T07:46:27Z</time>
      </trkpt>
      <trkpt lat="43.70497" lon="4.72476">
        <ele>23.6</ele>
        <time>2022-08-28T07:46:28Z</time>
      </trkpt>
      <trkpt lat="43.70496" lon="4.7247">
        <ele>23.6</ele>
        <time>2022-08-28T07:46:29Z</time>
      </trkpt>
      <trkpt lat="43.70496" lon="4.72464">
        <ele>23.5</ele>
        <time>2022-08-28T07:46:30Z</time>
      </trkpt>
      <trkpt lat="43.70495" lon="4.72458">
        <ele>23.5</ele>
        <time>2022-08-28T07:46:31Z</time>
      </trkpt>
      <trkpt lat="43.70492" lon="4.72439">
        <ele>23.5</ele>
        <time>2022-08-28T07:46:34Z</time>
      </trkpt>
      <trkpt lat="43.70489" lon="4.72425">
        <ele>23.4</ele>
        <time>2022-08-28T07:46:36Z</time>
      </trkpt>
      <trkpt lat="43.70487" lon="4.72419">
        <ele>23.4</ele>
        <time>2022-08-28T07:46:37Z</time>
      </trkpt>
      <trkpt lat="43.70484" lon="4.72363">
        <ele>23.2</ele>
        <time>2022-08-28T07:46:44Z</time>
      </trkpt>
      <trkpt lat="43.70482" lon="4.72341">
        <ele>23.1</ele>
        <time>2022-08-28T07:46:47Z</time>
      </trkpt>
      <trkpt lat="43.70482" lon="4.72334">
        <ele>23.1</ele>
        <time>2022-08-28T07:46:48Z</time>
      </trkpt>
      <trkpt lat="43.70482" lon="4.72327">
        <ele>23</ele>
        <time>2022-08-28T07:46:49Z</time>
      </trkpt>
      <trkpt lat="43.70482" lon="4.72319">
        <ele>23</ele>
        <time>2022-08-28T07:46:50Z</time>
      </trkpt>
      <trkpt lat="43.70482" lon="4.72303">
        <ele>22.9</ele>
        <time>2022-08-28T07:46:52Z</time>
      </trkpt>
      <trkpt lat="43.70482" lon="4.72264">
        <ele>22.8</ele>
        <time>2022-08-28T07:46:57Z</time>
      </trkpt>
      <trkpt lat="43.70481" lon="4.7224">
        <ele>22.7</ele>
        <time>2022-08-28T07:47:00Z</time>
      </trkpt>
      <trkpt lat="43.70481" lon="4.72224">
        <ele>22.7</ele>
        <time>2022-08-28T07:47:02Z</time>
      </trkpt>
      <trkpt lat="43.7048" lon="4.72194">
        <ele>22.6</ele>
        <time>2022-08-28T07:47:06Z</time>
      </trkpt>
      <trkpt lat="43.70493" lon="4.72125">
        <ele>22.4</ele>
        <time>2022-08-28T07:47:16Z</time>
      </trkpt>
      <trkpt lat="43.705" lon="4.72086">
        <ele>22.1</ele>
        <time>2022-08-28T07:47:21Z</time>
      </trkpt>
      <trkpt lat="43.70515" lon="4.72012">
        <ele>21.5</ele>
        <time>2022-08-28T07:47:30Z</time>
      </trkpt>
      <trkpt lat="43.70527" lon="4.71945">
        <ele>21.1</ele>
        <time>2022-08-28T07:47:38Z</time>
      </trkpt>
      <trkpt lat="43.70532" lon="4.71908">
        <ele>20.9</ele>
        <time>2022-08-28T07:47:43Z</time>
      </trkpt>
      <trkpt lat="43.70538" lon="4.71877">
        <ele>20.7</ele>
        <time>2022-08-28T07:47:47Z</time>
      </trkpt>
      <trkpt lat="43.70544" lon="4.71844">
        <ele>20.5</ele>
        <time>2022-08-28T07:47:51Z</time>
      </trkpt>
      <trkpt lat="43.70548" lon="4.71819">
        <ele>20.3</ele>
        <time>2022-08-28T07:47:54Z</time>
      </trkpt>
      <trkpt lat="43.70549" lon="4.71811">
        <ele>20.2</ele>
        <time>2022-08-28T07:47:55Z</time>
      </trkpt>
      <trkpt lat="43.7055" lon="4.71803">
        <ele>20.1</ele>
        <time>2022-08-28T07:47:56Z</time>
      </trkpt>
      <trkpt lat="43.70551" lon="4.71796">
        <ele>20</ele>
        <time>2022-08-28T07:47:57Z</time>
      </trkpt>
      <trkpt lat="43.70552" lon="4.7179">
        <ele>20</ele>
        <time>2022-08-28T07:47:58Z</time>
      </trkpt>
      <trkpt lat="43.70553" lon="4.7178">
        <ele>19.9</ele>
        <time>2022-08-28T07:48:00Z</time>
      </trkpt>
      <trkpt lat="43.70554" lon="4.71775">
        <ele>19.8</ele>
        <time>2022-08-28T07:48:01Z</time>
      </trkpt>
      <trkpt lat="43.70554" lon="4.71771">
        <ele>19.8</ele>
        <time>2022-08-28T07:48:02Z</time>
      </trkpt>
      <trkpt lat="43.70555" lon="4.71767">
        <ele>19.7</ele>
        <time>2022-08-28T07:48:03Z</time>
      </trkpt>
      <trkpt lat="43.70556" lon="4.71762">
        <ele>19.7</ele>
        <time>2022-08-28T07:48:04Z</time>
      </trkpt>
      <trkpt lat="43.70567" lon="4.71685">
        <ele>18.5</ele>
        <time>2022-08-28T07:48:17Z</time>
      </trkpt>
      <trkpt lat="43.70574" lon="4.71648">
        <ele>18.3</ele>
        <time>2022-08-28T07:48:23Z</time>
      </trkpt>
      <trkpt lat="43.7058" lon="4.71613">
        <ele>18.3</ele>
        <time>2022-08-28T07:48:28Z</time>
      </trkpt>
      <trkpt lat="43.70581" lon="4.71606">
        <ele>18.3</ele>
        <time>2022-08-28T07:48:29Z</time>
      </trkpt>
      <trkpt lat="43.70583" lon="4.71599">
        <ele>18.4</ele>
        <time>2022-08-28T07:48:30Z</time>
      </trkpt>
      <trkpt lat="43.70586" lon="4.71585">
        <ele>18.4</ele>
        <time>2022-08-28T07:48:32Z</time>
      </trkpt>
      <trkpt lat="43.70588" lon="4.71572">
        <ele>18.4</ele>
        <time>2022-08-28T07:48:34Z</time>
      </trkpt>
      <trkpt lat="43.70589" lon="4.71565">
        <ele>18.4</ele>
        <time>2022-08-28T07:48:35Z</time>
      </trkpt>
      <trkpt lat="43.7059" lon="4.71558">
        <ele>18.4</ele>
        <time>2022-08-28T07:48:36Z</time>
      </trkpt>
      <trkpt lat="43.70593" lon="4.71539">
        <ele>18.5</ele>
        <time>2022-08-28T07:48:39Z</time>
      </trkpt>
      <trkpt lat="43.70594" lon="4.7152">
        <ele>18.5</ele>
        <time>2022-08-28T07:48:42Z</time>
      </trkpt>
      <trkpt lat="43.70596" lon="4.71481">
        <ele>18.5</ele>
        <time>2022-08-28T07:48:48Z</time>
      </trkpt>
      <trkpt lat="43.70597" lon="4.7146">
        <ele>18.5</ele>
        <time>2022-08-28T07:48:51Z</time>
      </trkpt>
      <trkpt lat="43.706" lon="4.71384">
        <ele>18.2</ele>
        <time>2022-08-28T07:49:02Z</time>
      </trkpt>
      <trkpt lat="43.70605" lon="4.71306">
        <ele>18.1</ele>
        <time>2022-08-28T07:49:13Z</time>
      </trkpt>
      <trkpt lat="43.70617" lon="4.71241">
        <ele>18.1</ele>
        <time>2022-08-28T07:49:22Z</time>
      </trkpt>
      <trkpt lat="43.70631" lon="4.71165">
        <ele>18.5</ele>
        <time>2022-08-28T07:49:33Z</time>
      </trkpt>
      <trkpt lat="43.70638" lon="4.71124">
        <ele>18.6</ele>
        <time>2022-08-28T07:49:39Z</time>
      </trkpt>
      <trkpt lat="43.70643" lon="4.71089">
        <ele>18.7</ele>
        <time>2022-08-28T07:49:44Z</time>
      </trkpt>
      <trkpt lat="43.70649" lon="4.71054">
        <ele>18.9</ele>
        <time>2022-08-28T07:49:49Z</time>
      </trkpt>
      <trkpt lat="43.70654" lon="4.71015">
        <ele>19</ele>
        <time>2022-08-28T07:49:55Z</time>
      </trkpt>
      <trkpt lat="43.70654" lon="4.71008">
        <ele>19</ele>
        <time>2022-08-28T07:49:56Z</time>
      </trkpt>
      <trkpt lat="43.70653" lon="4.70932">
        <ele>19.1</ele>
        <time>2022-08-28T07:50:07Z</time>
      </trkpt>
      <trkpt lat="43.70654" lon="4.70905">
        <ele>19.2</ele>
        <time>2022-08-28T07:50:11Z</time>
      </trkpt>
      <trkpt lat="43.70655" lon="4.70892">
        <ele>19.2</ele>
        <time>2022-08-28T07:50:13Z</time>
      </trkpt>
      <trkpt lat="43.70657" lon="4.70879">
        <ele>19.3</ele>
        <time>2022-08-28T07:50:15Z</time>
      </trkpt>
      <trkpt lat="43.70659" lon="4.70867">
        <ele>19.4</ele>
        <time>2022-08-28T07:50:17Z</time>
      </trkpt>
      <trkpt lat="43.70666" lon="4.7084">
        <ele>19.7</ele>
        <time>2022-08-28T07:50:22Z</time>
      </trkpt>
      <trkpt lat="43.70671" lon="4.7082">
        <ele>19.9</ele>
        <time>2022-08-28T07:50:26Z</time>
      </trkpt>
      <trkpt lat="43.70675" lon="4.7081">
        <ele>20.1</ele>
        <time>2022-08-28T07:50:28Z</time>
      </trkpt>
      <trkpt lat="43.70677" lon="4.70804">
        <ele>20.1</ele>
        <time>2022-08-28T07:50:29Z</time>
      </trkpt>
      <trkpt lat="43.70678" lon="4.70798">
        <ele>20.2</ele>
        <time>2022-08-28T07:50:30Z</time>
      </trkpt>
      <trkpt lat="43.70682" lon="4.70764">
        <ele>20.6</ele>
        <time>2022-08-28T07:50:36Z</time>
      </trkpt>
      <trkpt lat="43.70681" lon="4.70687">
        <ele>20.9</ele>
        <time>2022-08-28T07:50:49Z</time>
      </trkpt>
      <trkpt lat="43.70679" lon="4.70609">
        <ele>20.5</ele>
        <time>2022-08-28T07:51:00Z</time>
      </trkpt>
      <trkpt lat="43.70673" lon="4.70532">
        <ele>19.9</ele>
        <time>2022-08-28T07:51:10Z</time>
      </trkpt>
      <trkpt lat="43.70671" lon="4.70489">
        <ele>19.3</ele>
        <time>2022-08-28T07:51:16Z</time>
      </trkpt>
      <trkpt lat="43.7069" lon="4.70418">
        <ele>17.2</ele>
        <time>2022-08-28T07:51:25Z</time>
      </trkpt>
      <trkpt lat="43.70712" lon="4.70346">
        <ele>15.5</ele>
        <time>2022-08-28T07:51:33Z</time>
      </trkpt>
      <trkpt lat="43.70717" lon="4.70326">
        <ele>15.1</ele>
        <time>2022-08-28T07:51:35Z</time>
      </trkpt>
      <trkpt lat="43.70734" lon="4.70251">
        <ele>14.3</ele>
        <time>2022-08-28T07:51:43Z</time>
      </trkpt>
      <trkpt lat="43.7075" lon="4.70172">
        <ele>13.5</ele>
        <time>2022-08-28T07:51:52Z</time>
      </trkpt>
      <trkpt lat="43.70756" lon="4.70147">
        <ele>13.2</ele>
        <time>2022-08-28T07:51:55Z</time>
      </trkpt>
      <trkpt lat="43.70771" lon="4.70073">
        <ele>12.6</ele>
        <time>2022-08-28T07:52:04Z</time>
      </trkpt>
      <trkpt lat="43.70781" lon="4.70028">
        <ele>12.4</ele>
        <time>2022-08-28T07:52:10Z</time>
      </trkpt>
      <trkpt lat="43.70789" lon="4.69991">
        <ele>12.2</ele>
        <time>2022-08-28T07:52:15Z</time>
      </trkpt>
      <trkpt lat="43.70797" lon="4.69955">
        <ele>12.1</ele>
        <time>2022-08-28T07:52:20Z</time>
      </trkpt>
      <trkpt lat="43.70805" lon="4.69928">
        <ele>11.9</ele>
        <time>2022-08-28T07:52:24Z</time>
      </trkpt>
      <trkpt lat="43.70815" lon="4.69894">
        <ele>11.7</ele>
        <time>2022-08-28T07:52:29Z</time>
      </trkpt>
      <trkpt lat="43.7082" lon="4.6988">
        <ele>11.7</ele>
        <time>2022-08-28T07:52:31Z</time>
      </trkpt>
      <trkpt lat="43.70822" lon="4.69873">
        <ele>11.7</ele>
        <time>2022-08-28T07:52:32Z</time>
      </trkpt>
      <trkpt lat="43.70824" lon="4.69867">
        <ele>11.6</ele>
        <time>2022-08-28T07:52:33Z</time>
      </trkpt>
      <trkpt lat="43.70832" lon="4.6984">
        <ele>11.6</ele>
        <time>2022-08-28T07:52:37Z</time>
      </trkpt>
      <trkpt lat="43.70839" lon="4.6982">
        <ele>11.6</ele>
        <time>2022-08-28T07:52:40Z</time>
      </trkpt>
      <trkpt lat="43.70841" lon="4.69813">
        <ele>11.6</ele>
        <time>2022-08-28T07:52:41Z</time>
      </trkpt>
      <trkpt lat="43.70846" lon="4.69799">
        <ele>11.5</ele>
        <time>2022-08-28T07:52:43Z</time>
      </trkpt>
      <trkpt lat="43.70848" lon="4.69792">
        <ele>11.5</ele>
        <time>2022-08-28T07:52:44Z</time>
      </trkpt>
      <trkpt lat="43.70855" lon="4.69771">
        <ele>11.5</ele>
        <time>2022-08-28T07:52:47Z</time>
      </trkpt>
      <trkpt lat="43.70866" lon="4.69738">
        <ele>11.7</ele>
        <time>2022-08-28T07:52:52Z</time>
      </trkpt>
      <trkpt lat="43.70883" lon="4.69683">
        <ele>12.1</ele>
        <time>2022-08-28T07:53:01Z</time>
      </trkpt>
      <trkpt lat="43.70893" lon="4.69653">
        <ele>12.3</ele>
        <time>2022-08-28T07:53:06Z</time>
      </trkpt>
      <trkpt lat="43.70902" lon="4.69625">
        <ele>12.3</ele>
        <time>2022-08-28T07:53:11Z</time>
      </trkpt>
      <trkpt lat="43.70905" lon="4.69614">
        <ele>12.3</ele>
        <time>2022-08-28T07:53:13Z</time>
      </trkpt>
      <trkpt lat="43.70907" lon="4.69609">
        <ele>12.2</ele>
        <time>2022-08-28T07:53:14Z</time>
      </trkpt>
      <trkpt lat="43.70913" lon="4.69592">
        <ele>12.2</ele>
        <time>2022-08-28T07:53:17Z</time>
      </trkpt>
      <trkpt lat="43.70917" lon="4.6958">
        <ele>12.1</ele>
        <time>2022-08-28T07:53:19Z</time>
      </trkpt>
      <trkpt lat="43.70919" lon="4.69575">
        <ele>12.1</ele>
        <time>2022-08-28T07:53:20Z</time>
      </trkpt>
      <trkpt lat="43.70922" lon="4.69569">
        <ele>12</ele>
        <time>2022-08-28T07:53:21Z</time>
      </trkpt>
      <trkpt lat="43.70949" lon="4.69528">
        <ele>11.7</ele>
        <time>2022-08-28T07:53:29Z</time>
      </trkpt>
      <trkpt lat="43.70962" lon="4.69509">
        <ele>11.5</ele>
        <time>2022-08-28T07:53:33Z</time>
      </trkpt>
      <trkpt lat="43.70973" lon="4.69493">
        <ele>11.3</ele>
        <time>2022-08-28T07:53:36Z</time>
      </trkpt>
      <trkpt lat="43.70977" lon="4.69488">
        <ele>11.2</ele>
        <time>2022-08-28T07:53:37Z</time>
      </trkpt>
      <trkpt lat="43.70981" lon="4.69482">
        <ele>11.2</ele>
        <time>2022-08-28T07:53:38Z</time>
      </trkpt>
      <trkpt lat="43.71008" lon="4.6944">
        <ele>10.9</ele>
        <time>2022-08-28T07:53:45Z</time>
      </trkpt>
      <trkpt lat="43.71046" lon="4.6938">
        <ele>10.8</ele>
        <time>2022-08-28T07:53:57Z</time>
      </trkpt>
      <trkpt lat="43.71065" lon="4.69355">
        <ele>10.9</ele>
        <time>2022-08-28T07:54:03Z</time>
      </trkpt>
      <trkpt lat="43.71096" lon="4.69292">
        <ele>10.7</ele>
        <time>2022-08-28T07:54:15Z</time>
      </trkpt>
      <trkpt lat="43.71102" lon="4.69282">
        <ele>10.6</ele>
        <time>2022-08-28T07:54:17Z</time>
      </trkpt>
      <trkpt lat="43.71149" lon="4.69235">
        <ele>10</ele>
        <time>2022-08-28T07:54:28Z</time>
      </trkpt>
      <trkpt lat="43.7118" lon="4.69207">
        <ele>9.8</ele>
        <time>2022-08-28T07:54:35Z</time>
      </trkpt>
      <trkpt lat="43.71207" lon="4.69177">
        <ele>9.7</ele>
        <time>2022-08-28T07:54:42Z</time>
      </trkpt>
      <trkpt lat="43.71232" lon="4.69146">
        <ele>9.7</ele>
        <time>2022-08-28T07:54:49Z</time>
      </trkpt>
      <trkpt lat="43.7125" lon="4.69122">
        <ele>9.6</ele>
        <time>2022-08-28T07:54:54Z</time>
      </trkpt>
      <trkpt lat="43.71253" lon="4.6911">
        <ele>9.6</ele>
        <time>2022-08-28T07:54:56Z</time>
      </trkpt>
      <trkpt lat="43.71256" lon="4.69045">
        <ele>9.7</ele>
        <time>2022-08-28T07:55:06Z</time>
      </trkpt>
      <trkpt lat="43.71257" lon="4.68987">
        <ele>8.8</ele>
        <time>2022-08-28T07:55:14Z</time>
      </trkpt>
      <trkpt lat="43.71257" lon="4.68954">
        <ele>8.2</ele>
        <time>2022-08-28T07:55:18Z</time>
      </trkpt>
      <trkpt lat="43.71256" lon="4.68919">
        <ele>7.6</ele>
        <time>2022-08-28T07:55:22Z</time>
      </trkpt>
      <trkpt lat="43.71256" lon="4.68892">
        <ele>7.2</ele>
        <time>2022-08-28T07:55:25Z</time>
      </trkpt>
      <trkpt lat="43.71256" lon="4.68857">
        <ele>7</ele>
        <time>2022-08-28T07:55:29Z</time>
      </trkpt>
      <trkpt lat="43.71256" lon="4.68848">
        <ele>7</ele>
        <time>2022-08-28T07:55:30Z</time>
      </trkpt>
      <trkpt lat="43.71257" lon="4.68818">
        <ele>6.9</ele>
        <time>2022-08-28T07:55:34Z</time>
      </trkpt>
      <trkpt lat="43.71257" lon="4.6881">
        <ele>6.9</ele>
        <time>2022-08-28T07:55:35Z</time>
      </trkpt>
      <trkpt lat="43.71257" lon="4.68803">
        <ele>6.9</ele>
        <time>2022-08-28T07:55:36Z</time>
      </trkpt>
      <trkpt lat="43.71257" lon="4.68795">
        <ele>6.9</ele>
        <time>2022-08-28T07:55:37Z</time>
      </trkpt>
      <trkpt lat="43.71258" lon="4.68781">
        <ele>6.8</ele>
        <time>2022-08-28T07:55:39Z</time>
      </trkpt>
      <trkpt lat="43.71259" lon="4.68773">
        <ele>6.8</ele>
        <time>2022-08-28T07:55:40Z</time>
      </trkpt>
      <trkpt lat="43.7126" lon="4.68766">
        <ele>6.8</ele>
        <time>2022-08-28T07:55:41Z</time>
      </trkpt>
      <trkpt lat="43.71263" lon="4.68744">
        <ele>6.7</ele>
        <time>2022-08-28T07:55:44Z</time>
      </trkpt>
      <trkpt lat="43.71265" lon="4.68729">
        <ele>6.7</ele>
        <time>2022-08-28T07:55:46Z</time>
      </trkpt>
      <trkpt lat="43.71268" lon="4.68715">
        <ele>6.8</ele>
        <time>2022-08-28T07:55:48Z</time>
      </trkpt>
      <trkpt lat="43.71269" lon="4.68708">
        <ele>6.8</ele>
        <time>2022-08-28T07:55:49Z</time>
      </trkpt>
      <trkpt lat="43.7127" lon="4.68701">
        <ele>6.8</ele>
        <time>2022-08-28T07:55:50Z</time>
      </trkpt>
      <trkpt lat="43.71276" lon="4.68663">
        <ele>6.9</ele>
        <time>2022-08-28T07:55:56Z</time>
      </trkpt>
      <trkpt lat="43.71275" lon="4.68649">
        <ele>6.9</ele>
        <time>2022-08-28T07:55:58Z</time>
      </trkpt>
      <trkpt lat="43.71254" lon="4.68581">
        <ele>5.7</ele>
        <time>2022-08-28T07:56:08Z</time>
      </trkpt>
      <trkpt lat="43.71231" lon="4.68512">
        <ele>6.1</ele>
        <time>2022-08-28T07:56:20Z</time>
      </trkpt>
      <trkpt lat="43.71207" lon="4.68463">
        <ele>7.9</ele>
        <time>2022-08-28T07:56:32Z</time>
      </trkpt>
      <trkpt lat="43.712" lon="4.68447">
        <ele>8.5</ele>
        <time>2022-08-28T07:56:35Z</time>
      </trkpt>
      <trkpt lat="43.71198" lon="4.68443">
        <ele>8.8</ele>
        <time>2022-08-28T07:56:36Z</time>
      </trkpt>
      <trkpt lat="43.71195" lon="4.68438">
        <ele>9</ele>
        <time>2022-08-28T07:56:37Z</time>
      </trkpt>
      <trkpt lat="43.71191" lon="4.68427">
        <ele>9.4</ele>
        <time>2022-08-28T07:56:39Z</time>
      </trkpt>
      <trkpt lat="43.71188" lon="4.68423">
        <ele>9.6</ele>
        <time>2022-08-28T07:56:40Z</time>
      </trkpt>
      <trkpt lat="43.71185" lon="4.68418">
        <ele>9.8</ele>
        <time>2022-08-28T07:56:41Z</time>
      </trkpt>
      <trkpt lat="43.71183" lon="4.68414">
        <ele>10</ele>
        <time>2022-08-28T07:56:42Z</time>
      </trkpt>
      <trkpt lat="43.71162" lon="4.68374">
        <ele>11.3</ele>
        <time>2022-08-28T07:56:51Z</time>
      </trkpt>
      <trkpt lat="43.71141" lon="4.68342">
        <ele>12.2</ele>
        <time>2022-08-28T07:56:59Z</time>
      </trkpt>
      <trkpt lat="43.71127" lon="4.6832">
        <ele>12.6</ele>
        <time>2022-08-28T07:57:04Z</time>
      </trkpt>
      <trkpt lat="43.71109" lon="4.6829">
        <ele>12.8</ele>
        <time>2022-08-28T07:57:11Z</time>
      </trkpt>
      <trkpt lat="43.71092" lon="4.68259">
        <ele>12.9</ele>
        <time>2022-08-28T07:57:17Z</time>
      </trkpt>
      <trkpt lat="43.71087" lon="4.68248">
        <ele>12.9</ele>
        <time>2022-08-28T07:57:19Z</time>
      </trkpt>
      <trkpt lat="43.71084" lon="4.68242">
        <ele>12.9</ele>
        <time>2022-08-28T07:57:20Z</time>
      </trkpt>
      <trkpt lat="43.71079" lon="4.68231">
        <ele>12.9</ele>
        <time>2022-08-28T07:57:22Z</time>
      </trkpt>
      <trkpt lat="43.71077" lon="4.68225">
        <ele>12.8</ele>
        <time>2022-08-28T07:57:23Z</time>
      </trkpt>
      <trkpt lat="43.71074" lon="4.68219">
        <ele>12.8</ele>
        <time>2022-08-28T07:57:24Z</time>
      </trkpt>
      <trkpt lat="43.71072" lon="4.68213">
        <ele>12.8</ele>
        <time>2022-08-28T07:57:25Z</time>
      </trkpt>
      <trkpt lat="43.7107" lon="4.68207">
        <ele>12.8</ele>
        <time>2022-08-28T07:57:26Z</time>
      </trkpt>
      <trkpt lat="43.71065" lon="4.68188">
        <ele>12.8</ele>
        <time>2022-08-28T07:57:29Z</time>
      </trkpt>
      <trkpt lat="43.71052" lon="4.68126">
        <ele>12.6</ele>
        <time>2022-08-28T07:57:39Z</time>
      </trkpt>
      <trkpt lat="43.71051" lon="4.68114">
        <ele>12.6</ele>
        <time>2022-08-28T07:57:41Z</time>
      </trkpt>
      <trkpt lat="43.7105" lon="4.68107">
        <ele>12.6</ele>
        <time>2022-08-28T07:57:42Z</time>
      </trkpt>
      <trkpt lat="43.7105" lon="4.68095">
        <ele>12.5</ele>
        <time>2022-08-28T07:57:44Z</time>
      </trkpt>
      <trkpt lat="43.71049" lon="4.68089">
        <ele>12.5</ele>
        <time>2022-08-28T07:57:45Z</time>
      </trkpt>
      <trkpt lat="43.71049" lon="4.68076">
        <ele>12.5</ele>
        <time>2022-08-28T07:57:47Z</time>
      </trkpt>
      <trkpt lat="43.71048" lon="4.6807">
        <ele>12.4</ele>
        <time>2022-08-28T07:57:48Z</time>
      </trkpt>
      <trkpt lat="43.71048" lon="4.68051">
        <ele>12.3</ele>
        <time>2022-08-28T07:57:51Z</time>
      </trkpt>
      <trkpt lat="43.71048" lon="4.68044">
        <ele>12.3</ele>
        <time>2022-08-28T07:57:52Z</time>
      </trkpt>
      <trkpt lat="43.71048" lon="4.68036">
        <ele>12.3</ele>
        <time>2022-08-28T07:57:53Z</time>
      </trkpt>
      <trkpt lat="43.71047" lon="4.68029">
        <ele>12.3</ele>
        <time>2022-08-28T07:57:54Z</time>
      </trkpt>
      <trkpt lat="43.71045" lon="4.67998">
        <ele>12.2</ele>
        <time>2022-08-28T07:57:58Z</time>
      </trkpt>
      <trkpt lat="43.71043" lon="4.67962">
        <ele>12.1</ele>
        <time>2022-08-28T07:58:03Z</time>
      </trkpt>
      <trkpt lat="43.71038" lon="4.67926">
        <ele>11.9</ele>
        <time>2022-08-28T07:58:08Z</time>
      </trkpt>
      <trkpt lat="43.71025" lon="4.67884">
        <ele>11.7</ele>
        <time>2022-08-28T07:58:14Z</time>
      </trkpt>
      <trkpt lat="43.70998" lon="4.67822">
        <ele>11.4</ele>
        <time>2022-08-28T07:58:23Z</time>
      </trkpt>
      <trkpt lat="43.70976" lon="4.67774">
        <ele>11</ele>
        <time>2022-08-28T07:58:30Z</time>
      </trkpt>
      <trkpt lat="43.70968" lon="4.67754">
        <ele>10.8</ele>
        <time>2022-08-28T07:58:33Z</time>
      </trkpt>
      <trkpt lat="43.70965" lon="4.67747">
        <ele>10.7</ele>
        <time>2022-08-28T07:58:34Z</time>
      </trkpt>
      <trkpt lat="43.70945" lon="4.67694">
        <ele>10.1</ele>
        <time>2022-08-28T07:58:41Z</time>
      </trkpt>
      <trkpt lat="43.70937" lon="4.67669">
        <ele>9.8</ele>
        <time>2022-08-28T07:58:44Z</time>
      </trkpt>
      <trkpt lat="43.70931" lon="4.67653">
        <ele>9.6</ele>
        <time>2022-08-28T07:58:46Z</time>
      </trkpt>
      <trkpt lat="43.70921" lon="4.6762">
        <ele>9.1</ele>
        <time>2022-08-28T07:58:50Z</time>
      </trkpt>
      <trkpt lat="43.70911" lon="4.67585">
        <ele>8.7</ele>
        <time>2022-08-28T07:58:54Z</time>
      </trkpt>
      <trkpt lat="43.70902" lon="4.6755">
        <ele>8.4</ele>
        <time>2022-08-28T07:58:58Z</time>
      </trkpt>
      <trkpt lat="43.7088" lon="4.67476">
        <ele>8.1</ele>
        <time>2022-08-28T07:59:07Z</time>
      </trkpt>
      <trkpt lat="43.70845" lon="4.67416">
        <ele>8</ele>
        <time>2022-08-28T07:59:16Z</time>
      </trkpt>
      <trkpt lat="43.70826" lon="4.67394">
        <ele>7.8</ele>
        <time>2022-08-28T07:59:20Z</time>
      </trkpt>
      <trkpt lat="43.70805" lon="4.67375">
        <ele>7.6</ele>
        <time>2022-08-28T07:59:24Z</time>
      </trkpt>
      <trkpt lat="43.70793" lon="4.67366">
        <ele>7.5</ele>
        <time>2022-08-28T07:59:26Z</time>
      </trkpt>
      <trkpt lat="43.70787" lon="4.67362">
        <ele>7.5</ele>
        <time>2022-08-28T07:59:27Z</time>
      </trkpt>
      <trkpt lat="43.70782" lon="4.67357">
        <ele>7.5</ele>
        <time>2022-08-28T07:59:28Z</time>
      </trkpt>
      <trkpt lat="43.70742" lon="4.67326">
        <ele>7.3</ele>
        <time>2022-08-28T07:59:35Z</time>
      </trkpt>
      <trkpt lat="43.70699" lon="4.67273">
        <ele>7.1</ele>
        <time>2022-08-28T07:59:44Z</time>
      </trkpt>
      <trkpt lat="43.70684" lon="4.67245">
        <ele>7</ele>
        <time>2022-08-28T07:59:48Z</time>
      </trkpt>
      <trkpt lat="43.70678" lon="4.6723">
        <ele>6.9</ele>
        <time>2022-08-28T07:59:50Z</time>
      </trkpt>
      <trkpt lat="43.70675" lon="4.67223">
        <ele>6.9</ele>
        <time>2022-08-28T07:59:51Z</time>
      </trkpt>
      <trkpt lat="43.70671" lon="4.67207">
        <ele>6.8</ele>
        <time>2022-08-28T07:59:53Z</time>
      </trkpt>
      <trkpt lat="43.70667" lon="4.67192">
        <ele>6.8</ele>
        <time>2022-08-28T07:59:55Z</time>
      </trkpt>
      <trkpt lat="43.70663" lon="4.67158">
        <ele>6.8</ele>
        <time>2022-08-28T07:59:59Z</time>
      </trkpt>
      <trkpt lat="43.70661" lon="4.67133">
        <ele>6.7</ele>
        <time>2022-08-28T08:00:02Z</time>
      </trkpt>
      <trkpt lat="43.70661" lon="4.67116">
        <ele>6.6</ele>
        <time>2022-08-28T08:00:04Z</time>
      </trkpt>
      <trkpt lat="43.70666" lon="4.6706">
        <ele>6.5</ele>
        <time>2022-08-28T08:00:11Z</time>
      </trkpt>
      <trkpt lat="43.7067" lon="4.67029">
        <ele>6.4</ele>
        <time>2022-08-28T08:00:15Z</time>
      </trkpt>
      <trkpt lat="43.70675" lon="4.67006">
        <ele>6.3</ele>
        <time>2022-08-28T08:00:18Z</time>
      </trkpt>
      <trkpt lat="43.70682" lon="4.66967">
        <ele>6.2</ele>
        <time>2022-08-28T08:00:23Z</time>
      </trkpt>
      <trkpt lat="43.70683" lon="4.66959">
        <ele>6.2</ele>
        <time>2022-08-28T08:00:24Z</time>
      </trkpt>
      <trkpt lat="43.70683" lon="4.66951">
        <ele>6.2</ele>
        <time>2022-08-28T08:00:25Z</time>
      </trkpt>
      <trkpt lat="43.70683" lon="4.66943">
        <ele>6.2</ele>
        <time>2022-08-28T08:00:26Z</time>
      </trkpt>
      <trkpt lat="43.70683" lon="4.66935">
        <ele>6.2</ele>
        <time>2022-08-28T08:00:27Z</time>
      </trkpt>
      <trkpt lat="43.70683" lon="4.6692">
        <ele>6.2</ele>
        <time>2022-08-28T08:00:29Z</time>
      </trkpt>
      <trkpt lat="43.70676" lon="4.66857">
        <ele>6.1</ele>
        <time>2022-08-28T08:00:37Z</time>
      </trkpt>
      <trkpt lat="43.70667" lon="4.66797">
        <ele>6.4</ele>
        <time>2022-08-28T08:00:45Z</time>
      </trkpt>
      <trkpt lat="43.70664" lon="4.66768">
        <ele>6.6</ele>
        <time>2022-08-28T08:00:49Z</time>
      </trkpt>
      <trkpt lat="43.70657" lon="4.66691">
        <ele>6.9</ele>
        <time>2022-08-28T08:01:00Z</time>
      </trkpt>
      <trkpt lat="43.70651" lon="4.66645">
        <ele>7.2</ele>
        <time>2022-08-28T08:01:07Z</time>
      </trkpt>
      <trkpt lat="43.70647" lon="4.66626">
        <ele>7.4</ele>
        <time>2022-08-28T08:01:10Z</time>
      </trkpt>
      <trkpt lat="43.70643" lon="4.66608">
        <ele>7.7</ele>
        <time>2022-08-28T08:01:13Z</time>
      </trkpt>
      <trkpt lat="43.70635" lon="4.6658">
        <ele>8.2</ele>
        <time>2022-08-28T08:01:18Z</time>
      </trkpt>
      <trkpt lat="43.7063" lon="4.66561">
        <ele>8.7</ele>
        <time>2022-08-28T08:01:22Z</time>
      </trkpt>
      <trkpt lat="43.70623" lon="4.66527">
        <ele>9.6</ele>
        <time>2022-08-28T08:01:29Z</time>
      </trkpt>
      <trkpt lat="43.70612" lon="4.66472">
        <ele>11.3</ele>
        <time>2022-08-28T08:01:41Z</time>
      </trkpt>
      <trkpt lat="43.70611" lon="4.66462">
        <ele>11.6</ele>
        <time>2022-08-28T08:01:43Z</time>
      </trkpt>
      <trkpt lat="43.70609" lon="4.66448">
        <ele>11.9</ele>
        <time>2022-08-28T08:01:46Z</time>
      </trkpt>
      <trkpt lat="43.70609" lon="4.6643">
        <ele>12.1</ele>
        <time>2022-08-28T08:01:50Z</time>
      </trkpt>
      <trkpt lat="43.70609" lon="4.66421">
        <ele>12.2</ele>
        <time>2022-08-28T08:01:52Z</time>
      </trkpt>
      <trkpt lat="43.70609" lon="4.66408">
        <ele>12.4</ele>
        <time>2022-08-28T08:01:55Z</time>
      </trkpt>
      <trkpt lat="43.70609" lon="4.66403">
        <ele>12.5</ele>
        <time>2022-08-28T08:01:56Z</time>
      </trkpt>
      <trkpt lat="43.70612" lon="4.6639">
        <ele>12.7</ele>
        <time>2022-08-28T08:01:59Z</time>
      </trkpt>
      <trkpt lat="43.70614" lon="4.66381">
        <ele>12.8</ele>
        <time>2022-08-28T08:02:01Z</time>
      </trkpt>
      <trkpt lat="43.7064" lon="4.66312">
        <ele>11.9</ele>
        <time>2022-08-28T08:02:14Z</time>
      </trkpt>
      <trkpt lat="43.70649" lon="4.66291">
        <ele>11.2</ele>
        <time>2022-08-28T08:02:17Z</time>
      </trkpt>
      <trkpt lat="43.70658" lon="4.66234">
        <ele>9.6</ele>
        <time>2022-08-28T08:02:23Z</time>
      </trkpt>
      <trkpt lat="43.70661" lon="4.66157">
        <ele>8</ele>
        <time>2022-08-28T08:02:30Z</time>
      </trkpt>
      <trkpt lat="43.7066" lon="4.66081">
        <ele>7.3</ele>
        <time>2022-08-28T08:02:37Z</time>
      </trkpt>
      <trkpt lat="43.70657" lon="4.66062">
        <ele>7.2</ele>
        <time>2022-08-28T08:02:39Z</time>
      </trkpt>
      <trkpt lat="43.70642" lon="4.66">
        <ele>7.1</ele>
        <time>2022-08-28T08:02:46Z</time>
      </trkpt>
      <trkpt lat="43.70634" lon="4.65967">
        <ele>7.1</ele>
        <time>2022-08-28T08:02:50Z</time>
      </trkpt>
      <trkpt lat="43.70631" lon="4.65959">
        <ele>7.1</ele>
        <time>2022-08-28T08:02:51Z</time>
      </trkpt>
      <trkpt lat="43.7063" lon="4.65952">
        <ele>7</ele>
        <time>2022-08-28T08:02:52Z</time>
      </trkpt>
      <trkpt lat="43.70628" lon="4.65944">
        <ele>7</ele>
        <time>2022-08-28T08:02:53Z</time>
      </trkpt>
      <trkpt lat="43.70626" lon="4.65937">
        <ele>7</ele>
        <time>2022-08-28T08:02:54Z</time>
      </trkpt>
      <trkpt lat="43.70624" lon="4.6593">
        <ele>6.9</ele>
        <time>2022-08-28T08:02:55Z</time>
      </trkpt>
      <trkpt lat="43.70622" lon="4.65923">
        <ele>6.9</ele>
        <time>2022-08-28T08:02:56Z</time>
      </trkpt>
      <trkpt lat="43.70611" lon="4.65872">
        <ele>6.8</ele>
        <time>2022-08-28T08:03:03Z</time>
      </trkpt>
      <trkpt lat="43.70602" lon="4.65833">
        <ele>6.8</ele>
        <time>2022-08-28T08:03:08Z</time>
      </trkpt>
      <trkpt lat="43.70593" lon="4.65805">
        <ele>6.7</ele>
        <time>2022-08-28T08:03:12Z</time>
      </trkpt>
      <trkpt lat="43.70585" lon="4.65786">
        <ele>6.7</ele>
        <time>2022-08-28T08:03:15Z</time>
      </trkpt>
      <trkpt lat="43.70548" lon="4.65735">
        <ele>6.4</ele>
        <time>2022-08-28T08:03:25Z</time>
      </trkpt>
      <trkpt lat="43.70539" lon="4.65727">
        <ele>6.4</ele>
        <time>2022-08-28T08:03:27Z</time>
      </trkpt>
      <trkpt lat="43.70487" lon="4.657">
        <ele>6.5</ele>
        <time>2022-08-28T08:03:37Z</time>
      </trkpt>
      <trkpt lat="43.70446" lon="4.65688">
        <ele>6.4</ele>
        <time>2022-08-28T08:03:44Z</time>
      </trkpt>
      <trkpt lat="43.70402" lon="4.65683">
        <ele>6.4</ele>
        <time>2022-08-28T08:03:51Z</time>
      </trkpt>
      <trkpt lat="43.70346" lon="4.6568">
        <ele>6.2</ele>
        <time>2022-08-28T08:03:59Z</time>
      </trkpt>
      <trkpt lat="43.70289" lon="4.65683">
        <ele>6.1</ele>
        <time>2022-08-28T08:04:07Z</time>
      </trkpt>
      <trkpt lat="43.70264" lon="4.65685">
        <ele>6.1</ele>
        <time>2022-08-28T08:04:11Z</time>
      </trkpt>
      <trkpt lat="43.70208" lon="4.65682">
        <ele>6.1</ele>
        <time>2022-08-28T08:04:20Z</time>
      </trkpt>
      <trkpt lat="43.70166" lon="4.65662">
        <ele>5.9</ele>
        <time>2022-08-28T08:04:27Z</time>
      </trkpt>
      <trkpt lat="43.70124" lon="4.65607">
        <ele>5.5</ele>
        <time>2022-08-28T08:04:36Z</time>
      </trkpt>
      <trkpt lat="43.70091" lon="4.65537">
        <ele>5.2</ele>
        <time>2022-08-28T08:04:45Z</time>
      </trkpt>
      <trkpt lat="43.70059" lon="4.65471">
        <ele>5.3</ele>
        <time>2022-08-28T08:04:54Z</time>
      </trkpt>
      <trkpt lat="43.70023" lon="4.65405">
        <ele>5.5</ele>
        <time>2022-08-28T08:05:04Z</time>
      </trkpt>
      <trkpt lat="43.69987" lon="4.65352">
        <ele>5.5</ele>
        <time>2022-08-28T08:05:13Z</time>
      </trkpt>
      <trkpt lat="43.6995" lon="4.65293">
        <ele>5.6</ele>
        <time>2022-08-28T08:05:22Z</time>
      </trkpt>
      <trkpt lat="43.69946" lon="4.65287">
        <ele>5.6</ele>
        <time>2022-08-28T08:05:23Z</time>
      </trkpt>
      <trkpt lat="43.69919" lon="4.65238">
        <ele>5.6</ele>
        <time>2022-08-28T08:05:30Z</time>
      </trkpt>
      <trkpt lat="43.69908" lon="4.65217">
        <ele>5.6</ele>
        <time>2022-08-28T08:05:33Z</time>
      </trkpt>
      <trkpt lat="43.69897" lon="4.65196">
        <ele>5.6</ele>
        <time>2022-08-28T08:05:36Z</time>
      </trkpt>
      <trkpt lat="43.69875" lon="4.65155">
        <ele>5.8</ele>
        <time>2022-08-28T08:05:42Z</time>
      </trkpt>
      <trkpt lat="43.6985" lon="4.65098">
        <ele>5.8</ele>
        <time>2022-08-28T08:05:50Z</time>
      </trkpt>
      <trkpt lat="43.69844" lon="4.65075">
        <ele>5.8</ele>
        <time>2022-08-28T08:05:53Z</time>
      </trkpt>
      <trkpt lat="43.69839" lon="4.65018">
        <ele>5.8</ele>
        <time>2022-08-28T08:06:00Z</time>
      </trkpt>
      <trkpt lat="43.69839" lon="4.64939">
        <ele>5.8</ele>
        <time>2022-08-28T08:06:10Z</time>
      </trkpt>
      <trkpt lat="43.69837" lon="4.64863">
        <ele>5.9</ele>
        <time>2022-08-28T08:06:20Z</time>
      </trkpt>
      <trkpt lat="43.69837" lon="4.64856">
        <ele>5.9</ele>
        <time>2022-08-28T08:06:21Z</time>
      </trkpt>
      <trkpt lat="43.69837" lon="4.6484">
        <ele>5.9</ele>
        <time>2022-08-28T08:06:23Z</time>
      </trkpt>
      <trkpt lat="43.69836" lon="4.64825">
        <ele>6</ele>
        <time>2022-08-28T08:06:25Z</time>
      </trkpt>
      <trkpt lat="43.69836" lon="4.64811">
        <ele>6</ele>
        <time>2022-08-28T08:06:27Z</time>
      </trkpt>
      <trkpt lat="43.69836" lon="4.64798">
        <ele>6.1</ele>
        <time>2022-08-28T08:06:29Z</time>
      </trkpt>
      <trkpt lat="43.69835" lon="4.64782">
        <ele>6.1</ele>
        <time>2022-08-28T08:06:31Z</time>
      </trkpt>
      <trkpt lat="43.69835" lon="4.6471">
        <ele>6.3</ele>
        <time>2022-08-28T08:06:41Z</time>
      </trkpt>
      <trkpt lat="43.69837" lon="4.64685">
        <ele>6.4</ele>
        <time>2022-08-28T08:06:45Z</time>
      </trkpt>
      <trkpt lat="43.6984" lon="4.64673">
        <ele>6.4</ele>
        <time>2022-08-28T08:06:47Z</time>
      </trkpt>
      <trkpt lat="43.69847" lon="4.64665">
        <ele>6.4</ele>
        <time>2022-08-28T08:06:49Z</time>
      </trkpt>
      <trkpt lat="43.69855" lon="4.64658">
        <ele>6.5</ele>
        <time>2022-08-28T08:06:51Z</time>
      </trkpt>
      <trkpt lat="43.69864" lon="4.64643">
        <ele>6.5</ele>
        <time>2022-08-28T08:06:54Z</time>
      </trkpt>
      <trkpt lat="43.69868" lon="4.6463">
        <ele>6.5</ele>
        <time>2022-08-28T08:06:56Z</time>
      </trkpt>
      <trkpt lat="43.6987" lon="4.6461">
        <ele>6.5</ele>
        <time>2022-08-28T08:06:59Z</time>
      </trkpt>
      <trkpt lat="43.69869" lon="4.64597">
        <ele>6.5</ele>
        <time>2022-08-28T08:07:01Z</time>
      </trkpt>
      <trkpt lat="43.69862" lon="4.64578">
        <ele>6.6</ele>
        <time>2022-08-28T08:07:04Z</time>
      </trkpt>
      <trkpt lat="43.69856" lon="4.64567">
        <ele>6.6</ele>
        <time>2022-08-28T08:07:06Z</time>
      </trkpt>
      <trkpt lat="43.69843" lon="4.64553">
        <ele>6.7</ele>
        <time>2022-08-28T08:07:09Z</time>
      </trkpt>
      <trkpt lat="43.69837" lon="4.64542">
        <ele>6.9</ele>
        <time>2022-08-28T08:07:11Z</time>
      </trkpt>
      <trkpt lat="43.69833" lon="4.64528">
        <ele>7</ele>
        <time>2022-08-28T08:07:13Z</time>
      </trkpt>
      <trkpt lat="43.6983" lon="4.64452">
        <ele>7.8</ele>
        <time>2022-08-28T08:07:25Z</time>
      </trkpt>
      <trkpt lat="43.69831" lon="4.64405">
        <ele>7.5</ele>
        <time>2022-08-28T08:07:32Z</time>
      </trkpt>
      <trkpt lat="43.6983" lon="4.64347">
        <ele>7.2</ele>
        <time>2022-08-28T08:07:40Z</time>
      </trkpt>
      <trkpt lat="43.69839" lon="4.64313">
        <ele>7.1</ele>
        <time>2022-08-28T08:07:45Z</time>
      </trkpt>
      <trkpt lat="43.69845" lon="4.64305">
        <ele>7.1</ele>
        <time>2022-08-28T08:07:47Z</time>
      </trkpt>
      <trkpt lat="43.69857" lon="4.64295">
        <ele>7</ele>
        <time>2022-08-28T08:07:50Z</time>
      </trkpt>
      <trkpt lat="43.69863" lon="4.64284">
        <ele>7</ele>
        <time>2022-08-28T08:07:52Z</time>
      </trkpt>
      <trkpt lat="43.69866" lon="4.64271">
        <ele>6.9</ele>
        <time>2022-08-28T08:07:54Z</time>
      </trkpt>
      <trkpt lat="43.69867" lon="4.64257">
        <ele>6.8</ele>
        <time>2022-08-28T08:07:56Z</time>
      </trkpt>
      <trkpt lat="43.69862" lon="4.64244">
        <ele>6.7</ele>
        <time>2022-08-28T08:07:58Z</time>
      </trkpt>
      <trkpt lat="43.69855" lon="4.64235">
        <ele>6.6</ele>
        <time>2022-08-28T08:08:00Z</time>
      </trkpt>
      <trkpt lat="43.69845" lon="4.64231">
        <ele>6.6</ele>
        <time>2022-08-28T08:08:02Z</time>
      </trkpt>
      <trkpt lat="43.69836" lon="4.64233">
        <ele>6.7</ele>
        <time>2022-08-28T08:08:04Z</time>
      </trkpt>
      <trkpt lat="43.69826" lon="4.64239">
        <ele>6.7</ele>
        <time>2022-08-28T08:08:06Z</time>
      </trkpt>
      <trkpt lat="43.69816" lon="4.64239">
        <ele>6.8</ele>
        <time>2022-08-28T08:08:08Z</time>
      </trkpt>
      <trkpt lat="43.69802" lon="4.64233">
        <ele>6.8</ele>
        <time>2022-08-28T08:08:11Z</time>
      </trkpt>
      <trkpt lat="43.69783" lon="4.64221">
        <ele>6.8</ele>
        <time>2022-08-28T08:08:15Z</time>
      </trkpt>
      <trkpt lat="43.69737" lon="4.64191">
        <ele>6.7</ele>
        <time>2022-08-28T08:08:25Z</time>
      </trkpt>
      <trkpt lat="43.69718" lon="4.64179">
        <ele>6.7</ele>
        <time>2022-08-28T08:08:29Z</time>
      </trkpt>
      <trkpt lat="43.69668" lon="4.64145">
        <ele>6.6</ele>
        <time>2022-08-28T08:08:39Z</time>
      </trkpt>
      <trkpt lat="43.69637" lon="4.64126">
        <ele>6.6</ele>
        <time>2022-08-28T08:08:45Z</time>
      </trkpt>
      <trkpt lat="43.69608" lon="4.64107">
        <ele>6.6</ele>
        <time>2022-08-28T08:08:51Z</time>
      </trkpt>
      <trkpt lat="43.69568" lon="4.64081">
        <ele>6.6</ele>
        <time>2022-08-28T08:08:59Z</time>
      </trkpt>
      <trkpt lat="43.69548" lon="4.64068">
        <ele>6.6</ele>
        <time>2022-08-28T08:09:03Z</time>
      </trkpt>
      <trkpt lat="43.69533" lon="4.64058">
        <ele>6.6</ele>
        <time>2022-08-28T08:09:06Z</time>
      </trkpt>
      <trkpt lat="43.69502" lon="4.64038">
        <ele>6.6</ele>
        <time>2022-08-28T08:09:12Z</time>
      </trkpt>
      <trkpt lat="43.69492" lon="4.64031">
        <ele>6.6</ele>
        <time>2022-08-28T08:09:14Z</time>
      </trkpt>
      <trkpt lat="43.69467" lon="4.64014">
        <ele>6.6</ele>
        <time>2022-08-28T08:09:19Z</time>
      </trkpt>
      <trkpt lat="43.69462" lon="4.64011">
        <ele>6.6</ele>
        <time>2022-08-28T08:09:20Z</time>
      </trkpt>
      <trkpt lat="43.69457" lon="4.64008">
        <ele>6.6</ele>
        <time>2022-08-28T08:09:21Z</time>
      </trkpt>
      <trkpt lat="43.69452" lon="4.64005">
        <ele>6.6</ele>
        <time>2022-08-28T08:09:22Z</time>
      </trkpt>
      <trkpt lat="43.69437" lon="4.63995">
        <ele>6.6</ele>
        <time>2022-08-28T08:09:25Z</time>
      </trkpt>
      <trkpt lat="43.69395" lon="4.63968">
        <ele>6.5</ele>
        <time>2022-08-28T08:09:33Z</time>
      </trkpt>
      <trkpt lat="43.6939" lon="4.63965">
        <ele>6.5</ele>
        <time>2022-08-28T08:09:34Z</time>
      </trkpt>
      <trkpt lat="43.69385" lon="4.63961">
        <ele>6.5</ele>
        <time>2022-08-28T08:09:35Z</time>
      </trkpt>
      <trkpt lat="43.6938" lon="4.63957">
        <ele>6.5</ele>
        <time>2022-08-28T08:09:36Z</time>
      </trkpt>
      <trkpt lat="43.69364" lon="4.63947">
        <ele>6.5</ele>
        <time>2022-08-28T08:09:39Z</time>
      </trkpt>
      <trkpt lat="43.69354" lon="4.63941">
        <ele>6.5</ele>
        <time>2022-08-28T08:09:41Z</time>
      </trkpt>
      <trkpt lat="43.6933" lon="4.63924">
        <ele>6.6</ele>
        <time>2022-08-28T08:09:46Z</time>
      </trkpt>
      <trkpt lat="43.69278" lon="4.63891">
        <ele>6.6</ele>
        <time>2022-08-28T08:09:57Z</time>
      </trkpt>
      <trkpt lat="43.69274" lon="4.63889">
        <ele>6.6</ele>
        <time>2022-08-28T08:09:58Z</time>
      </trkpt>
      <trkpt lat="43.6926" lon="4.63883">
        <ele>6.6</ele>
        <time>2022-08-28T08:10:01Z</time>
      </trkpt>
      <trkpt lat="43.69237" lon="4.63864">
        <ele>6.7</ele>
        <time>2022-08-28T08:10:08Z</time>
      </trkpt>
      <trkpt lat="43.69187" lon="4.63833">
        <ele>6.7</ele>
        <time>2022-08-28T08:10:19Z</time>
      </trkpt>
      <trkpt lat="43.69138" lon="4.638">
        <ele>6.7</ele>
        <time>2022-08-28T08:10:30Z</time>
      </trkpt>
      <trkpt lat="43.69111" lon="4.63782">
        <ele>6.6</ele>
        <time>2022-08-28T08:10:36Z</time>
      </trkpt>
      <trkpt lat="43.69061" lon="4.63749">
        <ele>6.6</ele>
        <time>2022-08-28T08:10:47Z</time>
      </trkpt>
      <trkpt lat="43.6901" lon="4.63716">
        <ele>6.6</ele>
        <time>2022-08-28T08:10:58Z</time>
      </trkpt>
      <trkpt lat="43.68982" lon="4.63698">
        <ele>6.6</ele>
        <time>2022-08-28T08:11:04Z</time>
      </trkpt>
      <trkpt lat="43.68931" lon="4.63664">
        <ele>6.6</ele>
        <time>2022-08-28T08:11:15Z</time>
      </trkpt>
      <trkpt lat="43.6888" lon="4.6363">
        <ele>6.6</ele>
        <time>2022-08-28T08:11:26Z</time>
      </trkpt>
      <trkpt lat="43.68827" lon="4.63595">
        <ele>6.6</ele>
        <time>2022-08-28T08:11:37Z</time>
      </trkpt>
      <trkpt lat="43.68774" lon="4.63561">
        <ele>6.6</ele>
        <time>2022-08-28T08:11:48Z</time>
      </trkpt>
      <trkpt lat="43.68742" lon="4.63539">
        <ele>6.7</ele>
        <time>2022-08-28T08:11:55Z</time>
      </trkpt>
      <trkpt lat="43.68693" lon="4.63502">
        <ele>6.7</ele>
        <time>2022-08-28T08:12:06Z</time>
      </trkpt>
      <trkpt lat="43.68641" lon="4.6347">
        <ele>6.8</ele>
        <time>2022-08-28T08:12:17Z</time>
      </trkpt>
      <trkpt lat="43.68592" lon="4.63437">
        <ele>6.9</ele>
        <time>2022-08-28T08:12:28Z</time>
      </trkpt>
      <trkpt lat="43.68561" lon="4.63418">
        <ele>7.1</ele>
        <time>2022-08-28T08:12:35Z</time>
      </trkpt>
      <trkpt lat="43.68511" lon="4.63381">
        <ele>7.3</ele>
        <time>2022-08-28T08:12:48Z</time>
      </trkpt>
      <trkpt lat="43.6846" lon="4.63344">
        <ele>7.4</ele>
        <time>2022-08-28T08:13:00Z</time>
      </trkpt>
      <trkpt lat="43.68407" lon="4.63314">
        <ele>7.4</ele>
        <time>2022-08-28T08:13:12Z</time>
      </trkpt>
      <trkpt lat="43.68356" lon="4.63284">
        <ele>7.4</ele>
        <time>2022-08-28T08:13:23Z</time>
      </trkpt>
      <trkpt lat="43.68304" lon="4.63251">
        <ele>7.5</ele>
        <time>2022-08-28T08:13:36Z</time>
      </trkpt>
      <trkpt lat="43.68254" lon="4.63217">
        <ele>7.9</ele>
        <time>2022-08-28T08:13:48Z</time>
      </trkpt>
      <trkpt lat="43.68242" lon="4.63208">
        <ele>8</ele>
        <time>2022-08-28T08:13:51Z</time>
      </trkpt>
      <trkpt lat="43.68203" lon="4.63154">
        <ele>8.3</ele>
        <time>2022-08-28T08:14:03Z</time>
      </trkpt>
      <trkpt lat="43.68196" lon="4.63146">
        <ele>8.4</ele>
        <time>2022-08-28T08:14:05Z</time>
      </trkpt>
      <trkpt lat="43.68187" lon="4.63141">
        <ele>8.4</ele>
        <time>2022-08-28T08:14:07Z</time>
      </trkpt>
      <trkpt lat="43.68173" lon="4.63138">
        <ele>8.5</ele>
        <time>2022-08-28T08:14:09Z</time>
      </trkpt>
      <trkpt lat="43.68145" lon="4.63138">
        <ele>8.8</ele>
        <time>2022-08-28T08:14:14Z</time>
      </trkpt>
      <trkpt lat="43.68131" lon="4.63135">
        <ele>8.8</ele>
        <time>2022-08-28T08:14:17Z</time>
      </trkpt>
      <trkpt lat="43.68075" lon="4.63127">
        <ele>9.1</ele>
        <time>2022-08-28T08:14:33Z</time>
      </trkpt>
      <trkpt lat="43.68037" lon="4.63106">
        <ele>9.7</ele>
        <time>2022-08-28T08:14:51Z</time>
      </trkpt>
      <trkpt lat="43.68029" lon="4.63097">
        <ele>9.8</ele>
        <time>2022-08-28T08:14:56Z</time>
      </trkpt>
      <trkpt lat="43.68016" lon="4.63112">
        <ele>10</ele>
        <time>2022-08-28T08:15:05Z</time>
      </trkpt>
      <trkpt lat="43.68007" lon="4.63124">
        <ele>10.1</ele>
        <time>2022-08-28T08:15:12Z</time>
      </trkpt>
      <trkpt lat="43.68004" lon="4.63135">
        <ele>10.2</ele>
        <time>2022-08-28T08:15:19Z</time>
      </trkpt>
      <trkpt lat="43.67986" lon="4.63143">
        <ele>10.6</ele>
        <time>2022-08-28T08:29:25Z</time>
      </trkpt>
      <trkpt lat="43.67986" lon="4.63143">
        <ele>10.6</ele>
        <time>2022-08-28T08:29:26Z</time>
      </trkpt>
      <trkpt lat="43.67985" lon="4.63129">
        <ele>10.6</ele>
        <time>2022-08-28T08:29:46Z</time>
      </trkpt>
      <trkpt lat="43.67984" lon="4.63125">
        <ele>10.6</ele>
        <time>2022-08-28T08:29:54Z</time>
      </trkpt>
      <trkpt lat="43.67983" lon="4.63124">
        <ele>10.6</ele>
        <time>2022-08-28T08:30:44Z</time>
      </trkpt>
      <trkpt lat="43.67983" lon="4.63123">
        <ele>10.6</ele>
        <time>2022-08-28T08:30:47Z</time>
      </trkpt>
      <trkpt lat="43.67984" lon="4.6312">
        <ele>10.6</ele>
        <time>2022-08-28T08:30:51Z</time>
      </trkpt>
      <trkpt lat="43.67984" lon="4.63119">
        <ele>10.6</ele>
        <time>2022-08-28T08:30:52Z</time>
      </trkpt>
      <trkpt lat="43.67986" lon="4.63116">
        <ele>10.6</ele>
        <time>2022-08-28T08:30:54Z</time>
      </trkpt>
      <trkpt lat="43.67983" lon="4.63111">
        <ele>10.6</ele>
        <time>2022-08-28T08:31:01Z</time>
      </trkpt>
      <trkpt lat="43.67959" lon="4.63112">
        <ele>11.1</ele>
        <time>2022-08-28T08:31:20Z</time>
      </trkpt>
      <trkpt lat="43.67959" lon="4.63112">
        <ele>11.1</ele>
        <time>2022-08-28T08:31:21Z</time>
      </trkpt>
      <trkpt lat="43.67958" lon="4.63112">
        <ele>11.1</ele>
        <time>2022-08-28T08:31:22Z</time>
      </trkpt>
      <trkpt lat="43.67956" lon="4.63112">
        <ele>11.2</ele>
        <time>2022-08-28T08:31:23Z</time>
      </trkpt>
      <trkpt lat="43.67954" lon="4.63112">
        <ele>11.2</ele>
        <time>2022-08-28T08:31:24Z</time>
      </trkpt>
      <trkpt lat="43.67953" lon="4.63111">
        <ele>11.2</ele>
        <time>2022-08-28T08:31:25Z</time>
      </trkpt>
      <trkpt lat="43.67951" lon="4.63111">
        <ele>11.3</ele>
        <time>2022-08-28T08:31:26Z</time>
      </trkpt>
      <trkpt lat="43.6795" lon="4.6311">
        <ele>11.3</ele>
        <time>2022-08-28T08:31:27Z</time>
      </trkpt>
      <trkpt lat="43.67948" lon="4.63109">
        <ele>11.4</ele>
        <time>2022-08-28T08:31:28Z</time>
      </trkpt>
      <trkpt lat="43.67947" lon="4.63109">
        <ele>11.4</ele>
        <time>2022-08-28T08:31:29Z</time>
      </trkpt>
      <trkpt lat="43.6794" lon="4.63107">
        <ele>11.6</ele>
        <time>2022-08-28T08:31:35Z</time>
      </trkpt>
      <trkpt lat="43.67938" lon="4.63106">
        <ele>11.7</ele>
        <time>2022-08-28T08:31:36Z</time>
      </trkpt>
      <trkpt lat="43.67936" lon="4.63106">
        <ele>11.7</ele>
        <time>2022-08-28T08:31:37Z</time>
      </trkpt>
      <trkpt lat="43.67933" lon="4.63104">
        <ele>11.8</ele>
        <time>2022-08-28T08:31:39Z</time>
      </trkpt>
      <trkpt lat="43.67931" lon="4.63103">
        <ele>11.9</ele>
        <time>2022-08-28T08:31:40Z</time>
      </trkpt>
      <trkpt lat="43.67926" lon="4.63101">
        <ele>12</ele>
        <time>2022-08-28T08:31:42Z</time>
      </trkpt>
      <trkpt lat="43.67919" lon="4.63099">
        <ele>12.3</ele>
        <time>2022-08-28T08:31:45Z</time>
      </trkpt>
      <trkpt lat="43.67914" lon="4.63096">
        <ele>12.5</ele>
        <time>2022-08-28T08:31:47Z</time>
      </trkpt>
      <trkpt lat="43.67912" lon="4.63095">
        <ele>12.6</ele>
        <time>2022-08-28T08:31:48Z</time>
      </trkpt>
      <trkpt lat="43.67909" lon="4.63093">
        <ele>12.7</ele>
        <time>2022-08-28T08:31:49Z</time>
      </trkpt>
      <trkpt lat="43.67906" lon="4.63091">
        <ele>12.9</ele>
        <time>2022-08-28T08:31:51Z</time>
      </trkpt>
      <trkpt lat="43.67902" lon="4.63089">
        <ele>13</ele>
        <time>2022-08-28T08:31:53Z</time>
      </trkpt>
      <trkpt lat="43.67901" lon="4.63088">
        <ele>13.1</ele>
        <time>2022-08-28T08:31:54Z</time>
      </trkpt>
      <trkpt lat="43.6788" lon="4.63076">
        <ele>14.2</ele>
        <time>2022-08-28T08:32:08Z</time>
      </trkpt>
      <trkpt lat="43.67879" lon="4.63075">
        <ele>14.3</ele>
        <time>2022-08-28T08:32:09Z</time>
      </trkpt>
      <trkpt lat="43.67869" lon="4.6306">
        <ele>15.1</ele>
        <time>2022-08-28T08:32:18Z</time>
      </trkpt>
      <trkpt lat="43.67862" lon="4.63052">
        <ele>15.6</ele>
        <time>2022-08-28T08:32:38Z</time>
      </trkpt>
      <trkpt lat="43.67861" lon="4.6305">
        <ele>15.6</ele>
        <time>2022-08-28T08:32:39Z</time>
      </trkpt>
      <trkpt lat="43.67859" lon="4.63049">
        <ele>16.5</ele>
        <time>2022-08-28T08:32:40Z</time>
      </trkpt>
      <trkpt lat="43.67855" lon="4.63045">
        <ele>16.6</ele>
        <time>2022-08-28T08:32:42Z</time>
      </trkpt>
      <trkpt lat="43.6785" lon="4.63041">
        <ele>16.8</ele>
        <time>2022-08-28T08:32:45Z</time>
      </trkpt>
      <trkpt lat="43.67849" lon="4.63039">
        <ele>17.5</ele>
        <time>2022-08-28T08:32:46Z</time>
      </trkpt>
      <trkpt lat="43.67847" lon="4.63038">
        <ele>17.5</ele>
        <time>2022-08-28T08:32:47Z</time>
      </trkpt>
      <trkpt lat="43.67845" lon="4.63036">
        <ele>17.5</ele>
        <time>2022-08-28T08:32:48Z</time>
      </trkpt>
      <trkpt lat="43.67836" lon="4.63033">
        <ele>17.6</ele>
        <time>2022-08-28T08:32:53Z</time>
      </trkpt>
      <trkpt lat="43.67835" lon="4.63034">
        <ele>17.6</ele>
        <time>2022-08-28T08:32:54Z</time>
      </trkpt>
      <trkpt lat="43.67829" lon="4.63035">
        <ele>17.7</ele>
        <time>2022-08-28T08:32:57Z</time>
      </trkpt>
      <trkpt lat="43.67829" lon="4.63036">
        <ele>17.7</ele>
        <time>2022-08-28T08:32:58Z</time>
      </trkpt>
      <trkpt lat="43.67829" lon="4.63039">
        <ele>17.7</ele>
        <time>2022-08-28T08:33:00Z</time>
      </trkpt>
      <trkpt lat="43.67832" lon="4.63045">
        <ele>17.7</ele>
        <time>2022-08-28T08:33:03Z</time>
      </trkpt>
      <trkpt lat="43.67839" lon="4.6307">
        <ele>17.7</ele>
        <time>2022-08-28T08:33:09Z</time>
      </trkpt>
      <trkpt lat="43.67836" lon="4.63088">
        <ele>18.6</ele>
        <time>2022-08-28T08:33:14Z</time>
      </trkpt>
      <trkpt lat="43.67827" lon="4.63125">
        <ele>19.4</ele>
        <time>2022-08-28T08:33:27Z</time>
      </trkpt>
      <trkpt lat="43.6782" lon="4.63135">
        <ele>19.6</ele>
        <time>2022-08-28T08:33:31Z</time>
      </trkpt>
      <trkpt lat="43.67768" lon="4.63158">
        <ele>22.4</ele>
        <time>2022-08-28T08:34:00Z</time>
      </trkpt>
      <trkpt lat="43.6774" lon="4.63153">
        <ele>24</ele>
        <time>2022-08-28T08:34:16Z</time>
      </trkpt>
      <trkpt lat="43.67734" lon="4.63152">
        <ele>24.2</ele>
        <time>2022-08-28T08:34:22Z</time>
      </trkpt>
      <trkpt lat="43.67734" lon="4.63152">
        <ele>24.2</ele>
        <time>2022-08-28T08:34:23Z</time>
      </trkpt>
      <trkpt lat="43.67732" lon="4.63151">
        <ele>24.3</ele>
        <time>2022-08-28T08:34:25Z</time>
      </trkpt>
      <trkpt lat="43.67725" lon="4.6315">
        <ele>24.5</ele>
        <time>2022-08-28T08:34:28Z</time>
      </trkpt>
      <trkpt lat="43.67725" lon="4.63149">
        <ele>24.5</ele>
        <time>2022-08-28T08:34:29Z</time>
      </trkpt>
      <trkpt lat="43.67722" lon="4.63145">
        <ele>24.7</ele>
        <time>2022-08-28T08:34:35Z</time>
      </trkpt>
      <trkpt lat="43.6772" lon="4.63142">
        <ele>24.7</ele>
        <time>2022-08-28T08:34:38Z</time>
      </trkpt>
      <trkpt lat="43.67718" lon="4.6314">
        <ele>24.8</ele>
        <time>2022-08-28T08:34:39Z</time>
      </trkpt>
      <trkpt lat="43.67716" lon="4.63138">
        <ele>24.8</ele>
        <time>2022-08-28T08:34:40Z</time>
      </trkpt>
      <trkpt lat="43.67715" lon="4.63124">
        <ele>25</ele>
        <time>2022-08-28T08:34:49Z</time>
      </trkpt>
      <trkpt lat="43.67718" lon="4.63123">
        <ele>24.9</ele>
        <time>2022-08-28T08:34:54Z</time>
      </trkpt>
      <trkpt lat="43.67718" lon="4.63122">
        <ele>24.9</ele>
        <time>2022-08-28T08:35:07Z</time>
      </trkpt>
      <trkpt lat="43.67718" lon="4.63123">
        <ele>24.9</ele>
        <time>2022-08-28T08:35:20Z</time>
      </trkpt>
      <trkpt lat="43.67718" lon="4.63123">
        <ele>24.9</ele>
        <time>2022-08-28T08:35:24Z</time>
      </trkpt>
      <trkpt lat="43.67718" lon="4.63123">
        <ele>24.9</ele>
        <time>2022-08-28T08:35:25Z</time>
      </trkpt>
      <trkpt lat="43.67715" lon="4.63124">
        <ele>24.9</ele>
        <time>2022-08-28T08:37:02Z</time>
      </trkpt>
      <trkpt lat="43.67715" lon="4.63124">
        <ele>24.9</ele>
        <time>2022-08-28T08:37:03Z</time>
      </trkpt>
      <trkpt lat="43.67715" lon="4.63124">
        <ele>24.9</ele>
        <time>2022-08-28T08:37:07Z</time>
      </trkpt>
      <trkpt lat="43.67715" lon="4.63124">
        <ele>24.9</ele>
        <time>2022-08-28T08:37:08Z</time>
      </trkpt>
      <trkpt lat="43.67714" lon="4.63124">
        <ele>24.9</ele>
        <time>2022-08-28T08:37:25Z</time>
      </trkpt>
      <trkpt lat="43.67714" lon="4.63123">
        <ele>24.9</ele>
        <time>2022-08-28T08:37:30Z</time>
      </trkpt>
      <trkpt lat="43.67717" lon="4.63131">
        <ele>24.8</ele>
        <time>2022-08-28T08:37:37Z</time>
      </trkpt>
      <trkpt lat="43.67723" lon="4.63141">
        <ele>24.5</ele>
        <time>2022-08-28T08:37:44Z</time>
      </trkpt>
      <trkpt lat="43.67727" lon="4.63146">
        <ele>24.3</ele>
        <time>2022-08-28T08:37:47Z</time>
      </trkpt>
      <trkpt lat="43.67729" lon="4.63148">
        <ele>24.3</ele>
        <time>2022-08-28T08:37:48Z</time>
      </trkpt>
      <trkpt lat="43.67731" lon="4.63149">
        <ele>24.2</ele>
        <time>2022-08-28T08:37:49Z</time>
      </trkpt>
      <trkpt lat="43.67732" lon="4.6315">
        <ele>24.1</ele>
        <time>2022-08-28T08:37:50Z</time>
      </trkpt>
      <trkpt lat="43.67734" lon="4.63151">
        <ele>24.1</ele>
        <time>2022-08-28T08:37:51Z</time>
      </trkpt>
      <trkpt lat="43.67736" lon="4.63152">
        <ele>24</ele>
        <time>2022-08-28T08:37:52Z</time>
      </trkpt>
      <trkpt lat="43.67738" lon="4.63153">
        <ele>23.9</ele>
        <time>2022-08-28T08:37:53Z</time>
      </trkpt>
      <trkpt lat="43.67741" lon="4.63155">
        <ele>23.8</ele>
        <time>2022-08-28T08:37:55Z</time>
      </trkpt>
      <trkpt lat="43.67745" lon="4.63157">
        <ele>23.6</ele>
        <time>2022-08-28T08:37:58Z</time>
      </trkpt>
      <trkpt lat="43.67747" lon="4.63159">
        <ele>23.5</ele>
        <time>2022-08-28T08:38:00Z</time>
      </trkpt>
      <trkpt lat="43.67748" lon="4.63159">
        <ele>23.5</ele>
        <time>2022-08-28T08:38:01Z</time>
      </trkpt>
      <trkpt lat="43.67749" lon="4.63159">
        <ele>23.4</ele>
        <time>2022-08-28T08:38:02Z</time>
      </trkpt>
      <trkpt lat="43.67755" lon="4.6316">
        <ele>23.1</ele>
        <time>2022-08-28T08:38:06Z</time>
      </trkpt>
      <trkpt lat="43.6776" lon="4.63161">
        <ele>22.8</ele>
        <time>2022-08-28T08:38:09Z</time>
      </trkpt>
      <trkpt lat="43.67761" lon="4.63161">
        <ele>22.7</ele>
        <time>2022-08-28T08:38:10Z</time>
      </trkpt>
      <trkpt lat="43.67763" lon="4.63161">
        <ele>22.6</ele>
        <time>2022-08-28T08:38:11Z</time>
      </trkpt>
      <trkpt lat="43.67766" lon="4.6316">
        <ele>22.4</ele>
        <time>2022-08-28T08:38:13Z</time>
      </trkpt>
      <trkpt lat="43.67775" lon="4.63157">
        <ele>21.9</ele>
        <time>2022-08-28T08:38:19Z</time>
      </trkpt>
      <trkpt lat="43.67782" lon="4.63155">
        <ele>21.4</ele>
        <time>2022-08-28T08:38:25Z</time>
      </trkpt>
      <trkpt lat="43.67784" lon="4.63154">
        <ele>21.3</ele>
        <time>2022-08-28T08:38:26Z</time>
      </trkpt>
      <trkpt lat="43.67785" lon="4.63154">
        <ele>21.2</ele>
        <time>2022-08-28T08:38:27Z</time>
      </trkpt>
      <trkpt lat="43.67788" lon="4.63152">
        <ele>21.1</ele>
        <time>2022-08-28T08:38:29Z</time>
      </trkpt>
      <trkpt lat="43.67793" lon="4.6315">
        <ele>21.1</ele>
        <time>2022-08-28T08:38:32Z</time>
      </trkpt>
      <trkpt lat="43.67796" lon="4.63152">
        <ele>21.1</ele>
        <time>2022-08-28T08:38:34Z</time>
      </trkpt>
      <trkpt lat="43.67796" lon="4.63155">
        <ele>21.1</ele>
        <time>2022-08-28T08:38:36Z</time>
      </trkpt>
      <trkpt lat="43.6779" lon="4.63159">
        <ele>21.1</ele>
        <time>2022-08-28T08:38:41Z</time>
      </trkpt>
      <trkpt lat="43.67783" lon="4.63165">
        <ele>21</ele>
        <time>2022-08-28T08:38:46Z</time>
      </trkpt>
      <trkpt lat="43.67781" lon="4.63169">
        <ele>21.2</ele>
        <time>2022-08-28T08:38:48Z</time>
      </trkpt>
      <trkpt lat="43.67781" lon="4.6317">
        <ele>21.3</ele>
        <time>2022-08-28T08:38:49Z</time>
      </trkpt>
      <trkpt lat="43.6778" lon="4.63171">
        <ele>21.3</ele>
        <time>2022-08-28T08:38:50Z</time>
      </trkpt>
      <trkpt lat="43.67778" lon="4.63172">
        <ele>21.4</ele>
        <time>2022-08-28T08:38:52Z</time>
      </trkpt>
      <trkpt lat="43.67754" lon="4.6318">
        <ele>22.9</ele>
        <time>2022-08-28T08:39:22Z</time>
      </trkpt>
      <trkpt lat="43.67752" lon="4.63179">
        <ele>23</ele>
        <time>2022-08-28T08:39:23Z</time>
      </trkpt>
      <trkpt lat="43.6775" lon="4.63179">
        <ele>23.1</ele>
        <time>2022-08-28T08:39:24Z</time>
      </trkpt>
      <trkpt lat="43.67745" lon="4.63175">
        <ele>23.4</ele>
        <time>2022-08-28T08:39:27Z</time>
      </trkpt>
      <trkpt lat="43.67744" lon="4.63174">
        <ele>23.5</ele>
        <time>2022-08-28T08:39:28Z</time>
      </trkpt>
      <trkpt lat="43.67742" lon="4.63173">
        <ele>23.6</ele>
        <time>2022-08-28T08:39:29Z</time>
      </trkpt>
      <trkpt lat="43.6772" lon="4.63154">
        <ele>24.4</ele>
        <time>2022-08-28T08:39:42Z</time>
      </trkpt>
      <trkpt lat="43.67714" lon="4.63136">
        <ele>24.8</ele>
        <time>2022-08-28T08:39:49Z</time>
      </trkpt>
      <trkpt lat="43.67707" lon="4.63085">
        <ele>25.4</ele>
        <time>2022-08-28T08:40:05Z</time>
      </trkpt>
      <trkpt lat="43.67708" lon="4.63082">
        <ele>25.5</ele>
        <time>2022-08-28T08:40:06Z</time>
      </trkpt>
      <trkpt lat="43.67708" lon="4.6308">
        <ele>25.5</ele>
        <time>2022-08-28T08:40:07Z</time>
      </trkpt>
      <trkpt lat="43.6771" lon="4.63074">
        <ele>25.6</ele>
        <time>2022-08-28T08:40:09Z</time>
      </trkpt>
      <trkpt lat="43.67711" lon="4.63067">
        <ele>25.7</ele>
        <time>2022-08-28T08:40:11Z</time>
      </trkpt>
      <trkpt lat="43.677" lon="4.63029">
        <ele>26.7</ele>
        <time>2022-08-28T08:40:25Z</time>
      </trkpt>
      <trkpt lat="43.677" lon="4.63027">
        <ele>26.6</ele>
        <time>2022-08-28T08:40:26Z</time>
      </trkpt>
      <trkpt lat="43.67703" lon="4.63017">
        <ele>26.8</ele>
        <time>2022-08-28T08:40:30Z</time>
      </trkpt>
      <trkpt lat="43.67706" lon="4.63003">
        <ele>27.1</ele>
        <time>2022-08-28T08:40:35Z</time>
      </trkpt>
      <trkpt lat="43.67707" lon="4.63">
        <ele>27</ele>
        <time>2022-08-28T08:40:36Z</time>
      </trkpt>
      <trkpt lat="43.67707" lon="4.62994">
        <ele>26.9</ele>
        <time>2022-08-28T08:40:39Z</time>
      </trkpt>
      <trkpt lat="43.67711" lon="4.62979">
        <ele>27.2</ele>
        <time>2022-08-28T08:40:48Z</time>
      </trkpt>
      <trkpt lat="43.6771" lon="4.62973">
        <ele>27.1</ele>
        <time>2022-08-28T08:40:51Z</time>
      </trkpt>
      <trkpt lat="43.67708" lon="4.6297">
        <ele>27.4</ele>
        <time>2022-08-28T08:40:52Z</time>
      </trkpt>
      <trkpt lat="43.67708" lon="4.62969">
        <ele>27.3</ele>
        <time>2022-08-28T08:40:53Z</time>
      </trkpt>
      <trkpt lat="43.67706" lon="4.62958">
        <ele>27.2</ele>
        <time>2022-08-28T08:40:59Z</time>
      </trkpt>
      <trkpt lat="43.67707" lon="4.62955">
        <ele>27.1</ele>
        <time>2022-08-28T08:41:01Z</time>
      </trkpt>
      <trkpt lat="43.67707" lon="4.62953">
        <ele>27.3</ele>
        <time>2022-08-28T08:41:03Z</time>
      </trkpt>
      <trkpt lat="43.67708" lon="4.6294">
        <ele>27.1</ele>
        <time>2022-08-28T08:41:10Z</time>
      </trkpt>
      <trkpt lat="43.67707" lon="4.62939">
        <ele>27</ele>
        <time>2022-08-28T08:41:11Z</time>
      </trkpt>
      <trkpt lat="43.67696" lon="4.62929">
        <ele>26.3</ele>
        <time>2022-08-28T08:41:18Z</time>
      </trkpt>
      <trkpt lat="43.67691" lon="4.62926">
        <ele>25.7</ele>
        <time>2022-08-28T08:41:21Z</time>
      </trkpt>
      <trkpt lat="43.6769" lon="4.62925">
        <ele>25.6</ele>
        <time>2022-08-28T08:41:22Z</time>
      </trkpt>
      <trkpt lat="43.67688" lon="4.62924">
        <ele>25.4</ele>
        <time>2022-08-28T08:41:23Z</time>
      </trkpt>
      <trkpt lat="43.67684" lon="4.62923">
        <ele>25.3</ele>
        <time>2022-08-28T08:41:26Z</time>
      </trkpt>
      <trkpt lat="43.67681" lon="4.62923">
        <ele>25.2</ele>
        <time>2022-08-28T08:41:28Z</time>
      </trkpt>
      <trkpt lat="43.67681" lon="4.62923">
        <ele>24.7</ele>
        <time>2022-08-28T08:41:29Z</time>
      </trkpt>
      <trkpt lat="43.6768" lon="4.62923">
        <ele>24.5</ele>
        <time>2022-08-28T08:41:30Z</time>
      </trkpt>
      <trkpt lat="43.67678" lon="4.62923">
        <ele>24.4</ele>
        <time>2022-08-28T08:41:33Z</time>
      </trkpt>
      <trkpt lat="43.67667" lon="4.62924">
        <ele>24</ele>
        <time>2022-08-28T08:41:45Z</time>
      </trkpt>
      <trkpt lat="43.67663" lon="4.62925">
        <ele>23.9</ele>
        <time>2022-08-28T08:41:54Z</time>
      </trkpt>
      <trkpt lat="43.67662" lon="4.62926">
        <ele>23.7</ele>
        <time>2022-08-28T08:41:59Z</time>
      </trkpt>
      <trkpt lat="43.67661" lon="4.62925">
        <ele>23.6</ele>
        <time>2022-08-28T08:42:07Z</time>
      </trkpt>
      <trkpt lat="43.67657" lon="4.62925">
        <ele>23.5</ele>
        <time>2022-08-28T08:42:15Z</time>
      </trkpt>
      <trkpt lat="43.67652" lon="4.62924">
        <ele>23.1</ele>
        <time>2022-08-28T08:42:24Z</time>
      </trkpt>
      <trkpt lat="43.67652" lon="4.62923">
        <ele>23</ele>
        <time>2022-08-28T08:42:30Z</time>
      </trkpt>
      <trkpt lat="43.67652" lon="4.62923">
        <ele>22.9</ele>
        <time>2022-08-28T08:42:42Z</time>
      </trkpt>
      <trkpt lat="43.67652" lon="4.62923">
        <ele>22.8</ele>
        <time>2022-08-28T08:42:48Z</time>
      </trkpt>
      <trkpt lat="43.67642" lon="4.62918">
        <ele>22.3</ele>
        <time>2022-08-28T08:43:34Z</time>
      </trkpt>
      <trkpt lat="43.6764" lon="4.62917">
        <ele>22.2</ele>
        <time>2022-08-28T08:43:35Z</time>
      </trkpt>
      <trkpt lat="43.67635" lon="4.62912">
        <ele>22</ele>
        <time>2022-08-28T08:43:38Z</time>
      </trkpt>
      <trkpt lat="43.6762" lon="4.62895">
        <ele>21.5</ele>
        <time>2022-08-28T08:43:49Z</time>
      </trkpt>
      <trkpt lat="43.67617" lon="4.62883">
        <ele>21</ele>
        <time>2022-08-28T08:43:54Z</time>
      </trkpt>
      <trkpt lat="43.67614" lon="4.62865">
        <ele>20.8</ele>
        <time>2022-08-28T08:44:01Z</time>
      </trkpt>
      <trkpt lat="43.67614" lon="4.62862">
        <ele>20.7</ele>
        <time>2022-08-28T08:44:02Z</time>
      </trkpt>
      <trkpt lat="43.67615" lon="4.62859">
        <ele>20.6</ele>
        <time>2022-08-28T08:44:03Z</time>
      </trkpt>
      <trkpt lat="43.67615" lon="4.62856">
        <ele>20.4</ele>
        <time>2022-08-28T08:44:04Z</time>
      </trkpt>
      <trkpt lat="43.67616" lon="4.62852">
        <ele>20.3</ele>
        <time>2022-08-28T08:44:05Z</time>
      </trkpt>
      <trkpt lat="43.67617" lon="4.62847">
        <ele>20.2</ele>
        <time>2022-08-28T08:44:07Z</time>
      </trkpt>
      <trkpt lat="43.67615" lon="4.62838">
        <ele>20</ele>
        <time>2022-08-28T08:44:09Z</time>
      </trkpt>
      <trkpt lat="43.67611" lon="4.62829">
        <ele>19.8</ele>
        <time>2022-08-28T08:44:11Z</time>
      </trkpt>
      <trkpt lat="43.67607" lon="4.62821">
        <ele>19.6</ele>
        <time>2022-08-28T08:44:13Z</time>
      </trkpt>
      <trkpt lat="43.67608" lon="4.62816">
        <ele>19.2</ele>
        <time>2022-08-28T08:44:14Z</time>
      </trkpt>
      <trkpt lat="43.67611" lon="4.62811">
        <ele>19.1</ele>
        <time>2022-08-28T08:44:16Z</time>
      </trkpt>
      <trkpt lat="43.67611" lon="4.62809">
        <ele>19</ele>
        <time>2022-08-28T08:44:17Z</time>
      </trkpt>
      <trkpt lat="43.6761" lon="4.62808">
        <ele>18.8</ele>
        <time>2022-08-28T08:44:18Z</time>
      </trkpt>
      <trkpt lat="43.67609" lon="4.62806">
        <ele>18.7</ele>
        <time>2022-08-28T08:44:20Z</time>
      </trkpt>
      <trkpt lat="43.67608" lon="4.62803">
        <ele>18.6</ele>
        <time>2022-08-28T08:44:24Z</time>
      </trkpt>
      <trkpt lat="43.67606" lon="4.62802">
        <ele>18.3</ele>
        <time>2022-08-28T08:44:31Z</time>
      </trkpt>
      <trkpt lat="43.676" lon="4.62802">
        <ele>18.2</ele>
        <time>2022-08-28T08:44:35Z</time>
      </trkpt>
      <trkpt lat="43.67585" lon="4.62794">
        <ele>17.3</ele>
        <time>2022-08-28T08:44:43Z</time>
      </trkpt>
      <trkpt lat="43.67581" lon="4.62793">
        <ele>17.3</ele>
        <time>2022-08-28T08:44:45Z</time>
      </trkpt>
      <trkpt lat="43.67572" lon="4.6279">
        <ele>17</ele>
        <time>2022-08-28T08:44:50Z</time>
      </trkpt>
      <trkpt lat="43.6756" lon="4.62788">
        <ele>16.5</ele>
        <time>2022-08-28T08:44:56Z</time>
      </trkpt>
      <trkpt lat="43.67551" lon="4.62788">
        <ele>16.1</ele>
        <time>2022-08-28T08:44:59Z</time>
      </trkpt>
      <trkpt lat="43.67549" lon="4.62789">
        <ele>16</ele>
        <time>2022-08-28T08:45:00Z</time>
      </trkpt>
      <trkpt lat="43.6754" lon="4.62785">
        <ele>15.6</ele>
        <time>2022-08-28T08:45:07Z</time>
      </trkpt>
      <trkpt lat="43.67538" lon="4.62783">
        <ele>15.4</ele>
        <time>2022-08-28T08:45:09Z</time>
      </trkpt>
      <trkpt lat="43.67538" lon="4.62764">
        <ele>14.9</ele>
        <time>2022-08-28T08:45:16Z</time>
      </trkpt>
      <trkpt lat="43.67538" lon="4.62757">
        <ele>14.6</ele>
        <time>2022-08-28T08:45:18Z</time>
      </trkpt>
      <trkpt lat="43.67537" lon="4.62752">
        <ele>14.5</ele>
        <time>2022-08-28T08:45:19Z</time>
      </trkpt>
      <trkpt lat="43.67536" lon="4.62748">
        <ele>14.4</ele>
        <time>2022-08-28T08:45:20Z</time>
      </trkpt>
      <trkpt lat="43.67535" lon="4.62738">
        <ele>14.1</ele>
        <time>2022-08-28T08:45:22Z</time>
      </trkpt>
      <trkpt lat="43.67527" lon="4.62664">
        <ele>12.8</ele>
        <time>2022-08-28T08:45:34Z</time>
      </trkpt>
      <trkpt lat="43.67525" lon="4.62648">
        <ele>12.6</ele>
        <time>2022-08-28T08:45:38Z</time>
      </trkpt>
      <trkpt lat="43.67525" lon="4.62627">
        <ele>11.9</ele>
        <time>2022-08-28T08:45:43Z</time>
      </trkpt>
      <trkpt lat="43.67527" lon="4.62599">
        <ele>11.5</ele>
        <time>2022-08-28T08:45:49Z</time>
      </trkpt>
      <trkpt lat="43.67526" lon="4.62576">
        <ele>11.4</ele>
        <time>2022-08-28T08:45:53Z</time>
      </trkpt>
      <trkpt lat="43.67526" lon="4.62567">
        <ele>11.3</ele>
        <time>2022-08-28T08:45:55Z</time>
      </trkpt>
      <trkpt lat="43.67526" lon="4.62563">
        <ele>11.2</ele>
        <time>2022-08-28T08:45:56Z</time>
      </trkpt>
      <trkpt lat="43.67525" lon="4.62535">
        <ele>11.4</ele>
        <time>2022-08-28T08:46:01Z</time>
      </trkpt>
      <trkpt lat="43.67516" lon="4.62518">
        <ele>10.6</ele>
        <time>2022-08-28T08:46:12Z</time>
      </trkpt>
      <trkpt lat="43.67516" lon="4.62518">
        <ele>10.6</ele>
        <time>2022-08-28T08:46:13Z</time>
      </trkpt>
      <trkpt lat="43.67516" lon="4.62518">
        <ele>10.6</ele>
        <time>2022-08-28T08:46:14Z</time>
      </trkpt>
      <trkpt lat="43.67516" lon="4.62518">
        <ele>10.6</ele>
        <time>2022-08-28T08:46:15Z</time>
      </trkpt>
      <trkpt lat="43.67513" lon="4.62512">
        <ele>10.5</ele>
        <time>2022-08-28T08:46:40Z</time>
      </trkpt>
      <trkpt lat="43.67506" lon="4.62491">
        <ele>10.5</ele>
        <time>2022-08-28T08:46:47Z</time>
      </trkpt>
      <trkpt lat="43.67506" lon="4.62488">
        <ele>10.5</ele>
        <time>2022-08-28T08:46:48Z</time>
      </trkpt>
      <trkpt lat="43.67505" lon="4.6248">
        <ele>10.5</ele>
        <time>2022-08-28T08:46:50Z</time>
      </trkpt>
      <trkpt lat="43.67505" lon="4.62476">
        <ele>10.5</ele>
        <time>2022-08-28T08:46:51Z</time>
      </trkpt>
      <trkpt lat="43.67501" lon="4.62458">
        <ele>10.5</ele>
        <time>2022-08-28T08:46:55Z</time>
      </trkpt>
      <trkpt lat="43.675" lon="4.62441">
        <ele>10.4</ele>
        <time>2022-08-28T08:46:58Z</time>
      </trkpt>
      <trkpt lat="43.67499" lon="4.62426">
        <ele>10.3</ele>
        <time>2022-08-28T08:47:01Z</time>
      </trkpt>
      <trkpt lat="43.67497" lon="4.62413">
        <ele>10.5</ele>
        <time>2022-08-28T08:47:03Z</time>
      </trkpt>
      <trkpt lat="43.67496" lon="4.62406">
        <ele>10.5</ele>
        <time>2022-08-28T08:47:04Z</time>
      </trkpt>
      <trkpt lat="43.67495" lon="4.62386">
        <ele>10.2</ele>
        <time>2022-08-28T08:47:08Z</time>
      </trkpt>
      <trkpt lat="43.67492" lon="4.62367">
        <ele>9.9</ele>
        <time>2022-08-28T08:47:12Z</time>
      </trkpt>
      <trkpt lat="43.6749" lon="4.62361">
        <ele>9.8</ele>
        <time>2022-08-28T08:47:13Z</time>
      </trkpt>
      <trkpt lat="43.67486" lon="4.62349">
        <ele>9.4</ele>
        <time>2022-08-28T08:47:16Z</time>
      </trkpt>
      <trkpt lat="43.67477" lon="4.62329">
        <ele>9.3</ele>
        <time>2022-08-28T08:47:21Z</time>
      </trkpt>
      <trkpt lat="43.67462" lon="4.62266">
        <ele>8.8</ele>
        <time>2022-08-28T08:47:32Z</time>
      </trkpt>
      <trkpt lat="43.67445" lon="4.62194">
        <ele>8.5</ele>
        <time>2022-08-28T08:47:45Z</time>
      </trkpt>
      <trkpt lat="43.67439" lon="4.62155">
        <ele>8.5</ele>
        <time>2022-08-28T08:47:53Z</time>
      </trkpt>
      <trkpt lat="43.67425" lon="4.6211">
        <ele>9.1</ele>
        <time>2022-08-28T08:48:00Z</time>
      </trkpt>
      <trkpt lat="43.67438" lon="4.62038">
        <ele>9.7</ele>
        <time>2022-08-28T08:48:15Z</time>
      </trkpt>
      <trkpt lat="43.67449" lon="4.62019">
        <ele>10.1</ele>
        <time>2022-08-28T08:48:20Z</time>
      </trkpt>
      <trkpt lat="43.6746" lon="4.62003">
        <ele>10.6</ele>
        <time>2022-08-28T08:48:25Z</time>
      </trkpt>
      <trkpt lat="43.67471" lon="4.61987">
        <ele>11.2</ele>
        <time>2022-08-28T08:48:30Z</time>
      </trkpt>
      <trkpt lat="43.67502" lon="4.61938">
        <ele>13.5</ele>
        <time>2022-08-28T08:48:50Z</time>
      </trkpt>
      <trkpt lat="43.6754" lon="4.61883">
        <ele>14.7</ele>
        <time>2022-08-28T08:49:15Z</time>
      </trkpt>
      <trkpt lat="43.6755" lon="4.61872">
        <ele>14.9</ele>
        <time>2022-08-28T08:49:20Z</time>
      </trkpt>
      <trkpt lat="43.67569" lon="4.61842">
        <ele>15.3</ele>
        <time>2022-08-28T08:49:33Z</time>
      </trkpt>
      <trkpt lat="43.67606" lon="4.61792">
        <ele>15.9</ele>
        <time>2022-08-28T08:49:51Z</time>
      </trkpt>
      <trkpt lat="43.67644" lon="4.61739">
        <ele>16.2</ele>
        <time>2022-08-28T08:50:07Z</time>
      </trkpt>
      <trkpt lat="43.6768" lon="4.61686">
        <ele>16.1</ele>
        <time>2022-08-28T08:50:21Z</time>
      </trkpt>
      <trkpt lat="43.67692" lon="4.61663">
        <ele>15.9</ele>
        <time>2022-08-28T08:50:26Z</time>
      </trkpt>
      <trkpt lat="43.67703" lon="4.61645">
        <ele>15.7</ele>
        <time>2022-08-28T08:50:30Z</time>
      </trkpt>
      <trkpt lat="43.67717" lon="4.61624">
        <ele>15.6</ele>
        <time>2022-08-28T08:50:35Z</time>
      </trkpt>
      <trkpt lat="43.67737" lon="4.61593">
        <ele>15.2</ele>
        <time>2022-08-28T08:50:44Z</time>
      </trkpt>
      <trkpt lat="43.67738" lon="4.61586">
        <ele>15.1</ele>
        <time>2022-08-28T08:50:47Z</time>
      </trkpt>
      <trkpt lat="43.67759" lon="4.61558">
        <ele>14.4</ele>
        <time>2022-08-28T08:50:54Z</time>
      </trkpt>
      <trkpt lat="43.67769" lon="4.61534">
        <ele>13.7</ele>
        <time>2022-08-28T08:50:59Z</time>
      </trkpt>
      <trkpt lat="43.67797" lon="4.61472">
        <ele>10.3</ele>
        <time>2022-08-28T08:51:11Z</time>
      </trkpt>
      <trkpt lat="43.67802" lon="4.61466">
        <ele>9.8</ele>
        <time>2022-08-28T08:51:13Z</time>
      </trkpt>
      <trkpt lat="43.67807" lon="4.61467">
        <ele>9.5</ele>
        <time>2022-08-28T08:51:15Z</time>
      </trkpt>
      <trkpt lat="43.67824" lon="4.61539">
        <ele>8.5</ele>
        <time>2022-08-28T08:51:31Z</time>
      </trkpt>
      <trkpt lat="43.67835" lon="4.61585">
        <ele>8.4</ele>
        <time>2022-08-28T08:51:41Z</time>
      </trkpt>
      <trkpt lat="43.67847" lon="4.61658">
        <ele>8</ele>
        <time>2022-08-28T08:51:56Z</time>
      </trkpt>
      <trkpt lat="43.67864" lon="4.6173">
        <ele>7.3</ele>
        <time>2022-08-28T08:52:12Z</time>
      </trkpt>
      <trkpt lat="43.67859" lon="4.61736">
        <ele>7.1</ele>
        <time>2022-08-28T08:52:14Z</time>
      </trkpt>
      <trkpt lat="43.67853" lon="4.61736">
        <ele>7.2</ele>
        <time>2022-08-28T08:52:16Z</time>
      </trkpt>
      <trkpt lat="43.67847" lon="4.61733">
        <ele>7.2</ele>
        <time>2022-08-28T08:52:18Z</time>
      </trkpt>
      <trkpt lat="43.67841" lon="4.61729">
        <ele>7.2</ele>
        <time>2022-08-28T08:52:20Z</time>
      </trkpt>
      <trkpt lat="43.67828" lon="4.61718">
        <ele>7.2</ele>
        <time>2022-08-28T08:52:24Z</time>
      </trkpt>
      <trkpt lat="43.67825" lon="4.61715">
        <ele>7.1</ele>
        <time>2022-08-28T08:52:25Z</time>
      </trkpt>
      <trkpt lat="43.67822" lon="4.61711">
        <ele>7.1</ele>
        <time>2022-08-28T08:52:26Z</time>
      </trkpt>
      <trkpt lat="43.67812" lon="4.61701">
        <ele>7.1</ele>
        <time>2022-08-28T08:52:29Z</time>
      </trkpt>
      <trkpt lat="43.67806" lon="4.61694">
        <ele>7</ele>
        <time>2022-08-28T08:52:31Z</time>
      </trkpt>
      <trkpt lat="43.67795" lon="4.61684">
        <ele>7</ele>
        <time>2022-08-28T08:52:34Z</time>
      </trkpt>
      <trkpt lat="43.67778" lon="4.61667">
        <ele>7</ele>
        <time>2022-08-28T08:52:39Z</time>
      </trkpt>
      <trkpt lat="43.6776" lon="4.61647">
        <ele>7</ele>
        <time>2022-08-28T08:52:45Z</time>
      </trkpt>
      <trkpt lat="43.67755" lon="4.6164">
        <ele>7</ele>
        <time>2022-08-28T08:52:47Z</time>
      </trkpt>
      <trkpt lat="43.67746" lon="4.61629">
        <ele>7</ele>
        <time>2022-08-28T08:52:50Z</time>
      </trkpt>
      <trkpt lat="43.67728" lon="4.61607">
        <ele>7</ele>
        <time>2022-08-28T08:52:55Z</time>
      </trkpt>
      <trkpt lat="43.67718" lon="4.61595">
        <ele>7</ele>
        <time>2022-08-28T08:52:59Z</time>
      </trkpt>
      <trkpt lat="43.67705" lon="4.61576">
        <ele>7</ele>
        <time>2022-08-28T08:53:03Z</time>
      </trkpt>
      <trkpt lat="43.67694" lon="4.61559">
        <ele>7</ele>
        <time>2022-08-28T08:53:06Z</time>
      </trkpt>
      <trkpt lat="43.67684" lon="4.61542">
        <ele>6.9</ele>
        <time>2022-08-28T08:53:09Z</time>
      </trkpt>
      <trkpt lat="43.67677" lon="4.61531">
        <ele>6.9</ele>
        <time>2022-08-28T08:53:11Z</time>
      </trkpt>
      <trkpt lat="43.67643" lon="4.61475">
        <ele>6.8</ele>
        <time>2022-08-28T08:53:22Z</time>
      </trkpt>
      <trkpt lat="43.67624" lon="4.61434">
        <ele>6.7</ele>
        <time>2022-08-28T08:53:30Z</time>
      </trkpt>
      <trkpt lat="43.6761" lon="4.61407">
        <ele>6.7</ele>
        <time>2022-08-28T08:53:35Z</time>
      </trkpt>
      <trkpt lat="43.67602" lon="4.61392">
        <ele>6.7</ele>
        <time>2022-08-28T08:53:38Z</time>
      </trkpt>
      <trkpt lat="43.67598" lon="4.61381">
        <ele>6.7</ele>
        <time>2022-08-28T08:53:40Z</time>
      </trkpt>
      <trkpt lat="43.67595" lon="4.61375">
        <ele>6.7</ele>
        <time>2022-08-28T08:53:41Z</time>
      </trkpt>
      <trkpt lat="43.6759" lon="4.61364">
        <ele>6.6</ele>
        <time>2022-08-28T08:53:43Z</time>
      </trkpt>
      <trkpt lat="43.67586" lon="4.61353">
        <ele>6.6</ele>
        <time>2022-08-28T08:53:45Z</time>
      </trkpt>
      <trkpt lat="43.6758" lon="4.6134">
        <ele>6.7</ele>
        <time>2022-08-28T08:53:47Z</time>
      </trkpt>
      <trkpt lat="43.6757" lon="4.61315">
        <ele>6.7</ele>
        <time>2022-08-28T08:53:51Z</time>
      </trkpt>
      <trkpt lat="43.67555" lon="4.61281">
        <ele>6.7</ele>
        <time>2022-08-28T08:53:56Z</time>
      </trkpt>
      <trkpt lat="43.67546" lon="4.61261">
        <ele>6.7</ele>
        <time>2022-08-28T08:53:59Z</time>
      </trkpt>
      <trkpt lat="43.67543" lon="4.61255">
        <ele>6.6</ele>
        <time>2022-08-28T08:54:00Z</time>
      </trkpt>
      <trkpt lat="43.67536" lon="4.61241">
        <ele>6.6</ele>
        <time>2022-08-28T08:54:02Z</time>
      </trkpt>
      <trkpt lat="43.67533" lon="4.61234">
        <ele>6.6</ele>
        <time>2022-08-28T08:54:03Z</time>
      </trkpt>
      <trkpt lat="43.67526" lon="4.61222">
        <ele>6.5</ele>
        <time>2022-08-28T08:54:05Z</time>
      </trkpt>
      <trkpt lat="43.67494" lon="4.61155">
        <ele>6.6</ele>
        <time>2022-08-28T08:54:16Z</time>
      </trkpt>
      <trkpt lat="43.67481" lon="4.61123">
        <ele>6.5</ele>
        <time>2022-08-28T08:54:21Z</time>
      </trkpt>
      <trkpt lat="43.67469" lon="4.61096">
        <ele>6.4</ele>
        <time>2022-08-28T08:54:25Z</time>
      </trkpt>
      <trkpt lat="43.67459" lon="4.61063">
        <ele>6.4</ele>
        <time>2022-08-28T08:54:30Z</time>
      </trkpt>
      <trkpt lat="43.67449" lon="4.61031">
        <ele>6.4</ele>
        <time>2022-08-28T08:54:35Z</time>
      </trkpt>
      <trkpt lat="43.67448" lon="4.61025">
        <ele>6.4</ele>
        <time>2022-08-28T08:54:36Z</time>
      </trkpt>
      <trkpt lat="43.6744" lon="4.6099">
        <ele>6.5</ele>
        <time>2022-08-28T08:54:41Z</time>
      </trkpt>
      <trkpt lat="43.67426" lon="4.60922">
        <ele>6.6</ele>
        <time>2022-08-28T08:54:51Z</time>
      </trkpt>
      <trkpt lat="43.67419" lon="4.60889">
        <ele>6.6</ele>
        <time>2022-08-28T08:54:56Z</time>
      </trkpt>
      <trkpt lat="43.67411" lon="4.60851">
        <ele>6.6</ele>
        <time>2022-08-28T08:55:02Z</time>
      </trkpt>
      <trkpt lat="43.67395" lon="4.60778">
        <ele>6.6</ele>
        <time>2022-08-28T08:55:13Z</time>
      </trkpt>
      <trkpt lat="43.6739" lon="4.60757">
        <ele>6.6</ele>
        <time>2022-08-28T08:55:16Z</time>
      </trkpt>
      <trkpt lat="43.67389" lon="4.60751">
        <ele>6.6</ele>
        <time>2022-08-28T08:55:17Z</time>
      </trkpt>
      <trkpt lat="43.67387" lon="4.60744">
        <ele>6.6</ele>
        <time>2022-08-28T08:55:18Z</time>
      </trkpt>
      <trkpt lat="43.6738" lon="4.60723">
        <ele>6.6</ele>
        <time>2022-08-28T08:55:21Z</time>
      </trkpt>
      <trkpt lat="43.67378" lon="4.60717">
        <ele>6.6</ele>
        <time>2022-08-28T08:55:22Z</time>
      </trkpt>
      <trkpt lat="43.67376" lon="4.6071">
        <ele>6.5</ele>
        <time>2022-08-28T08:55:23Z</time>
      </trkpt>
      <trkpt lat="43.67374" lon="4.60705">
        <ele>6.5</ele>
        <time>2022-08-28T08:55:24Z</time>
      </trkpt>
      <trkpt lat="43.67371" lon="4.60699">
        <ele>6.5</ele>
        <time>2022-08-28T08:55:25Z</time>
      </trkpt>
      <trkpt lat="43.67369" lon="4.60693">
        <ele>6.6</ele>
        <time>2022-08-28T08:55:26Z</time>
      </trkpt>
      <trkpt lat="43.67367" lon="4.60688">
        <ele>6.6</ele>
        <time>2022-08-28T08:55:27Z</time>
      </trkpt>
      <trkpt lat="43.67366" lon="4.60681">
        <ele>6.6</ele>
        <time>2022-08-28T08:55:28Z</time>
      </trkpt>
      <trkpt lat="43.67365" lon="4.60674">
        <ele>6.6</ele>
        <time>2022-08-28T08:55:29Z</time>
      </trkpt>
      <trkpt lat="43.67368" lon="4.60662">
        <ele>6.6</ele>
        <time>2022-08-28T08:55:31Z</time>
      </trkpt>
      <trkpt lat="43.67377" lon="4.60646">
        <ele>6.6</ele>
        <time>2022-08-28T08:55:34Z</time>
      </trkpt>
      <trkpt lat="43.67381" lon="4.60634">
        <ele>6.5</ele>
        <time>2022-08-28T08:55:36Z</time>
      </trkpt>
      <trkpt lat="43.67382" lon="4.60619">
        <ele>6.5</ele>
        <time>2022-08-28T08:55:38Z</time>
      </trkpt>
      <trkpt lat="43.67379" lon="4.60606">
        <ele>6.4</ele>
        <time>2022-08-28T08:55:40Z</time>
      </trkpt>
      <trkpt lat="43.67377" lon="4.60599">
        <ele>6.4</ele>
        <time>2022-08-28T08:55:41Z</time>
      </trkpt>
      <trkpt lat="43.67374" lon="4.60594">
        <ele>6.4</ele>
        <time>2022-08-28T08:55:42Z</time>
      </trkpt>
      <trkpt lat="43.67371" lon="4.60588">
        <ele>6.4</ele>
        <time>2022-08-28T08:55:43Z</time>
      </trkpt>
      <trkpt lat="43.67368" lon="4.60575">
        <ele>6.3</ele>
        <time>2022-08-28T08:55:45Z</time>
      </trkpt>
      <trkpt lat="43.67367" lon="4.60561">
        <ele>6.2</ele>
        <time>2022-08-28T08:55:47Z</time>
      </trkpt>
      <trkpt lat="43.67366" lon="4.60554">
        <ele>6.1</ele>
        <time>2022-08-28T08:55:48Z</time>
      </trkpt>
      <trkpt lat="43.67365" lon="4.60533">
        <ele>5.9</ele>
        <time>2022-08-28T08:55:51Z</time>
      </trkpt>
      <trkpt lat="43.67364" lon="4.60525">
        <ele>5.9</ele>
        <time>2022-08-28T08:55:52Z</time>
      </trkpt>
      <trkpt lat="43.67363" lon="4.60495">
        <ele>5.5</ele>
        <time>2022-08-28T08:55:56Z</time>
      </trkpt>
      <trkpt lat="43.67362" lon="4.60488">
        <ele>5.4</ele>
        <time>2022-08-28T08:55:57Z</time>
      </trkpt>
      <trkpt lat="43.6735" lon="4.60436">
        <ele>5.1</ele>
        <time>2022-08-28T08:56:05Z</time>
      </trkpt>
      <trkpt lat="43.67346" lon="4.60419">
        <ele>5</ele>
        <time>2022-08-28T08:56:08Z</time>
      </trkpt>
      <trkpt lat="43.67345" lon="4.60413">
        <ele>5</ele>
        <time>2022-08-28T08:56:09Z</time>
      </trkpt>
      <trkpt lat="43.67339" lon="4.60395">
        <ele>4.9</ele>
        <time>2022-08-28T08:56:12Z</time>
      </trkpt>
      <trkpt lat="43.67337" lon="4.60389">
        <ele>4.9</ele>
        <time>2022-08-28T08:56:13Z</time>
      </trkpt>
      <trkpt lat="43.67335" lon="4.60383">
        <ele>4.9</ele>
        <time>2022-08-28T08:56:14Z</time>
      </trkpt>
      <trkpt lat="43.67332" lon="4.60371">
        <ele>4.9</ele>
        <time>2022-08-28T08:56:16Z</time>
      </trkpt>
      <trkpt lat="43.67322" lon="4.60333">
        <ele>4.8</ele>
        <time>2022-08-28T08:56:22Z</time>
      </trkpt>
      <trkpt lat="43.67312" lon="4.60296">
        <ele>4.8</ele>
        <time>2022-08-28T08:56:27Z</time>
      </trkpt>
      <trkpt lat="43.67307" lon="4.60275">
        <ele>4.8</ele>
        <time>2022-08-28T08:56:30Z</time>
      </trkpt>
      <trkpt lat="43.67306" lon="4.60268">
        <ele>4.8</ele>
        <time>2022-08-28T08:56:31Z</time>
      </trkpt>
      <trkpt lat="43.67304" lon="4.60261">
        <ele>4.8</ele>
        <time>2022-08-28T08:56:32Z</time>
      </trkpt>
      <trkpt lat="43.67303" lon="4.60254">
        <ele>4.8</ele>
        <time>2022-08-28T08:56:33Z</time>
      </trkpt>
      <trkpt lat="43.673" lon="4.6024">
        <ele>4.7</ele>
        <time>2022-08-28T08:56:35Z</time>
      </trkpt>
      <trkpt lat="43.67298" lon="4.60233">
        <ele>4.7</ele>
        <time>2022-08-28T08:56:36Z</time>
      </trkpt>
      <trkpt lat="43.67297" lon="4.60226">
        <ele>4.7</ele>
        <time>2022-08-28T08:56:37Z</time>
      </trkpt>
      <trkpt lat="43.67294" lon="4.60213">
        <ele>4.7</ele>
        <time>2022-08-28T08:56:39Z</time>
      </trkpt>
      <trkpt lat="43.67279" lon="4.60134">
        <ele>4.7</ele>
        <time>2022-08-28T08:56:50Z</time>
      </trkpt>
      <trkpt lat="43.67272" lon="4.60075">
        <ele>4.7</ele>
        <time>2022-08-28T08:56:58Z</time>
      </trkpt>
      <trkpt lat="43.67261" lon="4.59996">
        <ele>4.7</ele>
        <time>2022-08-28T08:57:09Z</time>
      </trkpt>
      <trkpt lat="43.67258" lon="4.59981">
        <ele>4.6</ele>
        <time>2022-08-28T08:57:11Z</time>
      </trkpt>
      <trkpt lat="43.67257" lon="4.59974">
        <ele>4.6</ele>
        <time>2022-08-28T08:57:12Z</time>
      </trkpt>
      <trkpt lat="43.67256" lon="4.59968">
        <ele>4.6</ele>
        <time>2022-08-28T08:57:13Z</time>
      </trkpt>
      <trkpt lat="43.67247" lon="4.59888">
        <ele>4.4</ele>
        <time>2022-08-28T08:57:24Z</time>
      </trkpt>
      <trkpt lat="43.67241" lon="4.59852">
        <ele>4.5</ele>
        <time>2022-08-28T08:57:29Z</time>
      </trkpt>
      <trkpt lat="43.67239" lon="4.59838">
        <ele>4.5</ele>
        <time>2022-08-28T08:57:31Z</time>
      </trkpt>
      <trkpt lat="43.67239" lon="4.59831">
        <ele>4.6</ele>
        <time>2022-08-28T08:57:32Z</time>
      </trkpt>
      <trkpt lat="43.67238" lon="4.59824">
        <ele>4.6</ele>
        <time>2022-08-28T08:57:33Z</time>
      </trkpt>
      <trkpt lat="43.67238" lon="4.59816">
        <ele>4.6</ele>
        <time>2022-08-28T08:57:34Z</time>
      </trkpt>
      <trkpt lat="43.67236" lon="4.59801">
        <ele>4.6</ele>
        <time>2022-08-28T08:57:36Z</time>
      </trkpt>
      <trkpt lat="43.67232" lon="4.59771">
        <ele>4.6</ele>
        <time>2022-08-28T08:57:40Z</time>
      </trkpt>
      <trkpt lat="43.67232" lon="4.59763">
        <ele>4.6</ele>
        <time>2022-08-28T08:57:41Z</time>
      </trkpt>
      <trkpt lat="43.67228" lon="4.59733">
        <ele>4.5</ele>
        <time>2022-08-28T08:57:45Z</time>
      </trkpt>
      <trkpt lat="43.67223" lon="4.59694">
        <ele>4.5</ele>
        <time>2022-08-28T08:57:50Z</time>
      </trkpt>
      <trkpt lat="43.67221" lon="4.59686">
        <ele>4.5</ele>
        <time>2022-08-28T08:57:51Z</time>
      </trkpt>
      <trkpt lat="43.6722" lon="4.5968">
        <ele>4.5</ele>
        <time>2022-08-28T08:57:52Z</time>
      </trkpt>
      <trkpt lat="43.67208" lon="4.5963">
        <ele>4.5</ele>
        <time>2022-08-28T08:58:00Z</time>
      </trkpt>
      <trkpt lat="43.67187" lon="4.59588">
        <ele>4.5</ele>
        <time>2022-08-28T08:58:08Z</time>
      </trkpt>
      <trkpt lat="43.67176" lon="4.59568">
        <ele>4.4</ele>
        <time>2022-08-28T08:58:12Z</time>
      </trkpt>
      <trkpt lat="43.67162" lon="4.5954">
        <ele>4.4</ele>
        <time>2022-08-28T08:58:17Z</time>
      </trkpt>
      <trkpt lat="43.6715" lon="4.59514">
        <ele>4.4</ele>
        <time>2022-08-28T08:58:21Z</time>
      </trkpt>
      <trkpt lat="43.67137" lon="4.59486">
        <ele>4.4</ele>
        <time>2022-08-28T08:58:26Z</time>
      </trkpt>
      <trkpt lat="43.67131" lon="4.5947">
        <ele>4.4</ele>
        <time>2022-08-28T08:58:28Z</time>
      </trkpt>
      <trkpt lat="43.67126" lon="4.59462">
        <ele>4.4</ele>
        <time>2022-08-28T08:58:29Z</time>
      </trkpt>
      <trkpt lat="43.6712" lon="4.59448">
        <ele>4.4</ele>
        <time>2022-08-28T08:58:31Z</time>
      </trkpt>
      <trkpt lat="43.67112" lon="4.59432">
        <ele>4.4</ele>
        <time>2022-08-28T08:58:33Z</time>
      </trkpt>
      <trkpt lat="43.67109" lon="4.59425">
        <ele>4.4</ele>
        <time>2022-08-28T08:58:34Z</time>
      </trkpt>
      <trkpt lat="43.67102" lon="4.59411">
        <ele>4.4</ele>
        <time>2022-08-28T08:58:36Z</time>
      </trkpt>
      <trkpt lat="43.67098" lon="4.59404">
        <ele>4.4</ele>
        <time>2022-08-28T08:58:37Z</time>
      </trkpt>
      <trkpt lat="43.67082" lon="4.59369">
        <ele>4.4</ele>
        <time>2022-08-28T08:58:42Z</time>
      </trkpt>
      <trkpt lat="43.67077" lon="4.59358">
        <ele>4.4</ele>
        <time>2022-08-28T08:58:44Z</time>
      </trkpt>
      <trkpt lat="43.67074" lon="4.59352">
        <ele>4.4</ele>
        <time>2022-08-28T08:58:45Z</time>
      </trkpt>
      <trkpt lat="43.67071" lon="4.59346">
        <ele>4.4</ele>
        <time>2022-08-28T08:58:46Z</time>
      </trkpt>
      <trkpt lat="43.67068" lon="4.5934">
        <ele>4.4</ele>
        <time>2022-08-28T08:58:47Z</time>
      </trkpt>
      <trkpt lat="43.67062" lon="4.59329">
        <ele>4.3</ele>
        <time>2022-08-28T08:58:49Z</time>
      </trkpt>
      <trkpt lat="43.67048" lon="4.59301">
        <ele>4.3</ele>
        <time>2022-08-28T08:58:54Z</time>
      </trkpt>
      <trkpt lat="43.67044" lon="4.59289">
        <ele>4.3</ele>
        <time>2022-08-28T08:58:56Z</time>
      </trkpt>
      <trkpt lat="43.67017" lon="4.59222">
        <ele>4.2</ele>
        <time>2022-08-28T08:59:06Z</time>
      </trkpt>
      <trkpt lat="43.66992" lon="4.5917">
        <ele>4.2</ele>
        <time>2022-08-28T08:59:14Z</time>
      </trkpt>
      <trkpt lat="43.6698" lon="4.59152">
        <ele>4.2</ele>
        <time>2022-08-28T08:59:17Z</time>
      </trkpt>
      <trkpt lat="43.6695" lon="4.59104">
        <ele>4.1</ele>
        <time>2022-08-28T08:59:25Z</time>
      </trkpt>
      <trkpt lat="43.66911" lon="4.59047">
        <ele>4.1</ele>
        <time>2022-08-28T08:59:35Z</time>
      </trkpt>
      <trkpt lat="43.66908" lon="4.59041">
        <ele>4.1</ele>
        <time>2022-08-28T08:59:36Z</time>
      </trkpt>
      <trkpt lat="43.66884" lon="4.59008">
        <ele>4.1</ele>
        <time>2022-08-28T08:59:42Z</time>
      </trkpt>
      <trkpt lat="43.66876" lon="4.58997">
        <ele>4.1</ele>
        <time>2022-08-28T08:59:44Z</time>
      </trkpt>
      <trkpt lat="43.66869" lon="4.58987">
        <ele>4.2</ele>
        <time>2022-08-28T08:59:46Z</time>
      </trkpt>
      <trkpt lat="43.66855" lon="4.58964">
        <ele>4.2</ele>
        <time>2022-08-28T08:59:50Z</time>
      </trkpt>
      <trkpt lat="43.6684" lon="4.58932">
        <ele>4.2</ele>
        <time>2022-08-28T08:59:55Z</time>
      </trkpt>
      <trkpt lat="43.66838" lon="4.58926">
        <ele>4.2</ele>
        <time>2022-08-28T08:59:56Z</time>
      </trkpt>
      <trkpt lat="43.66836" lon="4.58919">
        <ele>4.3</ele>
        <time>2022-08-28T08:59:57Z</time>
      </trkpt>
      <trkpt lat="43.66832" lon="4.58906">
        <ele>4.3</ele>
        <time>2022-08-28T08:59:59Z</time>
      </trkpt>
      <trkpt lat="43.66827" lon="4.58895">
        <ele>4.3</ele>
        <time>2022-08-28T09:00:01Z</time>
      </trkpt>
      <trkpt lat="43.66823" lon="4.5889">
        <ele>4.3</ele>
        <time>2022-08-28T09:00:02Z</time>
      </trkpt>
      <trkpt lat="43.66819" lon="4.58888">
        <ele>4.2</ele>
        <time>2022-08-28T09:00:03Z</time>
      </trkpt>
      <trkpt lat="43.66814" lon="4.58888">
        <ele>4.1</ele>
        <time>2022-08-28T09:00:04Z</time>
      </trkpt>
      <trkpt lat="43.6681" lon="4.5889">
        <ele>4</ele>
        <time>2022-08-28T09:00:05Z</time>
      </trkpt>
      <trkpt lat="43.66802" lon="4.58897">
        <ele>3.9</ele>
        <time>2022-08-28T09:00:07Z</time>
      </trkpt>
      <trkpt lat="43.66785" lon="4.58911">
        <ele>3.7</ele>
        <time>2022-08-28T09:00:11Z</time>
      </trkpt>
      <trkpt lat="43.66778" lon="4.58917">
        <ele>3.7</ele>
        <time>2022-08-28T09:00:13Z</time>
      </trkpt>
      <trkpt lat="43.66775" lon="4.5892">
        <ele>3.7</ele>
        <time>2022-08-28T09:00:14Z</time>
      </trkpt>
      <trkpt lat="43.66752" lon="4.58937">
        <ele>3.5</ele>
        <time>2022-08-28T09:00:20Z</time>
      </trkpt>
      <trkpt lat="43.66711" lon="4.58967">
        <ele>3.4</ele>
        <time>2022-08-28T09:00:30Z</time>
      </trkpt>
      <trkpt lat="43.66695" lon="4.58978">
        <ele>3.4</ele>
        <time>2022-08-28T09:00:34Z</time>
      </trkpt>
      <trkpt lat="43.66659" lon="4.59004">
        <ele>3.7</ele>
        <time>2022-08-28T09:00:42Z</time>
      </trkpt>
      <trkpt lat="43.66632" lon="4.59022">
        <ele>4.5</ele>
        <time>2022-08-28T09:00:48Z</time>
      </trkpt>
      <trkpt lat="43.66615" lon="4.59027">
        <ele>5.6</ele>
        <time>2022-08-28T09:00:55Z</time>
      </trkpt>
      <trkpt lat="43.66615" lon="4.59027">
        <ele>5.6</ele>
        <time>2022-08-28T09:01:00Z</time>
      </trkpt>
      <trkpt lat="43.66614" lon="4.59026">
        <ele>5.6</ele>
        <time>2022-08-28T09:01:02Z</time>
      </trkpt>
      <trkpt lat="43.66583" lon="4.58959">
        <ele>5.8</ele>
        <time>2022-08-28T09:01:18Z</time>
      </trkpt>
      <trkpt lat="43.66551" lon="4.58896">
        <ele>5.8</ele>
        <time>2022-08-28T09:01:29Z</time>
      </trkpt>
      <trkpt lat="43.66525" lon="4.5886">
        <ele>5.8</ele>
        <time>2022-08-28T09:01:36Z</time>
      </trkpt>
      <trkpt lat="43.66496" lon="4.5883">
        <ele>5.7</ele>
        <time>2022-08-28T09:01:43Z</time>
      </trkpt>
      <trkpt lat="43.6647" lon="4.58805">
        <ele>5.6</ele>
        <time>2022-08-28T09:01:49Z</time>
      </trkpt>
      <trkpt lat="43.66466" lon="4.58801">
        <ele>5.5</ele>
        <time>2022-08-28T09:01:50Z</time>
      </trkpt>
      <trkpt lat="43.66462" lon="4.58797">
        <ele>5.5</ele>
        <time>2022-08-28T09:01:51Z</time>
      </trkpt>
      <trkpt lat="43.66449" lon="4.58785">
        <ele>5.4</ele>
        <time>2022-08-28T09:01:54Z</time>
      </trkpt>
      <trkpt lat="43.66444" lon="4.58781">
        <ele>5.4</ele>
        <time>2022-08-28T09:01:55Z</time>
      </trkpt>
      <trkpt lat="43.66436" lon="4.58772">
        <ele>5.3</ele>
        <time>2022-08-28T09:01:57Z</time>
      </trkpt>
      <trkpt lat="43.66427" lon="4.58764">
        <ele>5.4</ele>
        <time>2022-08-28T09:01:59Z</time>
      </trkpt>
      <trkpt lat="43.66423" lon="4.58759">
        <ele>5.4</ele>
        <time>2022-08-28T09:02:00Z</time>
      </trkpt>
      <trkpt lat="43.66418" lon="4.58755">
        <ele>5.4</ele>
        <time>2022-08-28T09:02:01Z</time>
      </trkpt>
      <trkpt lat="43.66414" lon="4.58751">
        <ele>5.5</ele>
        <time>2022-08-28T09:02:02Z</time>
      </trkpt>
      <trkpt lat="43.66393" lon="4.5873">
        <ele>5.6</ele>
        <time>2022-08-28T09:02:07Z</time>
      </trkpt>
      <trkpt lat="43.66351" lon="4.58687">
        <ele>6</ele>
        <time>2022-08-28T09:02:17Z</time>
      </trkpt>
      <trkpt lat="43.66347" lon="4.58683">
        <ele>6</ele>
        <time>2022-08-28T09:02:18Z</time>
      </trkpt>
      <trkpt lat="43.66343" lon="4.58679">
        <ele>6</ele>
        <time>2022-08-28T09:02:19Z</time>
      </trkpt>
      <trkpt lat="43.66296" lon="4.58631">
        <ele>6.1</ele>
        <time>2022-08-28T09:02:30Z</time>
      </trkpt>
      <trkpt lat="43.66271" lon="4.58605">
        <ele>6.6</ele>
        <time>2022-08-28T09:02:36Z</time>
      </trkpt>
      <trkpt lat="43.66259" lon="4.58593">
        <ele>6.9</ele>
        <time>2022-08-28T09:02:39Z</time>
      </trkpt>
      <trkpt lat="43.6625" lon="4.58585">
        <ele>7.1</ele>
        <time>2022-08-28T09:02:41Z</time>
      </trkpt>
      <trkpt lat="43.66216" lon="4.58556">
        <ele>7.4</ele>
        <time>2022-08-28T09:02:49Z</time>
      </trkpt>
      <trkpt lat="43.6619" lon="4.58535">
        <ele>7.6</ele>
        <time>2022-08-28T09:02:55Z</time>
      </trkpt>
      <trkpt lat="43.6614" lon="4.58494">
        <ele>7.7</ele>
        <time>2022-08-28T09:03:06Z</time>
      </trkpt>
      <trkpt lat="43.66126" lon="4.58482">
        <ele>7.7</ele>
        <time>2022-08-28T09:03:09Z</time>
      </trkpt>
      <trkpt lat="43.66076" lon="4.5844">
        <ele>7.3</ele>
        <time>2022-08-28T09:03:19Z</time>
      </trkpt>
      <trkpt lat="43.6603" lon="4.58398">
        <ele>6.6</ele>
        <time>2022-08-28T09:03:28Z</time>
      </trkpt>
      <trkpt lat="43.66" lon="4.58364">
        <ele>5.8</ele>
        <time>2022-08-28T09:03:35Z</time>
      </trkpt>
      <trkpt lat="43.6599" lon="4.58357">
        <ele>5.6</ele>
        <time>2022-08-28T09:03:37Z</time>
      </trkpt>
      <trkpt lat="43.65961" lon="4.58325">
        <ele>5.3</ele>
        <time>2022-08-28T09:03:46Z</time>
      </trkpt>
      <trkpt lat="43.65946" lon="4.58339">
        <ele>5.8</ele>
        <time>2022-08-28T09:03:51Z</time>
      </trkpt>
      <trkpt lat="43.65938" lon="4.58344">
        <ele>5.8</ele>
        <time>2022-08-28T09:03:53Z</time>
      </trkpt>
      <trkpt lat="43.65929" lon="4.58346">
        <ele>5.9</ele>
        <time>2022-08-28T09:03:55Z</time>
      </trkpt>
      <trkpt lat="43.65907" lon="4.58344">
        <ele>5.9</ele>
        <time>2022-08-28T09:04:00Z</time>
      </trkpt>
      <trkpt lat="43.65894" lon="4.58342">
        <ele>6</ele>
        <time>2022-08-28T09:04:03Z</time>
      </trkpt>
      <trkpt lat="43.65889" lon="4.58341">
        <ele>6</ele>
        <time>2022-08-28T09:04:04Z</time>
      </trkpt>
      <trkpt lat="43.65845" lon="4.58332">
        <ele>6</ele>
        <time>2022-08-28T09:04:14Z</time>
      </trkpt>
      <trkpt lat="43.65829" lon="4.58327">
        <ele>6.2</ele>
        <time>2022-08-28T09:04:18Z</time>
      </trkpt>
      <trkpt lat="43.65825" lon="4.58326">
        <ele>6.2</ele>
        <time>2022-08-28T09:04:19Z</time>
      </trkpt>
      <trkpt lat="43.65821" lon="4.58325">
        <ele>6.3</ele>
        <time>2022-08-28T09:04:20Z</time>
      </trkpt>
      <trkpt lat="43.65767" lon="4.58318">
        <ele>6.5</ele>
        <time>2022-08-28T09:04:33Z</time>
      </trkpt>
      <trkpt lat="43.65753" lon="4.58315">
        <ele>6.3</ele>
        <time>2022-08-28T09:04:36Z</time>
      </trkpt>
      <trkpt lat="43.65744" lon="4.58312">
        <ele>6.2</ele>
        <time>2022-08-28T09:04:38Z</time>
      </trkpt>
      <trkpt lat="43.65703" lon="4.58288">
        <ele>6</ele>
        <time>2022-08-28T09:04:47Z</time>
      </trkpt>
      <trkpt lat="43.65686" lon="4.58274">
        <ele>6</ele>
        <time>2022-08-28T09:04:51Z</time>
      </trkpt>
      <trkpt lat="43.6567" lon="4.58259">
        <ele>6</ele>
        <time>2022-08-28T09:04:55Z</time>
      </trkpt>
      <trkpt lat="43.65625" lon="4.58217">
        <ele>6.1</ele>
        <time>2022-08-28T09:05:06Z</time>
      </trkpt>
      <trkpt lat="43.65574" lon="4.58184">
        <ele>6.2</ele>
        <time>2022-08-28T09:05:17Z</time>
      </trkpt>
      <trkpt lat="43.65548" lon="4.58168">
        <ele>6.3</ele>
        <time>2022-08-28T09:05:23Z</time>
      </trkpt>
      <trkpt lat="43.65534" lon="4.58162">
        <ele>6.4</ele>
        <time>2022-08-28T09:05:26Z</time>
      </trkpt>
      <trkpt lat="43.65516" lon="4.58155">
        <ele>6.6</ele>
        <time>2022-08-28T09:05:30Z</time>
      </trkpt>
      <trkpt lat="43.65502" lon="4.58155">
        <ele>6.8</ele>
        <time>2022-08-28T09:05:33Z</time>
      </trkpt>
      <trkpt lat="43.65483" lon="4.58156">
        <ele>6.9</ele>
        <time>2022-08-28T09:05:37Z</time>
      </trkpt>
      <trkpt lat="43.65473" lon="4.58158">
        <ele>7</ele>
        <time>2022-08-28T09:05:39Z</time>
      </trkpt>
      <trkpt lat="43.65441" lon="4.58159">
        <ele>6.9</ele>
        <time>2022-08-28T09:05:45Z</time>
      </trkpt>
      <trkpt lat="43.65431" lon="4.58159">
        <ele>6.9</ele>
        <time>2022-08-28T09:05:47Z</time>
      </trkpt>
      <trkpt lat="43.6541" lon="4.58158">
        <ele>6.8</ele>
        <time>2022-08-28T09:05:51Z</time>
      </trkpt>
      <trkpt lat="43.65394" lon="4.58158">
        <ele>6.8</ele>
        <time>2022-08-28T09:05:54Z</time>
      </trkpt>
      <trkpt lat="43.65383" lon="4.5816">
        <ele>6.8</ele>
        <time>2022-08-28T09:05:56Z</time>
      </trkpt>
      <trkpt lat="43.6535" lon="4.58168">
        <ele>6.6</ele>
        <time>2022-08-28T09:06:03Z</time>
      </trkpt>
      <trkpt lat="43.65319" lon="4.58176">
        <ele>6.4</ele>
        <time>2022-08-28T09:06:09Z</time>
      </trkpt>
      <trkpt lat="43.65313" lon="4.58177">
        <ele>6.4</ele>
        <time>2022-08-28T09:06:10Z</time>
      </trkpt>
      <trkpt lat="43.65303" lon="4.58179">
        <ele>6.3</ele>
        <time>2022-08-28T09:06:12Z</time>
      </trkpt>
      <trkpt lat="43.65297" lon="4.5818">
        <ele>6.3</ele>
        <time>2022-08-28T09:06:13Z</time>
      </trkpt>
      <trkpt lat="43.65292" lon="4.5818">
        <ele>6.3</ele>
        <time>2022-08-28T09:06:14Z</time>
      </trkpt>
      <trkpt lat="43.65287" lon="4.58181">
        <ele>6.2</ele>
        <time>2022-08-28T09:06:15Z</time>
      </trkpt>
      <trkpt lat="43.65282" lon="4.58182">
        <ele>6.2</ele>
        <time>2022-08-28T09:06:16Z</time>
      </trkpt>
      <trkpt lat="43.65257" lon="4.5819">
        <ele>6.1</ele>
        <time>2022-08-28T09:06:21Z</time>
      </trkpt>
      <trkpt lat="43.65241" lon="4.58197">
        <ele>6.1</ele>
        <time>2022-08-28T09:06:24Z</time>
      </trkpt>
      <trkpt lat="43.65231" lon="4.58201">
        <ele>6.1</ele>
        <time>2022-08-28T09:06:26Z</time>
      </trkpt>
      <trkpt lat="43.65185" lon="4.5822">
        <ele>5.9</ele>
        <time>2022-08-28T09:06:35Z</time>
      </trkpt>
      <trkpt lat="43.65136" lon="4.58238">
        <ele>5.8</ele>
        <time>2022-08-28T09:06:45Z</time>
      </trkpt>
      <trkpt lat="43.65102" lon="4.58248">
        <ele>5.9</ele>
        <time>2022-08-28T09:06:52Z</time>
      </trkpt>
      <trkpt lat="43.65085" lon="4.58251">
        <ele>6.1</ele>
        <time>2022-08-28T09:06:56Z</time>
      </trkpt>
      <trkpt lat="43.65069" lon="4.5825">
        <ele>6.3</ele>
        <time>2022-08-28T09:07:00Z</time>
      </trkpt>
      <trkpt lat="43.65053" lon="4.58251">
        <ele>6.3</ele>
        <time>2022-08-28T09:07:04Z</time>
      </trkpt>
      <trkpt lat="43.65013" lon="4.58261">
        <ele>6.1</ele>
        <time>2022-08-28T09:07:15Z</time>
      </trkpt>
      <trkpt lat="43.65009" lon="4.58262">
        <ele>6.1</ele>
        <time>2022-08-28T09:07:16Z</time>
      </trkpt>
      <trkpt lat="43.64979" lon="4.58269">
        <ele>5.9</ele>
        <time>2022-08-28T09:07:23Z</time>
      </trkpt>
      <trkpt lat="43.64971" lon="4.58271">
        <ele>5.9</ele>
        <time>2022-08-28T09:07:25Z</time>
      </trkpt>
      <trkpt lat="43.64962" lon="4.58274">
        <ele>5.9</ele>
        <time>2022-08-28T09:07:27Z</time>
      </trkpt>
      <trkpt lat="43.6494" lon="4.5828">
        <ele>5.9</ele>
        <time>2022-08-28T09:07:32Z</time>
      </trkpt>
      <trkpt lat="43.64913" lon="4.58294">
        <ele>5.9</ele>
        <time>2022-08-28T09:07:38Z</time>
      </trkpt>
      <trkpt lat="43.64899" lon="4.58301">
        <ele>5.9</ele>
        <time>2022-08-28T09:07:41Z</time>
      </trkpt>
      <trkpt lat="43.6489" lon="4.58306">
        <ele>5.8</ele>
        <time>2022-08-28T09:07:43Z</time>
      </trkpt>
      <trkpt lat="43.64885" lon="4.58308">
        <ele>5.8</ele>
        <time>2022-08-28T09:07:44Z</time>
      </trkpt>
      <trkpt lat="43.64861" lon="4.58321">
        <ele>5.7</ele>
        <time>2022-08-28T09:07:49Z</time>
      </trkpt>
      <trkpt lat="43.64852" lon="4.58326">
        <ele>5.7</ele>
        <time>2022-08-28T09:07:51Z</time>
      </trkpt>
      <trkpt lat="43.64847" lon="4.58328">
        <ele>5.7</ele>
        <time>2022-08-28T09:07:52Z</time>
      </trkpt>
      <trkpt lat="43.64838" lon="4.58332">
        <ele>5.7</ele>
        <time>2022-08-28T09:07:54Z</time>
      </trkpt>
      <trkpt lat="43.64833" lon="4.58334">
        <ele>5.7</ele>
        <time>2022-08-28T09:07:55Z</time>
      </trkpt>
      <trkpt lat="43.64807" lon="4.58344">
        <ele>5.6</ele>
        <time>2022-08-28T09:08:01Z</time>
      </trkpt>
      <trkpt lat="43.64803" lon="4.58346">
        <ele>5.5</ele>
        <time>2022-08-28T09:08:02Z</time>
      </trkpt>
      <trkpt lat="43.64799" lon="4.58348">
        <ele>5.5</ele>
        <time>2022-08-28T09:08:03Z</time>
      </trkpt>
      <trkpt lat="43.64795" lon="4.5835">
        <ele>5.5</ele>
        <time>2022-08-28T09:08:04Z</time>
      </trkpt>
      <trkpt lat="43.64785" lon="4.58353">
        <ele>5.4</ele>
        <time>2022-08-28T09:08:06Z</time>
      </trkpt>
      <trkpt lat="43.64741" lon="4.58367">
        <ele>5.3</ele>
        <time>2022-08-28T09:08:16Z</time>
      </trkpt>
      <trkpt lat="43.64736" lon="4.58361">
        <ele>5.1</ele>
        <time>2022-08-28T09:08:18Z</time>
      </trkpt>
      <trkpt lat="43.64736" lon="4.58307">
        <ele>4.5</ele>
        <time>2022-08-28T09:08:28Z</time>
      </trkpt>
      <trkpt lat="43.64736" lon="4.58274">
        <ele>4.2</ele>
        <time>2022-08-28T09:08:34Z</time>
      </trkpt>
      <trkpt lat="43.64735" lon="4.58264">
        <ele>4.2</ele>
        <time>2022-08-28T09:08:36Z</time>
      </trkpt>
      <trkpt lat="43.64735" lon="4.58259">
        <ele>4.1</ele>
        <time>2022-08-28T09:08:37Z</time>
      </trkpt>
      <trkpt lat="43.64734" lon="4.58249">
        <ele>4.1</ele>
        <time>2022-08-28T09:08:39Z</time>
      </trkpt>
      <trkpt lat="43.64733" lon="4.58237">
        <ele>4</ele>
        <time>2022-08-28T09:08:41Z</time>
      </trkpt>
      <trkpt lat="43.64732" lon="4.58226">
        <ele>4</ele>
        <time>2022-08-28T09:08:43Z</time>
      </trkpt>
      <trkpt lat="43.64727" lon="4.58166">
        <ele>3.9</ele>
        <time>2022-08-28T09:08:54Z</time>
      </trkpt>
      <trkpt lat="43.64718" lon="4.58123">
        <ele>3.9</ele>
        <time>2022-08-28T09:09:01Z</time>
      </trkpt>
      <trkpt lat="43.64711" lon="4.58061">
        <ele>4</ele>
        <time>2022-08-28T09:09:10Z</time>
      </trkpt>
      <trkpt lat="43.64708" lon="4.57985">
        <ele>3.9</ele>
        <time>2022-08-28T09:09:22Z</time>
      </trkpt>
      <trkpt lat="43.64721" lon="4.57911">
        <ele>4.1</ele>
        <time>2022-08-28T09:09:36Z</time>
      </trkpt>
      <trkpt lat="43.64726" lon="4.57871">
        <ele>4.4</ele>
        <time>2022-08-28T09:09:43Z</time>
      </trkpt>
      <trkpt lat="43.64726" lon="4.57851">
        <ele>4.4</ele>
        <time>2022-08-28T09:09:47Z</time>
      </trkpt>
      <trkpt lat="43.64714" lon="4.57804">
        <ele>4.5</ele>
        <time>2022-08-28T09:09:56Z</time>
      </trkpt>
      <trkpt lat="43.6471" lon="4.57744">
        <ele>5.3</ele>
        <time>2022-08-28T09:10:09Z</time>
      </trkpt>
      <trkpt lat="43.64678" lon="4.57738">
        <ele>5.1</ele>
        <time>2022-08-28T09:10:18Z</time>
      </trkpt>
      <trkpt lat="43.64645" lon="4.57712">
        <ele>5.1</ele>
        <time>2022-08-28T09:10:28Z</time>
      </trkpt>
      <trkpt lat="43.64601" lon="4.57661">
        <ele>5.2</ele>
        <time>2022-08-28T09:10:39Z</time>
      </trkpt>
      <trkpt lat="43.64551" lon="4.57625">
        <ele>4.9</ele>
        <time>2022-08-28T09:10:51Z</time>
      </trkpt>
      <trkpt lat="43.64535" lon="4.57613">
        <ele>5</ele>
        <time>2022-08-28T09:10:55Z</time>
      </trkpt>
      <trkpt lat="43.64485" lon="4.57575">
        <ele>5.1</ele>
        <time>2022-08-28T09:11:08Z</time>
      </trkpt>
      <trkpt lat="43.64447" lon="4.57552">
        <ele>5</ele>
        <time>2022-08-28T09:11:17Z</time>
      </trkpt>
      <trkpt lat="43.6442" lon="4.57538">
        <ele>4.7</ele>
        <time>2022-08-28T09:11:23Z</time>
      </trkpt>
      <trkpt lat="43.64366" lon="4.57511">
        <ele>4.6</ele>
        <time>2022-08-28T09:11:35Z</time>
      </trkpt>
      <trkpt lat="43.64313" lon="4.57483">
        <ele>4.4</ele>
        <time>2022-08-28T09:11:47Z</time>
      </trkpt>
      <trkpt lat="43.6426" lon="4.57461">
        <ele>4.5</ele>
        <time>2022-08-28T09:11:59Z</time>
      </trkpt>
      <trkpt lat="43.64205" lon="4.57462">
        <ele>4.4</ele>
        <time>2022-08-28T09:12:11Z</time>
      </trkpt>
      <trkpt lat="43.64174" lon="4.5746">
        <ele>4.5</ele>
        <time>2022-08-28T09:12:17Z</time>
      </trkpt>
      <trkpt lat="43.64121" lon="4.57435">
        <ele>4.7</ele>
        <time>2022-08-28T09:12:29Z</time>
      </trkpt>
      <trkpt lat="43.64068" lon="4.5741">
        <ele>4.6</ele>
        <time>2022-08-28T09:12:42Z</time>
      </trkpt>
      <trkpt lat="43.64014" lon="4.57392">
        <ele>4.5</ele>
        <time>2022-08-28T09:12:56Z</time>
      </trkpt>
      <trkpt lat="43.63969" lon="4.57375">
        <ele>4.5</ele>
        <time>2022-08-28T09:13:07Z</time>
      </trkpt>
      <trkpt lat="43.63915" lon="4.57347">
        <ele>4.6</ele>
        <time>2022-08-28T09:13:19Z</time>
      </trkpt>
      <trkpt lat="43.63874" lon="4.57328">
        <ele>4.4</ele>
        <time>2022-08-28T09:13:28Z</time>
      </trkpt>
      <trkpt lat="43.63821" lon="4.5731">
        <ele>4.4</ele>
        <time>2022-08-28T09:13:39Z</time>
      </trkpt>
      <trkpt lat="43.63766" lon="4.5729">
        <ele>4.3</ele>
        <time>2022-08-28T09:13:50Z</time>
      </trkpt>
      <trkpt lat="43.63714" lon="4.5727">
        <ele>4.9</ele>
        <time>2022-08-28T09:14:02Z</time>
      </trkpt>
      <trkpt lat="43.63658" lon="4.57253">
        <ele>4.6</ele>
        <time>2022-08-28T09:14:16Z</time>
      </trkpt>
      <trkpt lat="43.63613" lon="4.57244">
        <ele>4.1</ele>
        <time>2022-08-28T09:14:25Z</time>
      </trkpt>
      <trkpt lat="43.63608" lon="4.57243">
        <ele>4</ele>
        <time>2022-08-28T09:14:26Z</time>
      </trkpt>
      <trkpt lat="43.63551" lon="4.57229">
        <ele>3.7</ele>
        <time>2022-08-28T09:14:38Z</time>
      </trkpt>
      <trkpt lat="43.6353" lon="4.57224">
        <ele>3.7</ele>
        <time>2022-08-28T09:14:42Z</time>
      </trkpt>
      <trkpt lat="43.63509" lon="4.5722">
        <ele>3.6</ele>
        <time>2022-08-28T09:14:46Z</time>
      </trkpt>
      <trkpt lat="43.63469" lon="4.57217">
        <ele>3.9</ele>
        <time>2022-08-28T09:14:54Z</time>
      </trkpt>
      <trkpt lat="43.63464" lon="4.57217">
        <ele>4</ele>
        <time>2022-08-28T09:14:55Z</time>
      </trkpt>
      <trkpt lat="43.63437" lon="4.5722">
        <ele>4.1</ele>
        <time>2022-08-28T09:15:01Z</time>
      </trkpt>
      <trkpt lat="43.63413" lon="4.57221">
        <ele>3.8</ele>
        <time>2022-08-28T09:15:06Z</time>
      </trkpt>
      <trkpt lat="43.63367" lon="4.57222">
        <ele>3.6</ele>
        <time>2022-08-28T09:15:16Z</time>
      </trkpt>
      <trkpt lat="43.6331" lon="4.57227">
        <ele>3.5</ele>
        <time>2022-08-28T09:15:27Z</time>
      </trkpt>
      <trkpt lat="43.63255" lon="4.5723">
        <ele>3.5</ele>
        <time>2022-08-28T09:15:37Z</time>
      </trkpt>
      <trkpt lat="43.63197" lon="4.57231">
        <ele>3.7</ele>
        <time>2022-08-28T09:15:48Z</time>
      </trkpt>
      <trkpt lat="43.63138" lon="4.57231">
        <ele>3.7</ele>
        <time>2022-08-28T09:15:59Z</time>
      </trkpt>
      <trkpt lat="43.63095" lon="4.57232">
        <ele>3.6</ele>
        <time>2022-08-28T09:16:07Z</time>
      </trkpt>
      <trkpt lat="43.63041" lon="4.57233">
        <ele>3.4</ele>
        <time>2022-08-28T09:16:17Z</time>
      </trkpt>
      <trkpt lat="43.62986" lon="4.57234">
        <ele>3.4</ele>
        <time>2022-08-28T09:16:27Z</time>
      </trkpt>
      <trkpt lat="43.62957" lon="4.57235">
        <ele>3.4</ele>
        <time>2022-08-28T09:16:32Z</time>
      </trkpt>
      <trkpt lat="43.62899" lon="4.57237">
        <ele>3.4</ele>
        <time>2022-08-28T09:16:42Z</time>
      </trkpt>
      <trkpt lat="43.6284" lon="4.57238">
        <ele>3.5</ele>
        <time>2022-08-28T09:16:52Z</time>
      </trkpt>
      <trkpt lat="43.62782" lon="4.57239">
        <ele>3.5</ele>
        <time>2022-08-28T09:17:02Z</time>
      </trkpt>
      <trkpt lat="43.62724" lon="4.57241">
        <ele>3.5</ele>
        <time>2022-08-28T09:17:12Z</time>
      </trkpt>
      <trkpt lat="43.62664" lon="4.57241">
        <ele>3.4</ele>
        <time>2022-08-28T09:17:22Z</time>
      </trkpt>
      <trkpt lat="43.62608" lon="4.57242">
        <ele>3.5</ele>
        <time>2022-08-28T09:17:31Z</time>
      </trkpt>
      <trkpt lat="43.62577" lon="4.57242">
        <ele>3.5</ele>
        <time>2022-08-28T09:17:36Z</time>
      </trkpt>
      <trkpt lat="43.62521" lon="4.57242">
        <ele>3.5</ele>
        <time>2022-08-28T09:17:45Z</time>
      </trkpt>
      <trkpt lat="43.62465" lon="4.57244">
        <ele>3.7</ele>
        <time>2022-08-28T09:17:54Z</time>
      </trkpt>
      <trkpt lat="43.6241" lon="4.57244">
        <ele>3.7</ele>
        <time>2022-08-28T09:18:03Z</time>
      </trkpt>
      <trkpt lat="43.62366" lon="4.57245">
        <ele>3.7</ele>
        <time>2022-08-28T09:18:10Z</time>
      </trkpt>
      <trkpt lat="43.62309" lon="4.57244">
        <ele>3.8</ele>
        <time>2022-08-28T09:18:19Z</time>
      </trkpt>
      <trkpt lat="43.62254" lon="4.57242">
        <ele>3.9</ele>
        <time>2022-08-28T09:18:28Z</time>
      </trkpt>
      <trkpt lat="43.62197" lon="4.57236">
        <ele>3.9</ele>
        <time>2022-08-28T09:18:37Z</time>
      </trkpt>
      <trkpt lat="43.62142" lon="4.57226">
        <ele>4</ele>
        <time>2022-08-28T09:18:46Z</time>
      </trkpt>
      <trkpt lat="43.62091" lon="4.57201">
        <ele>3.8</ele>
        <time>2022-08-28T09:18:55Z</time>
      </trkpt>
      <trkpt lat="43.62058" lon="4.57178">
        <ele>3.7</ele>
        <time>2022-08-28T09:19:01Z</time>
      </trkpt>
      <trkpt lat="43.6201" lon="4.57142">
        <ele>3.7</ele>
        <time>2022-08-28T09:19:10Z</time>
      </trkpt>
      <trkpt lat="43.61967" lon="4.57112">
        <ele>3.9</ele>
        <time>2022-08-28T09:19:18Z</time>
      </trkpt>
      <trkpt lat="43.61914" lon="4.57076">
        <ele>4.1</ele>
        <time>2022-08-28T09:19:28Z</time>
      </trkpt>
      <trkpt lat="43.61861" lon="4.57054">
        <ele>4.2</ele>
        <time>2022-08-28T09:19:38Z</time>
      </trkpt>
      <trkpt lat="43.61804" lon="4.57048">
        <ele>4.1</ele>
        <time>2022-08-28T09:19:48Z</time>
      </trkpt>
      <trkpt lat="43.61766" lon="4.57038">
        <ele>4.2</ele>
        <time>2022-08-28T09:19:55Z</time>
      </trkpt>
      <trkpt lat="43.6171" lon="4.57024">
        <ele>4.6</ele>
        <time>2022-08-28T09:20:05Z</time>
      </trkpt>
      <trkpt lat="43.61705" lon="4.57024">
        <ele>4.6</ele>
        <time>2022-08-28T09:20:06Z</time>
      </trkpt>
      <trkpt lat="43.6165" lon="4.57034">
        <ele>4.4</ele>
        <time>2022-08-28T09:20:16Z</time>
      </trkpt>
      <trkpt lat="43.61609" lon="4.57042">
        <ele>4.3</ele>
        <time>2022-08-28T09:20:23Z</time>
      </trkpt>
      <trkpt lat="43.61587" lon="4.57047">
        <ele>4.2</ele>
        <time>2022-08-28T09:20:27Z</time>
      </trkpt>
      <trkpt lat="43.61558" lon="4.57047">
        <ele>3.9</ele>
        <time>2022-08-28T09:20:32Z</time>
      </trkpt>
      <trkpt lat="43.61547" lon="4.57041">
        <ele>3.8</ele>
        <time>2022-08-28T09:20:34Z</time>
      </trkpt>
      <trkpt lat="43.61539" lon="4.5703">
        <ele>3.7</ele>
        <time>2022-08-28T09:20:36Z</time>
      </trkpt>
      <trkpt lat="43.61533" lon="4.57015">
        <ele>3.5</ele>
        <time>2022-08-28T09:20:38Z</time>
      </trkpt>
      <trkpt lat="43.6153" lon="4.56999">
        <ele>3.5</ele>
        <time>2022-08-28T09:20:40Z</time>
      </trkpt>
      <trkpt lat="43.61529" lon="4.56983">
        <ele>3.4</ele>
        <time>2022-08-28T09:20:42Z</time>
      </trkpt>
      <trkpt lat="43.61533" lon="4.5691">
        <ele>3.5</ele>
        <time>2022-08-28T09:20:51Z</time>
      </trkpt>
      <trkpt lat="43.61534" lon="4.56846">
        <ele>3.2</ele>
        <time>2022-08-28T09:20:59Z</time>
      </trkpt>
      <trkpt lat="43.61521" lon="4.56795">
        <ele>3.2</ele>
        <time>2022-08-28T09:21:06Z</time>
      </trkpt>
      <trkpt lat="43.61502" lon="4.56756">
        <ele>3.2</ele>
        <time>2022-08-28T09:21:12Z</time>
      </trkpt>
      <trkpt lat="43.61464" lon="4.56698">
        <ele>3.4</ele>
        <time>2022-08-28T09:21:22Z</time>
      </trkpt>
      <trkpt lat="43.61423" lon="4.56641">
        <ele>3.4</ele>
        <time>2022-08-28T09:21:32Z</time>
      </trkpt>
      <trkpt lat="43.61382" lon="4.56585">
        <ele>3.2</ele>
        <time>2022-08-28T09:21:42Z</time>
      </trkpt>
      <trkpt lat="43.61342" lon="4.56525">
        <ele>3</ele>
        <time>2022-08-28T09:21:52Z</time>
      </trkpt>
      <trkpt lat="43.61304" lon="4.5647">
        <ele>3</ele>
        <time>2022-08-28T09:22:01Z</time>
      </trkpt>
      <trkpt lat="43.61269" lon="4.56411">
        <ele>2.9</ele>
        <time>2022-08-28T09:22:10Z</time>
      </trkpt>
      <trkpt lat="43.61229" lon="4.56358">
        <ele>2.8</ele>
        <time>2022-08-28T09:22:19Z</time>
      </trkpt>
      <trkpt lat="43.61181" lon="4.5631">
        <ele>2.7</ele>
        <time>2022-08-28T09:22:29Z</time>
      </trkpt>
      <trkpt lat="43.61136" lon="4.56267">
        <ele>2.6</ele>
        <time>2022-08-28T09:22:38Z</time>
      </trkpt>
      <trkpt lat="43.61111" lon="4.56244">
        <ele>2.6</ele>
        <time>2022-08-28T09:22:43Z</time>
      </trkpt>
      <trkpt lat="43.61101" lon="4.56234">
        <ele>2.6</ele>
        <time>2022-08-28T09:22:45Z</time>
      </trkpt>
      <trkpt lat="43.61096" lon="4.5623">
        <ele>2.6</ele>
        <time>2022-08-28T09:22:46Z</time>
      </trkpt>
      <trkpt lat="43.6105" lon="4.56187">
        <ele>2.5</ele>
        <time>2022-08-28T09:22:55Z</time>
      </trkpt>
      <trkpt lat="43.61025" lon="4.56164">
        <ele>2.6</ele>
        <time>2022-08-28T09:23:00Z</time>
      </trkpt>
      <trkpt lat="43.61015" lon="4.56154">
        <ele>2.5</ele>
        <time>2022-08-28T09:23:02Z</time>
      </trkpt>
      <trkpt lat="43.6097" lon="4.5611">
        <ele>2.5</ele>
        <time>2022-08-28T09:23:11Z</time>
      </trkpt>
      <trkpt lat="43.60926" lon="4.56064">
        <ele>2.5</ele>
        <time>2022-08-28T09:23:20Z</time>
      </trkpt>
      <trkpt lat="43.60881" lon="4.56018">
        <ele>2.5</ele>
        <time>2022-08-28T09:23:29Z</time>
      </trkpt>
      <trkpt lat="43.60835" lon="4.55978">
        <ele>2.3</ele>
        <time>2022-08-28T09:23:38Z</time>
      </trkpt>
      <trkpt lat="43.60808" lon="4.55955">
        <ele>2.2</ele>
        <time>2022-08-28T09:23:43Z</time>
      </trkpt>
      <trkpt lat="43.60759" lon="4.55912">
        <ele>2.1</ele>
        <time>2022-08-28T09:23:52Z</time>
      </trkpt>
      <trkpt lat="43.60716" lon="4.55872">
        <ele>2</ele>
        <time>2022-08-28T09:24:00Z</time>
      </trkpt>
      <trkpt lat="43.60669" lon="4.55825">
        <ele>2</ele>
        <time>2022-08-28T09:24:09Z</time>
      </trkpt>
      <trkpt lat="43.60626" lon="4.55778">
        <ele>2</ele>
        <time>2022-08-28T09:24:17Z</time>
      </trkpt>
      <trkpt lat="43.60588" lon="4.5573">
        <ele>2</ele>
        <time>2022-08-28T09:24:24Z</time>
      </trkpt>
      <trkpt lat="43.60545" lon="4.55684">
        <ele>1.9</ele>
        <time>2022-08-28T09:24:31Z</time>
      </trkpt>
      <trkpt lat="43.605" lon="4.55633">
        <ele>1.6</ele>
        <time>2022-08-28T09:24:38Z</time>
      </trkpt>
      <trkpt lat="43.60455" lon="4.5558">
        <ele>1.8</ele>
        <time>2022-08-28T09:24:45Z</time>
      </trkpt>
      <trkpt lat="43.60409" lon="4.55527">
        <ele>1.8</ele>
        <time>2022-08-28T09:24:52Z</time>
      </trkpt>
      <trkpt lat="43.60364" lon="4.55473">
        <ele>1.8</ele>
        <time>2022-08-28T09:24:59Z</time>
      </trkpt>
      <trkpt lat="43.60319" lon="4.55422">
        <ele>1.7</ele>
        <time>2022-08-28T09:25:06Z</time>
      </trkpt>
      <trkpt lat="43.60277" lon="4.55372">
        <ele>1.7</ele>
        <time>2022-08-28T09:25:13Z</time>
      </trkpt>
      <trkpt lat="43.60231" lon="4.55317">
        <ele>1.6</ele>
        <time>2022-08-28T09:25:21Z</time>
      </trkpt>
      <trkpt lat="43.60193" lon="4.55273">
        <ele>1.7</ele>
        <time>2022-08-28T09:25:28Z</time>
      </trkpt>
      <trkpt lat="43.60149" lon="4.55222">
        <ele>1.7</ele>
        <time>2022-08-28T09:25:37Z</time>
      </trkpt>
      <trkpt lat="43.60107" lon="4.55172">
        <ele>1.7</ele>
        <time>2022-08-28T09:25:46Z</time>
      </trkpt>
      <trkpt lat="43.6008" lon="4.5514">
        <ele>1.6</ele>
        <time>2022-08-28T09:25:52Z</time>
      </trkpt>
      <trkpt lat="43.60036" lon="4.55088">
        <ele>1.5</ele>
        <time>2022-08-28T09:26:02Z</time>
      </trkpt>
      <trkpt lat="43.6" lon="4.55045">
        <ele>1.4</ele>
        <time>2022-08-28T09:26:10Z</time>
      </trkpt>
      <trkpt lat="43.59956" lon="4.54992">
        <ele>1.4</ele>
        <time>2022-08-28T09:26:20Z</time>
      </trkpt>
      <trkpt lat="43.59911" lon="4.5494">
        <ele>1.4</ele>
        <time>2022-08-28T09:26:30Z</time>
      </trkpt>
      <trkpt lat="43.59868" lon="4.54888">
        <ele>1.6</ele>
        <time>2022-08-28T09:26:40Z</time>
      </trkpt>
      <trkpt lat="43.59824" lon="4.54836">
        <ele>1.6</ele>
        <time>2022-08-28T09:26:50Z</time>
      </trkpt>
      <trkpt lat="43.5981" lon="4.54821">
        <ele>1.6</ele>
        <time>2022-08-28T09:26:53Z</time>
      </trkpt>
      <trkpt lat="43.59793" lon="4.54801">
        <ele>1.6</ele>
        <time>2022-08-28T09:26:57Z</time>
      </trkpt>
      <trkpt lat="43.59776" lon="4.54781">
        <ele>1.7</ele>
        <time>2022-08-28T09:27:01Z</time>
      </trkpt>
      <trkpt lat="43.59768" lon="4.54771">
        <ele>1.7</ele>
        <time>2022-08-28T09:27:03Z</time>
      </trkpt>
      <trkpt lat="43.59763" lon="4.54766">
        <ele>1.8</ele>
        <time>2022-08-28T09:27:04Z</time>
      </trkpt>
      <trkpt lat="43.59759" lon="4.5476">
        <ele>1.8</ele>
        <time>2022-08-28T09:27:05Z</time>
      </trkpt>
      <trkpt lat="43.59755" lon="4.54755">
        <ele>1.8</ele>
        <time>2022-08-28T09:27:06Z</time>
      </trkpt>
      <trkpt lat="43.59751" lon="4.5475">
        <ele>1.8</ele>
        <time>2022-08-28T09:27:07Z</time>
      </trkpt>
      <trkpt lat="43.59746" lon="4.54745">
        <ele>1.8</ele>
        <time>2022-08-28T09:27:08Z</time>
      </trkpt>
      <trkpt lat="43.59742" lon="4.5474">
        <ele>1.8</ele>
        <time>2022-08-28T09:27:09Z</time>
      </trkpt>
      <trkpt lat="43.59738" lon="4.54735">
        <ele>1.8</ele>
        <time>2022-08-28T09:27:10Z</time>
      </trkpt>
      <trkpt lat="43.59729" lon="4.54724">
        <ele>1.9</ele>
        <time>2022-08-28T09:27:12Z</time>
      </trkpt>
      <trkpt lat="43.59725" lon="4.54719">
        <ele>1.9</ele>
        <time>2022-08-28T09:27:13Z</time>
      </trkpt>
      <trkpt lat="43.5972" lon="4.54714">
        <ele>2</ele>
        <time>2022-08-28T09:27:14Z</time>
      </trkpt>
      <trkpt lat="43.59716" lon="4.54709">
        <ele>2.1</ele>
        <time>2022-08-28T09:27:15Z</time>
      </trkpt>
      <trkpt lat="43.59712" lon="4.54704">
        <ele>2.1</ele>
        <time>2022-08-28T09:27:16Z</time>
      </trkpt>
      <trkpt lat="43.59708" lon="4.54699">
        <ele>2.2</ele>
        <time>2022-08-28T09:27:17Z</time>
      </trkpt>
      <trkpt lat="43.59704" lon="4.54694">
        <ele>2.2</ele>
        <time>2022-08-28T09:27:18Z</time>
      </trkpt>
      <trkpt lat="43.597" lon="4.54689">
        <ele>2.2</ele>
        <time>2022-08-28T09:27:19Z</time>
      </trkpt>
      <trkpt lat="43.59687" lon="4.54675">
        <ele>2.1</ele>
        <time>2022-08-28T09:27:22Z</time>
      </trkpt>
      <trkpt lat="43.59683" lon="4.5467">
        <ele>2.1</ele>
        <time>2022-08-28T09:27:23Z</time>
      </trkpt>
      <trkpt lat="43.59679" lon="4.54664">
        <ele>2</ele>
        <time>2022-08-28T09:27:24Z</time>
      </trkpt>
      <trkpt lat="43.59656" lon="4.54638">
        <ele>1.8</ele>
        <time>2022-08-28T09:27:29Z</time>
      </trkpt>
      <trkpt lat="43.59636" lon="4.5462">
        <ele>1.7</ele>
        <time>2022-08-28T09:27:33Z</time>
      </trkpt>
      <trkpt lat="43.59631" lon="4.54615">
        <ele>1.7</ele>
        <time>2022-08-28T09:27:34Z</time>
      </trkpt>
      <trkpt lat="43.59626" lon="4.54611">
        <ele>1.7</ele>
        <time>2022-08-28T09:27:35Z</time>
      </trkpt>
      <trkpt lat="43.59615" lon="4.54603">
        <ele>1.7</ele>
        <time>2022-08-28T09:27:37Z</time>
      </trkpt>
      <trkpt lat="43.596" lon="4.54593">
        <ele>1.7</ele>
        <time>2022-08-28T09:27:40Z</time>
      </trkpt>
      <trkpt lat="43.59589" lon="4.54585">
        <ele>1.7</ele>
        <time>2022-08-28T09:27:42Z</time>
      </trkpt>
      <trkpt lat="43.59537" lon="4.54547">
        <ele>1.6</ele>
        <time>2022-08-28T09:27:52Z</time>
      </trkpt>
      <trkpt lat="43.59488" lon="4.54512">
        <ele>1.6</ele>
        <time>2022-08-28T09:28:01Z</time>
      </trkpt>
      <trkpt lat="43.5944" lon="4.54477">
        <ele>1.6</ele>
        <time>2022-08-28T09:28:10Z</time>
      </trkpt>
      <trkpt lat="43.59435" lon="4.54473">
        <ele>1.6</ele>
        <time>2022-08-28T09:28:11Z</time>
      </trkpt>
      <trkpt lat="43.59424" lon="4.54465">
        <ele>1.6</ele>
        <time>2022-08-28T09:28:13Z</time>
      </trkpt>
      <trkpt lat="43.59414" lon="4.54457">
        <ele>1.6</ele>
        <time>2022-08-28T09:28:15Z</time>
      </trkpt>
      <trkpt lat="43.59403" lon="4.54449">
        <ele>1.6</ele>
        <time>2022-08-28T09:28:17Z</time>
      </trkpt>
      <trkpt lat="43.59376" lon="4.5443">
        <ele>1.6</ele>
        <time>2022-08-28T09:28:22Z</time>
      </trkpt>
      <trkpt lat="43.59327" lon="4.54394">
        <ele>1.7</ele>
        <time>2022-08-28T09:28:31Z</time>
      </trkpt>
      <trkpt lat="43.59305" lon="4.54378">
        <ele>1.7</ele>
        <time>2022-08-28T09:28:35Z</time>
      </trkpt>
      <trkpt lat="43.59283" lon="4.54362">
        <ele>1.7</ele>
        <time>2022-08-28T09:28:39Z</time>
      </trkpt>
      <trkpt lat="43.59245" lon="4.54333">
        <ele>1.6</ele>
        <time>2022-08-28T09:28:46Z</time>
      </trkpt>
      <trkpt lat="43.59201" lon="4.54301">
        <ele>1.6</ele>
        <time>2022-08-28T09:28:54Z</time>
      </trkpt>
      <trkpt lat="43.59153" lon="4.54261">
        <ele>1.7</ele>
        <time>2022-08-28T09:29:03Z</time>
      </trkpt>
      <trkpt lat="43.59112" lon="4.54209">
        <ele>1.7</ele>
        <time>2022-08-28T09:29:12Z</time>
      </trkpt>
      <trkpt lat="43.59072" lon="4.54158">
        <ele>1.9</ele>
        <time>2022-08-28T09:29:21Z</time>
      </trkpt>
      <trkpt lat="43.59031" lon="4.54105">
        <ele>1.9</ele>
        <time>2022-08-28T09:29:31Z</time>
      </trkpt>
      <trkpt lat="43.59009" lon="4.54086">
        <ele>1.9</ele>
        <time>2022-08-28T09:29:36Z</time>
      </trkpt>
      <trkpt lat="43.58995" lon="4.5408">
        <ele>1.9</ele>
        <time>2022-08-28T09:29:39Z</time>
      </trkpt>
      <trkpt lat="43.5894" lon="4.54083">
        <ele>2.1</ele>
        <time>2022-08-28T09:29:50Z</time>
      </trkpt>
      <trkpt lat="43.58883" lon="4.5409">
        <ele>2.2</ele>
        <time>2022-08-28T09:30:01Z</time>
      </trkpt>
      <trkpt lat="43.58826" lon="4.54099">
        <ele>2.6</ele>
        <time>2022-08-28T09:30:12Z</time>
      </trkpt>
      <trkpt lat="43.58772" lon="4.54111">
        <ele>2.9</ele>
        <time>2022-08-28T09:30:24Z</time>
      </trkpt>
      <trkpt lat="43.58747" lon="4.54115">
        <ele>3</ele>
        <time>2022-08-28T09:30:29Z</time>
      </trkpt>
      <trkpt lat="43.58692" lon="4.5413">
        <ele>3.2</ele>
        <time>2022-08-28T09:30:40Z</time>
      </trkpt>
      <trkpt lat="43.58635" lon="4.54153">
        <ele>3.2</ele>
        <time>2022-08-28T09:30:51Z</time>
      </trkpt>
      <trkpt lat="43.58581" lon="4.54169">
        <ele>3.2</ele>
        <time>2022-08-28T09:31:01Z</time>
      </trkpt>
      <trkpt lat="43.58525" lon="4.54188">
        <ele>3.1</ele>
        <time>2022-08-28T09:31:11Z</time>
      </trkpt>
      <trkpt lat="43.58466" lon="4.54202">
        <ele>3</ele>
        <time>2022-08-28T09:31:21Z</time>
      </trkpt>
      <trkpt lat="43.5841" lon="4.54217">
        <ele>2.7</ele>
        <time>2022-08-28T09:31:31Z</time>
      </trkpt>
      <trkpt lat="43.58351" lon="4.54226">
        <ele>2.5</ele>
        <time>2022-08-28T09:31:41Z</time>
      </trkpt>
      <trkpt lat="43.58322" lon="4.54229">
        <ele>2.3</ele>
        <time>2022-08-28T09:31:46Z</time>
      </trkpt>
      <trkpt lat="43.58265" lon="4.54235">
        <ele>2.2</ele>
        <time>2022-08-28T09:31:56Z</time>
      </trkpt>
      <trkpt lat="43.58217" lon="4.54239">
        <ele>2.2</ele>
        <time>2022-08-28T09:32:05Z</time>
      </trkpt>
      <trkpt lat="43.5816" lon="4.54245">
        <ele>2.1</ele>
        <time>2022-08-28T09:32:16Z</time>
      </trkpt>
      <trkpt lat="43.58106" lon="4.54258">
        <ele>2</ele>
        <time>2022-08-28T09:32:27Z</time>
      </trkpt>
      <trkpt lat="43.58052" lon="4.54279">
        <ele>1.9</ele>
        <time>2022-08-28T09:32:37Z</time>
      </trkpt>
      <trkpt lat="43.57999" lon="4.54299">
        <ele>1.8</ele>
        <time>2022-08-28T09:32:47Z</time>
      </trkpt>
      <trkpt lat="43.57947" lon="4.54319">
        <ele>1.7</ele>
        <time>2022-08-28T09:32:57Z</time>
      </trkpt>
      <trkpt lat="43.57894" lon="4.54337">
        <ele>1.9</ele>
        <time>2022-08-28T09:33:07Z</time>
      </trkpt>
      <trkpt lat="43.57839" lon="4.54353">
        <ele>1.8</ele>
        <time>2022-08-28T09:33:17Z</time>
      </trkpt>
      <trkpt lat="43.57785" lon="4.54368">
        <ele>1.7</ele>
        <time>2022-08-28T09:33:27Z</time>
      </trkpt>
      <trkpt lat="43.57731" lon="4.54384">
        <ele>1.6</ele>
        <time>2022-08-28T09:33:37Z</time>
      </trkpt>
      <trkpt lat="43.57676" lon="4.544">
        <ele>1.6</ele>
        <time>2022-08-28T09:33:47Z</time>
      </trkpt>
      <trkpt lat="43.57627" lon="4.54414">
        <ele>1.4</ele>
        <time>2022-08-28T09:33:56Z</time>
      </trkpt>
      <trkpt lat="43.5759" lon="4.54425">
        <ele>1.3</ele>
        <time>2022-08-28T09:34:03Z</time>
      </trkpt>
      <trkpt lat="43.57535" lon="4.54441">
        <ele>0.8</ele>
        <time>2022-08-28T09:34:13Z</time>
      </trkpt>
      <trkpt lat="43.57507" lon="4.54449">
        <ele>0.6</ele>
        <time>2022-08-28T09:34:18Z</time>
      </trkpt>
      <trkpt lat="43.5747" lon="4.54459">
        <ele>0.9</ele>
        <time>2022-08-28T09:34:25Z</time>
      </trkpt>
      <trkpt lat="43.57464" lon="4.54461">
        <ele>0.9</ele>
        <time>2022-08-28T09:34:26Z</time>
      </trkpt>
      <trkpt lat="43.57459" lon="4.54463">
        <ele>0.9</ele>
        <time>2022-08-28T09:34:27Z</time>
      </trkpt>
      <trkpt lat="43.57454" lon="4.54464">
        <ele>0.9</ele>
        <time>2022-08-28T09:34:28Z</time>
      </trkpt>
      <trkpt lat="43.57443" lon="4.54467">
        <ele>0.8</ele>
        <time>2022-08-28T09:34:30Z</time>
      </trkpt>
      <trkpt lat="43.57432" lon="4.5447">
        <ele>0.8</ele>
        <time>2022-08-28T09:34:32Z</time>
      </trkpt>
      <trkpt lat="43.57427" lon="4.54472">
        <ele>0.8</ele>
        <time>2022-08-28T09:34:33Z</time>
      </trkpt>
      <trkpt lat="43.57421" lon="4.54474">
        <ele>0.8</ele>
        <time>2022-08-28T09:34:34Z</time>
      </trkpt>
      <trkpt lat="43.57366" lon="4.5449">
        <ele>0.8</ele>
        <time>2022-08-28T09:34:44Z</time>
      </trkpt>
      <trkpt lat="43.57339" lon="4.54498">
        <ele>0.8</ele>
        <time>2022-08-28T09:34:49Z</time>
      </trkpt>
      <trkpt lat="43.57284" lon="4.54514">
        <ele>0.7</ele>
        <time>2022-08-28T09:34:59Z</time>
      </trkpt>
      <trkpt lat="43.57241" lon="4.54526">
        <ele>1.3</ele>
        <time>2022-08-28T09:35:07Z</time>
      </trkpt>
      <trkpt lat="43.57236" lon="4.54527">
        <ele>1.4</ele>
        <time>2022-08-28T09:35:08Z</time>
      </trkpt>
      <trkpt lat="43.57223" lon="4.54515">
        <ele>1.7</ele>
        <time>2022-08-28T09:35:12Z</time>
      </trkpt>
      <trkpt lat="43.57218" lon="4.54471">
        <ele>1.7</ele>
        <time>2022-08-28T09:35:19Z</time>
      </trkpt>
      <trkpt lat="43.57217" lon="4.54465">
        <ele>1.7</ele>
        <time>2022-08-28T09:35:20Z</time>
      </trkpt>
      <trkpt lat="43.57217" lon="4.54458">
        <ele>1.7</ele>
        <time>2022-08-28T09:35:21Z</time>
      </trkpt>
      <trkpt lat="43.57213" lon="4.5443">
        <ele>1.7</ele>
        <time>2022-08-28T09:35:25Z</time>
      </trkpt>
      <trkpt lat="43.57212" lon="4.54416">
        <ele>1.7</ele>
        <time>2022-08-28T09:35:27Z</time>
      </trkpt>
      <trkpt lat="43.57209" lon="4.54395">
        <ele>1.7</ele>
        <time>2022-08-28T09:35:30Z</time>
      </trkpt>
      <trkpt lat="43.57207" lon="4.54373">
        <ele>1.7</ele>
        <time>2022-08-28T09:35:33Z</time>
      </trkpt>
      <trkpt lat="43.57205" lon="4.54358">
        <ele>1.8</ele>
        <time>2022-08-28T09:35:35Z</time>
      </trkpt>
      <trkpt lat="43.57204" lon="4.54351">
        <ele>1.8</ele>
        <time>2022-08-28T09:35:36Z</time>
      </trkpt>
      <trkpt lat="43.57201" lon="4.54329">
        <ele>1.8</ele>
        <time>2022-08-28T09:35:39Z</time>
      </trkpt>
      <trkpt lat="43.57194" lon="4.54273">
        <ele>1.8</ele>
        <time>2022-08-28T09:35:47Z</time>
      </trkpt>
      <trkpt lat="43.57189" lon="4.54235">
        <ele>1.8</ele>
        <time>2022-08-28T09:35:52Z</time>
      </trkpt>
      <trkpt lat="43.57188" lon="4.54227">
        <ele>1.8</ele>
        <time>2022-08-28T09:35:53Z</time>
      </trkpt>
      <trkpt lat="43.57187" lon="4.5422">
        <ele>1.8</ele>
        <time>2022-08-28T09:35:54Z</time>
      </trkpt>
      <trkpt lat="43.57183" lon="4.54189">
        <ele>1.8</ele>
        <time>2022-08-28T09:35:58Z</time>
      </trkpt>
      <trkpt lat="43.57182" lon="4.54182">
        <ele>1.8</ele>
        <time>2022-08-28T09:35:59Z</time>
      </trkpt>
      <trkpt lat="43.57181" lon="4.54174">
        <ele>1.8</ele>
        <time>2022-08-28T09:36:00Z</time>
      </trkpt>
      <trkpt lat="43.57181" lon="4.54167">
        <ele>1.8</ele>
        <time>2022-08-28T09:36:01Z</time>
      </trkpt>
      <trkpt lat="43.57179" lon="4.54152">
        <ele>1.7</ele>
        <time>2022-08-28T09:36:03Z</time>
      </trkpt>
      <trkpt lat="43.57178" lon="4.54144">
        <ele>1.7</ele>
        <time>2022-08-28T09:36:04Z</time>
      </trkpt>
      <trkpt lat="43.57171" lon="4.54098">
        <ele>1.7</ele>
        <time>2022-08-28T09:36:10Z</time>
      </trkpt>
      <trkpt lat="43.5717" lon="4.5409">
        <ele>1.7</ele>
        <time>2022-08-28T09:36:11Z</time>
      </trkpt>
      <trkpt lat="43.57164" lon="4.54053">
        <ele>1.7</ele>
        <time>2022-08-28T09:36:16Z</time>
      </trkpt>
      <trkpt lat="43.57155" lon="4.53979">
        <ele>1.7</ele>
        <time>2022-08-28T09:36:26Z</time>
      </trkpt>
      <trkpt lat="43.57148" lon="4.5393">
        <ele>1.8</ele>
        <time>2022-08-28T09:36:33Z</time>
      </trkpt>
      <trkpt lat="43.57137" lon="4.53857">
        <ele>1.7</ele>
        <time>2022-08-28T09:36:43Z</time>
      </trkpt>
      <trkpt lat="43.57127" lon="4.53783">
        <ele>2</ele>
        <time>2022-08-28T09:36:53Z</time>
      </trkpt>
      <trkpt lat="43.57113" lon="4.53706">
        <ele>2.1</ele>
        <time>2022-08-28T09:37:03Z</time>
      </trkpt>
      <trkpt lat="43.57096" lon="4.53635">
        <ele>2.3</ele>
        <time>2022-08-28T09:37:12Z</time>
      </trkpt>
      <trkpt lat="43.57081" lon="4.53562">
        <ele>2.3</ele>
        <time>2022-08-28T09:37:21Z</time>
      </trkpt>
      <trkpt lat="43.57073" lon="4.53522">
        <ele>2.3</ele>
        <time>2022-08-28T09:37:26Z</time>
      </trkpt>
      <trkpt lat="43.57062" lon="4.53442">
        <ele>2.3</ele>
        <time>2022-08-28T09:37:36Z</time>
      </trkpt>
      <trkpt lat="43.57058" lon="4.5341">
        <ele>2.4</ele>
        <time>2022-08-28T09:37:40Z</time>
      </trkpt>
      <trkpt lat="43.57055" lon="4.53333">
        <ele>2.4</ele>
        <time>2022-08-28T09:37:50Z</time>
      </trkpt>
      <trkpt lat="43.57056" lon="4.53309">
        <ele>2.3</ele>
        <time>2022-08-28T09:37:53Z</time>
      </trkpt>
      <trkpt lat="43.57057" lon="4.53286">
        <ele>2.3</ele>
        <time>2022-08-28T09:37:56Z</time>
      </trkpt>
      <trkpt lat="43.57071" lon="4.53207">
        <ele>2.2</ele>
        <time>2022-08-28T09:38:06Z</time>
      </trkpt>
      <trkpt lat="43.57085" lon="4.53165">
        <ele>2.1</ele>
        <time>2022-08-28T09:38:12Z</time>
      </trkpt>
      <trkpt lat="43.57116" lon="4.53101">
        <ele>2.1</ele>
        <time>2022-08-28T09:38:22Z</time>
      </trkpt>
      <trkpt lat="43.57153" lon="4.53045">
        <ele>2.1</ele>
        <time>2022-08-28T09:38:32Z</time>
      </trkpt>
      <trkpt lat="43.57181" lon="4.53002">
        <ele>2.1</ele>
        <time>2022-08-28T09:38:40Z</time>
      </trkpt>
      <trkpt lat="43.57219" lon="4.52946">
        <ele>2.2</ele>
        <time>2022-08-28T09:38:51Z</time>
      </trkpt>
      <trkpt lat="43.57253" lon="4.52889">
        <ele>2.4</ele>
        <time>2022-08-28T09:39:02Z</time>
      </trkpt>
      <trkpt lat="43.57286" lon="4.52831">
        <ele>2.4</ele>
        <time>2022-08-28T09:39:13Z</time>
      </trkpt>
      <trkpt lat="43.57294" lon="4.52823">
        <ele>2.2</ele>
        <time>2022-08-28T09:39:15Z</time>
      </trkpt>
      <trkpt lat="43.57337" lon="4.52791">
        <ele>1.3</ele>
        <time>2022-08-28T09:39:25Z</time>
      </trkpt>
      <trkpt lat="43.57349" lon="4.52779">
        <ele>1.3</ele>
        <time>2022-08-28T09:39:28Z</time>
      </trkpt>
      <trkpt lat="43.57355" lon="4.52769">
        <ele>1.4</ele>
        <time>2022-08-28T09:39:30Z</time>
      </trkpt>
      <trkpt lat="43.57359" lon="4.52758">
        <ele>1.5</ele>
        <time>2022-08-28T09:39:32Z</time>
      </trkpt>
      <trkpt lat="43.57366" lon="4.52724">
        <ele>1.6</ele>
        <time>2022-08-28T09:39:39Z</time>
      </trkpt>
      <trkpt lat="43.57366" lon="4.52716">
        <ele>1.6</ele>
        <time>2022-08-28T09:39:41Z</time>
      </trkpt>
      <trkpt lat="43.57367" lon="4.52712">
        <ele>1.6</ele>
        <time>2022-08-28T09:39:42Z</time>
      </trkpt>
      <trkpt lat="43.57367" lon="4.52707">
        <ele>1.7</ele>
        <time>2022-08-28T09:39:43Z</time>
      </trkpt>
      <trkpt lat="43.57368" lon="4.52703">
        <ele>1.7</ele>
        <time>2022-08-28T09:39:44Z</time>
      </trkpt>
      <trkpt lat="43.57368" lon="4.52699">
        <ele>1.7</ele>
        <time>2022-08-28T09:39:45Z</time>
      </trkpt>
      <trkpt lat="43.57369" lon="4.52687">
        <ele>1.8</ele>
        <time>2022-08-28T09:39:48Z</time>
      </trkpt>
      <trkpt lat="43.57372" lon="4.52674">
        <ele>2.1</ele>
        <time>2022-08-28T09:39:51Z</time>
      </trkpt>
      <trkpt lat="43.57389" lon="4.52621">
        <ele>2.7</ele>
        <time>2022-08-28T09:40:01Z</time>
      </trkpt>
      <trkpt lat="43.57397" lon="4.52605">
        <ele>2.5</ele>
        <time>2022-08-28T09:40:04Z</time>
      </trkpt>
      <trkpt lat="43.57408" lon="4.52582">
        <ele>2.2</ele>
        <time>2022-08-28T09:40:08Z</time>
      </trkpt>
      <trkpt lat="43.57424" lon="4.52548">
        <ele>1.9</ele>
        <time>2022-08-28T09:40:14Z</time>
      </trkpt>
      <trkpt lat="43.57426" lon="4.52543">
        <ele>1.8</ele>
        <time>2022-08-28T09:40:15Z</time>
      </trkpt>
      <trkpt lat="43.57444" lon="4.52507">
        <ele>1.8</ele>
        <time>2022-08-28T09:40:21Z</time>
      </trkpt>
      <trkpt lat="43.57476" lon="4.5244">
        <ele>1.8</ele>
        <time>2022-08-28T09:40:32Z</time>
      </trkpt>
      <trkpt lat="43.57508" lon="4.52373">
        <ele>1.9</ele>
        <time>2022-08-28T09:40:43Z</time>
      </trkpt>
      <trkpt lat="43.57522" lon="4.52343">
        <ele>2</ele>
        <time>2022-08-28T09:40:48Z</time>
      </trkpt>
      <trkpt lat="43.57553" lon="4.52278">
        <ele>1.9</ele>
        <time>2022-08-28T09:40:59Z</time>
      </trkpt>
      <trkpt lat="43.57564" lon="4.52253">
        <ele>1.9</ele>
        <time>2022-08-28T09:41:03Z</time>
      </trkpt>
      <trkpt lat="43.57584" lon="4.52211">
        <ele>1.9</ele>
        <time>2022-08-28T09:41:10Z</time>
      </trkpt>
      <trkpt lat="43.57593" lon="4.52194">
        <ele>2</ele>
        <time>2022-08-28T09:41:13Z</time>
      </trkpt>
      <trkpt lat="43.57624" lon="4.5213">
        <ele>1.9</ele>
        <time>2022-08-28T09:41:24Z</time>
      </trkpt>
      <trkpt lat="43.57645" lon="4.52086">
        <ele>1.9</ele>
        <time>2022-08-28T09:41:31Z</time>
      </trkpt>
      <trkpt lat="43.57677" lon="4.52019">
        <ele>1.8</ele>
        <time>2022-08-28T09:41:42Z</time>
      </trkpt>
      <trkpt lat="43.57709" lon="4.51955">
        <ele>1.8</ele>
        <time>2022-08-28T09:41:53Z</time>
      </trkpt>
      <trkpt lat="43.5774" lon="4.51891">
        <ele>2</ele>
        <time>2022-08-28T09:42:04Z</time>
      </trkpt>
      <trkpt lat="43.57757" lon="4.51855">
        <ele>2</ele>
        <time>2022-08-28T09:42:10Z</time>
      </trkpt>
      <trkpt lat="43.57788" lon="4.51789">
        <ele>2</ele>
        <time>2022-08-28T09:42:21Z</time>
      </trkpt>
      <trkpt lat="43.5782" lon="4.51722">
        <ele>2</ele>
        <time>2022-08-28T09:42:32Z</time>
      </trkpt>
      <trkpt lat="43.57834" lon="4.51692">
        <ele>2.1</ele>
        <time>2022-08-28T09:42:37Z</time>
      </trkpt>
      <trkpt lat="43.57837" lon="4.51686">
        <ele>2.1</ele>
        <time>2022-08-28T09:42:38Z</time>
      </trkpt>
      <trkpt lat="43.57843" lon="4.51674">
        <ele>2.1</ele>
        <time>2022-08-28T09:42:40Z</time>
      </trkpt>
      <trkpt lat="43.57849" lon="4.51662">
        <ele>2.1</ele>
        <time>2022-08-28T09:42:42Z</time>
      </trkpt>
      <trkpt lat="43.57852" lon="4.51655">
        <ele>2</ele>
        <time>2022-08-28T09:42:43Z</time>
      </trkpt>
      <trkpt lat="43.57855" lon="4.51649">
        <ele>2</ele>
        <time>2022-08-28T09:42:44Z</time>
      </trkpt>
      <trkpt lat="43.57887" lon="4.51583">
        <ele>2</ele>
        <time>2022-08-28T09:42:55Z</time>
      </trkpt>
      <trkpt lat="43.57914" lon="4.51526">
        <ele>2</ele>
        <time>2022-08-28T09:43:04Z</time>
      </trkpt>
      <trkpt lat="43.57935" lon="4.51482">
        <ele>2</ele>
        <time>2022-08-28T09:43:11Z</time>
      </trkpt>
      <trkpt lat="43.57965" lon="4.51417">
        <ele>2</ele>
        <time>2022-08-28T09:43:21Z</time>
      </trkpt>
      <trkpt lat="43.57982" lon="4.51381">
        <ele>2</ele>
        <time>2022-08-28T09:43:27Z</time>
      </trkpt>
      <trkpt lat="43.57994" lon="4.51356">
        <ele>1.9</ele>
        <time>2022-08-28T09:43:31Z</time>
      </trkpt>
      <trkpt lat="43.58025" lon="4.51289">
        <ele>2</ele>
        <time>2022-08-28T09:43:42Z</time>
      </trkpt>
      <trkpt lat="43.58027" lon="4.51282">
        <ele>2</ele>
        <time>2022-08-28T09:43:43Z</time>
      </trkpt>
      <trkpt lat="43.5803" lon="4.51276">
        <ele>2</ele>
        <time>2022-08-28T09:43:44Z</time>
      </trkpt>
      <trkpt lat="43.58039" lon="4.5125">
        <ele>2</ele>
        <time>2022-08-28T09:43:48Z</time>
      </trkpt>
      <trkpt lat="43.58041" lon="4.51243">
        <ele>2</ele>
        <time>2022-08-28T09:43:49Z</time>
      </trkpt>
      <trkpt lat="43.58042" lon="4.51236">
        <ele>2</ele>
        <time>2022-08-28T09:43:50Z</time>
      </trkpt>
      <trkpt lat="43.58049" lon="4.51209">
        <ele>2</ele>
        <time>2022-08-28T09:43:54Z</time>
      </trkpt>
      <trkpt lat="43.58054" lon="4.51181">
        <ele>2</ele>
        <time>2022-08-28T09:43:58Z</time>
      </trkpt>
      <trkpt lat="43.58055" lon="4.51173">
        <ele>1.9</ele>
        <time>2022-08-28T09:43:59Z</time>
      </trkpt>
      <trkpt lat="43.58056" lon="4.51166">
        <ele>1.9</ele>
        <time>2022-08-28T09:44:00Z</time>
      </trkpt>
      <trkpt lat="43.58057" lon="4.51152">
        <ele>1.9</ele>
        <time>2022-08-28T09:44:02Z</time>
      </trkpt>
      <trkpt lat="43.58058" lon="4.51145">
        <ele>1.9</ele>
        <time>2022-08-28T09:44:03Z</time>
      </trkpt>
      <trkpt lat="43.58059" lon="4.51101">
        <ele>1.9</ele>
        <time>2022-08-28T09:44:09Z</time>
      </trkpt>
      <trkpt lat="43.58059" lon="4.51086">
        <ele>2</ele>
        <time>2022-08-28T09:44:11Z</time>
      </trkpt>
      <trkpt lat="43.58058" lon="4.51071">
        <ele>2</ele>
        <time>2022-08-28T09:44:13Z</time>
      </trkpt>
      <trkpt lat="43.58058" lon="4.51026">
        <ele>2</ele>
        <time>2022-08-28T09:44:19Z</time>
      </trkpt>
      <trkpt lat="43.58057" lon="4.50991">
        <ele>2</ele>
        <time>2022-08-28T09:44:24Z</time>
      </trkpt>
      <trkpt lat="43.58056" lon="4.50977">
        <ele>2</ele>
        <time>2022-08-28T09:44:26Z</time>
      </trkpt>
      <trkpt lat="43.58056" lon="4.50969">
        <ele>2</ele>
        <time>2022-08-28T09:44:27Z</time>
      </trkpt>
      <trkpt lat="43.58056" lon="4.50911">
        <ele>1.8</ele>
        <time>2022-08-28T09:44:35Z</time>
      </trkpt>
      <trkpt lat="43.58055" lon="4.50829">
        <ele>2</ele>
        <time>2022-08-28T09:44:46Z</time>
      </trkpt>
      <trkpt lat="43.58055" lon="4.50794">
        <ele>2</ele>
        <time>2022-08-28T09:44:51Z</time>
      </trkpt>
      <trkpt lat="43.58054" lon="4.50765">
        <ele>2</ele>
        <time>2022-08-28T09:44:55Z</time>
      </trkpt>
      <trkpt lat="43.58053" lon="4.50684">
        <ele>2</ele>
        <time>2022-08-28T09:45:06Z</time>
      </trkpt>
      <trkpt lat="43.58052" lon="4.50662">
        <ele>1.9</ele>
        <time>2022-08-28T09:45:09Z</time>
      </trkpt>
      <trkpt lat="43.58052" lon="4.50647">
        <ele>1.9</ele>
        <time>2022-08-28T09:45:11Z</time>
      </trkpt>
      <trkpt lat="43.58052" lon="4.50639">
        <ele>1.9</ele>
        <time>2022-08-28T09:45:12Z</time>
      </trkpt>
      <trkpt lat="43.58052" lon="4.50632">
        <ele>1.9</ele>
        <time>2022-08-28T09:45:13Z</time>
      </trkpt>
      <trkpt lat="43.58051" lon="4.5061">
        <ele>2</ele>
        <time>2022-08-28T09:45:16Z</time>
      </trkpt>
      <trkpt lat="43.58051" lon="4.50588">
        <ele>2.1</ele>
        <time>2022-08-28T09:45:19Z</time>
      </trkpt>
      <trkpt lat="43.5805" lon="4.50573">
        <ele>2.1</ele>
        <time>2022-08-28T09:45:21Z</time>
      </trkpt>
      <trkpt lat="43.5805" lon="4.50565">
        <ele>2.2</ele>
        <time>2022-08-28T09:45:22Z</time>
      </trkpt>
      <trkpt lat="43.5805" lon="4.5055">
        <ele>2.2</ele>
        <time>2022-08-28T09:45:24Z</time>
      </trkpt>
      <trkpt lat="43.5805" lon="4.50543">
        <ele>2.2</ele>
        <time>2022-08-28T09:45:25Z</time>
      </trkpt>
      <trkpt lat="43.5805" lon="4.50535">
        <ele>2.2</ele>
        <time>2022-08-28T09:45:26Z</time>
      </trkpt>
      <trkpt lat="43.5805" lon="4.50528">
        <ele>2.2</ele>
        <time>2022-08-28T09:45:27Z</time>
      </trkpt>
      <trkpt lat="43.5805" lon="4.50506">
        <ele>2.2</ele>
        <time>2022-08-28T09:45:30Z</time>
      </trkpt>
      <trkpt lat="43.58049" lon="4.50468">
        <ele>2.3</ele>
        <time>2022-08-28T09:45:35Z</time>
      </trkpt>
      <trkpt lat="43.58048" lon="4.50453">
        <ele>2.3</ele>
        <time>2022-08-28T09:45:37Z</time>
      </trkpt>
      <trkpt lat="43.58046" lon="4.50438">
        <ele>2.3</ele>
        <time>2022-08-28T09:45:39Z</time>
      </trkpt>
      <trkpt lat="43.58046" lon="4.50424">
        <ele>2.3</ele>
        <time>2022-08-28T09:45:41Z</time>
      </trkpt>
      <trkpt lat="43.58045" lon="4.5041">
        <ele>2.3</ele>
        <time>2022-08-28T09:45:43Z</time>
      </trkpt>
      <trkpt lat="43.58045" lon="4.50396">
        <ele>2.2</ele>
        <time>2022-08-28T09:45:45Z</time>
      </trkpt>
      <trkpt lat="43.58042" lon="4.50384">
        <ele>2.2</ele>
        <time>2022-08-28T09:45:47Z</time>
      </trkpt>
      <trkpt lat="43.58035" lon="4.50375">
        <ele>2.1</ele>
        <time>2022-08-28T09:45:49Z</time>
      </trkpt>
      <trkpt lat="43.58027" lon="4.50375">
        <ele>2.1</ele>
        <time>2022-08-28T09:45:51Z</time>
      </trkpt>
      <trkpt lat="43.57971" lon="4.5039">
        <ele>1.7</ele>
        <time>2022-08-28T09:46:03Z</time>
      </trkpt>
      <trkpt lat="43.57915" lon="4.50397">
        <ele>1.7</ele>
        <time>2022-08-28T09:46:14Z</time>
      </trkpt>
      <trkpt lat="43.57859" lon="4.50402">
        <ele>1.7</ele>
        <time>2022-08-28T09:46:26Z</time>
      </trkpt>
      <trkpt lat="43.5784" lon="4.50405">
        <ele>1.6</ele>
        <time>2022-08-28T09:46:30Z</time>
      </trkpt>
      <trkpt lat="43.57784" lon="4.50411">
        <ele>1.6</ele>
        <time>2022-08-28T09:46:41Z</time>
      </trkpt>
      <trkpt lat="43.57728" lon="4.50417">
        <ele>1.6</ele>
        <time>2022-08-28T09:46:52Z</time>
      </trkpt>
      <trkpt lat="43.57674" lon="4.50425">
        <ele>1.5</ele>
        <time>2022-08-28T09:47:02Z</time>
      </trkpt>
      <trkpt lat="43.57627" lon="4.5043">
        <ele>1.6</ele>
        <time>2022-08-28T09:47:11Z</time>
      </trkpt>
      <trkpt lat="43.57569" lon="4.50438">
        <ele>1.6</ele>
        <time>2022-08-28T09:47:22Z</time>
      </trkpt>
      <trkpt lat="43.57511" lon="4.50445">
        <ele>1.5</ele>
        <time>2022-08-28T09:47:33Z</time>
      </trkpt>
      <trkpt lat="43.57454" lon="4.50443">
        <ele>1.6</ele>
        <time>2022-08-28T09:47:44Z</time>
      </trkpt>
      <trkpt lat="43.57444" lon="4.5044">
        <ele>1.6</ele>
        <time>2022-08-28T09:47:46Z</time>
      </trkpt>
      <trkpt lat="43.57391" lon="4.50422">
        <ele>1.7</ele>
        <time>2022-08-28T09:47:56Z</time>
      </trkpt>
      <trkpt lat="43.57335" lon="4.50403">
        <ele>2</ele>
        <time>2022-08-28T09:48:07Z</time>
      </trkpt>
      <trkpt lat="43.5731" lon="4.50393">
        <ele>2.3</ele>
        <time>2022-08-28T09:48:12Z</time>
      </trkpt>
      <trkpt lat="43.57268" lon="4.50342">
        <ele>2.3</ele>
        <time>2022-08-28T09:48:31Z</time>
      </trkpt>
      <trkpt lat="43.5724" lon="4.50305">
        <ele>2.3</ele>
        <time>2022-08-28T09:48:45Z</time>
      </trkpt>
      <trkpt lat="43.57226" lon="4.50286">
        <ele>2.4</ele>
        <time>2022-08-28T09:48:51Z</time>
      </trkpt>
      <trkpt lat="43.57189" lon="4.50227">
        <ele>2.5</ele>
        <time>2022-08-28T09:49:06Z</time>
      </trkpt>
      <trkpt lat="43.57149" lon="4.50176">
        <ele>2.6</ele>
        <time>2022-08-28T09:49:21Z</time>
      </trkpt>
      <trkpt lat="43.57109" lon="4.50123">
        <ele>2.7</ele>
        <time>2022-08-28T09:49:38Z</time>
      </trkpt>
      <trkpt lat="43.57071" lon="4.50069">
        <ele>2.8</ele>
        <time>2022-08-28T09:49:53Z</time>
      </trkpt>
      <trkpt lat="43.57033" lon="4.50012">
        <ele>2.7</ele>
        <time>2022-08-28T09:50:07Z</time>
      </trkpt>
      <trkpt lat="43.57006" lon="4.49947">
        <ele>2.8</ele>
        <time>2022-08-28T09:50:20Z</time>
      </trkpt>
      <trkpt lat="43.56971" lon="4.49888">
        <ele>2.9</ele>
        <time>2022-08-28T09:50:36Z</time>
      </trkpt>
      <trkpt lat="43.56958" lon="4.49868">
        <ele>2.9</ele>
        <time>2022-08-28T09:50:41Z</time>
      </trkpt>
      <trkpt lat="43.56936" lon="4.49837">
        <ele>2.9</ele>
        <time>2022-08-28T09:50:49Z</time>
      </trkpt>
      <trkpt lat="43.56921" lon="4.49822">
        <ele>2.9</ele>
        <time>2022-08-28T09:50:54Z</time>
      </trkpt>
      <trkpt lat="43.56915" lon="4.49814">
        <ele>2.9</ele>
        <time>2022-08-28T09:50:56Z</time>
      </trkpt>
      <trkpt lat="43.56873" lon="4.49765">
        <ele>2.9</ele>
        <time>2022-08-28T09:51:11Z</time>
      </trkpt>
      <trkpt lat="43.5686" lon="4.49753">
        <ele>2.9</ele>
        <time>2022-08-28T09:51:16Z</time>
      </trkpt>
      <trkpt lat="43.56821" lon="4.49731">
        <ele>2.8</ele>
        <time>2022-08-28T09:51:30Z</time>
      </trkpt>
      <trkpt lat="43.56803" lon="4.49719">
        <ele>2.7</ele>
        <time>2022-08-28T09:51:35Z</time>
      </trkpt>
      <trkpt lat="43.56752" lon="4.49698">
        <ele>2.5</ele>
        <time>2022-08-28T09:51:45Z</time>
      </trkpt>
      <trkpt lat="43.56696" lon="4.49693">
        <ele>2.4</ele>
        <time>2022-08-28T09:51:56Z</time>
      </trkpt>
      <trkpt lat="43.56686" lon="4.49693">
        <ele>2.3</ele>
        <time>2022-08-28T09:51:58Z</time>
      </trkpt>
      <trkpt lat="43.56673" lon="4.49693">
        <ele>2.3</ele>
        <time>2022-08-28T09:52:01Z</time>
      </trkpt>
      <trkpt lat="43.56619" lon="4.49698">
        <ele>2.4</ele>
        <time>2022-08-28T09:52:15Z</time>
      </trkpt>
      <trkpt lat="43.56572" lon="4.49696">
        <ele>2.3</ele>
        <time>2022-08-28T09:52:26Z</time>
      </trkpt>
      <trkpt lat="43.56526" lon="4.49686">
        <ele>2.3</ele>
        <time>2022-08-28T09:52:36Z</time>
      </trkpt>
      <trkpt lat="43.56471" lon="4.49662">
        <ele>2.4</ele>
        <time>2022-08-28T09:52:51Z</time>
      </trkpt>
      <trkpt lat="43.56419" lon="4.49626">
        <ele>2.3</ele>
        <time>2022-08-28T09:53:04Z</time>
      </trkpt>
      <trkpt lat="43.56376" lon="4.49594">
        <ele>2.3</ele>
        <time>2022-08-28T09:53:15Z</time>
      </trkpt>
      <trkpt lat="43.5635" lon="4.49576">
        <ele>2.2</ele>
        <time>2022-08-28T09:53:23Z</time>
      </trkpt>
      <trkpt lat="43.56342" lon="4.4957">
        <ele>2.2</ele>
        <time>2022-08-28T09:54:13Z</time>
      </trkpt>
      <trkpt lat="43.56342" lon="4.4957">
        <ele>2.2</ele>
        <time>2022-08-28T09:54:14Z</time>
      </trkpt>
      <trkpt lat="43.56341" lon="4.49569">
        <ele>2.2</ele>
        <time>2022-08-28T09:54:15Z</time>
      </trkpt>
      <trkpt lat="43.56333" lon="4.49563">
        <ele>2.2</ele>
        <time>2022-08-28T09:54:19Z</time>
      </trkpt>
      <trkpt lat="43.56282" lon="4.49528">
        <ele>2.1</ele>
        <time>2022-08-28T09:54:32Z</time>
      </trkpt>
      <trkpt lat="43.56272" lon="4.49521">
        <ele>2.1</ele>
        <time>2022-08-28T09:54:34Z</time>
      </trkpt>
      <trkpt lat="43.56267" lon="4.49518">
        <ele>2</ele>
        <time>2022-08-28T09:54:35Z</time>
      </trkpt>
      <trkpt lat="43.56263" lon="4.49515">
        <ele>2</ele>
        <time>2022-08-28T09:54:36Z</time>
      </trkpt>
      <trkpt lat="43.56253" lon="4.49509">
        <ele>2</ele>
        <time>2022-08-28T09:54:38Z</time>
      </trkpt>
      <trkpt lat="43.56243" lon="4.49502">
        <ele>2</ele>
        <time>2022-08-28T09:54:40Z</time>
      </trkpt>
      <trkpt lat="43.56238" lon="4.49499">
        <ele>2</ele>
        <time>2022-08-28T09:54:41Z</time>
      </trkpt>
      <trkpt lat="43.56233" lon="4.49495">
        <ele>2</ele>
        <time>2022-08-28T09:54:42Z</time>
      </trkpt>
      <trkpt lat="43.56223" lon="4.49488">
        <ele>2</ele>
        <time>2022-08-28T09:54:44Z</time>
      </trkpt>
      <trkpt lat="43.56218" lon="4.49485">
        <ele>2</ele>
        <time>2022-08-28T09:54:45Z</time>
      </trkpt>
      <trkpt lat="43.56213" lon="4.49481">
        <ele>2</ele>
        <time>2022-08-28T09:54:46Z</time>
      </trkpt>
      <trkpt lat="43.56202" lon="4.49474">
        <ele>2</ele>
        <time>2022-08-28T09:54:48Z</time>
      </trkpt>
      <trkpt lat="43.56197" lon="4.4947">
        <ele>2</ele>
        <time>2022-08-28T09:54:49Z</time>
      </trkpt>
      <trkpt lat="43.56177" lon="4.49456">
        <ele>2</ele>
        <time>2022-08-28T09:54:53Z</time>
      </trkpt>
      <trkpt lat="43.56161" lon="4.49446">
        <ele>2</ele>
        <time>2022-08-28T09:54:56Z</time>
      </trkpt>
      <trkpt lat="43.56147" lon="4.49436">
        <ele>2</ele>
        <time>2022-08-28T09:54:59Z</time>
      </trkpt>
      <trkpt lat="43.56142" lon="4.49432">
        <ele>2</ele>
        <time>2022-08-28T09:55:00Z</time>
      </trkpt>
      <trkpt lat="43.5613" lon="4.49423">
        <ele>2</ele>
        <time>2022-08-28T09:55:04Z</time>
      </trkpt>
      <trkpt lat="43.5612" lon="4.49416">
        <ele>2</ele>
        <time>2022-08-28T09:55:09Z</time>
      </trkpt>
      <trkpt lat="43.56113" lon="4.49411">
        <ele>2</ele>
        <time>2022-08-28T09:55:13Z</time>
      </trkpt>
      <trkpt lat="43.56111" lon="4.49409">
        <ele>2</ele>
        <time>2022-08-28T09:55:14Z</time>
      </trkpt>
      <trkpt lat="43.56109" lon="4.49408">
        <ele>2</ele>
        <time>2022-08-28T09:55:15Z</time>
      </trkpt>
      <trkpt lat="43.56107" lon="4.49406">
        <ele>2</ele>
        <time>2022-08-28T09:55:16Z</time>
      </trkpt>
      <trkpt lat="43.56099" lon="4.49401">
        <ele>2</ele>
        <time>2022-08-28T09:55:19Z</time>
      </trkpt>
      <trkpt lat="43.56094" lon="4.49398">
        <ele>2</ele>
        <time>2022-08-28T09:55:21Z</time>
      </trkpt>
      <trkpt lat="43.56069" lon="4.49381">
        <ele>2</ele>
        <time>2022-08-28T09:55:29Z</time>
      </trkpt>
      <trkpt lat="43.56022" lon="4.4934">
        <ele>2.1</ele>
        <time>2022-08-28T09:55:46Z</time>
      </trkpt>
      <trkpt lat="43.55984" lon="4.493">
        <ele>2.1</ele>
        <time>2022-08-28T09:55:59Z</time>
      </trkpt>
      <trkpt lat="43.5594" lon="4.49254">
        <ele>2.2</ele>
        <time>2022-08-28T09:56:14Z</time>
      </trkpt>
      <trkpt lat="43.5593" lon="4.49244">
        <ele>2.1</ele>
        <time>2022-08-28T09:56:17Z</time>
      </trkpt>
      <trkpt lat="43.55923" lon="4.49238">
        <ele>2.1</ele>
        <time>2022-08-28T09:56:19Z</time>
      </trkpt>
      <trkpt lat="43.55906" lon="4.49221">
        <ele>2.2</ele>
        <time>2022-08-28T09:56:24Z</time>
      </trkpt>
      <trkpt lat="43.55859" lon="4.49175">
        <ele>2.4</ele>
        <time>2022-08-28T09:56:38Z</time>
      </trkpt>
      <trkpt lat="43.55842" lon="4.49158">
        <ele>2.4</ele>
        <time>2022-08-28T09:56:43Z</time>
      </trkpt>
      <trkpt lat="43.55832" lon="4.49148">
        <ele>2.4</ele>
        <time>2022-08-28T09:56:46Z</time>
      </trkpt>
      <trkpt lat="43.55803" lon="4.49118">
        <ele>2.4</ele>
        <time>2022-08-28T09:56:55Z</time>
      </trkpt>
      <trkpt lat="43.55758" lon="4.49071">
        <ele>2.5</ele>
        <time>2022-08-28T09:57:11Z</time>
      </trkpt>
      <trkpt lat="43.55712" lon="4.49027">
        <ele>2.4</ele>
        <time>2022-08-28T09:57:26Z</time>
      </trkpt>
      <trkpt lat="43.55664" lon="4.48984">
        <ele>2.1</ele>
        <time>2022-08-28T09:57:40Z</time>
      </trkpt>
      <trkpt lat="43.55613" lon="4.48954">
        <ele>2.1</ele>
        <time>2022-08-28T09:57:53Z</time>
      </trkpt>
      <trkpt lat="43.55588" lon="4.48932">
        <ele>2.2</ele>
        <time>2022-08-28T09:58:00Z</time>
      </trkpt>
      <trkpt lat="43.55572" lon="4.48858">
        <ele>2.3</ele>
        <time>2022-08-28T09:58:14Z</time>
      </trkpt>
      <trkpt lat="43.5556" lon="4.48799">
        <ele>2.3</ele>
        <time>2022-08-28T09:58:24Z</time>
      </trkpt>
      <trkpt lat="43.55556" lon="4.48775">
        <ele>2.3</ele>
        <time>2022-08-28T09:58:28Z</time>
      </trkpt>
      <trkpt lat="43.55541" lon="4.48697">
        <ele>2.2</ele>
        <time>2022-08-28T09:58:41Z</time>
      </trkpt>
      <trkpt lat="43.55536" lon="4.48667">
        <ele>2.2</ele>
        <time>2022-08-28T09:58:46Z</time>
      </trkpt>
      <trkpt lat="43.55532" lon="4.4865">
        <ele>2.2</ele>
        <time>2022-08-28T09:58:49Z</time>
      </trkpt>
      <trkpt lat="43.55524" lon="4.48608">
        <ele>2.2</ele>
        <time>2022-08-28T09:58:57Z</time>
      </trkpt>
      <trkpt lat="43.55519" lon="4.48586">
        <ele>2.2</ele>
        <time>2022-08-28T09:59:01Z</time>
      </trkpt>
      <trkpt lat="43.55514" lon="4.48556">
        <ele>2.3</ele>
        <time>2022-08-28T09:59:07Z</time>
      </trkpt>
      <trkpt lat="43.55505" lon="4.48535">
        <ele>2.3</ele>
        <time>2022-08-28T09:59:12Z</time>
      </trkpt>
      <trkpt lat="43.55498" lon="4.48528">
        <ele>2.3</ele>
        <time>2022-08-28T09:59:14Z</time>
      </trkpt>
      <trkpt lat="43.55484" lon="4.48519">
        <ele>2.2</ele>
        <time>2022-08-28T09:59:17Z</time>
      </trkpt>
      <trkpt lat="43.55434" lon="4.48482">
        <ele>2</ele>
        <time>2022-08-28T09:59:28Z</time>
      </trkpt>
      <trkpt lat="43.55385" lon="4.48447">
        <ele>2</ele>
        <time>2022-08-28T09:59:39Z</time>
      </trkpt>
      <trkpt lat="43.55374" lon="4.48438">
        <ele>2</ele>
        <time>2022-08-28T09:59:42Z</time>
      </trkpt>
      <trkpt lat="43.55368" lon="4.48432">
        <ele>2</ele>
        <time>2022-08-28T09:59:44Z</time>
      </trkpt>
      <trkpt lat="43.55356" lon="4.48425">
        <ele>2</ele>
        <time>2022-08-28T09:59:47Z</time>
      </trkpt>
      <trkpt lat="43.55335" lon="4.48409">
        <ele>2.1</ele>
        <time>2022-08-28T09:59:52Z</time>
      </trkpt>
      <trkpt lat="43.55283" lon="4.48373">
        <ele>2.2</ele>
        <time>2022-08-28T10:00:04Z</time>
      </trkpt>
      <trkpt lat="43.55263" lon="4.48358">
        <ele>2.2</ele>
        <time>2022-08-28T10:00:09Z</time>
      </trkpt>
      <trkpt lat="43.55244" lon="4.48344">
        <ele>2.2</ele>
        <time>2022-08-28T10:00:14Z</time>
      </trkpt>
      <trkpt lat="43.55195" lon="4.4831">
        <ele>2.3</ele>
        <time>2022-08-28T10:00:27Z</time>
      </trkpt>
      <trkpt lat="43.55191" lon="4.48308">
        <ele>2.3</ele>
        <time>2022-08-28T10:00:28Z</time>
      </trkpt>
      <trkpt lat="43.55183" lon="4.48302">
        <ele>2.4</ele>
        <time>2022-08-28T10:00:30Z</time>
      </trkpt>
      <trkpt lat="43.55147" lon="4.48275">
        <ele>2.5</ele>
        <time>2022-08-28T10:00:40Z</time>
      </trkpt>
      <trkpt lat="43.55121" lon="4.4826">
        <ele>2.5</ele>
        <time>2022-08-28T10:00:47Z</time>
      </trkpt>
      <trkpt lat="43.55084" lon="4.48255">
        <ele>2.5</ele>
        <time>2022-08-28T10:00:56Z</time>
      </trkpt>
      <trkpt lat="43.55054" lon="4.4825">
        <ele>2.4</ele>
        <time>2022-08-28T10:01:03Z</time>
      </trkpt>
      <trkpt lat="43.55001" lon="4.4824">
        <ele>2.4</ele>
        <time>2022-08-28T10:01:15Z</time>
      </trkpt>
      <trkpt lat="43.54977" lon="4.48236">
        <ele>2.4</ele>
        <time>2022-08-28T10:01:21Z</time>
      </trkpt>
      <trkpt lat="43.5494" lon="4.48231">
        <ele>2.4</ele>
        <time>2022-08-28T10:01:32Z</time>
      </trkpt>
      <trkpt lat="43.54886" lon="4.48222">
        <ele>2.3</ele>
        <time>2022-08-28T10:01:46Z</time>
      </trkpt>
      <trkpt lat="43.54828" lon="4.48211">
        <ele>2.4</ele>
        <time>2022-08-28T10:02:00Z</time>
      </trkpt>
      <trkpt lat="43.54774" lon="4.48203">
        <ele>2.4</ele>
        <time>2022-08-28T10:02:13Z</time>
      </trkpt>
      <trkpt lat="43.5472" lon="4.48195">
        <ele>2.4</ele>
        <time>2022-08-28T10:02:26Z</time>
      </trkpt>
      <trkpt lat="43.54685" lon="4.4819">
        <ele>2.4</ele>
        <time>2022-08-28T10:02:34Z</time>
      </trkpt>
      <trkpt lat="43.54629" lon="4.48181">
        <ele>2.5</ele>
        <time>2022-08-28T10:02:47Z</time>
      </trkpt>
      <trkpt lat="43.54574" lon="4.48192">
        <ele>2.6</ele>
        <time>2022-08-28T10:03:01Z</time>
      </trkpt>
      <trkpt lat="43.54558" lon="4.48201">
        <ele>2.6</ele>
        <time>2022-08-28T10:03:05Z</time>
      </trkpt>
      <trkpt lat="43.54504" lon="4.48227">
        <ele>2.6</ele>
        <time>2022-08-28T10:03:20Z</time>
      </trkpt>
      <trkpt lat="43.54479" lon="4.48237">
        <ele>2.6</ele>
        <time>2022-08-28T10:03:27Z</time>
      </trkpt>
      <trkpt lat="43.54428" lon="4.48261">
        <ele>2.5</ele>
        <time>2022-08-28T10:03:40Z</time>
      </trkpt>
      <trkpt lat="43.54398" lon="4.48277">
        <ele>2.5</ele>
        <time>2022-08-28T10:03:48Z</time>
      </trkpt>
      <trkpt lat="43.54385" lon="4.48282">
        <ele>2.6</ele>
        <time>2022-08-28T10:03:51Z</time>
      </trkpt>
      <trkpt lat="43.54373" lon="4.48288">
        <ele>2.6</ele>
        <time>2022-08-28T10:03:54Z</time>
      </trkpt>
      <trkpt lat="43.54321" lon="4.48311">
        <ele>2.5</ele>
        <time>2022-08-28T10:04:07Z</time>
      </trkpt>
      <trkpt lat="43.54269" lon="4.48334">
        <ele>2.3</ele>
        <time>2022-08-28T10:04:20Z</time>
      </trkpt>
      <trkpt lat="43.54248" lon="4.48342">
        <ele>2.3</ele>
        <time>2022-08-28T10:04:25Z</time>
      </trkpt>
      <trkpt lat="43.54234" lon="4.48343">
        <ele>2.4</ele>
        <time>2022-08-28T10:04:28Z</time>
      </trkpt>
      <trkpt lat="43.5418" lon="4.48338">
        <ele>2.4</ele>
        <time>2022-08-28T10:04:42Z</time>
      </trkpt>
      <trkpt lat="43.54123" lon="4.4833">
        <ele>2.5</ele>
        <time>2022-08-28T10:04:57Z</time>
      </trkpt>
      <trkpt lat="43.54084" lon="4.48325">
        <ele>2.7</ele>
        <time>2022-08-28T10:05:07Z</time>
      </trkpt>
      <trkpt lat="43.54028" lon="4.48316">
        <ele>2.4</ele>
        <time>2022-08-28T10:05:21Z</time>
      </trkpt>
      <trkpt lat="43.54016" lon="4.48313">
        <ele>2.4</ele>
        <time>2022-08-28T10:05:24Z</time>
      </trkpt>
      <trkpt lat="43.54004" lon="4.48311">
        <ele>2.4</ele>
        <time>2022-08-28T10:05:27Z</time>
      </trkpt>
      <trkpt lat="43.53974" lon="4.48307">
        <ele>2.4</ele>
        <time>2022-08-28T10:05:35Z</time>
      </trkpt>
      <trkpt lat="43.53919" lon="4.48301">
        <ele>2.3</ele>
        <time>2022-08-28T10:05:49Z</time>
      </trkpt>
      <trkpt lat="43.53867" lon="4.48279">
        <ele>2.2</ele>
        <time>2022-08-28T10:06:04Z</time>
      </trkpt>
      <trkpt lat="43.53817" lon="4.48248">
        <ele>2.2</ele>
        <time>2022-08-28T10:06:18Z</time>
      </trkpt>
      <trkpt lat="43.53788" lon="4.48227">
        <ele>2.2</ele>
        <time>2022-08-28T10:06:26Z</time>
      </trkpt>
      <trkpt lat="43.53762" lon="4.48213">
        <ele>2.3</ele>
        <time>2022-08-28T10:06:33Z</time>
      </trkpt>
      <trkpt lat="43.53712" lon="4.48175">
        <ele>2.3</ele>
        <time>2022-08-28T10:06:47Z</time>
      </trkpt>
      <trkpt lat="43.53672" lon="4.48145">
        <ele>2.3</ele>
        <time>2022-08-28T10:06:59Z</time>
      </trkpt>
      <trkpt lat="43.5366" lon="4.48136">
        <ele>2.2</ele>
        <time>2022-08-28T10:07:03Z</time>
      </trkpt>
      <trkpt lat="43.53647" lon="4.48126">
        <ele>2.2</ele>
        <time>2022-08-28T10:07:07Z</time>
      </trkpt>
      <trkpt lat="43.53595" lon="4.48091">
        <ele>2.2</ele>
        <time>2022-08-28T10:07:23Z</time>
      </trkpt>
      <trkpt lat="43.53545" lon="4.48057">
        <ele>2.1</ele>
        <time>2022-08-28T10:07:37Z</time>
      </trkpt>
      <trkpt lat="43.53497" lon="4.48021">
        <ele>2.1</ele>
        <time>2022-08-28T10:07:50Z</time>
      </trkpt>
      <trkpt lat="43.53449" lon="4.47981">
        <ele>2.1</ele>
        <time>2022-08-28T10:08:04Z</time>
      </trkpt>
      <trkpt lat="43.53405" lon="4.47943">
        <ele>2.1</ele>
        <time>2022-08-28T10:08:16Z</time>
      </trkpt>
      <trkpt lat="43.53399" lon="4.47935">
        <ele>2.2</ele>
        <time>2022-08-28T10:08:18Z</time>
      </trkpt>
      <trkpt lat="43.5337" lon="4.47904">
        <ele>2.2</ele>
        <time>2022-08-28T10:08:27Z</time>
      </trkpt>
      <trkpt lat="43.53335" lon="4.47842">
        <ele>2.2</ele>
        <time>2022-08-28T10:08:41Z</time>
      </trkpt>
      <trkpt lat="43.53294" lon="4.47789">
        <ele>2.2</ele>
        <time>2022-08-28T10:08:55Z</time>
      </trkpt>
      <trkpt lat="43.53264" lon="4.47761">
        <ele>2.2</ele>
        <time>2022-08-28T10:09:04Z</time>
      </trkpt>
      <trkpt lat="43.53222" lon="4.47714">
        <ele>2.2</ele>
        <time>2022-08-28T10:09:18Z</time>
      </trkpt>
      <trkpt lat="43.53203" lon="4.47696">
        <ele>2.2</ele>
        <time>2022-08-28T10:09:24Z</time>
      </trkpt>
      <trkpt lat="43.53161" lon="4.47649">
        <ele>2.1</ele>
        <time>2022-08-28T10:09:37Z</time>
      </trkpt>
      <trkpt lat="43.53144" lon="4.47633">
        <ele>2.1</ele>
        <time>2022-08-28T10:09:42Z</time>
      </trkpt>
      <trkpt lat="43.531" lon="4.47589">
        <ele>2.1</ele>
        <time>2022-08-28T10:09:56Z</time>
      </trkpt>
      <trkpt lat="43.53066" lon="4.47556">
        <ele>2.1</ele>
        <time>2022-08-28T10:10:07Z</time>
      </trkpt>
      <trkpt lat="43.53023" lon="4.47509">
        <ele>2.1</ele>
        <time>2022-08-28T10:10:23Z</time>
      </trkpt>
      <trkpt lat="43.52998" lon="4.47483">
        <ele>2</ele>
        <time>2022-08-28T10:10:33Z</time>
      </trkpt>
      <trkpt lat="43.5295" lon="4.4744">
        <ele>1.9</ele>
        <time>2022-08-28T10:10:48Z</time>
      </trkpt>
      <trkpt lat="43.52923" lon="4.47409">
        <ele>1.8</ele>
        <time>2022-08-28T10:10:58Z</time>
      </trkpt>
      <trkpt lat="43.52883" lon="4.47355">
        <ele>1.8</ele>
        <time>2022-08-28T10:11:13Z</time>
      </trkpt>
      <trkpt lat="43.52858" lon="4.47323">
        <ele>1.9</ele>
        <time>2022-08-28T10:11:23Z</time>
      </trkpt>
      <trkpt lat="43.52825" lon="4.47262">
        <ele>1.9</ele>
        <time>2022-08-28T10:11:37Z</time>
      </trkpt>
      <trkpt lat="43.52801" lon="4.47192">
        <ele>1.8</ele>
        <time>2022-08-28T10:11:51Z</time>
      </trkpt>
      <trkpt lat="43.52779" lon="4.47136">
        <ele>1.9</ele>
        <time>2022-08-28T10:12:02Z</time>
      </trkpt>
      <trkpt lat="43.52743" lon="4.4708">
        <ele>2.2</ele>
        <time>2022-08-28T10:12:17Z</time>
      </trkpt>
      <trkpt lat="43.52728" lon="4.47014">
        <ele>2.4</ele>
        <time>2022-08-28T10:12:31Z</time>
      </trkpt>
      <trkpt lat="43.52718" lon="4.46937">
        <ele>2.3</ele>
        <time>2022-08-28T10:12:46Z</time>
      </trkpt>
      <trkpt lat="43.52713" lon="4.46908">
        <ele>2.3</ele>
        <time>2022-08-28T10:12:53Z</time>
      </trkpt>
      <trkpt lat="43.52707" lon="4.46865">
        <ele>2.4</ele>
        <time>2022-08-28T10:13:02Z</time>
      </trkpt>
      <trkpt lat="43.52702" lon="4.46841">
        <ele>2.3</ele>
        <time>2022-08-28T10:13:07Z</time>
      </trkpt>
      <trkpt lat="43.52695" lon="4.46813">
        <ele>2.2</ele>
        <time>2022-08-28T10:13:12Z</time>
      </trkpt>
      <trkpt lat="43.52672" lon="4.46779">
        <ele>2.3</ele>
        <time>2022-08-28T10:13:20Z</time>
      </trkpt>
      <trkpt lat="43.52632" lon="4.46727">
        <ele>2.3</ele>
        <time>2022-08-28T10:13:33Z</time>
      </trkpt>
      <trkpt lat="43.5262" lon="4.46713">
        <ele>2.3</ele>
        <time>2022-08-28T10:13:37Z</time>
      </trkpt>
      <trkpt lat="43.52577" lon="4.46659">
        <ele>2.4</ele>
        <time>2022-08-28T10:13:51Z</time>
      </trkpt>
      <trkpt lat="43.52537" lon="4.46605">
        <ele>2.4</ele>
        <time>2022-08-28T10:14:05Z</time>
      </trkpt>
      <trkpt lat="43.52514" lon="4.46576">
        <ele>2.4</ele>
        <time>2022-08-28T10:14:13Z</time>
      </trkpt>
      <trkpt lat="43.52475" lon="4.46522">
        <ele>2.4</ele>
        <time>2022-08-28T10:14:26Z</time>
      </trkpt>
      <trkpt lat="43.52433" lon="4.46469">
        <ele>2.4</ele>
        <time>2022-08-28T10:14:41Z</time>
      </trkpt>
      <trkpt lat="43.52398" lon="4.46409">
        <ele>2.4</ele>
        <time>2022-08-28T10:14:56Z</time>
      </trkpt>
      <trkpt lat="43.52389" lon="4.46391">
        <ele>2.4</ele>
        <time>2022-08-28T10:15:00Z</time>
      </trkpt>
      <trkpt lat="43.52353" lon="4.46334">
        <ele>2.4</ele>
        <time>2022-08-28T10:15:15Z</time>
      </trkpt>
      <trkpt lat="43.52333" lon="4.46306">
        <ele>2.3</ele>
        <time>2022-08-28T10:15:24Z</time>
      </trkpt>
      <trkpt lat="43.52331" lon="4.46302">
        <ele>2.3</ele>
        <time>2022-08-28T10:15:25Z</time>
      </trkpt>
      <trkpt lat="43.52328" lon="4.46299">
        <ele>2.3</ele>
        <time>2022-08-28T10:15:26Z</time>
      </trkpt>
      <trkpt lat="43.52282" lon="4.4626">
        <ele>2.2</ele>
        <time>2022-08-28T10:15:40Z</time>
      </trkpt>
      <trkpt lat="43.52239" lon="4.46226">
        <ele>2.1</ele>
        <time>2022-08-28T10:15:52Z</time>
      </trkpt>
      <trkpt lat="43.52185" lon="4.46204">
        <ele>2.1</ele>
        <time>2022-08-28T10:16:06Z</time>
      </trkpt>
      <trkpt lat="43.52132" lon="4.46179">
        <ele>2.2</ele>
        <time>2022-08-28T10:16:19Z</time>
      </trkpt>
      <trkpt lat="43.52112" lon="4.46166">
        <ele>2.2</ele>
        <time>2022-08-28T10:16:24Z</time>
      </trkpt>
      <trkpt lat="43.52106" lon="4.46156">
        <ele>2.2</ele>
        <time>2022-08-28T10:16:26Z</time>
      </trkpt>
      <trkpt lat="43.52102" lon="4.46145">
        <ele>2.2</ele>
        <time>2022-08-28T10:16:28Z</time>
      </trkpt>
      <trkpt lat="43.52101" lon="4.46133">
        <ele>2.2</ele>
        <time>2022-08-28T10:16:30Z</time>
      </trkpt>
      <trkpt lat="43.52103" lon="4.46103">
        <ele>2.2</ele>
        <time>2022-08-28T10:16:35Z</time>
      </trkpt>
      <trkpt lat="43.5211" lon="4.46039">
        <ele>2.3</ele>
        <time>2022-08-28T10:16:46Z</time>
      </trkpt>
      <trkpt lat="43.52113" lon="4.46006">
        <ele>2.3</ele>
        <time>2022-08-28T10:16:52Z</time>
      </trkpt>
      <trkpt lat="43.52114" lon="4.45982">
        <ele>2.3</ele>
        <time>2022-08-28T10:16:56Z</time>
      </trkpt>
      <trkpt lat="43.52119" lon="4.45935">
        <ele>2.3</ele>
        <time>2022-08-28T10:17:04Z</time>
      </trkpt>
      <trkpt lat="43.52126" lon="4.45857">
        <ele>2.2</ele>
        <time>2022-08-28T10:17:17Z</time>
      </trkpt>
      <trkpt lat="43.52132" lon="4.45804">
        <ele>2.3</ele>
        <time>2022-08-28T10:17:26Z</time>
      </trkpt>
      <trkpt lat="43.52109" lon="4.45745">
        <ele>2.1</ele>
        <time>2022-08-28T10:17:40Z</time>
      </trkpt>
      <trkpt lat="43.52058" lon="4.45717">
        <ele>2.1</ele>
        <time>2022-08-28T10:17:52Z</time>
      </trkpt>
      <trkpt lat="43.52014" lon="4.45694">
        <ele>2</ele>
        <time>2022-08-28T10:18:02Z</time>
      </trkpt>
      <trkpt lat="43.51963" lon="4.45664">
        <ele>2</ele>
        <time>2022-08-28T10:18:14Z</time>
      </trkpt>
      <trkpt lat="43.51912" lon="4.45637">
        <ele>2.1</ele>
        <time>2022-08-28T10:18:26Z</time>
      </trkpt>
      <trkpt lat="43.51858" lon="4.45611">
        <ele>2.2</ele>
        <time>2022-08-28T10:18:39Z</time>
      </trkpt>
      <trkpt lat="43.51812" lon="4.45592">
        <ele>2.2</ele>
        <time>2022-08-28T10:18:50Z</time>
      </trkpt>
      <trkpt lat="43.51758" lon="4.45589">
        <ele>2</ele>
        <time>2022-08-28T10:19:02Z</time>
      </trkpt>
      <trkpt lat="43.51718" lon="4.45589">
        <ele>2</ele>
        <time>2022-08-28T10:19:11Z</time>
      </trkpt>
      <trkpt lat="43.51687" lon="4.45588">
        <ele>2</ele>
        <time>2022-08-28T10:19:18Z</time>
      </trkpt>
      <trkpt lat="43.51632" lon="4.4559">
        <ele>2.1</ele>
        <time>2022-08-28T10:19:30Z</time>
      </trkpt>
      <trkpt lat="43.51575" lon="4.45594">
        <ele>2.1</ele>
        <time>2022-08-28T10:19:43Z</time>
      </trkpt>
      <trkpt lat="43.51521" lon="4.45624">
        <ele>2</ele>
        <time>2022-08-28T10:19:56Z</time>
      </trkpt>
      <trkpt lat="43.51503" lon="4.45641">
        <ele>2.1</ele>
        <time>2022-08-28T10:20:01Z</time>
      </trkpt>
      <trkpt lat="43.5149" lon="4.45647">
        <ele>2.1</ele>
        <time>2022-08-28T10:20:04Z</time>
      </trkpt>
      <trkpt lat="43.51481" lon="4.45647">
        <ele>2.1</ele>
        <time>2022-08-28T10:20:06Z</time>
      </trkpt>
      <trkpt lat="43.51473" lon="4.45643">
        <ele>2.1</ele>
        <time>2022-08-28T10:20:08Z</time>
      </trkpt>
      <trkpt lat="43.51465" lon="4.45637">
        <ele>2.1</ele>
        <time>2022-08-28T10:20:10Z</time>
      </trkpt>
      <trkpt lat="43.51417" lon="4.45601">
        <ele>2.4</ele>
        <time>2022-08-28T10:20:23Z</time>
      </trkpt>
      <trkpt lat="43.51367" lon="4.4557">
        <ele>2.5</ele>
        <time>2022-08-28T10:20:37Z</time>
      </trkpt>
      <trkpt lat="43.5132" lon="4.45536">
        <ele>2.6</ele>
        <time>2022-08-28T10:20:51Z</time>
      </trkpt>
      <trkpt lat="43.51267" lon="4.45504">
        <ele>2.5</ele>
        <time>2022-08-28T10:21:05Z</time>
      </trkpt>
      <trkpt lat="43.5126" lon="4.455">
        <ele>2.5</ele>
        <time>2022-08-28T10:21:07Z</time>
      </trkpt>
      <trkpt lat="43.51252" lon="4.45495">
        <ele>2.5</ele>
        <time>2022-08-28T10:21:09Z</time>
      </trkpt>
      <trkpt lat="43.51244" lon="4.4549">
        <ele>2.5</ele>
        <time>2022-08-28T10:21:11Z</time>
      </trkpt>
      <trkpt lat="43.51236" lon="4.45486">
        <ele>2.6</ele>
        <time>2022-08-28T10:21:13Z</time>
      </trkpt>
      <trkpt lat="43.51185" lon="4.4546">
        <ele>2.7</ele>
        <time>2022-08-28T10:21:26Z</time>
      </trkpt>
      <trkpt lat="43.51166" lon="4.45453">
        <ele>2.7</ele>
        <time>2022-08-28T10:21:31Z</time>
      </trkpt>
      <trkpt lat="43.5111" lon="4.45432">
        <ele>2.6</ele>
        <time>2022-08-28T10:21:45Z</time>
      </trkpt>
      <trkpt lat="43.51088" lon="4.45421">
        <ele>2.5</ele>
        <time>2022-08-28T10:21:52Z</time>
      </trkpt>
      <trkpt lat="43.51067" lon="4.45401">
        <ele>2.4</ele>
        <time>2022-08-28T10:22:39Z</time>
      </trkpt>
      <trkpt lat="43.51064" lon="4.45398">
        <ele>2.4</ele>
        <time>2022-08-28T10:22:40Z</time>
      </trkpt>
      <trkpt lat="43.51019" lon="4.45351">
        <ele>2.4</ele>
        <time>2022-08-28T10:22:54Z</time>
      </trkpt>
      <trkpt lat="43.50988" lon="4.45293">
        <ele>2.2</ele>
        <time>2022-08-28T10:23:09Z</time>
      </trkpt>
      <trkpt lat="43.50958" lon="4.45237">
        <ele>2.1</ele>
        <time>2022-08-28T10:23:21Z</time>
      </trkpt>
      <trkpt lat="43.50948" lon="4.45217">
        <ele>2</ele>
        <time>2022-08-28T10:23:25Z</time>
      </trkpt>
      <trkpt lat="43.50938" lon="4.45197">
        <ele>2</ele>
        <time>2022-08-28T10:23:29Z</time>
      </trkpt>
      <trkpt lat="43.50933" lon="4.45188">
        <ele>2</ele>
        <time>2022-08-28T10:23:31Z</time>
      </trkpt>
      <trkpt lat="43.50925" lon="4.45173">
        <ele>2</ele>
        <time>2022-08-28T10:23:34Z</time>
      </trkpt>
      <trkpt lat="43.50922" lon="4.45168">
        <ele>2</ele>
        <time>2022-08-28T10:23:35Z</time>
      </trkpt>
      <trkpt lat="43.50919" lon="4.45163">
        <ele>2</ele>
        <time>2022-08-28T10:23:36Z</time>
      </trkpt>
      <trkpt lat="43.50917" lon="4.45159">
        <ele>2</ele>
        <time>2022-08-28T10:23:37Z</time>
      </trkpt>
      <trkpt lat="43.50914" lon="4.45154">
        <ele>2</ele>
        <time>2022-08-28T10:23:38Z</time>
      </trkpt>
      <trkpt lat="43.50911" lon="4.45149">
        <ele>2</ele>
        <time>2022-08-28T10:23:39Z</time>
      </trkpt>
      <trkpt lat="43.50909" lon="4.45144">
        <ele>2</ele>
        <time>2022-08-28T10:23:40Z</time>
      </trkpt>
      <trkpt lat="43.50907" lon="4.4514">
        <ele>2</ele>
        <time>2022-08-28T10:23:41Z</time>
      </trkpt>
      <trkpt lat="43.50881" lon="4.45093">
        <ele>2.1</ele>
        <time>2022-08-28T10:23:51Z</time>
      </trkpt>
      <trkpt lat="43.50879" lon="4.45089">
        <ele>2.1</ele>
        <time>2022-08-28T10:23:52Z</time>
      </trkpt>
      <trkpt lat="43.50876" lon="4.45084">
        <ele>2.1</ele>
        <time>2022-08-28T10:23:53Z</time>
      </trkpt>
      <trkpt lat="43.50874" lon="4.4508">
        <ele>2.1</ele>
        <time>2022-08-28T10:23:54Z</time>
      </trkpt>
      <trkpt lat="43.50868" lon="4.45066">
        <ele>2.1</ele>
        <time>2022-08-28T10:23:57Z</time>
      </trkpt>
      <trkpt lat="43.50863" lon="4.45057">
        <ele>2.1</ele>
        <time>2022-08-28T10:23:59Z</time>
      </trkpt>
      <trkpt lat="43.5085" lon="4.45035">
        <ele>2</ele>
        <time>2022-08-28T10:24:04Z</time>
      </trkpt>
      <trkpt lat="43.5084" lon="4.45016">
        <ele>2</ele>
        <time>2022-08-28T10:24:08Z</time>
      </trkpt>
      <trkpt lat="43.50833" lon="4.45008">
        <ele>2</ele>
        <time>2022-08-28T10:24:10Z</time>
      </trkpt>
      <trkpt lat="43.50829" lon="4.45006">
        <ele>2</ele>
        <time>2022-08-28T10:24:11Z</time>
      </trkpt>
      <trkpt lat="43.50825" lon="4.45004">
        <ele>2</ele>
        <time>2022-08-28T10:24:12Z</time>
      </trkpt>
      <trkpt lat="43.50817" lon="4.45001">
        <ele>2</ele>
        <time>2022-08-28T10:24:14Z</time>
      </trkpt>
      <trkpt lat="43.50814" lon="4.45001">
        <ele>2.1</ele>
        <time>2022-08-28T10:24:15Z</time>
      </trkpt>
      <trkpt lat="43.5081" lon="4.45">
        <ele>2.1</ele>
        <time>2022-08-28T10:24:16Z</time>
      </trkpt>
      <trkpt lat="43.50806" lon="4.44999">
        <ele>2.1</ele>
        <time>2022-08-28T10:24:17Z</time>
      </trkpt>
      <trkpt lat="43.50802" lon="4.44997">
        <ele>2.1</ele>
        <time>2022-08-28T10:24:18Z</time>
      </trkpt>
      <trkpt lat="43.50798" lon="4.44996">
        <ele>2.1</ele>
        <time>2022-08-28T10:24:19Z</time>
      </trkpt>
      <trkpt lat="43.5079" lon="4.44993">
        <ele>2.1</ele>
        <time>2022-08-28T10:24:21Z</time>
      </trkpt>
      <trkpt lat="43.5074" lon="4.45017">
        <ele>2.4</ele>
        <time>2022-08-28T10:24:37Z</time>
      </trkpt>
      <trkpt lat="43.5073" lon="4.45029">
        <ele>2.4</ele>
        <time>2022-08-28T10:24:41Z</time>
      </trkpt>
      <trkpt lat="43.50681" lon="4.45049">
        <ele>2.7</ele>
        <time>2022-08-28T10:24:57Z</time>
      </trkpt>
      <trkpt lat="43.50643" lon="4.45033">
        <ele>2.7</ele>
        <time>2022-08-28T10:25:09Z</time>
      </trkpt>
      <trkpt lat="43.50628" lon="4.45026">
        <ele>2.7</ele>
        <time>2022-08-28T10:25:13Z</time>
      </trkpt>
      <trkpt lat="43.50573" lon="4.45004">
        <ele>2.5</ele>
        <time>2022-08-28T10:25:27Z</time>
      </trkpt>
      <trkpt lat="43.50542" lon="4.44993">
        <ele>2.6</ele>
        <time>2022-08-28T10:25:35Z</time>
      </trkpt>
      <trkpt lat="43.50508" lon="4.44978">
        <ele>2.5</ele>
        <time>2022-08-28T10:25:43Z</time>
      </trkpt>
      <trkpt lat="43.50482" lon="4.44969">
        <ele>2.5</ele>
        <time>2022-08-28T10:25:49Z</time>
      </trkpt>
      <trkpt lat="43.50427" lon="4.44949">
        <ele>2.5</ele>
        <time>2022-08-28T10:26:03Z</time>
      </trkpt>
      <trkpt lat="43.50373" lon="4.44927">
        <ele>2.4</ele>
        <time>2022-08-28T10:26:17Z</time>
      </trkpt>
      <trkpt lat="43.50319" lon="4.44905">
        <ele>2.5</ele>
        <time>2022-08-28T10:26:30Z</time>
      </trkpt>
      <trkpt lat="43.50265" lon="4.44889">
        <ele>2.6</ele>
        <time>2022-08-28T10:26:43Z</time>
      </trkpt>
      <trkpt lat="43.5021" lon="4.44906">
        <ele>2.5</ele>
        <time>2022-08-28T10:26:56Z</time>
      </trkpt>
      <trkpt lat="43.50182" lon="4.44915">
        <ele>2.5</ele>
        <time>2022-08-28T10:27:03Z</time>
      </trkpt>
      <trkpt lat="43.50137" lon="4.44928">
        <ele>2.5</ele>
        <time>2022-08-28T10:27:14Z</time>
      </trkpt>
      <trkpt lat="43.50125" lon="4.44932">
        <ele>2.5</ele>
        <time>2022-08-28T10:27:17Z</time>
      </trkpt>
      <trkpt lat="43.50071" lon="4.44943">
        <ele>2.6</ele>
        <time>2022-08-28T10:27:30Z</time>
      </trkpt>
      <trkpt lat="43.50014" lon="4.44956">
        <ele>2.7</ele>
        <time>2022-08-28T10:27:44Z</time>
      </trkpt>
      <trkpt lat="43.49959" lon="4.44969">
        <ele>2.7</ele>
        <time>2022-08-28T10:27:58Z</time>
      </trkpt>
      <trkpt lat="43.49905" lon="4.4498">
        <ele>2.7</ele>
        <time>2022-08-28T10:28:11Z</time>
      </trkpt>
      <trkpt lat="43.49853" lon="4.44991">
        <ele>2.9</ele>
        <time>2022-08-28T10:28:24Z</time>
      </trkpt>
      <trkpt lat="43.49796" lon="4.45006">
        <ele>2.8</ele>
        <time>2022-08-28T10:28:41Z</time>
      </trkpt>
      <trkpt lat="43.49741" lon="4.45017">
        <ele>2.7</ele>
        <time>2022-08-28T10:28:55Z</time>
      </trkpt>
      <trkpt lat="43.49714" lon="4.45025">
        <ele>2.6</ele>
        <time>2022-08-28T10:29:02Z</time>
      </trkpt>
      <trkpt lat="43.49684" lon="4.45034">
        <ele>2.5</ele>
        <time>2022-08-28T10:29:10Z</time>
      </trkpt>
      <trkpt lat="43.49627" lon="4.45046">
        <ele>2.5</ele>
        <time>2022-08-28T10:29:24Z</time>
      </trkpt>
      <trkpt lat="43.49571" lon="4.45058">
        <ele>2.4</ele>
        <time>2022-08-28T10:29:38Z</time>
      </trkpt>
      <trkpt lat="43.49534" lon="4.45069">
        <ele>2.3</ele>
        <time>2022-08-28T10:29:47Z</time>
      </trkpt>
      <trkpt lat="43.49478" lon="4.45086">
        <ele>2.3</ele>
        <time>2022-08-28T10:30:01Z</time>
      </trkpt>
      <trkpt lat="43.49426" lon="4.45113">
        <ele>2.4</ele>
        <time>2022-08-28T10:30:15Z</time>
      </trkpt>
      <trkpt lat="43.49371" lon="4.45131">
        <ele>2.5</ele>
        <time>2022-08-28T10:30:29Z</time>
      </trkpt>
      <trkpt lat="43.49332" lon="4.45083">
        <ele>2.4</ele>
        <time>2022-08-28T10:30:43Z</time>
      </trkpt>
      <trkpt lat="43.49326" lon="4.45075">
        <ele>2.4</ele>
        <time>2022-08-28T10:30:45Z</time>
      </trkpt>
      <trkpt lat="43.49323" lon="4.45072">
        <ele>2.4</ele>
        <time>2022-08-28T10:30:46Z</time>
      </trkpt>
      <trkpt lat="43.49316" lon="4.45066">
        <ele>2.4</ele>
        <time>2022-08-28T10:30:48Z</time>
      </trkpt>
      <trkpt lat="43.49293" lon="4.4505">
        <ele>2.4</ele>
        <time>2022-08-28T10:30:54Z</time>
      </trkpt>
      <trkpt lat="43.49256" lon="4.45015">
        <ele>2.4</ele>
        <time>2022-08-28T10:31:05Z</time>
      </trkpt>
      <trkpt lat="43.4925" lon="4.45006">
        <ele>2.4</ele>
        <time>2022-08-28T10:31:07Z</time>
      </trkpt>
      <trkpt lat="43.49234" lon="4.44973">
        <ele>2.4</ele>
        <time>2022-08-28T10:31:14Z</time>
      </trkpt>
      <trkpt lat="43.49224" lon="4.44953">
        <ele>2.4</ele>
        <time>2022-08-28T10:31:18Z</time>
      </trkpt>
      <trkpt lat="43.49203" lon="4.44921">
        <ele>2.4</ele>
        <time>2022-08-28T10:31:25Z</time>
      </trkpt>
      <trkpt lat="43.49169" lon="4.44895">
        <ele>2.5</ele>
        <time>2022-08-28T10:31:34Z</time>
      </trkpt>
      <trkpt lat="43.49162" lon="4.44889">
        <ele>2.5</ele>
        <time>2022-08-28T10:31:36Z</time>
      </trkpt>
      <trkpt lat="43.49113" lon="4.44853">
        <ele>2.4</ele>
        <time>2022-08-28T10:31:49Z</time>
      </trkpt>
      <trkpt lat="43.49093" lon="4.44841">
        <ele>2.4</ele>
        <time>2022-08-28T10:31:54Z</time>
      </trkpt>
      <trkpt lat="43.49051" lon="4.4482">
        <ele>2.3</ele>
        <time>2022-08-28T10:32:04Z</time>
      </trkpt>
      <trkpt lat="43.48997" lon="4.4479">
        <ele>2</ele>
        <time>2022-08-28T10:32:17Z</time>
      </trkpt>
      <trkpt lat="43.48993" lon="4.44788">
        <ele>2</ele>
        <time>2022-08-28T10:32:18Z</time>
      </trkpt>
      <trkpt lat="43.48942" lon="4.44763">
        <ele>1.9</ele>
        <time>2022-08-28T10:32:34Z</time>
      </trkpt>
      <trkpt lat="43.48912" lon="4.44749">
        <ele>1.8</ele>
        <time>2022-08-28T10:32:43Z</time>
      </trkpt>
      <trkpt lat="43.48909" lon="4.44748">
        <ele>1.8</ele>
        <time>2022-08-28T10:32:44Z</time>
      </trkpt>
      <trkpt lat="43.48893" lon="4.44741">
        <ele>1.8</ele>
        <time>2022-08-28T10:32:48Z</time>
      </trkpt>
      <trkpt lat="43.48885" lon="4.44737">
        <ele>1.8</ele>
        <time>2022-08-28T10:32:50Z</time>
      </trkpt>
      <trkpt lat="43.48877" lon="4.44732">
        <ele>1.8</ele>
        <time>2022-08-28T10:32:52Z</time>
      </trkpt>
      <trkpt lat="43.48865" lon="4.44726">
        <ele>1.8</ele>
        <time>2022-08-28T10:32:55Z</time>
      </trkpt>
      <trkpt lat="43.48827" lon="4.44705">
        <ele>1.7</ele>
        <time>2022-08-28T10:33:04Z</time>
      </trkpt>
      <trkpt lat="43.48774" lon="4.44673">
        <ele>1.7</ele>
        <time>2022-08-28T10:33:17Z</time>
      </trkpt>
      <trkpt lat="43.48726" lon="4.44634">
        <ele>1.7</ele>
        <time>2022-08-28T10:33:30Z</time>
      </trkpt>
      <trkpt lat="43.48698" lon="4.44617">
        <ele>1.6</ele>
        <time>2022-08-28T10:33:37Z</time>
      </trkpt>
      <trkpt lat="43.48645" lon="4.44589">
        <ele>1.7</ele>
        <time>2022-08-28T10:33:50Z</time>
      </trkpt>
      <trkpt lat="43.48594" lon="4.44562">
        <ele>1.8</ele>
        <time>2022-08-28T10:34:04Z</time>
      </trkpt>
      <trkpt lat="43.48542" lon="4.44536">
        <ele>2.1</ele>
        <time>2022-08-28T10:34:18Z</time>
      </trkpt>
      <trkpt lat="43.48523" lon="4.44539">
        <ele>2.4</ele>
        <time>2022-08-28T10:34:26Z</time>
      </trkpt>
      <trkpt lat="43.48522" lon="4.44552">
        <ele>2.4</ele>
        <time>2022-08-28T10:41:43Z</time>
      </trkpt>
      <trkpt lat="43.48522" lon="4.44551">
        <ele>2.4</ele>
        <time>2022-08-28T10:41:47Z</time>
      </trkpt>
      <trkpt lat="43.48522" lon="4.44551">
        <ele>2.4</ele>
        <time>2022-08-28T10:41:48Z</time>
      </trkpt>
      <trkpt lat="43.48522" lon="4.44551">
        <ele>2.4</ele>
        <time>2022-08-28T10:41:50Z</time>
      </trkpt>
      <trkpt lat="43.48521" lon="4.44551">
        <ele>2.4</ele>
        <time>2022-08-28T10:41:51Z</time>
      </trkpt>
      <trkpt lat="43.48521" lon="4.44549">
        <ele>2.4</ele>
        <time>2022-08-28T10:41:52Z</time>
      </trkpt>
      <trkpt lat="43.48518" lon="4.44546">
        <ele>2.4</ele>
        <time>2022-08-28T10:41:54Z</time>
      </trkpt>
      <trkpt lat="43.48499" lon="4.44534">
        <ele>2.4</ele>
        <time>2022-08-28T10:42:01Z</time>
      </trkpt>
      <trkpt lat="43.48492" lon="4.44535">
        <ele>2.3</ele>
        <time>2022-08-28T10:42:03Z</time>
      </trkpt>
      <trkpt lat="43.48488" lon="4.44536">
        <ele>2.3</ele>
        <time>2022-08-28T10:42:04Z</time>
      </trkpt>
      <trkpt lat="43.48469" lon="4.44541">
        <ele>2.3</ele>
        <time>2022-08-28T10:42:09Z</time>
      </trkpt>
      <trkpt lat="43.4846" lon="4.44542">
        <ele>2.3</ele>
        <time>2022-08-28T10:42:11Z</time>
      </trkpt>
      <trkpt lat="43.48456" lon="4.44543">
        <ele>2.3</ele>
        <time>2022-08-28T10:42:12Z</time>
      </trkpt>
      <trkpt lat="43.48452" lon="4.44543">
        <ele>2.3</ele>
        <time>2022-08-28T10:42:13Z</time>
      </trkpt>
      <trkpt lat="43.48435" lon="4.44544">
        <ele>2.3</ele>
        <time>2022-08-28T10:42:17Z</time>
      </trkpt>
      <trkpt lat="43.48418" lon="4.44543">
        <ele>2.3</ele>
        <time>2022-08-28T10:42:21Z</time>
      </trkpt>
      <trkpt lat="43.48409" lon="4.44542">
        <ele>2.3</ele>
        <time>2022-08-28T10:42:23Z</time>
      </trkpt>
      <trkpt lat="43.48401" lon="4.4454">
        <ele>2.3</ele>
        <time>2022-08-28T10:42:25Z</time>
      </trkpt>
      <trkpt lat="43.48387" lon="4.44537">
        <ele>2.3</ele>
        <time>2022-08-28T10:42:28Z</time>
      </trkpt>
      <trkpt lat="43.48359" lon="4.44528">
        <ele>2.3</ele>
        <time>2022-08-28T10:42:34Z</time>
      </trkpt>
      <trkpt lat="43.48335" lon="4.44517">
        <ele>2.4</ele>
        <time>2022-08-28T10:42:39Z</time>
      </trkpt>
      <trkpt lat="43.48326" lon="4.44511">
        <ele>2.4</ele>
        <time>2022-08-28T10:42:41Z</time>
      </trkpt>
      <trkpt lat="43.48317" lon="4.44506">
        <ele>2.4</ele>
        <time>2022-08-28T10:42:43Z</time>
      </trkpt>
      <trkpt lat="43.48313" lon="4.44503">
        <ele>2.4</ele>
        <time>2022-08-28T10:42:44Z</time>
      </trkpt>
      <trkpt lat="43.48274" lon="4.44471">
        <ele>2.4</ele>
        <time>2022-08-28T10:42:53Z</time>
      </trkpt>
      <trkpt lat="43.48236" lon="4.44437">
        <ele>2.4</ele>
        <time>2022-08-28T10:43:02Z</time>
      </trkpt>
      <trkpt lat="43.48211" lon="4.44414">
        <ele>2.4</ele>
        <time>2022-08-28T10:43:08Z</time>
      </trkpt>
      <trkpt lat="43.48202" lon="4.44407">
        <ele>2.4</ele>
        <time>2022-08-28T10:43:10Z</time>
      </trkpt>
      <trkpt lat="43.48184" lon="4.44391">
        <ele>2.4</ele>
        <time>2022-08-28T10:43:14Z</time>
      </trkpt>
      <trkpt lat="43.48179" lon="4.44387">
        <ele>2.4</ele>
        <time>2022-08-28T10:43:15Z</time>
      </trkpt>
      <trkpt lat="43.48149" lon="4.44358">
        <ele>2.4</ele>
        <time>2022-08-28T10:43:22Z</time>
      </trkpt>
      <trkpt lat="43.48125" lon="4.44337">
        <ele>2.4</ele>
        <time>2022-08-28T10:43:27Z</time>
      </trkpt>
      <trkpt lat="43.48121" lon="4.44333">
        <ele>2.4</ele>
        <time>2022-08-28T10:43:28Z</time>
      </trkpt>
      <trkpt lat="43.48116" lon="4.44329">
        <ele>2.4</ele>
        <time>2022-08-28T10:43:29Z</time>
      </trkpt>
      <trkpt lat="43.48111" lon="4.44325">
        <ele>2.4</ele>
        <time>2022-08-28T10:43:30Z</time>
      </trkpt>
      <trkpt lat="43.48106" lon="4.44321">
        <ele>2.4</ele>
        <time>2022-08-28T10:43:31Z</time>
      </trkpt>
      <trkpt lat="43.48097" lon="4.44313">
        <ele>2.4</ele>
        <time>2022-08-28T10:43:33Z</time>
      </trkpt>
      <trkpt lat="43.48065" lon="4.44285">
        <ele>2.4</ele>
        <time>2022-08-28T10:43:40Z</time>
      </trkpt>
      <trkpt lat="43.4806" lon="4.44281">
        <ele>2.3</ele>
        <time>2022-08-28T10:43:41Z</time>
      </trkpt>
      <trkpt lat="43.48012" lon="4.44236">
        <ele>2.5</ele>
        <time>2022-08-28T10:43:52Z</time>
      </trkpt>
      <trkpt lat="43.47995" lon="4.44219">
        <ele>2.5</ele>
        <time>2022-08-28T10:43:56Z</time>
      </trkpt>
      <trkpt lat="43.47987" lon="4.4421">
        <ele>2.5</ele>
        <time>2022-08-28T10:43:58Z</time>
      </trkpt>
      <trkpt lat="43.47978" lon="4.44201">
        <ele>2.5</ele>
        <time>2022-08-28T10:44:00Z</time>
      </trkpt>
      <trkpt lat="43.47969" lon="4.44192">
        <ele>2.5</ele>
        <time>2022-08-28T10:44:02Z</time>
      </trkpt>
      <trkpt lat="43.4796" lon="4.44184">
        <ele>2.5</ele>
        <time>2022-08-28T10:44:04Z</time>
      </trkpt>
      <trkpt lat="43.4792" lon="4.44144">
        <ele>2.6</ele>
        <time>2022-08-28T10:44:13Z</time>
      </trkpt>
      <trkpt lat="43.47903" lon="4.44127">
        <ele>2.5</ele>
        <time>2022-08-28T10:44:17Z</time>
      </trkpt>
      <trkpt lat="43.47894" lon="4.44118">
        <ele>2.5</ele>
        <time>2022-08-28T10:44:19Z</time>
      </trkpt>
      <trkpt lat="43.47859" lon="4.44083">
        <ele>2.5</ele>
        <time>2022-08-28T10:44:27Z</time>
      </trkpt>
      <trkpt lat="43.47814" lon="4.44039">
        <ele>2.5</ele>
        <time>2022-08-28T10:44:37Z</time>
      </trkpt>
      <trkpt lat="43.47792" lon="4.44017">
        <ele>2.5</ele>
        <time>2022-08-28T10:44:42Z</time>
      </trkpt>
      <trkpt lat="43.47748" lon="4.43972">
        <ele>2.4</ele>
        <time>2022-08-28T10:44:52Z</time>
      </trkpt>
      <trkpt lat="43.47722" lon="4.43946">
        <ele>2.4</ele>
        <time>2022-08-28T10:44:58Z</time>
      </trkpt>
      <trkpt lat="43.477" lon="4.43924">
        <ele>2.4</ele>
        <time>2022-08-28T10:45:03Z</time>
      </trkpt>
      <trkpt lat="43.47668" lon="4.43892">
        <ele>2.4</ele>
        <time>2022-08-28T10:45:10Z</time>
      </trkpt>
      <trkpt lat="43.47635" lon="4.4386">
        <ele>2.4</ele>
        <time>2022-08-28T10:45:17Z</time>
      </trkpt>
      <trkpt lat="43.47612" lon="4.43837">
        <ele>2.4</ele>
        <time>2022-08-28T10:45:22Z</time>
      </trkpt>
      <trkpt lat="43.47607" lon="4.43832">
        <ele>2.4</ele>
        <time>2022-08-28T10:45:23Z</time>
      </trkpt>
      <trkpt lat="43.47603" lon="4.43828">
        <ele>2.4</ele>
        <time>2022-08-28T10:45:24Z</time>
      </trkpt>
      <trkpt lat="43.47575" lon="4.43801">
        <ele>2.5</ele>
        <time>2022-08-28T10:45:30Z</time>
      </trkpt>
      <trkpt lat="43.47566" lon="4.43791">
        <ele>2.5</ele>
        <time>2022-08-28T10:45:32Z</time>
      </trkpt>
      <trkpt lat="43.47548" lon="4.43773">
        <ele>2.5</ele>
        <time>2022-08-28T10:45:36Z</time>
      </trkpt>
      <trkpt lat="43.47517" lon="4.43742">
        <ele>2.5</ele>
        <time>2022-08-28T10:45:43Z</time>
      </trkpt>
      <trkpt lat="43.47495" lon="4.43721">
        <ele>2.5</ele>
        <time>2022-08-28T10:45:48Z</time>
      </trkpt>
      <trkpt lat="43.47466" lon="4.437">
        <ele>2.5</ele>
        <time>2022-08-28T10:45:54Z</time>
      </trkpt>
      <trkpt lat="43.47414" lon="4.43675">
        <ele>2.6</ele>
        <time>2022-08-28T10:46:04Z</time>
      </trkpt>
      <trkpt lat="43.47357" lon="4.4366">
        <ele>2.5</ele>
        <time>2022-08-28T10:46:14Z</time>
      </trkpt>
      <trkpt lat="43.47299" lon="4.43645">
        <ele>2.4</ele>
        <time>2022-08-28T10:46:24Z</time>
      </trkpt>
      <trkpt lat="43.47293" lon="4.43643">
        <ele>2.4</ele>
        <time>2022-08-28T10:46:25Z</time>
      </trkpt>
      <trkpt lat="43.47287" lon="4.43642">
        <ele>2.4</ele>
        <time>2022-08-28T10:46:26Z</time>
      </trkpt>
      <trkpt lat="43.47233" lon="4.43628">
        <ele>2.4</ele>
        <time>2022-08-28T10:46:35Z</time>
      </trkpt>
      <trkpt lat="43.47221" lon="4.43624">
        <ele>2.4</ele>
        <time>2022-08-28T10:46:37Z</time>
      </trkpt>
      <trkpt lat="43.47216" lon="4.43623">
        <ele>2.4</ele>
        <time>2022-08-28T10:46:38Z</time>
      </trkpt>
      <trkpt lat="43.4721" lon="4.43621">
        <ele>2.4</ele>
        <time>2022-08-28T10:46:39Z</time>
      </trkpt>
      <trkpt lat="43.47186" lon="4.43615">
        <ele>2.4</ele>
        <time>2022-08-28T10:46:43Z</time>
      </trkpt>
      <trkpt lat="43.4718" lon="4.43614">
        <ele>2.4</ele>
        <time>2022-08-28T10:46:44Z</time>
      </trkpt>
      <trkpt lat="43.47174" lon="4.43612">
        <ele>2.4</ele>
        <time>2022-08-28T10:46:45Z</time>
      </trkpt>
      <trkpt lat="43.47162" lon="4.43609">
        <ele>2.4</ele>
        <time>2022-08-28T10:46:47Z</time>
      </trkpt>
      <trkpt lat="43.47144" lon="4.43604">
        <ele>2.4</ele>
        <time>2022-08-28T10:46:50Z</time>
      </trkpt>
      <trkpt lat="43.47086" lon="4.43589">
        <ele>2.3</ele>
        <time>2022-08-28T10:47:00Z</time>
      </trkpt>
      <trkpt lat="43.47031" lon="4.43574">
        <ele>2.3</ele>
        <time>2022-08-28T10:47:09Z</time>
      </trkpt>
      <trkpt lat="43.46978" lon="4.43555">
        <ele>2.2</ele>
        <time>2022-08-28T10:47:18Z</time>
      </trkpt>
      <trkpt lat="43.46927" lon="4.43529">
        <ele>2.1</ele>
        <time>2022-08-28T10:47:27Z</time>
      </trkpt>
      <trkpt lat="43.46893" lon="4.43512">
        <ele>2.1</ele>
        <time>2022-08-28T10:47:33Z</time>
      </trkpt>
      <trkpt lat="43.46838" lon="4.43486">
        <ele>2.3</ele>
        <time>2022-08-28T10:47:43Z</time>
      </trkpt>
      <trkpt lat="43.46815" lon="4.43478">
        <ele>2.4</ele>
        <time>2022-08-28T10:47:47Z</time>
      </trkpt>
      <trkpt lat="43.46791" lon="4.43474">
        <ele>2.4</ele>
        <time>2022-08-28T10:47:51Z</time>
      </trkpt>
      <trkpt lat="43.46768" lon="4.43472">
        <ele>2.4</ele>
        <time>2022-08-28T10:47:55Z</time>
      </trkpt>
      <trkpt lat="43.46738" lon="4.4347">
        <ele>2.4</ele>
        <time>2022-08-28T10:48:00Z</time>
      </trkpt>
      <trkpt lat="43.46703" lon="4.43468">
        <ele>2.3</ele>
        <time>2022-08-28T10:48:06Z</time>
      </trkpt>
      <trkpt lat="43.46692" lon="4.43467">
        <ele>2.3</ele>
        <time>2022-08-28T10:48:08Z</time>
      </trkpt>
      <trkpt lat="43.46686" lon="4.43467">
        <ele>2.3</ele>
        <time>2022-08-28T10:48:09Z</time>
      </trkpt>
      <trkpt lat="43.4668" lon="4.43466">
        <ele>2.3</ele>
        <time>2022-08-28T10:48:10Z</time>
      </trkpt>
      <trkpt lat="43.46623" lon="4.43463">
        <ele>2.4</ele>
        <time>2022-08-28T10:48:20Z</time>
      </trkpt>
      <trkpt lat="43.46607" lon="4.43462">
        <ele>2.4</ele>
        <time>2022-08-28T10:48:23Z</time>
      </trkpt>
      <trkpt lat="43.4659" lon="4.43461">
        <ele>2.4</ele>
        <time>2022-08-28T10:48:26Z</time>
      </trkpt>
      <trkpt lat="43.46578" lon="4.4346">
        <ele>2.4</ele>
        <time>2022-08-28T10:48:28Z</time>
      </trkpt>
      <trkpt lat="43.46561" lon="4.43459">
        <ele>2.4</ele>
        <time>2022-08-28T10:48:31Z</time>
      </trkpt>
      <trkpt lat="43.4655" lon="4.43458">
        <ele>2.4</ele>
        <time>2022-08-28T10:48:33Z</time>
      </trkpt>
      <trkpt lat="43.46533" lon="4.43456">
        <ele>2.4</ele>
        <time>2022-08-28T10:48:36Z</time>
      </trkpt>
      <trkpt lat="43.46527" lon="4.43456">
        <ele>2.4</ele>
        <time>2022-08-28T10:48:37Z</time>
      </trkpt>
      <trkpt lat="43.46511" lon="4.43455">
        <ele>2.3</ele>
        <time>2022-08-28T10:48:40Z</time>
      </trkpt>
      <trkpt lat="43.46494" lon="4.43453">
        <ele>2.3</ele>
        <time>2022-08-28T10:48:43Z</time>
      </trkpt>
      <trkpt lat="43.46488" lon="4.43453">
        <ele>2.3</ele>
        <time>2022-08-28T10:48:44Z</time>
      </trkpt>
      <trkpt lat="43.46482" lon="4.43453">
        <ele>2.3</ele>
        <time>2022-08-28T10:48:45Z</time>
      </trkpt>
      <trkpt lat="43.46476" lon="4.43452">
        <ele>2.3</ele>
        <time>2022-08-28T10:48:46Z</time>
      </trkpt>
      <trkpt lat="43.46463" lon="4.43451">
        <ele>2.4</ele>
        <time>2022-08-28T10:48:48Z</time>
      </trkpt>
      <trkpt lat="43.46405" lon="4.43448">
        <ele>2.4</ele>
        <time>2022-08-28T10:48:58Z</time>
      </trkpt>
      <trkpt lat="43.46348" lon="4.4344">
        <ele>2.2</ele>
        <time>2022-08-28T10:49:08Z</time>
      </trkpt>
      <trkpt lat="43.46292" lon="4.43431">
        <ele>2.2</ele>
        <time>2022-08-28T10:49:18Z</time>
      </trkpt>
      <trkpt lat="43.46258" lon="4.43425">
        <ele>2.2</ele>
        <time>2022-08-28T10:49:24Z</time>
      </trkpt>
      <trkpt lat="43.46242" lon="4.43422">
        <ele>2.2</ele>
        <time>2022-08-28T10:49:27Z</time>
      </trkpt>
      <trkpt lat="43.46186" lon="4.43412">
        <ele>2.1</ele>
        <time>2022-08-28T10:49:37Z</time>
      </trkpt>
      <trkpt lat="43.46132" lon="4.43403">
        <ele>2.2</ele>
        <time>2022-08-28T10:49:47Z</time>
      </trkpt>
      <trkpt lat="43.4611" lon="4.434">
        <ele>2.2</ele>
        <time>2022-08-28T10:49:51Z</time>
      </trkpt>
      <trkpt lat="43.46076" lon="4.43395">
        <ele>2.2</ele>
        <time>2022-08-28T10:49:57Z</time>
      </trkpt>
      <trkpt lat="43.46026" lon="4.43385">
        <ele>2.3</ele>
        <time>2022-08-28T10:50:06Z</time>
      </trkpt>
      <trkpt lat="43.46021" lon="4.43384">
        <ele>2.2</ele>
        <time>2022-08-28T10:50:07Z</time>
      </trkpt>
      <trkpt lat="43.46015" lon="4.43383">
        <ele>2.2</ele>
        <time>2022-08-28T10:50:08Z</time>
      </trkpt>
      <trkpt lat="43.4601" lon="4.43381">
        <ele>2.2</ele>
        <time>2022-08-28T10:50:09Z</time>
      </trkpt>
      <trkpt lat="43.45993" lon="4.43375">
        <ele>2.2</ele>
        <time>2022-08-28T10:50:12Z</time>
      </trkpt>
      <trkpt lat="43.45982" lon="4.4337">
        <ele>2.1</ele>
        <time>2022-08-28T10:50:14Z</time>
      </trkpt>
      <trkpt lat="43.45932" lon="4.43334">
        <ele>2</ele>
        <time>2022-08-28T10:50:24Z</time>
      </trkpt>
      <trkpt lat="43.45881" lon="4.43294">
        <ele>2.1</ele>
        <time>2022-08-28T10:50:35Z</time>
      </trkpt>
      <trkpt lat="43.45876" lon="4.43291">
        <ele>2.1</ele>
        <time>2022-08-28T10:50:36Z</time>
      </trkpt>
      <trkpt lat="43.4587" lon="4.43287">
        <ele>2.1</ele>
        <time>2022-08-28T10:50:37Z</time>
      </trkpt>
      <trkpt lat="43.45816" lon="4.43268">
        <ele>2.1</ele>
        <time>2022-08-28T10:50:47Z</time>
      </trkpt>
      <trkpt lat="43.4581" lon="4.43266">
        <ele>2.1</ele>
        <time>2022-08-28T10:50:48Z</time>
      </trkpt>
      <trkpt lat="43.45769" lon="4.43255">
        <ele>2</ele>
        <time>2022-08-28T10:50:55Z</time>
      </trkpt>
      <trkpt lat="43.45764" lon="4.43254">
        <ele>2</ele>
        <time>2022-08-28T10:50:56Z</time>
      </trkpt>
      <trkpt lat="43.45748" lon="4.43249">
        <ele>2</ele>
        <time>2022-08-28T10:50:59Z</time>
      </trkpt>
      <trkpt lat="43.45739" lon="4.43247">
        <ele>2.1</ele>
        <time>2022-08-28T10:51:01Z</time>
      </trkpt>
      <trkpt lat="43.45735" lon="4.43245">
        <ele>2.1</ele>
        <time>2022-08-28T10:51:02Z</time>
      </trkpt>
      <trkpt lat="43.45718" lon="4.4324">
        <ele>2.2</ele>
        <time>2022-08-28T10:51:06Z</time>
      </trkpt>
      <trkpt lat="43.45714" lon="4.43239">
        <ele>2.3</ele>
        <time>2022-08-28T10:51:07Z</time>
      </trkpt>
      <trkpt lat="43.45694" lon="4.43229">
        <ele>2.5</ele>
        <time>2022-08-28T10:51:12Z</time>
      </trkpt>
      <trkpt lat="43.45685" lon="4.43223">
        <ele>2.6</ele>
        <time>2022-08-28T10:51:14Z</time>
      </trkpt>
      <trkpt lat="43.45639" lon="4.43182">
        <ele>2.6</ele>
        <time>2022-08-28T10:51:25Z</time>
      </trkpt>
      <trkpt lat="43.45624" lon="4.43168">
        <ele>2.6</ele>
        <time>2022-08-28T10:51:29Z</time>
      </trkpt>
      <trkpt lat="43.45616" lon="4.43161">
        <ele>2.6</ele>
        <time>2022-08-28T10:51:31Z</time>
      </trkpt>
      <trkpt lat="43.45599" lon="4.43145">
        <ele>2.6</ele>
        <time>2022-08-28T10:51:35Z</time>
      </trkpt>
      <trkpt lat="43.45579" lon="4.43127">
        <ele>2.6</ele>
        <time>2022-08-28T10:51:40Z</time>
      </trkpt>
      <trkpt lat="43.4556" lon="4.43109">
        <ele>2.7</ele>
        <time>2022-08-28T10:51:45Z</time>
      </trkpt>
      <trkpt lat="43.45535" lon="4.43089">
        <ele>2.8</ele>
        <time>2022-08-28T10:51:51Z</time>
      </trkpt>
      <trkpt lat="43.45507" lon="4.43076">
        <ele>2.9</ele>
        <time>2022-08-28T10:51:57Z</time>
      </trkpt>
      <trkpt lat="43.45491" lon="4.43069">
        <ele>3</ele>
        <time>2022-08-28T10:52:00Z</time>
      </trkpt>
      <trkpt lat="43.45475" lon="4.43066">
        <ele>3</ele>
        <time>2022-08-28T10:52:03Z</time>
      </trkpt>
      <trkpt lat="43.45428" lon="4.43053">
        <ele>3.1</ele>
        <time>2022-08-28T10:52:12Z</time>
      </trkpt>
      <trkpt lat="43.45418" lon="4.43049">
        <ele>3.1</ele>
        <time>2022-08-28T10:52:14Z</time>
      </trkpt>
      <trkpt lat="43.45413" lon="4.43047">
        <ele>3.1</ele>
        <time>2022-08-28T10:52:15Z</time>
      </trkpt>
      <trkpt lat="43.45408" lon="4.43045">
        <ele>3.1</ele>
        <time>2022-08-28T10:52:16Z</time>
      </trkpt>
      <trkpt lat="43.4539" lon="4.4303">
        <ele>3.2</ele>
        <time>2022-08-28T10:52:20Z</time>
      </trkpt>
      <trkpt lat="43.45381" lon="4.43022">
        <ele>3.1</ele>
        <time>2022-08-28T10:52:22Z</time>
      </trkpt>
      <trkpt lat="43.45362" lon="4.42998">
        <ele>3.1</ele>
        <time>2022-08-28T10:52:27Z</time>
      </trkpt>
      <trkpt lat="43.45359" lon="4.42994">
        <ele>3.1</ele>
        <time>2022-08-28T10:52:28Z</time>
      </trkpt>
      <trkpt lat="43.45356" lon="4.42989">
        <ele>3.1</ele>
        <time>2022-08-28T10:52:29Z</time>
      </trkpt>
      <trkpt lat="43.45347" lon="4.42975">
        <ele>3</ele>
        <time>2022-08-28T10:52:32Z</time>
      </trkpt>
      <trkpt lat="43.45342" lon="4.42966">
        <ele>3</ele>
        <time>2022-08-28T10:52:34Z</time>
      </trkpt>
      <trkpt lat="43.45335" lon="4.42959">
        <ele>3</ele>
        <time>2022-08-28T10:52:36Z</time>
      </trkpt>
      <trkpt lat="43.45327" lon="4.42952">
        <ele>3</ele>
        <time>2022-08-28T10:52:38Z</time>
      </trkpt>
      <trkpt lat="43.45323" lon="4.42949">
        <ele>3</ele>
        <time>2022-08-28T10:52:39Z</time>
      </trkpt>
      <trkpt lat="43.45318" lon="4.42946">
        <ele>3</ele>
        <time>2022-08-28T10:52:40Z</time>
      </trkpt>
      <trkpt lat="43.45313" lon="4.42944">
        <ele>3</ele>
        <time>2022-08-28T10:52:41Z</time>
      </trkpt>
      <trkpt lat="43.45308" lon="4.42941">
        <ele>3</ele>
        <time>2022-08-28T10:52:42Z</time>
      </trkpt>
      <trkpt lat="43.45286" lon="4.42927">
        <ele>3</ele>
        <time>2022-08-28T10:52:47Z</time>
      </trkpt>
      <trkpt lat="43.45265" lon="4.42914">
        <ele>3</ele>
        <time>2022-08-28T10:52:52Z</time>
      </trkpt>
      <trkpt lat="43.45242" lon="4.42904">
        <ele>3</ele>
        <time>2022-08-28T10:52:57Z</time>
      </trkpt>
      <trkpt lat="43.45237" lon="4.42904">
        <ele>3</ele>
        <time>2022-08-28T10:52:58Z</time>
      </trkpt>
      <trkpt lat="43.45224" lon="4.42903">
        <ele>2.9</ele>
        <time>2022-08-28T10:53:01Z</time>
      </trkpt>
      <trkpt lat="43.45205" lon="4.42905">
        <ele>2.8</ele>
        <time>2022-08-28T10:53:06Z</time>
      </trkpt>
      <trkpt lat="43.45197" lon="4.42906">
        <ele>2.8</ele>
        <time>2022-08-28T10:53:09Z</time>
      </trkpt>
      <trkpt lat="43.45182" lon="4.42908">
        <ele>2.8</ele>
        <time>2022-08-28T10:53:14Z</time>
      </trkpt>
      <trkpt lat="43.45124" lon="4.42907">
        <ele>3</ele>
        <time>2022-08-28T10:53:31Z</time>
      </trkpt>
      <trkpt lat="43.45088" lon="4.4291">
        <ele>3.1</ele>
        <time>2022-08-28T10:53:40Z</time>
      </trkpt>
      <trkpt lat="43.45076" lon="4.42909">
        <ele>3.2</ele>
        <time>2022-08-28T10:53:43Z</time>
      </trkpt>
      <trkpt lat="43.45073" lon="4.42908">
        <ele>3.2</ele>
        <time>2022-08-28T10:53:44Z</time>
      </trkpt>
      <trkpt lat="43.45067" lon="4.42904">
        <ele>3.2</ele>
        <time>2022-08-28T10:53:46Z</time>
      </trkpt>
      <trkpt lat="43.45058" lon="4.42896">
        <ele>3.2</ele>
        <time>2022-08-28T10:53:49Z</time>
      </trkpt>
      <trkpt lat="43.45055" lon="4.42893">
        <ele>3.2</ele>
        <time>2022-08-28T10:53:50Z</time>
      </trkpt>
      <trkpt lat="43.45053" lon="4.4289">
        <ele>3.2</ele>
        <time>2022-08-28T10:53:51Z</time>
      </trkpt>
      <trkpt lat="43.45051" lon="4.42886">
        <ele>3.2</ele>
        <time>2022-08-28T10:53:52Z</time>
      </trkpt>
      <trkpt lat="43.45048" lon="4.42882">
        <ele>3.2</ele>
        <time>2022-08-28T10:53:53Z</time>
      </trkpt>
      <trkpt lat="43.45047" lon="4.42877">
        <ele>3.2</ele>
        <time>2022-08-28T10:53:54Z</time>
      </trkpt>
      <trkpt lat="43.45045" lon="4.42873">
        <ele>3.1</ele>
        <time>2022-08-28T10:53:55Z</time>
      </trkpt>
      <trkpt lat="43.45044" lon="4.42868">
        <ele>3.1</ele>
        <time>2022-08-28T10:53:56Z</time>
      </trkpt>
      <trkpt lat="43.45043" lon="4.42864">
        <ele>3.1</ele>
        <time>2022-08-28T10:53:57Z</time>
      </trkpt>
      <trkpt lat="43.45041" lon="4.42852">
        <ele>3</ele>
        <time>2022-08-28T10:54:00Z</time>
      </trkpt>
      <trkpt lat="43.45041" lon="4.42848">
        <ele>3</ele>
        <time>2022-08-28T10:54:01Z</time>
      </trkpt>
      <trkpt lat="43.45041" lon="4.42841">
        <ele>2.9</ele>
        <time>2022-08-28T10:54:03Z</time>
      </trkpt>
      <trkpt lat="43.45042" lon="4.42837">
        <ele>2.9</ele>
        <time>2022-08-28T10:54:04Z</time>
      </trkpt>
      <trkpt lat="43.45043" lon="4.42834">
        <ele>2.9</ele>
        <time>2022-08-28T10:54:05Z</time>
      </trkpt>
      <trkpt lat="43.45043" lon="4.42832">
        <ele>2.9</ele>
        <time>2022-08-28T10:54:06Z</time>
      </trkpt>
      <trkpt lat="43.45043" lon="4.42827">
        <ele>2.9</ele>
        <time>2022-08-28T10:54:08Z</time>
      </trkpt>
      <trkpt lat="43.45043" lon="4.42824">
        <ele>2.9</ele>
        <time>2022-08-28T10:54:09Z</time>
      </trkpt>
      <trkpt lat="43.45042" lon="4.42822">
        <ele>2.9</ele>
        <time>2022-08-28T10:54:10Z</time>
      </trkpt>
      <trkpt lat="43.45042" lon="4.4282">
        <ele>2.9</ele>
        <time>2022-08-28T10:54:11Z</time>
      </trkpt>
      <trkpt lat="43.45042" lon="4.42817">
        <ele>2.9</ele>
        <time>2022-08-28T10:54:12Z</time>
      </trkpt>
      <trkpt lat="43.4504" lon="4.42808">
        <ele>2.9</ele>
        <time>2022-08-28T10:54:16Z</time>
      </trkpt>
      <trkpt lat="43.4504" lon="4.42807">
        <ele>2.9</ele>
        <time>2022-08-28T10:54:17Z</time>
      </trkpt>
      <trkpt lat="43.45039" lon="4.42806">
        <ele>2.9</ele>
        <time>2022-08-28T10:54:18Z</time>
      </trkpt>
      <trkpt lat="43.45039" lon="4.42806">
        <ele>2.9</ele>
        <time>2022-08-28T10:54:21Z</time>
      </trkpt>
      <trkpt lat="43.45037" lon="4.42806">
        <ele>2.9</ele>
        <time>2022-08-28T10:54:26Z</time>
      </trkpt>
      <trkpt lat="43.45037" lon="4.42807">
        <ele>2.9</ele>
        <time>2022-08-28T10:54:27Z</time>
      </trkpt>
      <trkpt lat="43.45035" lon="4.42813">
        <ele>2.9</ele>
        <time>2022-08-28T10:54:30Z</time>
      </trkpt>
      <trkpt lat="43.45035" lon="4.42822">
        <ele>2.9</ele>
        <time>2022-08-28T10:54:32Z</time>
      </trkpt>
      <trkpt lat="43.45035" lon="4.42827">
        <ele>2.9</ele>
        <time>2022-08-28T10:54:33Z</time>
      </trkpt>
      <trkpt lat="43.45035" lon="4.42844">
        <ele>2.9</ele>
        <time>2022-08-28T10:54:36Z</time>
      </trkpt>
      <trkpt lat="43.45036" lon="4.42855">
        <ele>3</ele>
        <time>2022-08-28T10:54:38Z</time>
      </trkpt>
      <trkpt lat="43.45038" lon="4.42866">
        <ele>3</ele>
        <time>2022-08-28T10:54:40Z</time>
      </trkpt>
      <trkpt lat="43.45045" lon="4.429">
        <ele>3</ele>
        <time>2022-08-28T10:54:46Z</time>
      </trkpt>
      <trkpt lat="43.45044" lon="4.42913">
        <ele>3.1</ele>
        <time>2022-08-28T10:54:54Z</time>
      </trkpt>
      <trkpt lat="43.45044" lon="4.42913">
        <ele>3.1</ele>
        <time>2022-08-28T10:54:59Z</time>
      </trkpt>
      <trkpt lat="43.45044" lon="4.42913">
        <ele>3.1</ele>
        <time>2022-08-28T10:55:02Z</time>
      </trkpt>
      <trkpt lat="43.45037" lon="4.4298">
        <ele>3.4</ele>
        <time>2022-08-28T10:55:19Z</time>
      </trkpt>
      <trkpt lat="43.45038" lon="4.42996">
        <ele>3.4</ele>
        <time>2022-08-28T10:55:22Z</time>
      </trkpt>
      <trkpt lat="43.45041" lon="4.43033">
        <ele>3.4</ele>
        <time>2022-08-28T10:55:29Z</time>
      </trkpt>
      <trkpt lat="43.45044" lon="4.43044">
        <ele>3.4</ele>
        <time>2022-08-28T10:55:31Z</time>
      </trkpt>
      <trkpt lat="43.45048" lon="4.43055">
        <ele>3.4</ele>
        <time>2022-08-28T10:55:33Z</time>
      </trkpt>
      <trkpt lat="43.45054" lon="4.43064">
        <ele>3.3</ele>
        <time>2022-08-28T10:55:35Z</time>
      </trkpt>
      <trkpt lat="43.45084" lon="4.43087">
        <ele>3.2</ele>
        <time>2022-08-28T10:55:43Z</time>
      </trkpt>
      <trkpt lat="43.45091" lon="4.43095">
        <ele>3.2</ele>
        <time>2022-08-28T10:55:45Z</time>
      </trkpt>
      <trkpt lat="43.4512" lon="4.43132">
        <ele>3</ele>
        <time>2022-08-28T10:55:54Z</time>
      </trkpt>
      <trkpt lat="43.45135" lon="4.43154">
        <ele>2.9</ele>
        <time>2022-08-28T10:55:59Z</time>
      </trkpt>
      <trkpt lat="43.45145" lon="4.43176">
        <ele>2.9</ele>
        <time>2022-08-28T10:56:03Z</time>
      </trkpt>
      <trkpt lat="43.4516" lon="4.43211">
        <ele>2.9</ele>
        <time>2022-08-28T10:56:10Z</time>
      </trkpt>
      <trkpt lat="43.45167" lon="4.43227">
        <ele>2.9</ele>
        <time>2022-08-28T10:56:13Z</time>
      </trkpt>
      <trkpt lat="43.45176" lon="4.43247">
        <ele>2.9</ele>
        <time>2022-08-28T10:56:17Z</time>
      </trkpt>
      <trkpt lat="43.45182" lon="4.43262">
        <ele>3</ele>
        <time>2022-08-28T10:56:20Z</time>
      </trkpt>
      <trkpt lat="43.45184" lon="4.43266">
        <ele>3</ele>
        <time>2022-08-28T10:56:21Z</time>
      </trkpt>
      <trkpt lat="43.45187" lon="4.43271">
        <ele>3</ele>
        <time>2022-08-28T10:56:22Z</time>
      </trkpt>
      <trkpt lat="43.45189" lon="4.43276">
        <ele>3</ele>
        <time>2022-08-28T10:56:23Z</time>
      </trkpt>
      <trkpt lat="43.45197" lon="4.43296">
        <ele>3</ele>
        <time>2022-08-28T10:56:27Z</time>
      </trkpt>
      <trkpt lat="43.45211" lon="4.4333">
        <ele>3</ele>
        <time>2022-08-28T10:56:34Z</time>
      </trkpt>
      <trkpt lat="43.45218" lon="4.43344">
        <ele>3</ele>
        <time>2022-08-28T10:56:37Z</time>
      </trkpt>
      <trkpt lat="43.45235" lon="4.43389">
        <ele>3.1</ele>
        <time>2022-08-28T10:56:47Z</time>
      </trkpt>
      <trkpt lat="43.45234" lon="4.43393">
        <ele>3.1</ele>
        <time>2022-08-28T10:56:48Z</time>
      </trkpt>
      <trkpt lat="43.45233" lon="4.43398">
        <ele>3.1</ele>
        <time>2022-08-28T10:56:49Z</time>
      </trkpt>
      <trkpt lat="43.45242" lon="4.43421">
        <ele>3.1</ele>
        <time>2022-08-28T10:57:02Z</time>
      </trkpt>
      <trkpt lat="43.45242" lon="4.43421">
        <ele>3.1</ele>
        <time>2022-08-28T10:57:03Z</time>
      </trkpt>
      <trkpt lat="43.45241" lon="4.43431">
        <ele>3.3</ele>
        <time>2022-08-28T10:58:38Z</time>
      </trkpt>
      <trkpt lat="43.45242" lon="4.43432">
        <ele>3.3</ele>
        <time>2022-08-28T10:58:39Z</time>
      </trkpt>
      <trkpt lat="43.45246" lon="4.43446">
        <ele>3.7</ele>
        <time>2022-08-28T10:58:53Z</time>
      </trkpt>
      <trkpt lat="43.45253" lon="4.43461">
        <ele>3.8</ele>
        <time>2022-08-28T10:59:00Z</time>
      </trkpt>
      <trkpt lat="43.45264" lon="4.43486">
        <ele>4</ele>
        <time>2022-08-28T10:59:09Z</time>
      </trkpt>
      <trkpt lat="43.45293" lon="4.43549">
        <ele>4.1</ele>
        <time>2022-08-28T10:59:27Z</time>
      </trkpt>
      <trkpt lat="43.45318" lon="4.43606">
        <ele>3.9</ele>
        <time>2022-08-28T10:59:42Z</time>
      </trkpt>
      <trkpt lat="43.45326" lon="4.43626">
        <ele>3.9</ele>
        <time>2022-08-28T10:59:47Z</time>
      </trkpt>
      <trkpt lat="43.45332" lon="4.4364">
        <ele>3.9</ele>
        <time>2022-08-28T10:59:51Z</time>
      </trkpt>
      <trkpt lat="43.45339" lon="4.43658">
        <ele>3.9</ele>
        <time>2022-08-28T10:59:56Z</time>
      </trkpt>
      <trkpt lat="43.4534" lon="4.43662">
        <ele>3.8</ele>
        <time>2022-08-28T10:59:57Z</time>
      </trkpt>
      <trkpt lat="43.4535" lon="4.43682">
        <ele>3.7</ele>
        <time>2022-08-28T11:00:03Z</time>
      </trkpt>
      <trkpt lat="43.45352" lon="4.43686">
        <ele>3.7</ele>
        <time>2022-08-28T11:00:04Z</time>
      </trkpt>
      <trkpt lat="43.45365" lon="4.43709">
        <ele>3.7</ele>
        <time>2022-08-28T11:00:12Z</time>
      </trkpt>
      <trkpt lat="43.45367" lon="4.43713">
        <ele>3.7</ele>
        <time>2022-08-28T11:00:14Z</time>
      </trkpt>
      <trkpt lat="43.45369" lon="4.43715">
        <ele>3.7</ele>
        <time>2022-08-28T11:00:16Z</time>
      </trkpt>
      <trkpt lat="43.4537" lon="4.43716">
        <ele>3.7</ele>
        <time>2022-08-28T11:00:17Z</time>
      </trkpt>
      <trkpt lat="43.45376" lon="4.43723">
        <ele>3.7</ele>
        <time>2022-08-28T11:00:21Z</time>
      </trkpt>
      <trkpt lat="43.4538" lon="4.43732">
        <ele>3.7</ele>
        <time>2022-08-28T11:00:24Z</time>
      </trkpt>
      <trkpt lat="43.45392" lon="4.43762">
        <ele>3.7</ele>
        <time>2022-08-28T11:00:35Z</time>
      </trkpt>
      <trkpt lat="43.45397" lon="4.43771">
        <ele>3.7</ele>
        <time>2022-08-28T11:00:38Z</time>
      </trkpt>
      <trkpt lat="43.45401" lon="4.4378">
        <ele>3.7</ele>
        <time>2022-08-28T11:00:41Z</time>
      </trkpt>
      <trkpt lat="43.45418" lon="4.43829">
        <ele>3.7</ele>
        <time>2022-08-28T11:01:00Z</time>
      </trkpt>
      <trkpt lat="43.45418" lon="4.43836">
        <ele>3.7</ele>
        <time>2022-08-28T11:01:03Z</time>
      </trkpt>
      <trkpt lat="43.45419" lon="4.43838">
        <ele>3.7</ele>
        <time>2022-08-28T11:01:04Z</time>
      </trkpt>
      <trkpt lat="43.45419" lon="4.4384">
        <ele>3.7</ele>
        <time>2022-08-28T11:01:05Z</time>
      </trkpt>
      <trkpt lat="43.4542" lon="4.43843">
        <ele>3.7</ele>
        <time>2022-08-28T11:01:06Z</time>
      </trkpt>
      <trkpt lat="43.45422" lon="4.43845">
        <ele>3.7</ele>
        <time>2022-08-28T11:01:07Z</time>
      </trkpt>
      <trkpt lat="43.45424" lon="4.43848">
        <ele>3.7</ele>
        <time>2022-08-28T11:01:08Z</time>
      </trkpt>
      <trkpt lat="43.45426" lon="4.43851">
        <ele>3.8</ele>
        <time>2022-08-28T11:01:09Z</time>
      </trkpt>
      <trkpt lat="43.4543" lon="4.43859">
        <ele>3.8</ele>
        <time>2022-08-28T11:01:11Z</time>
      </trkpt>
      <trkpt lat="43.45432" lon="4.43863">
        <ele>3.8</ele>
        <time>2022-08-28T11:01:12Z</time>
      </trkpt>
      <trkpt lat="43.45442" lon="4.43882">
        <ele>3.7</ele>
        <time>2022-08-28T11:01:16Z</time>
      </trkpt>
      <trkpt lat="43.45446" lon="4.43892">
        <ele>3.7</ele>
        <time>2022-08-28T11:01:18Z</time>
      </trkpt>
      <trkpt lat="43.45451" lon="4.43902">
        <ele>3.7</ele>
        <time>2022-08-28T11:01:20Z</time>
      </trkpt>
      <trkpt lat="43.45455" lon="4.43912">
        <ele>3.7</ele>
        <time>2022-08-28T11:01:22Z</time>
      </trkpt>
      <trkpt lat="43.45464" lon="4.4393">
        <ele>3.7</ele>
        <time>2022-08-28T11:01:26Z</time>
      </trkpt>
      <trkpt lat="43.45473" lon="4.43947">
        <ele>3.6</ele>
        <time>2022-08-28T11:01:30Z</time>
      </trkpt>
      <trkpt lat="43.45479" lon="4.43965">
        <ele>3.6</ele>
        <time>2022-08-28T11:01:37Z</time>
      </trkpt>
      <trkpt lat="43.4548" lon="4.43972">
        <ele>3.6</ele>
        <time>2022-08-28T11:01:48Z</time>
      </trkpt>
      <trkpt lat="43.45481" lon="4.43979">
        <ele>3.6</ele>
        <time>2022-08-28T11:02:03Z</time>
      </trkpt>
      <trkpt lat="43.45499" lon="4.44016">
        <ele>3.6</ele>
        <time>2022-08-28T11:02:23Z</time>
      </trkpt>
      <trkpt lat="43.45511" lon="4.44045">
        <ele>3.6</ele>
        <time>2022-08-28T11:02:31Z</time>
      </trkpt>
      <trkpt lat="43.45515" lon="4.44053">
        <ele>3.6</ele>
        <time>2022-08-28T11:02:33Z</time>
      </trkpt>
      <trkpt lat="43.45522" lon="4.44069">
        <ele>3.6</ele>
        <time>2022-08-28T11:02:37Z</time>
      </trkpt>
      <trkpt lat="43.45533" lon="4.44094">
        <ele>3.5</ele>
        <time>2022-08-28T11:02:43Z</time>
      </trkpt>
      <trkpt lat="43.45536" lon="4.441">
        <ele>3.5</ele>
        <time>2022-08-28T11:02:45Z</time>
      </trkpt>
      <trkpt lat="43.45539" lon="4.44108">
        <ele>3.5</ele>
        <time>2022-08-28T11:02:49Z</time>
      </trkpt>
      <trkpt lat="43.45539" lon="4.44108">
        <ele>3.5</ele>
        <time>2022-08-28T11:02:53Z</time>
      </trkpt>
      <trkpt lat="43.45538" lon="4.44108">
        <ele>3.6</ele>
        <time>2022-08-28T11:03:49Z</time>
      </trkpt>
      <trkpt lat="43.45538" lon="4.44108">
        <ele>3.6</ele>
        <time>2022-08-28T11:03:50Z</time>
      </trkpt>
      <trkpt lat="43.45539" lon="4.4411">
        <ele>3.6</ele>
        <time>2022-08-28T11:03:53Z</time>
      </trkpt>
      <trkpt lat="43.45545" lon="4.44123">
        <ele>3.6</ele>
        <time>2022-08-28T11:03:58Z</time>
      </trkpt>
      <trkpt lat="43.45547" lon="4.44127">
        <ele>3.6</ele>
        <time>2022-08-28T11:03:59Z</time>
      </trkpt>
      <trkpt lat="43.45549" lon="4.44131">
        <ele>3.6</ele>
        <time>2022-08-28T11:04:00Z</time>
      </trkpt>
      <trkpt lat="43.45553" lon="4.4414">
        <ele>3.6</ele>
        <time>2022-08-28T11:04:02Z</time>
      </trkpt>
      <trkpt lat="43.45555" lon="4.44145">
        <ele>3.6</ele>
        <time>2022-08-28T11:04:03Z</time>
      </trkpt>
      <trkpt lat="43.45557" lon="4.44149">
        <ele>3.6</ele>
        <time>2022-08-28T11:04:04Z</time>
      </trkpt>
      <trkpt lat="43.45559" lon="4.44154">
        <ele>3.6</ele>
        <time>2022-08-28T11:04:05Z</time>
      </trkpt>
      <trkpt lat="43.45561" lon="4.44158">
        <ele>3.6</ele>
        <time>2022-08-28T11:04:06Z</time>
      </trkpt>
      <trkpt lat="43.45563" lon="4.44163">
        <ele>3.6</ele>
        <time>2022-08-28T11:04:07Z</time>
      </trkpt>
      <trkpt lat="43.45567" lon="4.44172">
        <ele>3.6</ele>
        <time>2022-08-28T11:04:09Z</time>
      </trkpt>
      <trkpt lat="43.45569" lon="4.44176">
        <ele>3.6</ele>
        <time>2022-08-28T11:04:10Z</time>
      </trkpt>
      <trkpt lat="43.45575" lon="4.44189">
        <ele>3.7</ele>
        <time>2022-08-28T11:04:13Z</time>
      </trkpt>
      <trkpt lat="43.45597" lon="4.44239">
        <ele>3.7</ele>
        <time>2022-08-28T11:04:25Z</time>
      </trkpt>
      <trkpt lat="43.45599" lon="4.44244">
        <ele>3.7</ele>
        <time>2022-08-28T11:04:26Z</time>
      </trkpt>
      <trkpt lat="43.456" lon="4.44248">
        <ele>3.7</ele>
        <time>2022-08-28T11:04:27Z</time>
      </trkpt>
      <trkpt lat="43.45602" lon="4.44253">
        <ele>3.7</ele>
        <time>2022-08-28T11:04:28Z</time>
      </trkpt>
      <trkpt lat="43.45605" lon="4.44262">
        <ele>3.7</ele>
        <time>2022-08-28T11:04:30Z</time>
      </trkpt>
      <trkpt lat="43.45611" lon="4.44279">
        <ele>3.7</ele>
        <time>2022-08-28T11:04:34Z</time>
      </trkpt>
      <trkpt lat="43.45615" lon="4.44292">
        <ele>3.8</ele>
        <time>2022-08-28T11:04:37Z</time>
      </trkpt>
      <trkpt lat="43.45623" lon="4.4432">
        <ele>3.7</ele>
        <time>2022-08-28T11:04:43Z</time>
      </trkpt>
      <trkpt lat="43.45632" lon="4.44352">
        <ele>3.6</ele>
        <time>2022-08-28T11:04:50Z</time>
      </trkpt>
      <trkpt lat="43.45636" lon="4.44372">
        <ele>3.6</ele>
        <time>2022-08-28T11:04:54Z</time>
      </trkpt>
      <trkpt lat="43.45644" lon="4.44407">
        <ele>3.5</ele>
        <time>2022-08-28T11:05:02Z</time>
      </trkpt>
      <trkpt lat="43.45647" lon="4.44418">
        <ele>3.5</ele>
        <time>2022-08-28T11:05:05Z</time>
      </trkpt>
      <trkpt lat="43.45644" lon="4.44426">
        <ele>3.5</ele>
        <time>2022-08-28T11:05:09Z</time>
      </trkpt>
      <trkpt lat="43.45631" lon="4.44429">
        <ele>3.5</ele>
        <time>2022-08-28T11:05:23Z</time>
      </trkpt>
      <trkpt lat="43.45647" lon="4.44434">
        <ele>3.4</ele>
        <time>2022-08-28T14:12:08Z</time>
      </trkpt>
      <trkpt lat="43.45647" lon="4.44435">
        <ele>3.4</ele>
        <time>2022-08-28T14:12:10Z</time>
      </trkpt>
      <trkpt lat="43.45648" lon="4.44438">
        <ele>3.4</ele>
        <time>2022-08-28T14:12:12Z</time>
      </trkpt>
      <trkpt lat="43.45649" lon="4.4444">
        <ele>3.4</ele>
        <time>2022-08-28T14:12:13Z</time>
      </trkpt>
      <trkpt lat="43.45651" lon="4.44448">
        <ele>3.4</ele>
        <time>2022-08-28T14:12:16Z</time>
      </trkpt>
      <trkpt lat="43.45652" lon="4.44456">
        <ele>3.4</ele>
        <time>2022-08-28T14:12:18Z</time>
      </trkpt>
      <trkpt lat="43.45652" lon="4.4446">
        <ele>3.5</ele>
        <time>2022-08-28T14:12:19Z</time>
      </trkpt>
      <trkpt lat="43.45653" lon="4.44464">
        <ele>3.5</ele>
        <time>2022-08-28T14:12:20Z</time>
      </trkpt>
      <trkpt lat="43.45654" lon="4.44468">
        <ele>3.5</ele>
        <time>2022-08-28T14:12:21Z</time>
      </trkpt>
      <trkpt lat="43.45655" lon="4.44471">
        <ele>3.5</ele>
        <time>2022-08-28T14:12:22Z</time>
      </trkpt>
      <trkpt lat="43.45656" lon="4.44475">
        <ele>3.6</ele>
        <time>2022-08-28T14:12:23Z</time>
      </trkpt>
      <trkpt lat="43.45657" lon="4.44478">
        <ele>3.6</ele>
        <time>2022-08-28T14:12:24Z</time>
      </trkpt>
      <trkpt lat="43.45659" lon="4.44485">
        <ele>3.6</ele>
        <time>2022-08-28T14:12:26Z</time>
      </trkpt>
      <trkpt lat="43.45668" lon="4.44517">
        <ele>3.6</ele>
        <time>2022-08-28T14:12:34Z</time>
      </trkpt>
      <trkpt lat="43.45673" lon="4.44534">
        <ele>3.6</ele>
        <time>2022-08-28T14:12:38Z</time>
      </trkpt>
      <trkpt lat="43.45675" lon="4.44546">
        <ele>3.6</ele>
        <time>2022-08-28T14:12:41Z</time>
      </trkpt>
      <trkpt lat="43.45679" lon="4.44563">
        <ele>3.6</ele>
        <time>2022-08-28T14:12:45Z</time>
      </trkpt>
      <trkpt lat="43.45683" lon="4.44581">
        <ele>3.6</ele>
        <time>2022-08-28T14:12:49Z</time>
      </trkpt>
      <trkpt lat="43.45688" lon="4.44604">
        <ele>3.6</ele>
        <time>2022-08-28T14:12:54Z</time>
      </trkpt>
      <trkpt lat="43.4569" lon="4.44613">
        <ele>3.6</ele>
        <time>2022-08-28T14:12:56Z</time>
      </trkpt>
      <trkpt lat="43.45695" lon="4.44637">
        <ele>3.6</ele>
        <time>2022-08-28T14:13:01Z</time>
      </trkpt>
      <trkpt lat="43.45697" lon="4.44647">
        <ele>3.6</ele>
        <time>2022-08-28T14:13:03Z</time>
      </trkpt>
      <trkpt lat="43.457" lon="4.44656">
        <ele>3.6</ele>
        <time>2022-08-28T14:13:05Z</time>
      </trkpt>
      <trkpt lat="43.45701" lon="4.44661">
        <ele>3.6</ele>
        <time>2022-08-28T14:13:06Z</time>
      </trkpt>
      <trkpt lat="43.45702" lon="4.44666">
        <ele>3.6</ele>
        <time>2022-08-28T14:13:07Z</time>
      </trkpt>
      <trkpt lat="43.4572" lon="4.44738">
        <ele>3.7</ele>
        <time>2022-08-28T14:13:22Z</time>
      </trkpt>
      <trkpt lat="43.45735" lon="4.44807">
        <ele>3.7</ele>
        <time>2022-08-28T14:13:39Z</time>
      </trkpt>
      <trkpt lat="43.45746" lon="4.44859">
        <ele>3.6</ele>
        <time>2022-08-28T14:13:49Z</time>
      </trkpt>
      <trkpt lat="43.45764" lon="4.44932">
        <ele>3.5</ele>
        <time>2022-08-28T14:14:02Z</time>
      </trkpt>
      <trkpt lat="43.4578" lon="4.45006">
        <ele>3.5</ele>
        <time>2022-08-28T14:14:16Z</time>
      </trkpt>
      <trkpt lat="43.45794" lon="4.45067">
        <ele>3.6</ele>
        <time>2022-08-28T14:14:30Z</time>
      </trkpt>
      <trkpt lat="43.4581" lon="4.45139">
        <ele>3.7</ele>
        <time>2022-08-28T14:14:44Z</time>
      </trkpt>
      <trkpt lat="43.4582" lon="4.45184">
        <ele>3.6</ele>
        <time>2022-08-28T14:14:53Z</time>
      </trkpt>
      <trkpt lat="43.45822" lon="4.45193">
        <ele>3.6</ele>
        <time>2022-08-28T14:14:55Z</time>
      </trkpt>
      <trkpt lat="43.45839" lon="4.45265">
        <ele>3.7</ele>
        <time>2022-08-28T14:15:10Z</time>
      </trkpt>
      <trkpt lat="43.45856" lon="4.45341">
        <ele>3.6</ele>
        <time>2022-08-28T14:15:26Z</time>
      </trkpt>
      <trkpt lat="43.45871" lon="4.45412">
        <ele>3.4</ele>
        <time>2022-08-28T14:15:40Z</time>
      </trkpt>
      <trkpt lat="43.45888" lon="4.45486">
        <ele>3.4</ele>
        <time>2022-08-28T14:15:54Z</time>
      </trkpt>
      <trkpt lat="43.45904" lon="4.4556">
        <ele>3.1</ele>
        <time>2022-08-28T14:16:08Z</time>
      </trkpt>
      <trkpt lat="43.45907" lon="4.45576">
        <ele>3</ele>
        <time>2022-08-28T14:16:11Z</time>
      </trkpt>
      <trkpt lat="43.45924" lon="4.45649">
        <ele>2.9</ele>
        <time>2022-08-28T14:16:26Z</time>
      </trkpt>
      <trkpt lat="43.45942" lon="4.45719">
        <ele>2.9</ele>
        <time>2022-08-28T14:16:40Z</time>
      </trkpt>
      <trkpt lat="43.45946" lon="4.4574">
        <ele>3</ele>
        <time>2022-08-28T14:16:45Z</time>
      </trkpt>
      <trkpt lat="43.45964" lon="4.45812">
        <ele>3</ele>
        <time>2022-08-28T14:17:46Z</time>
      </trkpt>
      <trkpt lat="43.45981" lon="4.45855">
        <ele>3</ele>
        <time>2022-08-28T14:18:01Z</time>
      </trkpt>
      <trkpt lat="43.45991" lon="4.45882">
        <ele>2.9</ele>
        <time>2022-08-28T14:18:11Z</time>
      </trkpt>
      <trkpt lat="43.46001" lon="4.45903">
        <ele>3</ele>
        <time>2022-08-28T14:18:17Z</time>
      </trkpt>
      <trkpt lat="43.46008" lon="4.4592">
        <ele>3</ele>
        <time>2022-08-28T14:18:21Z</time>
      </trkpt>
      <trkpt lat="43.46044" lon="4.45978">
        <ele>3.3</ele>
        <time>2022-08-28T14:18:36Z</time>
      </trkpt>
      <trkpt lat="43.46075" lon="4.46039">
        <ele>3.3</ele>
        <time>2022-08-28T14:18:50Z</time>
      </trkpt>
      <trkpt lat="43.46107" lon="4.46098">
        <ele>3.4</ele>
        <time>2022-08-28T14:19:08Z</time>
      </trkpt>
      <trkpt lat="43.46133" lon="4.4614">
        <ele>3.5</ele>
        <time>2022-08-28T14:19:29Z</time>
      </trkpt>
      <trkpt lat="43.46147" lon="4.46163">
        <ele>3.6</ele>
        <time>2022-08-28T14:19:40Z</time>
      </trkpt>
      <trkpt lat="43.46149" lon="4.46165">
        <ele>3.6</ele>
        <time>2022-08-28T14:19:41Z</time>
      </trkpt>
      <trkpt lat="43.4615" lon="4.46168">
        <ele>3.6</ele>
        <time>2022-08-28T14:19:42Z</time>
      </trkpt>
      <trkpt lat="43.46152" lon="4.4617">
        <ele>3.6</ele>
        <time>2022-08-28T14:19:43Z</time>
      </trkpt>
      <trkpt lat="43.46184" lon="4.46231">
        <ele>3.6</ele>
        <time>2022-08-28T14:19:58Z</time>
      </trkpt>
      <trkpt lat="43.46196" lon="4.46252">
        <ele>3.7</ele>
        <time>2022-08-28T14:20:03Z</time>
      </trkpt>
      <trkpt lat="43.46211" lon="4.46276">
        <ele>3.7</ele>
        <time>2022-08-28T14:20:09Z</time>
      </trkpt>
      <trkpt lat="43.46225" lon="4.46301">
        <ele>3.7</ele>
        <time>2022-08-28T14:20:15Z</time>
      </trkpt>
      <trkpt lat="43.46259" lon="4.46361">
        <ele>3.8</ele>
        <time>2022-08-28T14:20:29Z</time>
      </trkpt>
      <trkpt lat="43.46292" lon="4.4642">
        <ele>3.7</ele>
        <time>2022-08-28T14:20:46Z</time>
      </trkpt>
      <trkpt lat="43.46312" lon="4.46454">
        <ele>3.5</ele>
        <time>2022-08-28T14:20:56Z</time>
      </trkpt>
      <trkpt lat="43.4634" lon="4.46501">
        <ele>3.4</ele>
        <time>2022-08-28T14:21:09Z</time>
      </trkpt>
      <trkpt lat="43.46359" lon="4.46536">
        <ele>3.3</ele>
        <time>2022-08-28T14:21:17Z</time>
      </trkpt>
      <trkpt lat="43.46367" lon="4.46549">
        <ele>3.3</ele>
        <time>2022-08-28T14:21:20Z</time>
      </trkpt>
      <trkpt lat="43.4638" lon="4.46573">
        <ele>3.2</ele>
        <time>2022-08-28T14:21:25Z</time>
      </trkpt>
      <trkpt lat="43.4639" lon="4.46592">
        <ele>3.3</ele>
        <time>2022-08-28T14:21:29Z</time>
      </trkpt>
      <trkpt lat="43.46393" lon="4.46596">
        <ele>3.3</ele>
        <time>2022-08-28T14:21:30Z</time>
      </trkpt>
      <trkpt lat="43.46395" lon="4.46601">
        <ele>3.3</ele>
        <time>2022-08-28T14:21:31Z</time>
      </trkpt>
      <trkpt lat="43.46398" lon="4.46606">
        <ele>3.3</ele>
        <time>2022-08-28T14:21:32Z</time>
      </trkpt>
      <trkpt lat="43.46411" lon="4.46631">
        <ele>3.3</ele>
        <time>2022-08-28T14:21:37Z</time>
      </trkpt>
      <trkpt lat="43.46429" lon="4.46673">
        <ele>3.2</ele>
        <time>2022-08-28T14:21:45Z</time>
      </trkpt>
      <trkpt lat="43.46439" lon="4.467">
        <ele>3.2</ele>
        <time>2022-08-28T14:21:50Z</time>
      </trkpt>
      <trkpt lat="43.46454" lon="4.46746">
        <ele>3.1</ele>
        <time>2022-08-28T14:22:00Z</time>
      </trkpt>
      <trkpt lat="43.4646" lon="4.46768">
        <ele>3.1</ele>
        <time>2022-08-28T14:22:05Z</time>
      </trkpt>
      <trkpt lat="43.46465" lon="4.4679">
        <ele>3.2</ele>
        <time>2022-08-28T14:22:09Z</time>
      </trkpt>
      <trkpt lat="43.4647" lon="4.46814">
        <ele>3.2</ele>
        <time>2022-08-28T14:22:13Z</time>
      </trkpt>
      <trkpt lat="43.46476" lon="4.46844">
        <ele>3.3</ele>
        <time>2022-08-28T14:22:18Z</time>
      </trkpt>
      <trkpt lat="43.46478" lon="4.46863">
        <ele>3.3</ele>
        <time>2022-08-28T14:22:21Z</time>
      </trkpt>
      <trkpt lat="43.46482" lon="4.46893">
        <ele>3.3</ele>
        <time>2022-08-28T14:22:26Z</time>
      </trkpt>
      <trkpt lat="43.46483" lon="4.46912">
        <ele>3.4</ele>
        <time>2022-08-28T14:22:29Z</time>
      </trkpt>
      <trkpt lat="43.46483" lon="4.46918">
        <ele>3.4</ele>
        <time>2022-08-28T14:22:30Z</time>
      </trkpt>
      <trkpt lat="43.46484" lon="4.46924">
        <ele>3.4</ele>
        <time>2022-08-28T14:22:31Z</time>
      </trkpt>
      <trkpt lat="43.46484" lon="4.46936">
        <ele>3.4</ele>
        <time>2022-08-28T14:22:33Z</time>
      </trkpt>
      <trkpt lat="43.46484" lon="4.46947">
        <ele>3.4</ele>
        <time>2022-08-28T14:22:35Z</time>
      </trkpt>
      <trkpt lat="43.46484" lon="4.4698">
        <ele>3.3</ele>
        <time>2022-08-28T14:22:41Z</time>
      </trkpt>
      <trkpt lat="43.46483" lon="4.4699">
        <ele>3.3</ele>
        <time>2022-08-28T14:22:43Z</time>
      </trkpt>
      <trkpt lat="43.46482" lon="4.47004">
        <ele>3.3</ele>
        <time>2022-08-28T14:22:46Z</time>
      </trkpt>
      <trkpt lat="43.46482" lon="4.47009">
        <ele>3.2</ele>
        <time>2022-08-28T14:22:47Z</time>
      </trkpt>
      <trkpt lat="43.46481" lon="4.47013">
        <ele>3.2</ele>
        <time>2022-08-28T14:22:48Z</time>
      </trkpt>
      <trkpt lat="43.46479" lon="4.47027">
        <ele>3.2</ele>
        <time>2022-08-28T14:22:51Z</time>
      </trkpt>
      <trkpt lat="43.46479" lon="4.47031">
        <ele>3.2</ele>
        <time>2022-08-28T14:22:52Z</time>
      </trkpt>
      <trkpt lat="43.46479" lon="4.47036">
        <ele>3.2</ele>
        <time>2022-08-28T14:22:53Z</time>
      </trkpt>
      <trkpt lat="43.46478" lon="4.47041">
        <ele>3.2</ele>
        <time>2022-08-28T14:22:54Z</time>
      </trkpt>
      <trkpt lat="43.46477" lon="4.47052">
        <ele>3.2</ele>
        <time>2022-08-28T14:22:56Z</time>
      </trkpt>
      <trkpt lat="43.46475" lon="4.47062">
        <ele>3.2</ele>
        <time>2022-08-28T14:22:58Z</time>
      </trkpt>
      <trkpt lat="43.46466" lon="4.47119">
        <ele>3.1</ele>
        <time>2022-08-28T14:23:09Z</time>
      </trkpt>
      <trkpt lat="43.46458" lon="4.47156">
        <ele>3.1</ele>
        <time>2022-08-28T14:23:16Z</time>
      </trkpt>
      <trkpt lat="43.4644" lon="4.47232">
        <ele>3.2</ele>
        <time>2022-08-28T14:23:31Z</time>
      </trkpt>
      <trkpt lat="43.46422" lon="4.47303">
        <ele>3.2</ele>
        <time>2022-08-28T14:23:45Z</time>
      </trkpt>
      <trkpt lat="43.46402" lon="4.47378">
        <ele>3.1</ele>
        <time>2022-08-28T14:23:59Z</time>
      </trkpt>
      <trkpt lat="43.46384" lon="4.47451">
        <ele>3.1</ele>
        <time>2022-08-28T14:24:12Z</time>
      </trkpt>
      <trkpt lat="43.46366" lon="4.47521">
        <ele>3.1</ele>
        <time>2022-08-28T14:24:24Z</time>
      </trkpt>
      <trkpt lat="43.46353" lon="4.47578">
        <ele>3.1</ele>
        <time>2022-08-28T14:24:34Z</time>
      </trkpt>
      <trkpt lat="43.46346" lon="4.47604">
        <ele>3.1</ele>
        <time>2022-08-28T14:24:39Z</time>
      </trkpt>
      <trkpt lat="43.46343" lon="4.47618">
        <ele>3.1</ele>
        <time>2022-08-28T14:24:42Z</time>
      </trkpt>
      <trkpt lat="43.46336" lon="4.47643">
        <ele>3.2</ele>
        <time>2022-08-28T14:24:47Z</time>
      </trkpt>
      <trkpt lat="43.46331" lon="4.47663">
        <ele>3.2</ele>
        <time>2022-08-28T14:24:51Z</time>
      </trkpt>
      <trkpt lat="43.46311" lon="4.47737">
        <ele>3.2</ele>
        <time>2022-08-28T14:25:05Z</time>
      </trkpt>
      <trkpt lat="43.46298" lon="4.47787">
        <ele>3.1</ele>
        <time>2022-08-28T14:25:14Z</time>
      </trkpt>
      <trkpt lat="43.46289" lon="4.47825">
        <ele>3.1</ele>
        <time>2022-08-28T14:25:21Z</time>
      </trkpt>
      <trkpt lat="43.4628" lon="4.47859">
        <ele>3.2</ele>
        <time>2022-08-28T14:25:27Z</time>
      </trkpt>
      <trkpt lat="43.46265" lon="4.47915">
        <ele>3.2</ele>
        <time>2022-08-28T14:25:37Z</time>
      </trkpt>
      <trkpt lat="43.4626" lon="4.47937">
        <ele>3.2</ele>
        <time>2022-08-28T14:25:41Z</time>
      </trkpt>
      <trkpt lat="43.46242" lon="4.4801">
        <ele>3.2</ele>
        <time>2022-08-28T14:25:54Z</time>
      </trkpt>
      <trkpt lat="43.46223" lon="4.48083">
        <ele>3.2</ele>
        <time>2022-08-28T14:26:08Z</time>
      </trkpt>
      <trkpt lat="43.46216" lon="4.4811">
        <ele>3.2</ele>
        <time>2022-08-28T14:26:13Z</time>
      </trkpt>
      <trkpt lat="43.4621" lon="4.48138">
        <ele>3.2</ele>
        <time>2022-08-28T14:26:18Z</time>
      </trkpt>
      <trkpt lat="43.46205" lon="4.48155">
        <ele>3.3</ele>
        <time>2022-08-28T14:26:21Z</time>
      </trkpt>
      <trkpt lat="43.46194" lon="4.482">
        <ele>3.3</ele>
        <time>2022-08-28T14:26:29Z</time>
      </trkpt>
      <trkpt lat="43.46184" lon="4.48238">
        <ele>3.2</ele>
        <time>2022-08-28T14:26:36Z</time>
      </trkpt>
      <trkpt lat="43.46183" lon="4.48244">
        <ele>3.2</ele>
        <time>2022-08-28T14:26:37Z</time>
      </trkpt>
      <trkpt lat="43.46176" lon="4.48272">
        <ele>3.1</ele>
        <time>2022-08-28T14:26:42Z</time>
      </trkpt>
      <trkpt lat="43.46169" lon="4.483">
        <ele>3.1</ele>
        <time>2022-08-28T14:26:47Z</time>
      </trkpt>
      <trkpt lat="43.46168" lon="4.48306">
        <ele>3.1</ele>
        <time>2022-08-28T14:26:48Z</time>
      </trkpt>
      <trkpt lat="43.46159" lon="4.48339">
        <ele>3.1</ele>
        <time>2022-08-28T14:26:54Z</time>
      </trkpt>
      <trkpt lat="43.46145" lon="4.48391">
        <ele>3.2</ele>
        <time>2022-08-28T14:27:04Z</time>
      </trkpt>
      <trkpt lat="43.46138" lon="4.48418">
        <ele>3.3</ele>
        <time>2022-08-28T14:27:09Z</time>
      </trkpt>
      <trkpt lat="43.46135" lon="4.48435">
        <ele>3.3</ele>
        <time>2022-08-28T14:27:12Z</time>
      </trkpt>
      <trkpt lat="43.4613" lon="4.48451">
        <ele>3.3</ele>
        <time>2022-08-28T14:27:15Z</time>
      </trkpt>
      <trkpt lat="43.46128" lon="4.48462">
        <ele>3.3</ele>
        <time>2022-08-28T14:27:17Z</time>
      </trkpt>
      <trkpt lat="43.46123" lon="4.48478">
        <ele>3.3</ele>
        <time>2022-08-28T14:27:20Z</time>
      </trkpt>
      <trkpt lat="43.46104" lon="4.48551">
        <ele>3.3</ele>
        <time>2022-08-28T14:27:34Z</time>
      </trkpt>
      <trkpt lat="43.4609" lon="4.4861">
        <ele>3.1</ele>
        <time>2022-08-28T14:27:44Z</time>
      </trkpt>
      <trkpt lat="43.46072" lon="4.48686">
        <ele>3.2</ele>
        <time>2022-08-28T14:27:57Z</time>
      </trkpt>
      <trkpt lat="43.46069" lon="4.48697">
        <ele>3.2</ele>
        <time>2022-08-28T14:27:59Z</time>
      </trkpt>
      <trkpt lat="43.46065" lon="4.48708">
        <ele>3.2</ele>
        <time>2022-08-28T14:28:01Z</time>
      </trkpt>
      <trkpt lat="43.46061" lon="4.48725">
        <ele>3.2</ele>
        <time>2022-08-28T14:28:04Z</time>
      </trkpt>
      <trkpt lat="43.46057" lon="4.48741">
        <ele>3.2</ele>
        <time>2022-08-28T14:28:07Z</time>
      </trkpt>
      <trkpt lat="43.46039" lon="4.48809">
        <ele>3.2</ele>
        <time>2022-08-28T14:28:19Z</time>
      </trkpt>
      <trkpt lat="43.46021" lon="4.48883">
        <ele>3.2</ele>
        <time>2022-08-28T14:28:32Z</time>
      </trkpt>
      <trkpt lat="43.46016" lon="4.48906">
        <ele>3.2</ele>
        <time>2022-08-28T14:28:36Z</time>
      </trkpt>
      <trkpt lat="43.45997" lon="4.48978">
        <ele>3.2</ele>
        <time>2022-08-28T14:28:49Z</time>
      </trkpt>
      <trkpt lat="43.45978" lon="4.49053">
        <ele>3.1</ele>
        <time>2022-08-28T14:29:02Z</time>
      </trkpt>
      <trkpt lat="43.45968" lon="4.49094">
        <ele>3.1</ele>
        <time>2022-08-28T14:29:09Z</time>
      </trkpt>
      <trkpt lat="43.45962" lon="4.49136">
        <ele>3.2</ele>
        <time>2022-08-28T14:29:16Z</time>
      </trkpt>
      <trkpt lat="43.45957" lon="4.49177">
        <ele>3.2</ele>
        <time>2022-08-28T14:29:23Z</time>
      </trkpt>
      <trkpt lat="43.45953" lon="4.49251">
        <ele>3.2</ele>
        <time>2022-08-28T14:29:35Z</time>
      </trkpt>
      <trkpt lat="43.45953" lon="4.49282">
        <ele>3.2</ele>
        <time>2022-08-28T14:29:40Z</time>
      </trkpt>
      <trkpt lat="43.45952" lon="4.49295">
        <ele>3.1</ele>
        <time>2022-08-28T14:29:42Z</time>
      </trkpt>
      <trkpt lat="43.45952" lon="4.49308">
        <ele>3.1</ele>
        <time>2022-08-28T14:29:44Z</time>
      </trkpt>
      <trkpt lat="43.45953" lon="4.49327">
        <ele>3</ele>
        <time>2022-08-28T14:29:47Z</time>
      </trkpt>
      <trkpt lat="43.45956" lon="4.49386">
        <ele>2.9</ele>
        <time>2022-08-28T14:29:56Z</time>
      </trkpt>
      <trkpt lat="43.45967" lon="4.49462">
        <ele>2.9</ele>
        <time>2022-08-28T14:30:09Z</time>
      </trkpt>
      <trkpt lat="43.45963" lon="4.49538">
        <ele>2.9</ele>
        <time>2022-08-28T14:30:26Z</time>
      </trkpt>
      <trkpt lat="43.45977" lon="4.49607">
        <ele>2.9</ele>
        <time>2022-08-28T14:31:19Z</time>
      </trkpt>
      <trkpt lat="43.46001" lon="4.49634">
        <ele>2.7</ele>
        <time>2022-08-28T14:31:28Z</time>
      </trkpt>
      <trkpt lat="43.46006" lon="4.4964">
        <ele>2.7</ele>
        <time>2022-08-28T14:31:30Z</time>
      </trkpt>
      <trkpt lat="43.46018" lon="4.49653">
        <ele>2.8</ele>
        <time>2022-08-28T14:31:34Z</time>
      </trkpt>
      <trkpt lat="43.46028" lon="4.49662">
        <ele>2.9</ele>
        <time>2022-08-28T14:31:37Z</time>
      </trkpt>
      <trkpt lat="43.46035" lon="4.49668">
        <ele>3</ele>
        <time>2022-08-28T14:31:39Z</time>
      </trkpt>
      <trkpt lat="43.46042" lon="4.49674">
        <ele>3.1</ele>
        <time>2022-08-28T14:31:41Z</time>
      </trkpt>
      <trkpt lat="43.46046" lon="4.49677">
        <ele>3.1</ele>
        <time>2022-08-28T14:31:42Z</time>
      </trkpt>
      <trkpt lat="43.46059" lon="4.49688">
        <ele>2.9</ele>
        <time>2022-08-28T14:31:46Z</time>
      </trkpt>
      <trkpt lat="43.46066" lon="4.49694">
        <ele>2.8</ele>
        <time>2022-08-28T14:31:48Z</time>
      </trkpt>
      <trkpt lat="43.46073" lon="4.49701">
        <ele>2.7</ele>
        <time>2022-08-28T14:31:50Z</time>
      </trkpt>
      <trkpt lat="43.46076" lon="4.49704">
        <ele>2.7</ele>
        <time>2022-08-28T14:31:51Z</time>
      </trkpt>
      <trkpt lat="43.46083" lon="4.49711">
        <ele>2.7</ele>
        <time>2022-08-28T14:31:53Z</time>
      </trkpt>
      <trkpt lat="43.46123" lon="4.49765">
        <ele>2.8</ele>
        <time>2022-08-28T14:32:07Z</time>
      </trkpt>
      <trkpt lat="43.46146" lon="4.49815">
        <ele>2.9</ele>
        <time>2022-08-28T14:32:17Z</time>
      </trkpt>
      <trkpt lat="43.4616" lon="4.49889">
        <ele>2.9</ele>
        <time>2022-08-28T14:32:30Z</time>
      </trkpt>
      <trkpt lat="43.46157" lon="4.49967">
        <ele>2.8</ele>
        <time>2022-08-28T14:32:44Z</time>
      </trkpt>
      <trkpt lat="43.4614" lon="4.50039">
        <ele>2.8</ele>
        <time>2022-08-28T14:32:57Z</time>
      </trkpt>
      <trkpt lat="43.46123" lon="4.50112">
        <ele>2.7</ele>
        <time>2022-08-28T14:33:10Z</time>
      </trkpt>
      <trkpt lat="43.46109" lon="4.50182">
        <ele>2.9</ele>
        <time>2022-08-28T14:33:22Z</time>
      </trkpt>
      <trkpt lat="43.46102" lon="4.50261">
        <ele>2.7</ele>
        <time>2022-08-28T14:33:35Z</time>
      </trkpt>
      <trkpt lat="43.46102" lon="4.50341">
        <ele>2.7</ele>
        <time>2022-08-28T14:33:48Z</time>
      </trkpt>
      <trkpt lat="43.46108" lon="4.50415">
        <ele>2.8</ele>
        <time>2022-08-28T14:34:00Z</time>
      </trkpt>
      <trkpt lat="43.46118" lon="4.50491">
        <ele>2.9</ele>
        <time>2022-08-28T14:34:13Z</time>
      </trkpt>
      <trkpt lat="43.46127" lon="4.50566">
        <ele>3.1</ele>
        <time>2022-08-28T14:34:26Z</time>
      </trkpt>
      <trkpt lat="43.46136" lon="4.50641">
        <ele>3.6</ele>
        <time>2022-08-28T14:34:41Z</time>
      </trkpt>
      <trkpt lat="43.46141" lon="4.50688">
        <ele>3.5</ele>
        <time>2022-08-28T14:35:18Z</time>
      </trkpt>
      <trkpt lat="43.46144" lon="4.50709">
        <ele>3.5</ele>
        <time>2022-08-28T14:35:28Z</time>
      </trkpt>
      <trkpt lat="43.46146" lon="4.50725">
        <ele>3.6</ele>
        <time>2022-08-28T14:35:43Z</time>
      </trkpt>
      <trkpt lat="43.46148" lon="4.50731">
        <ele>3.6</ele>
        <time>2022-08-28T14:35:55Z</time>
      </trkpt>
      <trkpt lat="43.4615" lon="4.50739">
        <ele>3.6</ele>
        <time>2022-08-28T14:36:00Z</time>
      </trkpt>
      <trkpt lat="43.46151" lon="4.50749">
        <ele>3.7</ele>
        <time>2022-08-28T14:36:06Z</time>
      </trkpt>
      <trkpt lat="43.46155" lon="4.5078">
        <ele>3.7</ele>
        <time>2022-08-28T14:36:22Z</time>
      </trkpt>
      <trkpt lat="43.46158" lon="4.50804">
        <ele>3.6</ele>
        <time>2022-08-28T14:36:30Z</time>
      </trkpt>
      <trkpt lat="43.4616" lon="4.50824">
        <ele>3.6</ele>
        <time>2022-08-28T14:36:36Z</time>
      </trkpt>
      <trkpt lat="43.46164" lon="4.50872">
        <ele>3.4</ele>
        <time>2022-08-28T14:37:00Z</time>
      </trkpt>
      <trkpt lat="43.46164" lon="4.50878">
        <ele>3.4</ele>
        <time>2022-08-28T14:37:03Z</time>
      </trkpt>
      <trkpt lat="43.46168" lon="4.50905">
        <ele>3.4</ele>
        <time>2022-08-28T14:37:16Z</time>
      </trkpt>
      <trkpt lat="43.46171" lon="4.50924">
        <ele>3.4</ele>
        <time>2022-08-28T14:37:24Z</time>
      </trkpt>
      <trkpt lat="43.46173" lon="4.50942">
        <ele>3.3</ele>
        <time>2022-08-28T14:37:30Z</time>
      </trkpt>
      <trkpt lat="43.46175" lon="4.5096">
        <ele>3.2</ele>
        <time>2022-08-28T14:37:34Z</time>
      </trkpt>
      <trkpt lat="43.46181" lon="4.51007">
        <ele>3.2</ele>
        <time>2022-08-28T14:37:43Z</time>
      </trkpt>
      <trkpt lat="43.4619" lon="4.51084">
        <ele>3.2</ele>
        <time>2022-08-28T14:37:57Z</time>
      </trkpt>
      <trkpt lat="43.46196" lon="4.51135">
        <ele>3.1</ele>
        <time>2022-08-28T14:38:06Z</time>
      </trkpt>
      <trkpt lat="43.46203" lon="4.51189">
        <ele>3</ele>
        <time>2022-08-28T14:38:15Z</time>
      </trkpt>
      <trkpt lat="43.46216" lon="4.51263">
        <ele>3</ele>
        <time>2022-08-28T14:38:27Z</time>
      </trkpt>
      <trkpt lat="43.46233" lon="4.51328">
        <ele>3.1</ele>
        <time>2022-08-28T14:38:38Z</time>
      </trkpt>
      <trkpt lat="43.46238" lon="4.51345">
        <ele>3.1</ele>
        <time>2022-08-28T14:38:41Z</time>
      </trkpt>
      <trkpt lat="43.4624" lon="4.5135">
        <ele>3.1</ele>
        <time>2022-08-28T14:38:42Z</time>
      </trkpt>
      <trkpt lat="43.46243" lon="4.51355">
        <ele>3.2</ele>
        <time>2022-08-28T14:38:43Z</time>
      </trkpt>
      <trkpt lat="43.46245" lon="4.51361">
        <ele>3.2</ele>
        <time>2022-08-28T14:38:44Z</time>
      </trkpt>
      <trkpt lat="43.46251" lon="4.51377">
        <ele>3.2</ele>
        <time>2022-08-28T14:38:47Z</time>
      </trkpt>
      <trkpt lat="43.46268" lon="4.51418">
        <ele>3.1</ele>
        <time>2022-08-28T14:38:55Z</time>
      </trkpt>
      <trkpt lat="43.4627" lon="4.51423">
        <ele>3.1</ele>
        <time>2022-08-28T14:38:56Z</time>
      </trkpt>
      <trkpt lat="43.46272" lon="4.51428">
        <ele>3.1</ele>
        <time>2022-08-28T14:38:57Z</time>
      </trkpt>
      <trkpt lat="43.46276" lon="4.51438">
        <ele>3.1</ele>
        <time>2022-08-28T14:38:59Z</time>
      </trkpt>
      <trkpt lat="43.46293" lon="4.51478">
        <ele>3.1</ele>
        <time>2022-08-28T14:39:07Z</time>
      </trkpt>
      <trkpt lat="43.46305" lon="4.51508">
        <ele>3.2</ele>
        <time>2022-08-28T14:39:13Z</time>
      </trkpt>
      <trkpt lat="43.46309" lon="4.51519">
        <ele>3.2</ele>
        <time>2022-08-28T14:39:15Z</time>
      </trkpt>
      <trkpt lat="43.46311" lon="4.51524">
        <ele>3.2</ele>
        <time>2022-08-28T14:39:16Z</time>
      </trkpt>
      <trkpt lat="43.46321" lon="4.5155">
        <ele>3.1</ele>
        <time>2022-08-28T14:39:21Z</time>
      </trkpt>
      <trkpt lat="43.46333" lon="4.51582">
        <ele>3.1</ele>
        <time>2022-08-28T14:39:27Z</time>
      </trkpt>
      <trkpt lat="43.46335" lon="4.51587">
        <ele>3.1</ele>
        <time>2022-08-28T14:39:28Z</time>
      </trkpt>
      <trkpt lat="43.46339" lon="4.51598">
        <ele>3.2</ele>
        <time>2022-08-28T14:39:30Z</time>
      </trkpt>
      <trkpt lat="43.46341" lon="4.51604">
        <ele>3.2</ele>
        <time>2022-08-28T14:39:31Z</time>
      </trkpt>
      <trkpt lat="43.46345" lon="4.51615">
        <ele>3.2</ele>
        <time>2022-08-28T14:39:33Z</time>
      </trkpt>
      <trkpt lat="43.46351" lon="4.5163">
        <ele>3.2</ele>
        <time>2022-08-28T14:39:36Z</time>
      </trkpt>
      <trkpt lat="43.46378" lon="4.51701">
        <ele>3.3</ele>
        <time>2022-08-28T14:39:49Z</time>
      </trkpt>
      <trkpt lat="43.46403" lon="4.51766">
        <ele>3.4</ele>
        <time>2022-08-28T14:40:01Z</time>
      </trkpt>
      <trkpt lat="43.46429" lon="4.51832">
        <ele>3.5</ele>
        <time>2022-08-28T14:40:13Z</time>
      </trkpt>
      <trkpt lat="43.46455" lon="4.51903">
        <ele>3.4</ele>
        <time>2022-08-28T14:40:26Z</time>
      </trkpt>
      <trkpt lat="43.46474" lon="4.51977">
        <ele>3.3</ele>
        <time>2022-08-28T14:40:39Z</time>
      </trkpt>
      <trkpt lat="43.46482" lon="4.52025">
        <ele>3.2</ele>
        <time>2022-08-28T14:40:47Z</time>
      </trkpt>
      <trkpt lat="43.4649" lon="4.52104">
        <ele>3.2</ele>
        <time>2022-08-28T14:41:00Z</time>
      </trkpt>
      <trkpt lat="43.4649" lon="4.52181">
        <ele>3.2</ele>
        <time>2022-08-28T14:41:13Z</time>
      </trkpt>
      <trkpt lat="43.46488" lon="4.52214">
        <ele>3.3</ele>
        <time>2022-08-28T14:41:19Z</time>
      </trkpt>
      <trkpt lat="43.46487" lon="4.52241">
        <ele>3.2</ele>
        <time>2022-08-28T14:41:24Z</time>
      </trkpt>
      <trkpt lat="43.46481" lon="4.52314">
        <ele>3</ele>
        <time>2022-08-28T14:41:36Z</time>
      </trkpt>
      <trkpt lat="43.46477" lon="4.5237">
        <ele>3.1</ele>
        <time>2022-08-28T14:41:45Z</time>
      </trkpt>
      <trkpt lat="43.46475" lon="4.52395">
        <ele>3.1</ele>
        <time>2022-08-28T14:41:49Z</time>
      </trkpt>
      <trkpt lat="43.46471" lon="4.52473">
        <ele>3.3</ele>
        <time>2022-08-28T14:42:02Z</time>
      </trkpt>
      <trkpt lat="43.46466" lon="4.52548">
        <ele>3.3</ele>
        <time>2022-08-28T14:42:14Z</time>
      </trkpt>
      <trkpt lat="43.46462" lon="4.52623">
        <ele>3.4</ele>
        <time>2022-08-28T14:42:26Z</time>
      </trkpt>
      <trkpt lat="43.46462" lon="4.52629">
        <ele>3.4</ele>
        <time>2022-08-28T14:42:27Z</time>
      </trkpt>
      <trkpt lat="43.46457" lon="4.52704">
        <ele>3.3</ele>
        <time>2022-08-28T14:42:39Z</time>
      </trkpt>
      <trkpt lat="43.46453" lon="4.52779">
        <ele>3.1</ele>
        <time>2022-08-28T14:42:51Z</time>
      </trkpt>
      <trkpt lat="43.46452" lon="4.52791">
        <ele>3.1</ele>
        <time>2022-08-28T14:42:53Z</time>
      </trkpt>
      <trkpt lat="43.46448" lon="4.52866">
        <ele>3.2</ele>
        <time>2022-08-28T14:43:05Z</time>
      </trkpt>
      <trkpt lat="43.46443" lon="4.52943">
        <ele>3.4</ele>
        <time>2022-08-28T14:43:17Z</time>
      </trkpt>
      <trkpt lat="43.4644" lon="4.53012">
        <ele>3.3</ele>
        <time>2022-08-28T14:43:28Z</time>
      </trkpt>
      <trkpt lat="43.46436" lon="4.53086">
        <ele>3.2</ele>
        <time>2022-08-28T14:43:40Z</time>
      </trkpt>
      <trkpt lat="43.4643" lon="4.53165">
        <ele>3.2</ele>
        <time>2022-08-28T14:43:53Z</time>
      </trkpt>
      <trkpt lat="43.46419" lon="4.53243">
        <ele>3.1</ele>
        <time>2022-08-28T14:44:06Z</time>
      </trkpt>
      <trkpt lat="43.46408" lon="4.5329">
        <ele>3.1</ele>
        <time>2022-08-28T14:44:14Z</time>
      </trkpt>
      <trkpt lat="43.46398" lon="4.53324">
        <ele>3</ele>
        <time>2022-08-28T14:44:20Z</time>
      </trkpt>
      <trkpt lat="43.46377" lon="4.53395">
        <ele>2.9</ele>
        <time>2022-08-28T14:44:32Z</time>
      </trkpt>
      <trkpt lat="43.46356" lon="4.53466">
        <ele>3</ele>
        <time>2022-08-28T14:44:44Z</time>
      </trkpt>
      <trkpt lat="43.46334" lon="4.53538">
        <ele>2.9</ele>
        <time>2022-08-28T14:44:56Z</time>
      </trkpt>
      <trkpt lat="43.46331" lon="4.5355">
        <ele>2.9</ele>
        <time>2022-08-28T14:44:58Z</time>
      </trkpt>
      <trkpt lat="43.46324" lon="4.53574">
        <ele>3</ele>
        <time>2022-08-28T14:45:02Z</time>
      </trkpt>
      <trkpt lat="43.46318" lon="4.53598">
        <ele>3</ele>
        <time>2022-08-28T14:45:06Z</time>
      </trkpt>
      <trkpt lat="43.46313" lon="4.53615">
        <ele>3</ele>
        <time>2022-08-28T14:45:09Z</time>
      </trkpt>
      <trkpt lat="43.46308" lon="4.53633">
        <ele>3</ele>
        <time>2022-08-28T14:45:12Z</time>
      </trkpt>
      <trkpt lat="43.46304" lon="4.53645">
        <ele>2.9</ele>
        <time>2022-08-28T14:45:14Z</time>
      </trkpt>
      <trkpt lat="43.46299" lon="4.53663">
        <ele>2.9</ele>
        <time>2022-08-28T14:45:17Z</time>
      </trkpt>
      <trkpt lat="43.46277" lon="4.53737">
        <ele>3</ele>
        <time>2022-08-28T14:45:30Z</time>
      </trkpt>
      <trkpt lat="43.46255" lon="4.53809">
        <ele>3</ele>
        <time>2022-08-28T14:45:43Z</time>
      </trkpt>
      <trkpt lat="43.46227" lon="4.53877">
        <ele>3</ele>
        <time>2022-08-28T14:45:56Z</time>
      </trkpt>
      <trkpt lat="43.46193" lon="4.53938">
        <ele>3.1</ele>
        <time>2022-08-28T14:46:09Z</time>
      </trkpt>
      <trkpt lat="43.46159" lon="4.53999">
        <ele>3</ele>
        <time>2022-08-28T14:46:22Z</time>
      </trkpt>
      <trkpt lat="43.46125" lon="4.54059">
        <ele>3.1</ele>
        <time>2022-08-28T14:46:35Z</time>
      </trkpt>
      <trkpt lat="43.46106" lon="4.54094">
        <ele>3.1</ele>
        <time>2022-08-28T14:46:43Z</time>
      </trkpt>
      <trkpt lat="43.46096" lon="4.54112">
        <ele>3.2</ele>
        <time>2022-08-28T14:46:47Z</time>
      </trkpt>
      <trkpt lat="43.46083" lon="4.54134">
        <ele>3.1</ele>
        <time>2022-08-28T14:46:52Z</time>
      </trkpt>
      <trkpt lat="43.46048" lon="4.54193">
        <ele>2.9</ele>
        <time>2022-08-28T14:47:06Z</time>
      </trkpt>
      <trkpt lat="43.46033" lon="4.54218">
        <ele>2.8</ele>
        <time>2022-08-28T14:47:12Z</time>
      </trkpt>
      <trkpt lat="43.46018" lon="4.54245">
        <ele>2.8</ele>
        <time>2022-08-28T14:47:18Z</time>
      </trkpt>
      <trkpt lat="43.45984" lon="4.54308">
        <ele>2.9</ele>
        <time>2022-08-28T14:47:32Z</time>
      </trkpt>
      <trkpt lat="43.45949" lon="4.5437">
        <ele>2.9</ele>
        <time>2022-08-28T14:47:46Z</time>
      </trkpt>
      <trkpt lat="43.45914" lon="4.5443">
        <ele>3</ele>
        <time>2022-08-28T14:48:00Z</time>
      </trkpt>
      <trkpt lat="43.45881" lon="4.54491">
        <ele>3.1</ele>
        <time>2022-08-28T14:48:14Z</time>
      </trkpt>
      <trkpt lat="43.45863" lon="4.54528">
        <ele>3.1</ele>
        <time>2022-08-28T14:48:22Z</time>
      </trkpt>
      <trkpt lat="43.45838" lon="4.54594">
        <ele>3</ele>
        <time>2022-08-28T14:48:35Z</time>
      </trkpt>
      <trkpt lat="43.45834" lon="4.54605">
        <ele>3</ele>
        <time>2022-08-28T14:48:37Z</time>
      </trkpt>
      <trkpt lat="43.45824" lon="4.54643">
        <ele>2.9</ele>
        <time>2022-08-28T14:48:44Z</time>
      </trkpt>
      <trkpt lat="43.45809" lon="4.54719">
        <ele>2.9</ele>
        <time>2022-08-28T14:48:58Z</time>
      </trkpt>
      <trkpt lat="43.458" lon="4.54794">
        <ele>3</ele>
        <time>2022-08-28T14:49:11Z</time>
      </trkpt>
      <trkpt lat="43.45797" lon="4.5487">
        <ele>3</ele>
        <time>2022-08-28T14:49:24Z</time>
      </trkpt>
      <trkpt lat="43.45799" lon="4.54946">
        <ele>3.1</ele>
        <time>2022-08-28T14:49:37Z</time>
      </trkpt>
      <trkpt lat="43.458" lon="4.55023">
        <ele>3.1</ele>
        <time>2022-08-28T14:49:50Z</time>
      </trkpt>
      <trkpt lat="43.45801" lon="4.55098">
        <ele>3.2</ele>
        <time>2022-08-28T14:50:03Z</time>
      </trkpt>
      <trkpt lat="43.45801" lon="4.55149">
        <ele>3.1</ele>
        <time>2022-08-28T14:50:12Z</time>
      </trkpt>
      <trkpt lat="43.45798" lon="4.55223">
        <ele>3</ele>
        <time>2022-08-28T14:50:25Z</time>
      </trkpt>
      <trkpt lat="43.45789" lon="4.55298">
        <ele>2.9</ele>
        <time>2022-08-28T14:50:38Z</time>
      </trkpt>
      <trkpt lat="43.45772" lon="4.55373">
        <ele>2.8</ele>
        <time>2022-08-28T14:50:52Z</time>
      </trkpt>
      <trkpt lat="43.45762" lon="4.55408">
        <ele>2.8</ele>
        <time>2022-08-28T14:50:59Z</time>
      </trkpt>
      <trkpt lat="43.45743" lon="4.55479">
        <ele>2.8</ele>
        <time>2022-08-28T14:51:13Z</time>
      </trkpt>
      <trkpt lat="43.45722" lon="4.55552">
        <ele>2.8</ele>
        <time>2022-08-28T14:51:28Z</time>
      </trkpt>
      <trkpt lat="43.45714" lon="4.55582">
        <ele>2.8</ele>
        <time>2022-08-28T14:51:34Z</time>
      </trkpt>
      <trkpt lat="43.45701" lon="4.55627">
        <ele>2.7</ele>
        <time>2022-08-28T14:51:43Z</time>
      </trkpt>
      <trkpt lat="43.45679" lon="4.557">
        <ele>2.6</ele>
        <time>2022-08-28T14:51:58Z</time>
      </trkpt>
      <trkpt lat="43.45658" lon="4.55773">
        <ele>2.6</ele>
        <time>2022-08-28T14:52:14Z</time>
      </trkpt>
      <trkpt lat="43.45642" lon="4.55831">
        <ele>2.7</ele>
        <time>2022-08-28T14:52:26Z</time>
      </trkpt>
      <trkpt lat="43.45623" lon="4.55903">
        <ele>2.5</ele>
        <time>2022-08-28T14:52:41Z</time>
      </trkpt>
      <trkpt lat="43.45601" lon="4.55977">
        <ele>2.5</ele>
        <time>2022-08-28T14:52:56Z</time>
      </trkpt>
      <trkpt lat="43.4559" lon="4.56016">
        <ele>2.4</ele>
        <time>2022-08-28T14:53:04Z</time>
      </trkpt>
      <trkpt lat="43.45589" lon="4.56022">
        <ele>2.4</ele>
        <time>2022-08-28T14:53:05Z</time>
      </trkpt>
      <trkpt lat="43.45587" lon="4.56027">
        <ele>2.4</ele>
        <time>2022-08-28T14:53:06Z</time>
      </trkpt>
      <trkpt lat="43.45586" lon="4.56032">
        <ele>2.3</ele>
        <time>2022-08-28T14:53:07Z</time>
      </trkpt>
      <trkpt lat="43.45585" lon="4.56037">
        <ele>2.3</ele>
        <time>2022-08-28T14:53:08Z</time>
      </trkpt>
      <trkpt lat="43.45582" lon="4.56047">
        <ele>2.3</ele>
        <time>2022-08-28T14:53:10Z</time>
      </trkpt>
      <trkpt lat="43.45561" lon="4.56119">
        <ele>2.4</ele>
        <time>2022-08-28T14:53:25Z</time>
      </trkpt>
      <trkpt lat="43.45552" lon="4.56151">
        <ele>2.3</ele>
        <time>2022-08-28T14:53:32Z</time>
      </trkpt>
      <trkpt lat="43.45548" lon="4.56167">
        <ele>2.3</ele>
        <time>2022-08-28T14:53:36Z</time>
      </trkpt>
      <trkpt lat="43.45538" lon="4.56205">
        <ele>2.2</ele>
        <time>2022-08-28T14:53:44Z</time>
      </trkpt>
      <trkpt lat="43.45518" lon="4.56275">
        <ele>2.2</ele>
        <time>2022-08-28T14:53:58Z</time>
      </trkpt>
      <trkpt lat="43.45502" lon="4.56339">
        <ele>2.2</ele>
        <time>2022-08-28T14:54:11Z</time>
      </trkpt>
      <trkpt lat="43.45491" lon="4.56415">
        <ele>2.3</ele>
        <time>2022-08-28T14:54:27Z</time>
      </trkpt>
      <trkpt lat="43.45489" lon="4.56436">
        <ele>2.3</ele>
        <time>2022-08-28T14:54:31Z</time>
      </trkpt>
      <trkpt lat="43.45484" lon="4.56511">
        <ele>2.2</ele>
        <time>2022-08-28T14:54:45Z</time>
      </trkpt>
      <trkpt lat="43.45484" lon="4.56543">
        <ele>2.2</ele>
        <time>2022-08-28T14:54:51Z</time>
      </trkpt>
      <trkpt lat="43.45481" lon="4.56617">
        <ele>2.1</ele>
        <time>2022-08-28T14:55:05Z</time>
      </trkpt>
      <trkpt lat="43.45477" lon="4.56694">
        <ele>2.1</ele>
        <time>2022-08-28T14:55:20Z</time>
      </trkpt>
      <trkpt lat="43.45475" lon="4.56773">
        <ele>2.1</ele>
        <time>2022-08-28T14:55:35Z</time>
      </trkpt>
      <trkpt lat="43.45473" lon="4.56805">
        <ele>2</ele>
        <time>2022-08-28T14:55:41Z</time>
      </trkpt>
      <trkpt lat="43.4547" lon="4.56881">
        <ele>1.9</ele>
        <time>2022-08-28T14:55:55Z</time>
      </trkpt>
      <trkpt lat="43.45467" lon="4.56955">
        <ele>1.9</ele>
        <time>2022-08-28T14:56:11Z</time>
      </trkpt>
      <trkpt lat="43.45465" lon="4.57012">
        <ele>2.1</ele>
        <time>2022-08-28T14:56:29Z</time>
      </trkpt>
      <trkpt lat="43.45464" lon="4.57012">
        <ele>2.1</ele>
        <time>2022-08-28T15:07:12Z</time>
      </trkpt>
      <trkpt lat="43.45465" lon="4.57013">
        <ele>2.1</ele>
        <time>2022-08-28T15:07:16Z</time>
      </trkpt>
      <trkpt lat="43.45465" lon="4.57013">
        <ele>2.1</ele>
        <time>2022-08-28T15:07:17Z</time>
      </trkpt>
      <trkpt lat="43.45465" lon="4.57013">
        <ele>2.1</ele>
        <time>2022-08-28T15:07:19Z</time>
      </trkpt>
      <trkpt lat="43.45466" lon="4.57014">
        <ele>2.1</ele>
        <time>2022-08-28T15:07:20Z</time>
      </trkpt>
      <trkpt lat="43.45466" lon="4.57015">
        <ele>2.1</ele>
        <time>2022-08-28T15:07:23Z</time>
      </trkpt>
      <trkpt lat="43.45466" lon="4.57015">
        <ele>2.1</ele>
        <time>2022-08-28T15:07:26Z</time>
      </trkpt>
      <trkpt lat="43.45466" lon="4.57015">
        <ele>2.1</ele>
        <time>2022-08-28T15:07:28Z</time>
      </trkpt>
      <trkpt lat="43.45466" lon="4.57015">
        <ele>2.1</ele>
        <time>2022-08-28T15:07:30Z</time>
      </trkpt>
      <trkpt lat="43.45467" lon="4.57015">
        <ele>2.1</ele>
        <time>2022-08-28T15:07:31Z</time>
      </trkpt>
      <trkpt lat="43.45467" lon="4.57015">
        <ele>2.1</ele>
        <time>2022-08-28T15:07:32Z</time>
      </trkpt>
      <trkpt lat="43.45467" lon="4.57017">
        <ele>2</ele>
        <time>2022-08-28T15:07:35Z</time>
      </trkpt>
      <trkpt lat="43.45466" lon="4.57028">
        <ele>2</ele>
        <time>2022-08-28T15:07:39Z</time>
      </trkpt>
      <trkpt lat="43.45466" lon="4.57047">
        <ele>1.9</ele>
        <time>2022-08-28T15:07:44Z</time>
      </trkpt>
      <trkpt lat="43.45464" lon="4.57068">
        <ele>1.8</ele>
        <time>2022-08-28T15:07:49Z</time>
      </trkpt>
      <trkpt lat="43.45464" lon="4.5708">
        <ele>1.8</ele>
        <time>2022-08-28T15:07:52Z</time>
      </trkpt>
      <trkpt lat="43.45462" lon="4.57099">
        <ele>1.7</ele>
        <time>2022-08-28T15:09:25Z</time>
      </trkpt>
      <trkpt lat="43.45462" lon="4.57099">
        <ele>1.7</ele>
        <time>2022-08-28T15:09:29Z</time>
      </trkpt>
      <trkpt lat="43.45462" lon="4.57101">
        <ele>1.7</ele>
        <time>2022-08-28T15:09:33Z</time>
      </trkpt>
      <trkpt lat="43.45463" lon="4.57108">
        <ele>1.6</ele>
        <time>2022-08-28T15:09:37Z</time>
      </trkpt>
      <trkpt lat="43.45462" lon="4.57118">
        <ele>1.6</ele>
        <time>2022-08-28T15:09:40Z</time>
      </trkpt>
      <trkpt lat="43.45459" lon="4.57192">
        <ele>1.5</ele>
        <time>2022-08-28T15:09:53Z</time>
      </trkpt>
      <trkpt lat="43.45457" lon="4.57231">
        <ele>1.4</ele>
        <time>2022-08-28T15:09:59Z</time>
      </trkpt>
      <trkpt lat="43.45457" lon="4.57238">
        <ele>1.4</ele>
        <time>2022-08-28T15:10:00Z</time>
      </trkpt>
      <trkpt lat="43.45457" lon="4.57245">
        <ele>1.4</ele>
        <time>2022-08-28T15:10:01Z</time>
      </trkpt>
      <trkpt lat="43.45456" lon="4.57252">
        <ele>1.4</ele>
        <time>2022-08-28T15:10:02Z</time>
      </trkpt>
      <trkpt lat="43.45456" lon="4.57259">
        <ele>1.4</ele>
        <time>2022-08-28T15:10:03Z</time>
      </trkpt>
      <trkpt lat="43.45456" lon="4.57266">
        <ele>1.4</ele>
        <time>2022-08-28T15:10:04Z</time>
      </trkpt>
      <trkpt lat="43.45455" lon="4.57273">
        <ele>1.4</ele>
        <time>2022-08-28T15:10:05Z</time>
      </trkpt>
      <trkpt lat="43.45454" lon="4.57287">
        <ele>1.4</ele>
        <time>2022-08-28T15:10:07Z</time>
      </trkpt>
      <trkpt lat="43.45454" lon="4.57294">
        <ele>1.5</ele>
        <time>2022-08-28T15:10:08Z</time>
      </trkpt>
      <trkpt lat="43.45453" lon="4.57301">
        <ele>1.5</ele>
        <time>2022-08-28T15:10:09Z</time>
      </trkpt>
      <trkpt lat="43.45451" lon="4.57378">
        <ele>1.6</ele>
        <time>2022-08-28T15:10:20Z</time>
      </trkpt>
      <trkpt lat="43.45451" lon="4.57396">
        <ele>1.6</ele>
        <time>2022-08-28T15:10:23Z</time>
      </trkpt>
      <trkpt lat="43.4545" lon="4.57406">
        <ele>1.6</ele>
        <time>2022-08-28T15:10:25Z</time>
      </trkpt>
      <trkpt lat="43.4545" lon="4.57416">
        <ele>1.6</ele>
        <time>2022-08-28T15:10:27Z</time>
      </trkpt>
      <trkpt lat="43.4545" lon="4.5742">
        <ele>1.6</ele>
        <time>2022-08-28T15:10:28Z</time>
      </trkpt>
      <trkpt lat="43.45449" lon="4.57433">
        <ele>1.6</ele>
        <time>2022-08-28T15:10:31Z</time>
      </trkpt>
      <trkpt lat="43.45449" lon="4.57445">
        <ele>1.6</ele>
        <time>2022-08-28T15:10:34Z</time>
      </trkpt>
      <trkpt lat="43.45448" lon="4.57453">
        <ele>1.6</ele>
        <time>2022-08-28T15:10:36Z</time>
      </trkpt>
      <trkpt lat="43.45447" lon="4.57487">
        <ele>1.6</ele>
        <time>2022-08-28T15:10:44Z</time>
      </trkpt>
      <trkpt lat="43.45445" lon="4.57523">
        <ele>1.6</ele>
        <time>2022-08-28T15:10:52Z</time>
      </trkpt>
      <trkpt lat="43.45445" lon="4.57537">
        <ele>1.6</ele>
        <time>2022-08-28T15:10:55Z</time>
      </trkpt>
      <trkpt lat="43.45445" lon="4.57542">
        <ele>1.6</ele>
        <time>2022-08-28T15:10:56Z</time>
      </trkpt>
      <trkpt lat="43.45444" lon="4.5757">
        <ele>1.7</ele>
        <time>2022-08-28T15:11:02Z</time>
      </trkpt>
      <trkpt lat="43.45443" lon="4.5758">
        <ele>1.7</ele>
        <time>2022-08-28T15:11:04Z</time>
      </trkpt>
      <trkpt lat="43.45442" lon="4.57602">
        <ele>1.7</ele>
        <time>2022-08-28T15:11:09Z</time>
      </trkpt>
      <trkpt lat="43.45438" lon="4.57678">
        <ele>1.7</ele>
        <time>2022-08-28T15:11:25Z</time>
      </trkpt>
      <trkpt lat="43.45435" lon="4.57754">
        <ele>1.6</ele>
        <time>2022-08-28T15:11:42Z</time>
      </trkpt>
      <trkpt lat="43.45434" lon="4.57791">
        <ele>1.6</ele>
        <time>2022-08-28T15:11:50Z</time>
      </trkpt>
      <trkpt lat="43.45432" lon="4.5783">
        <ele>1.6</ele>
        <time>2022-08-28T15:11:59Z</time>
      </trkpt>
      <trkpt lat="43.4543" lon="4.57874">
        <ele>1.6</ele>
        <time>2022-08-28T15:12:08Z</time>
      </trkpt>
      <trkpt lat="43.45427" lon="4.5793">
        <ele>1.6</ele>
        <time>2022-08-28T15:12:19Z</time>
      </trkpt>
      <trkpt lat="43.45424" lon="4.58007">
        <ele>1.7</ele>
        <time>2022-08-28T15:12:34Z</time>
      </trkpt>
      <trkpt lat="43.4542" lon="4.58086">
        <ele>1.9</ele>
        <time>2022-08-28T15:12:49Z</time>
      </trkpt>
      <trkpt lat="43.45417" lon="4.58159">
        <ele>1.7</ele>
        <time>2022-08-28T15:13:03Z</time>
      </trkpt>
      <trkpt lat="43.45414" lon="4.58236">
        <ele>1.6</ele>
        <time>2022-08-28T15:13:17Z</time>
      </trkpt>
      <trkpt lat="43.45412" lon="4.58312">
        <ele>1.7</ele>
        <time>2022-08-28T15:13:31Z</time>
      </trkpt>
      <trkpt lat="43.45411" lon="4.58344">
        <ele>1.9</ele>
        <time>2022-08-28T15:13:39Z</time>
      </trkpt>
      <trkpt lat="43.45408" lon="4.58421">
        <ele>1.4</ele>
        <time>2022-08-28T15:14:02Z</time>
      </trkpt>
      <trkpt lat="43.45402" lon="4.58499">
        <ele>1.2</ele>
        <time>2022-08-28T15:14:18Z</time>
      </trkpt>
      <trkpt lat="43.45399" lon="4.58531">
        <ele>1.3</ele>
        <time>2022-08-28T15:14:24Z</time>
      </trkpt>
      <trkpt lat="43.45379" lon="4.58603">
        <ele>1.4</ele>
        <time>2022-08-28T15:14:38Z</time>
      </trkpt>
      <trkpt lat="43.4535" lon="4.58669">
        <ele>1.5</ele>
        <time>2022-08-28T15:14:52Z</time>
      </trkpt>
      <trkpt lat="43.45323" lon="4.58729">
        <ele>1.4</ele>
        <time>2022-08-28T15:15:05Z</time>
      </trkpt>
      <trkpt lat="43.45316" lon="4.58743">
        <ele>1.4</ele>
        <time>2022-08-28T15:15:08Z</time>
      </trkpt>
      <trkpt lat="43.4531" lon="4.58758">
        <ele>1.4</ele>
        <time>2022-08-28T15:15:11Z</time>
      </trkpt>
      <trkpt lat="43.45303" lon="4.58772">
        <ele>1.4</ele>
        <time>2022-08-28T15:15:14Z</time>
      </trkpt>
      <trkpt lat="43.45275" lon="4.58837">
        <ele>1.4</ele>
        <time>2022-08-28T15:15:28Z</time>
      </trkpt>
      <trkpt lat="43.45265" lon="4.5886">
        <ele>1.5</ele>
        <time>2022-08-28T15:15:33Z</time>
      </trkpt>
      <trkpt lat="43.45244" lon="4.58905">
        <ele>1.5</ele>
        <time>2022-08-28T15:15:43Z</time>
      </trkpt>
      <trkpt lat="43.45213" lon="4.58971">
        <ele>1.4</ele>
        <time>2022-08-28T15:15:58Z</time>
      </trkpt>
      <trkpt lat="43.45184" lon="4.59037">
        <ele>1.4</ele>
        <time>2022-08-28T15:16:13Z</time>
      </trkpt>
      <trkpt lat="43.45154" lon="4.59103">
        <ele>1.4</ele>
        <time>2022-08-28T15:16:28Z</time>
      </trkpt>
      <trkpt lat="43.45123" lon="4.59168">
        <ele>1.3</ele>
        <time>2022-08-28T15:16:43Z</time>
      </trkpt>
      <trkpt lat="43.45111" lon="4.59195">
        <ele>1.4</ele>
        <time>2022-08-28T15:16:49Z</time>
      </trkpt>
      <trkpt lat="43.45083" lon="4.59261">
        <ele>1.4</ele>
        <time>2022-08-28T15:17:02Z</time>
      </trkpt>
      <trkpt lat="43.45066" lon="4.59299">
        <ele>1.4</ele>
        <time>2022-08-28T15:17:10Z</time>
      </trkpt>
      <trkpt lat="43.45046" lon="4.59346">
        <ele>1.3</ele>
        <time>2022-08-28T15:17:20Z</time>
      </trkpt>
      <trkpt lat="43.45016" lon="4.59408">
        <ele>1.4</ele>
        <time>2022-08-28T15:17:34Z</time>
      </trkpt>
      <trkpt lat="43.44987" lon="4.59475">
        <ele>1.5</ele>
        <time>2022-08-28T15:17:49Z</time>
      </trkpt>
      <trkpt lat="43.44957" lon="4.59543">
        <ele>1.4</ele>
        <time>2022-08-28T15:18:04Z</time>
      </trkpt>
      <trkpt lat="43.44949" lon="4.5956">
        <ele>1.4</ele>
        <time>2022-08-28T15:18:08Z</time>
      </trkpt>
      <trkpt lat="43.44919" lon="4.59626">
        <ele>1.5</ele>
        <time>2022-08-28T15:18:23Z</time>
      </trkpt>
      <trkpt lat="43.44893" lon="4.59684">
        <ele>1.5</ele>
        <time>2022-08-28T15:18:36Z</time>
      </trkpt>
      <trkpt lat="43.44878" lon="4.59716">
        <ele>1.6</ele>
        <time>2022-08-28T15:18:43Z</time>
      </trkpt>
      <trkpt lat="43.44849" lon="4.59783">
        <ele>1.5</ele>
        <time>2022-08-28T15:18:58Z</time>
      </trkpt>
      <trkpt lat="43.44829" lon="4.59827">
        <ele>1.5</ele>
        <time>2022-08-28T15:19:08Z</time>
      </trkpt>
      <trkpt lat="43.44815" lon="4.59858">
        <ele>1.5</ele>
        <time>2022-08-28T15:19:15Z</time>
      </trkpt>
      <trkpt lat="43.44785" lon="4.59925">
        <ele>1.5</ele>
        <time>2022-08-28T15:19:30Z</time>
      </trkpt>
      <trkpt lat="43.44754" lon="4.59988">
        <ele>1.4</ele>
        <time>2022-08-28T15:19:45Z</time>
      </trkpt>
      <trkpt lat="43.44726" lon="4.60053">
        <ele>1.4</ele>
        <time>2022-08-28T15:19:59Z</time>
      </trkpt>
      <trkpt lat="43.44715" lon="4.60078">
        <ele>1.4</ele>
        <time>2022-08-28T15:20:04Z</time>
      </trkpt>
      <trkpt lat="43.44687" lon="4.60143">
        <ele>1.4</ele>
        <time>2022-08-28T15:20:18Z</time>
      </trkpt>
      <trkpt lat="43.4467" lon="4.6018">
        <ele>1.3</ele>
        <time>2022-08-28T15:20:26Z</time>
      </trkpt>
      <trkpt lat="43.4464" lon="4.60247">
        <ele>1.3</ele>
        <time>2022-08-28T15:20:41Z</time>
      </trkpt>
      <trkpt lat="43.4461" lon="4.60313">
        <ele>1.4</ele>
        <time>2022-08-28T15:20:56Z</time>
      </trkpt>
      <trkpt lat="43.44582" lon="4.60377">
        <ele>1.3</ele>
        <time>2022-08-28T15:21:10Z</time>
      </trkpt>
      <trkpt lat="43.44573" lon="4.60394">
        <ele>1.4</ele>
        <time>2022-08-28T15:21:14Z</time>
      </trkpt>
      <trkpt lat="43.44561" lon="4.60424">
        <ele>1.4</ele>
        <time>2022-08-28T15:21:21Z</time>
      </trkpt>
      <trkpt lat="43.44531" lon="4.60489">
        <ele>1.3</ele>
        <time>2022-08-28T15:21:36Z</time>
      </trkpt>
      <trkpt lat="43.44512" lon="4.60529">
        <ele>1.2</ele>
        <time>2022-08-28T15:21:45Z</time>
      </trkpt>
      <trkpt lat="43.44495" lon="4.60566">
        <ele>1.2</ele>
        <time>2022-08-28T15:21:53Z</time>
      </trkpt>
      <trkpt lat="43.44469" lon="4.60626">
        <ele>1.3</ele>
        <time>2022-08-28T15:22:06Z</time>
      </trkpt>
      <trkpt lat="43.44439" lon="4.60693">
        <ele>1.3</ele>
        <time>2022-08-28T15:22:21Z</time>
      </trkpt>
      <trkpt lat="43.4441" lon="4.60757">
        <ele>1.3</ele>
        <time>2022-08-28T15:22:36Z</time>
      </trkpt>
      <trkpt lat="43.44405" lon="4.60771">
        <ele>1.3</ele>
        <time>2022-08-28T15:22:39Z</time>
      </trkpt>
      <trkpt lat="43.44375" lon="4.60835">
        <ele>1.4</ele>
        <time>2022-08-28T15:22:54Z</time>
      </trkpt>
      <trkpt lat="43.44349" lon="4.60895">
        <ele>1.4</ele>
        <time>2022-08-28T15:23:08Z</time>
      </trkpt>
      <trkpt lat="43.44329" lon="4.60941">
        <ele>1.4</ele>
        <time>2022-08-28T15:23:18Z</time>
      </trkpt>
      <trkpt lat="43.44297" lon="4.61005">
        <ele>1.3</ele>
        <time>2022-08-28T15:23:31Z</time>
      </trkpt>
      <trkpt lat="43.44284" lon="4.61033">
        <ele>1.2</ele>
        <time>2022-08-28T15:23:37Z</time>
      </trkpt>
      <trkpt lat="43.44253" lon="4.61078">
        <ele>1.3</ele>
        <time>2022-08-28T15:23:49Z</time>
      </trkpt>
      <trkpt lat="43.44212" lon="4.61128">
        <ele>1.3</ele>
        <time>2022-08-28T15:24:04Z</time>
      </trkpt>
      <trkpt lat="43.44171" lon="4.6117">
        <ele>1.2</ele>
        <time>2022-08-28T15:24:17Z</time>
      </trkpt>
      <trkpt lat="43.44122" lon="4.6121">
        <ele>1.1</ele>
        <time>2022-08-28T15:24:32Z</time>
      </trkpt>
      <trkpt lat="43.44074" lon="4.61249">
        <ele>1.1</ele>
        <time>2022-08-28T15:24:47Z</time>
      </trkpt>
      <trkpt lat="43.44025" lon="4.61288">
        <ele>1.1</ele>
        <time>2022-08-28T15:25:02Z</time>
      </trkpt>
      <trkpt lat="43.4398" lon="4.61326">
        <ele>1.2</ele>
        <time>2022-08-28T15:25:16Z</time>
      </trkpt>
      <trkpt lat="43.43976" lon="4.61399">
        <ele>1.4</ele>
        <time>2022-08-28T15:25:32Z</time>
      </trkpt>
      <trkpt lat="43.43978" lon="4.61474">
        <ele>1.4</ele>
        <time>2022-08-28T15:25:49Z</time>
      </trkpt>
      <trkpt lat="43.43977" lon="4.61484">
        <ele>1.4</ele>
        <time>2022-08-28T15:25:52Z</time>
      </trkpt>
      <trkpt lat="43.43959" lon="4.61488">
        <ele>1.2</ele>
        <time>2022-08-28T15:26:05Z</time>
      </trkpt>
      <trkpt lat="43.43958" lon="4.61488">
        <ele>1.2</ele>
        <time>2022-08-28T15:26:09Z</time>
      </trkpt>
      <trkpt lat="43.43956" lon="4.61486">
        <ele>1.2</ele>
        <time>2022-08-28T15:26:17Z</time>
      </trkpt>
      <trkpt lat="43.43948" lon="4.61483">
        <ele>1.1</ele>
        <time>2022-08-28T15:26:21Z</time>
      </trkpt>
      <trkpt lat="43.43927" lon="4.61479">
        <ele>0.9</ele>
        <time>2022-08-28T15:26:27Z</time>
      </trkpt>
      <trkpt lat="43.43915" lon="4.61479">
        <ele>0.8</ele>
        <time>2022-08-28T15:26:31Z</time>
      </trkpt>
      <trkpt lat="43.43907" lon="4.61477">
        <ele>0.8</ele>
        <time>2022-08-28T15:26:34Z</time>
      </trkpt>
      <trkpt lat="43.43898" lon="4.61476">
        <ele>0.7</ele>
        <time>2022-08-28T15:26:37Z</time>
      </trkpt>
      <trkpt lat="43.43888" lon="4.61475">
        <ele>0.7</ele>
        <time>2022-08-28T15:26:40Z</time>
      </trkpt>
      <trkpt lat="43.43878" lon="4.61473">
        <ele>0.8</ele>
        <time>2022-08-28T15:26:43Z</time>
      </trkpt>
      <trkpt lat="43.43875" lon="4.61473">
        <ele>0.8</ele>
        <time>2022-08-28T15:26:44Z</time>
      </trkpt>
      <trkpt lat="43.43859" lon="4.6147">
        <ele>0.9</ele>
        <time>2022-08-28T15:26:49Z</time>
      </trkpt>
      <trkpt lat="43.43852" lon="4.6147">
        <ele>0.9</ele>
        <time>2022-08-28T15:26:51Z</time>
      </trkpt>
      <trkpt lat="43.43845" lon="4.61468">
        <ele>0.9</ele>
        <time>2022-08-28T15:26:53Z</time>
      </trkpt>
      <trkpt lat="43.43835" lon="4.61465">
        <ele>1</ele>
        <time>2022-08-28T15:26:56Z</time>
      </trkpt>
      <trkpt lat="43.43825" lon="4.61463">
        <ele>1</ele>
        <time>2022-08-28T15:26:59Z</time>
      </trkpt>
      <trkpt lat="43.43815" lon="4.61464">
        <ele>1</ele>
        <time>2022-08-28T15:27:02Z</time>
      </trkpt>
      <trkpt lat="43.43809" lon="4.61466">
        <ele>1</ele>
        <time>2022-08-28T15:27:04Z</time>
      </trkpt>
      <trkpt lat="43.4379" lon="4.61482">
        <ele>0.9</ele>
        <time>2022-08-28T15:27:10Z</time>
      </trkpt>
      <trkpt lat="43.43787" lon="4.61484">
        <ele>0.9</ele>
        <time>2022-08-28T15:27:11Z</time>
      </trkpt>
      <trkpt lat="43.43774" lon="4.61494">
        <ele>0.8</ele>
        <time>2022-08-28T15:27:15Z</time>
      </trkpt>
      <trkpt lat="43.43726" lon="4.61533">
        <ele>0.5</ele>
        <time>2022-08-28T15:27:29Z</time>
      </trkpt>
      <trkpt lat="43.43708" lon="4.61547">
        <ele>0.4</ele>
        <time>2022-08-28T15:27:34Z</time>
      </trkpt>
      <trkpt lat="43.4366" lon="4.6158">
        <ele>0.4</ele>
        <time>2022-08-28T15:27:48Z</time>
      </trkpt>
      <trkpt lat="43.43606" lon="4.6159">
        <ele>0.4</ele>
        <time>2022-08-28T15:28:02Z</time>
      </trkpt>
      <trkpt lat="43.4355" lon="4.61595">
        <ele>0.5</ele>
        <time>2022-08-28T15:28:18Z</time>
      </trkpt>
      <trkpt lat="43.43496" lon="4.61596">
        <ele>0.4</ele>
        <time>2022-08-28T15:28:33Z</time>
      </trkpt>
      <trkpt lat="43.43441" lon="4.61596">
        <ele>0.4</ele>
        <time>2022-08-28T15:28:47Z</time>
      </trkpt>
      <trkpt lat="43.43417" lon="4.61596">
        <ele>0.3</ele>
        <time>2022-08-28T15:28:53Z</time>
      </trkpt>
      <trkpt lat="43.43369" lon="4.61591">
        <ele>0.3</ele>
        <time>2022-08-28T15:29:05Z</time>
      </trkpt>
      <trkpt lat="43.43314" lon="4.61588">
        <ele>0.4</ele>
        <time>2022-08-28T15:29:18Z</time>
      </trkpt>
      <trkpt lat="43.43265" lon="4.61585">
        <ele>0.2</ele>
        <time>2022-08-28T15:29:30Z</time>
      </trkpt>
      <trkpt lat="43.43234" lon="4.61583">
        <ele>0.1</ele>
        <time>2022-08-28T15:29:38Z</time>
      </trkpt>
      <trkpt lat="43.43217" lon="4.61582">
        <ele>0.1</ele>
        <time>2022-08-28T15:29:42Z</time>
      </trkpt>
      <trkpt lat="43.43189" lon="4.6158">
        <ele>0.1</ele>
        <time>2022-08-28T15:29:49Z</time>
      </trkpt>
      <trkpt lat="43.43135" lon="4.61576">
        <ele>0.1</ele>
        <time>2022-08-28T15:30:03Z</time>
      </trkpt>
      <trkpt lat="43.43086" lon="4.6158">
        <ele>0.2</ele>
        <time>2022-08-28T15:30:16Z</time>
      </trkpt>
      <trkpt lat="43.43069" lon="4.61593">
        <ele>0.1</ele>
        <time>2022-08-28T15:30:21Z</time>
      </trkpt>
      <trkpt lat="43.43035" lon="4.61651">
        <ele>0.4</ele>
        <time>2022-08-28T15:30:35Z</time>
      </trkpt>
      <trkpt lat="43.43004" lon="4.61714">
        <ele>0.3</ele>
        <time>2022-08-28T15:30:50Z</time>
      </trkpt>
      <trkpt lat="43.42985" lon="4.61752">
        <ele>0.3</ele>
        <time>2022-08-28T15:30:58Z</time>
      </trkpt>
      <trkpt lat="43.42982" lon="4.61758">
        <ele>0.3</ele>
        <time>2022-08-28T15:30:59Z</time>
      </trkpt>
      <trkpt lat="43.4298" lon="4.61763">
        <ele>0.3</ele>
        <time>2022-08-28T15:31:00Z</time>
      </trkpt>
      <trkpt lat="43.42958" lon="4.61811">
        <ele>0.3</ele>
        <time>2022-08-28T15:31:09Z</time>
      </trkpt>
      <trkpt lat="43.42934" lon="4.61868">
        <ele>0.2</ele>
        <time>2022-08-28T15:31:20Z</time>
      </trkpt>
      <trkpt lat="43.42915" lon="4.61907">
        <ele>0.2</ele>
        <time>2022-08-28T15:31:28Z</time>
      </trkpt>
      <trkpt lat="43.42913" lon="4.61911">
        <ele>0.2</ele>
        <time>2022-08-28T15:31:29Z</time>
      </trkpt>
      <trkpt lat="43.42899" lon="4.61924">
        <ele>0.2</ele>
        <time>2022-08-28T15:31:33Z</time>
      </trkpt>
      <trkpt lat="43.42846" lon="4.61954">
        <ele>0.2</ele>
        <time>2022-08-28T15:31:48Z</time>
      </trkpt>
      <trkpt lat="43.42835" lon="4.6196">
        <ele>0.2</ele>
        <time>2022-08-28T15:31:51Z</time>
      </trkpt>
      <trkpt lat="43.42827" lon="4.61964">
        <ele>0.2</ele>
        <time>2022-08-28T15:31:53Z</time>
      </trkpt>
      <trkpt lat="43.42772" lon="4.61964">
        <ele>0.4</ele>
        <time>2022-08-28T15:32:07Z</time>
      </trkpt>
      <trkpt lat="43.42765" lon="4.6196">
        <ele>0.4</ele>
        <time>2022-08-28T15:32:09Z</time>
      </trkpt>
      <trkpt lat="43.42719" lon="4.61925">
        <ele>0.6</ele>
        <time>2022-08-28T15:32:23Z</time>
      </trkpt>
      <trkpt lat="43.42671" lon="4.61886">
        <ele>0.7</ele>
        <time>2022-08-28T15:32:38Z</time>
      </trkpt>
      <trkpt lat="43.42647" lon="4.61869">
        <ele>0.7</ele>
        <time>2022-08-28T15:32:45Z</time>
      </trkpt>
      <trkpt lat="43.42592" lon="4.61861">
        <ele>0.6</ele>
        <time>2022-08-28T15:32:59Z</time>
      </trkpt>
      <trkpt lat="43.42537" lon="4.61865">
        <ele>0.5</ele>
        <time>2022-08-28T15:33:13Z</time>
      </trkpt>
      <trkpt lat="43.42483" lon="4.61871">
        <ele>0.6</ele>
        <time>2022-08-28T15:33:27Z</time>
      </trkpt>
      <trkpt lat="43.42428" lon="4.61877">
        <ele>0.7</ele>
        <time>2022-08-28T15:33:41Z</time>
      </trkpt>
      <trkpt lat="43.42403" lon="4.61879">
        <ele>0.8</ele>
        <time>2022-08-28T15:33:48Z</time>
      </trkpt>
      <trkpt lat="43.42365" lon="4.6188">
        <ele>0.9</ele>
        <time>2022-08-28T15:33:58Z</time>
      </trkpt>
      <trkpt lat="43.42308" lon="4.6188">
        <ele>0.9</ele>
        <time>2022-08-28T15:34:13Z</time>
      </trkpt>
      <trkpt lat="43.42253" lon="4.6188">
        <ele>0.6</ele>
        <time>2022-08-28T15:34:27Z</time>
      </trkpt>
      <trkpt lat="43.42212" lon="4.61878">
        <ele>0.7</ele>
        <time>2022-08-28T15:34:38Z</time>
      </trkpt>
      <trkpt lat="43.42155" lon="4.61874">
        <ele>0.7</ele>
        <time>2022-08-28T15:34:54Z</time>
      </trkpt>
      <trkpt lat="43.42126" lon="4.61873">
        <ele>0.6</ele>
        <time>2022-08-28T15:35:02Z</time>
      </trkpt>
      <trkpt lat="43.42122" lon="4.61873">
        <ele>0.6</ele>
        <time>2022-08-28T15:35:03Z</time>
      </trkpt>
      <trkpt lat="43.42119" lon="4.61873">
        <ele>0.6</ele>
        <time>2022-08-28T15:35:04Z</time>
      </trkpt>
      <trkpt lat="43.42115" lon="4.61873">
        <ele>0.6</ele>
        <time>2022-08-28T15:35:05Z</time>
      </trkpt>
      <trkpt lat="43.42112" lon="4.61874">
        <ele>0.6</ele>
        <time>2022-08-28T15:35:06Z</time>
      </trkpt>
      <trkpt lat="43.42108" lon="4.61874">
        <ele>0.6</ele>
        <time>2022-08-28T15:35:07Z</time>
      </trkpt>
      <trkpt lat="43.42094" lon="4.61875">
        <ele>0.6</ele>
        <time>2022-08-28T15:35:11Z</time>
      </trkpt>
      <trkpt lat="43.42068" lon="4.6188">
        <ele>0.4</ele>
        <time>2022-08-28T15:35:18Z</time>
      </trkpt>
      <trkpt lat="43.42057" lon="4.61883">
        <ele>0.3</ele>
        <time>2022-08-28T15:35:21Z</time>
      </trkpt>
      <trkpt lat="43.42032" lon="4.61893">
        <ele>0.4</ele>
        <time>2022-08-28T15:35:29Z</time>
      </trkpt>
      <trkpt lat="43.42022" lon="4.61897">
        <ele>0.4</ele>
        <time>2022-08-28T15:35:32Z</time>
      </trkpt>
      <trkpt lat="43.42016" lon="4.61901">
        <ele>0.4</ele>
        <time>2022-08-28T15:35:34Z</time>
      </trkpt>
      <trkpt lat="43.42005" lon="4.61905">
        <ele>0.4</ele>
        <time>2022-08-28T15:35:37Z</time>
      </trkpt>
      <trkpt lat="43.41991" lon="4.61912">
        <ele>0.4</ele>
        <time>2022-08-28T15:35:41Z</time>
      </trkpt>
      <trkpt lat="43.41965" lon="4.61927">
        <ele>0.3</ele>
        <time>2022-08-28T15:35:49Z</time>
      </trkpt>
      <trkpt lat="43.41946" lon="4.61941">
        <ele>0.2</ele>
        <time>2022-08-28T15:35:55Z</time>
      </trkpt>
      <trkpt lat="43.41926" lon="4.61959">
        <ele>0.1</ele>
        <time>2022-08-28T15:36:02Z</time>
      </trkpt>
      <trkpt lat="43.41892" lon="4.62008">
        <ele>0.1</ele>
        <time>2022-08-28T15:36:15Z</time>
      </trkpt>
      <trkpt lat="43.41864" lon="4.62073">
        <ele>0.3</ele>
        <time>2022-08-28T15:36:31Z</time>
      </trkpt>
      <trkpt lat="43.4184" lon="4.62142">
        <ele>0.6</ele>
        <time>2022-08-28T15:36:52Z</time>
      </trkpt>
      <trkpt lat="43.41823" lon="4.62181">
        <ele>0.7</ele>
        <time>2022-08-28T15:37:06Z</time>
      </trkpt>
      <trkpt lat="43.41809" lon="4.62235">
        <ele>0.4</ele>
        <time>2022-08-28T15:37:26Z</time>
      </trkpt>
      <trkpt lat="43.41797" lon="4.62272">
        <ele>0.4</ele>
        <time>2022-08-28T15:37:40Z</time>
      </trkpt>
      <trkpt lat="43.4177" lon="4.62337">
        <ele>0.3</ele>
        <time>2022-08-28T15:38:00Z</time>
      </trkpt>
      <trkpt lat="43.41763" lon="4.62356">
        <ele>0.4</ele>
        <time>2022-08-28T15:38:05Z</time>
      </trkpt>
      <trkpt lat="43.41749" lon="4.62391">
        <ele>0.4</ele>
        <time>2022-08-28T15:38:14Z</time>
      </trkpt>
      <trkpt lat="43.41741" lon="4.62409">
        <ele>0.4</ele>
        <time>2022-08-28T15:38:20Z</time>
      </trkpt>
      <trkpt lat="43.41716" lon="4.62463">
        <ele>0.5</ele>
        <time>2022-08-28T15:38:36Z</time>
      </trkpt>
      <trkpt lat="43.41702" lon="4.62494">
        <ele>0.5</ele>
        <time>2022-08-28T15:38:45Z</time>
      </trkpt>
      <trkpt lat="43.41669" lon="4.62557">
        <ele>0.6</ele>
        <time>2022-08-28T15:39:04Z</time>
      </trkpt>
      <trkpt lat="43.41641" lon="4.62624">
        <ele>0.7</ele>
        <time>2022-08-28T15:39:23Z</time>
      </trkpt>
      <trkpt lat="43.41613" lon="4.62688">
        <ele>0.6</ele>
        <time>2022-08-28T15:39:40Z</time>
      </trkpt>
      <trkpt lat="43.41599" lon="4.62721">
        <ele>0.7</ele>
        <time>2022-08-28T15:39:49Z</time>
      </trkpt>
      <trkpt lat="43.41589" lon="4.62743">
        <ele>0.7</ele>
        <time>2022-08-28T15:39:55Z</time>
      </trkpt>
      <trkpt lat="43.41561" lon="4.62809">
        <ele>0.8</ele>
        <time>2022-08-28T15:40:11Z</time>
      </trkpt>
      <trkpt lat="43.41539" lon="4.62877">
        <ele>1.1</ele>
        <time>2022-08-28T15:40:27Z</time>
      </trkpt>
      <trkpt lat="43.41526" lon="4.62926">
        <ele>1</ele>
        <time>2022-08-28T15:40:38Z</time>
      </trkpt>
      <trkpt lat="43.41506" lon="4.62999">
        <ele>0.9</ele>
        <time>2022-08-28T15:40:52Z</time>
      </trkpt>
      <trkpt lat="43.41486" lon="4.63073">
        <ele>0.8</ele>
        <time>2022-08-28T15:41:05Z</time>
      </trkpt>
      <trkpt lat="43.41467" lon="4.63146">
        <ele>1</ele>
        <time>2022-08-28T15:41:18Z</time>
      </trkpt>
      <trkpt lat="43.41448" lon="4.63218">
        <ele>1.1</ele>
        <time>2022-08-28T15:41:34Z</time>
      </trkpt>
      <trkpt lat="43.41429" lon="4.6329">
        <ele>1.1</ele>
        <time>2022-08-28T15:41:50Z</time>
      </trkpt>
      <trkpt lat="43.41418" lon="4.63331">
        <ele>1.1</ele>
        <time>2022-08-28T15:41:59Z</time>
      </trkpt>
      <trkpt lat="43.41406" lon="4.63377">
        <ele>1.3</ele>
        <time>2022-08-28T15:42:09Z</time>
      </trkpt>
      <trkpt lat="43.41395" lon="4.63444">
        <ele>1.2</ele>
        <time>2022-08-28T15:42:23Z</time>
      </trkpt>
      <trkpt lat="43.41392" lon="4.63464">
        <ele>1.2</ele>
        <time>2022-08-28T15:42:27Z</time>
      </trkpt>
      <trkpt lat="43.4139" lon="4.63482">
        <ele>1.1</ele>
        <time>2022-08-28T15:42:31Z</time>
      </trkpt>
      <trkpt lat="43.41378" lon="4.63558">
        <ele>1.2</ele>
        <time>2022-08-28T15:42:49Z</time>
      </trkpt>
      <trkpt lat="43.41376" lon="4.63571">
        <ele>1.2</ele>
        <time>2022-08-28T15:42:52Z</time>
      </trkpt>
      <trkpt lat="43.41367" lon="4.63644">
        <ele>1.4</ele>
        <time>2022-08-28T15:43:07Z</time>
      </trkpt>
      <trkpt lat="43.4136" lon="4.63698">
        <ele>1.3</ele>
        <time>2022-08-28T15:43:19Z</time>
      </trkpt>
      <trkpt lat="43.41353" lon="4.63748">
        <ele>1.3</ele>
        <time>2022-08-28T15:43:29Z</time>
      </trkpt>
      <trkpt lat="43.41344" lon="4.63823">
        <ele>1.4</ele>
        <time>2022-08-28T15:43:44Z</time>
      </trkpt>
      <trkpt lat="43.41339" lon="4.63862">
        <ele>1.4</ele>
        <time>2022-08-28T15:43:52Z</time>
      </trkpt>
      <trkpt lat="43.41329" lon="4.63935">
        <ele>1.4</ele>
        <time>2022-08-28T15:44:07Z</time>
      </trkpt>
      <trkpt lat="43.41324" lon="4.63958">
        <ele>1.3</ele>
        <time>2022-08-28T15:44:12Z</time>
      </trkpt>
      <trkpt lat="43.41317" lon="4.63986">
        <ele>1.3</ele>
        <time>2022-08-28T15:44:18Z</time>
      </trkpt>
      <trkpt lat="43.41301" lon="4.64061">
        <ele>0.9</ele>
        <time>2022-08-28T15:44:34Z</time>
      </trkpt>
      <trkpt lat="43.41285" lon="4.64135">
        <ele>1</ele>
        <time>2022-08-28T15:44:49Z</time>
      </trkpt>
      <trkpt lat="43.4127" lon="4.64209">
        <ele>1</ele>
        <time>2022-08-28T15:45:04Z</time>
      </trkpt>
      <trkpt lat="43.41263" lon="4.64236">
        <ele>1</ele>
        <time>2022-08-28T15:45:10Z</time>
      </trkpt>
      <trkpt lat="43.41259" lon="4.64257">
        <ele>1</ele>
        <time>2022-08-28T15:45:15Z</time>
      </trkpt>
      <trkpt lat="43.41242" lon="4.64332">
        <ele>0.9</ele>
        <time>2022-08-28T15:45:32Z</time>
      </trkpt>
      <trkpt lat="43.4123" lon="4.64384">
        <ele>0.9</ele>
        <time>2022-08-28T15:45:42Z</time>
      </trkpt>
      <trkpt lat="43.4122" lon="4.64434">
        <ele>0.9</ele>
        <time>2022-08-28T15:45:54Z</time>
      </trkpt>
      <trkpt lat="43.41204" lon="4.64508">
        <ele>0.8</ele>
        <time>2022-08-28T15:46:09Z</time>
      </trkpt>
      <trkpt lat="43.41187" lon="4.64582">
        <ele>0.9</ele>
        <time>2022-08-28T15:46:26Z</time>
      </trkpt>
      <trkpt lat="43.41175" lon="4.64656">
        <ele>0.9</ele>
        <time>2022-08-28T15:46:42Z</time>
      </trkpt>
      <trkpt lat="43.41164" lon="4.64685">
        <ele>0.9</ele>
        <time>2022-08-28T15:46:49Z</time>
      </trkpt>
      <trkpt lat="43.41145" lon="4.64748">
        <ele>0.9</ele>
        <time>2022-08-28T15:47:03Z</time>
      </trkpt>
      <trkpt lat="43.41123" lon="4.64819">
        <ele>1</ele>
        <time>2022-08-28T15:47:18Z</time>
      </trkpt>
      <trkpt lat="43.41115" lon="4.64848">
        <ele>1</ele>
        <time>2022-08-28T15:47:24Z</time>
      </trkpt>
      <trkpt lat="43.41112" lon="4.64858">
        <ele>1</ele>
        <time>2022-08-28T15:47:26Z</time>
      </trkpt>
      <trkpt lat="43.41109" lon="4.64868">
        <ele>1</ele>
        <time>2022-08-28T15:47:28Z</time>
      </trkpt>
      <trkpt lat="43.41107" lon="4.64878">
        <ele>1</ele>
        <time>2022-08-28T15:47:30Z</time>
      </trkpt>
      <trkpt lat="43.41102" lon="4.64894">
        <ele>1</ele>
        <time>2022-08-28T15:47:33Z</time>
      </trkpt>
      <trkpt lat="43.41086" lon="4.64948">
        <ele>1</ele>
        <time>2022-08-28T15:47:44Z</time>
      </trkpt>
      <trkpt lat="43.41066" lon="4.65017">
        <ele>1.1</ele>
        <time>2022-08-28T15:47:58Z</time>
      </trkpt>
      <trkpt lat="43.41059" lon="4.65042">
        <ele>1</ele>
        <time>2022-08-28T15:48:03Z</time>
      </trkpt>
      <trkpt lat="43.41039" lon="4.65105">
        <ele>1</ele>
        <time>2022-08-28T15:48:16Z</time>
      </trkpt>
      <trkpt lat="43.41019" lon="4.65175">
        <ele>1</ele>
        <time>2022-08-28T15:48:30Z</time>
      </trkpt>
      <trkpt lat="43.41012" lon="4.652">
        <ele>1.1</ele>
        <time>2022-08-28T15:48:35Z</time>
      </trkpt>
      <trkpt lat="43.41005" lon="4.65225">
        <ele>1.1</ele>
        <time>2022-08-28T15:48:40Z</time>
      </trkpt>
      <trkpt lat="43.40991" lon="4.65276">
        <ele>1.1</ele>
        <time>2022-08-28T15:48:50Z</time>
      </trkpt>
      <trkpt lat="43.40987" lon="4.65292">
        <ele>1</ele>
        <time>2022-08-28T15:48:53Z</time>
      </trkpt>
      <trkpt lat="43.40968" lon="4.65362">
        <ele>1</ele>
        <time>2022-08-28T15:49:07Z</time>
      </trkpt>
      <trkpt lat="43.40948" lon="4.65435">
        <ele>1</ele>
        <time>2022-08-28T15:49:22Z</time>
      </trkpt>
      <trkpt lat="43.40928" lon="4.65507">
        <ele>0.9</ele>
        <time>2022-08-28T15:49:37Z</time>
      </trkpt>
      <trkpt lat="43.40921" lon="4.65532">
        <ele>0.9</ele>
        <time>2022-08-28T15:49:42Z</time>
      </trkpt>
      <trkpt lat="43.40919" lon="4.65537">
        <ele>0.9</ele>
        <time>2022-08-28T15:49:43Z</time>
      </trkpt>
      <trkpt lat="43.40909" lon="4.65573">
        <ele>0.9</ele>
        <time>2022-08-28T15:49:50Z</time>
      </trkpt>
      <trkpt lat="43.40891" lon="4.65638">
        <ele>1</ele>
        <time>2022-08-28T15:50:03Z</time>
      </trkpt>
      <trkpt lat="43.4088" lon="4.65679">
        <ele>1</ele>
        <time>2022-08-28T15:50:11Z</time>
      </trkpt>
      <trkpt lat="43.40868" lon="4.65721">
        <ele>1</ele>
        <time>2022-08-28T15:50:19Z</time>
      </trkpt>
      <trkpt lat="43.40854" lon="4.65773">
        <ele>1</ele>
        <time>2022-08-28T15:50:30Z</time>
      </trkpt>
      <trkpt lat="43.40837" lon="4.65844">
        <ele>0.9</ele>
        <time>2022-08-28T15:50:50Z</time>
      </trkpt>
      <trkpt lat="43.40813" lon="4.65913">
        <ele>0.3</ele>
        <time>2022-08-28T15:51:10Z</time>
      </trkpt>
      <trkpt lat="43.40788" lon="4.65969">
        <ele>1</ele>
        <time>2022-08-28T15:51:23Z</time>
      </trkpt>
      <trkpt lat="43.40766" lon="4.66015">
        <ele>0.1</ele>
        <time>2022-08-28T15:51:32Z</time>
      </trkpt>
      <trkpt lat="43.40747" lon="4.66053">
        <ele>0.2</ele>
        <time>2022-08-28T15:51:40Z</time>
      </trkpt>
      <trkpt lat="43.40735" lon="4.66077">
        <ele>0.2</ele>
        <time>2022-08-28T15:51:45Z</time>
      </trkpt>
      <trkpt lat="43.40705" lon="4.66141">
        <ele>0.2</ele>
        <time>2022-08-28T15:51:59Z</time>
      </trkpt>
      <trkpt lat="43.40697" lon="4.6616">
        <ele>0.1</ele>
        <time>2022-08-28T15:52:03Z</time>
      </trkpt>
      <trkpt lat="43.40666" lon="4.66225">
        <ele>0.7</ele>
        <time>2022-08-28T15:52:18Z</time>
      </trkpt>
      <trkpt lat="43.40635" lon="4.66289">
        <ele>0.4</ele>
        <time>2022-08-28T15:52:33Z</time>
      </trkpt>
      <trkpt lat="43.40624" lon="4.66314">
        <ele>0.4</ele>
        <time>2022-08-28T15:52:38Z</time>
      </trkpt>
      <trkpt lat="43.40606" lon="4.66351">
        <ele>0.3</ele>
        <time>2022-08-28T15:52:46Z</time>
      </trkpt>
      <trkpt lat="43.40577" lon="4.66416">
        <ele>0.1</ele>
        <time>2022-08-28T15:53:03Z</time>
      </trkpt>
      <trkpt lat="43.40557" lon="4.66458">
        <ele>0.2</ele>
        <time>2022-08-28T15:53:18Z</time>
      </trkpt>
      <trkpt lat="43.40542" lon="4.66495">
        <ele>0.1</ele>
        <time>2022-08-28T15:53:27Z</time>
      </trkpt>
      <trkpt lat="43.40535" lon="4.66508">
        <ele>0.1</ele>
        <time>2022-08-28T15:53:30Z</time>
      </trkpt>
      <trkpt lat="43.40529" lon="4.66521">
        <ele>0.2</ele>
        <time>2022-08-28T15:53:33Z</time>
      </trkpt>
      <trkpt lat="43.40523" lon="4.66536">
        <ele>0.2</ele>
        <time>2022-08-28T15:53:36Z</time>
      </trkpt>
      <trkpt lat="43.40494" lon="4.66599">
        <ele>0.1</ele>
        <time>2022-08-28T15:53:49Z</time>
      </trkpt>
      <trkpt lat="43.40465" lon="4.66662">
        <ele>-0.1</ele>
        <time>2022-08-28T15:54:03Z</time>
      </trkpt>
      <trkpt lat="43.40458" lon="4.66677">
        <ele>-0.1</ele>
        <time>2022-08-28T15:54:06Z</time>
      </trkpt>
      <trkpt lat="43.4044" lon="4.6672">
        <ele>-0.2</ele>
        <time>2022-08-28T15:54:15Z</time>
      </trkpt>
      <trkpt lat="43.40438" lon="4.66725">
        <ele>-0.2</ele>
        <time>2022-08-28T15:54:16Z</time>
      </trkpt>
      <trkpt lat="43.40435" lon="4.6673">
        <ele>-0.2</ele>
        <time>2022-08-28T15:54:17Z</time>
      </trkpt>
      <trkpt lat="43.40433" lon="4.66734">
        <ele>-0.1</ele>
        <time>2022-08-28T15:54:18Z</time>
      </trkpt>
      <trkpt lat="43.40403" lon="4.66802">
        <ele>1</ele>
        <time>2022-08-28T15:54:32Z</time>
      </trkpt>
      <trkpt lat="43.40396" lon="4.66817">
        <ele>1</ele>
        <time>2022-08-28T15:54:35Z</time>
      </trkpt>
      <trkpt lat="43.40386" lon="4.66836">
        <ele>-0.1</ele>
        <time>2022-08-28T15:54:39Z</time>
      </trkpt>
      <trkpt lat="43.40375" lon="4.66853">
        <ele>-0.1</ele>
        <time>2022-08-28T15:54:43Z</time>
      </trkpt>
      <trkpt lat="43.40342" lon="4.66892">
        <ele>-0.1</ele>
        <time>2022-08-28T15:54:54Z</time>
      </trkpt>
      <trkpt lat="43.40327" lon="4.66907">
        <ele>0.1</ele>
        <time>2022-08-28T15:54:59Z</time>
      </trkpt>
      <trkpt lat="43.40301" lon="4.66941">
        <ele>0.5</ele>
        <time>2022-08-28T15:55:14Z</time>
      </trkpt>
      <trkpt lat="43.403" lon="4.66949">
        <ele>0.5</ele>
        <time>2022-08-28T15:55:18Z</time>
      </trkpt>
      <trkpt lat="43.403" lon="4.66951">
        <ele>0.5</ele>
        <time>2022-08-28T15:55:19Z</time>
      </trkpt>
      <trkpt lat="43.403" lon="4.66953">
        <ele>0.5</ele>
        <time>2022-08-28T15:55:20Z</time>
      </trkpt>
      <trkpt lat="43.40302" lon="4.66958">
        <ele>0.5</ele>
        <time>2022-08-28T15:55:22Z</time>
      </trkpt>
      <trkpt lat="43.40303" lon="4.66961">
        <ele>0.5</ele>
        <time>2022-08-28T15:55:23Z</time>
      </trkpt>
      <trkpt lat="43.40307" lon="4.66966">
        <ele>0.5</ele>
        <time>2022-08-28T15:55:25Z</time>
      </trkpt>
      <trkpt lat="43.40308" lon="4.6697">
        <ele>0.5</ele>
        <time>2022-08-28T15:55:26Z</time>
      </trkpt>
      <trkpt lat="43.40312" lon="4.66976">
        <ele>0.5</ele>
        <time>2022-08-28T15:55:28Z</time>
      </trkpt>
      <trkpt lat="43.40315" lon="4.66983">
        <ele>0.5</ele>
        <time>2022-08-28T15:55:30Z</time>
      </trkpt>
      <trkpt lat="43.40324" lon="4.67002">
        <ele>0.3</ele>
        <time>2022-08-28T15:55:35Z</time>
      </trkpt>
      <trkpt lat="43.40326" lon="4.67006">
        <ele>0.3</ele>
        <time>2022-08-28T15:55:36Z</time>
      </trkpt>
      <trkpt lat="43.40358" lon="4.67064">
        <ele>0.1</ele>
        <time>2022-08-28T15:55:49Z</time>
      </trkpt>
      <trkpt lat="43.40364" lon="4.6708">
        <ele>0.1</ele>
        <time>2022-08-28T15:55:52Z</time>
      </trkpt>
      <trkpt lat="43.40399" lon="4.67143">
        <ele>0.2</ele>
        <time>2022-08-28T15:56:05Z</time>
      </trkpt>
      <trkpt lat="43.40433" lon="4.67207">
        <ele>0.3</ele>
        <time>2022-08-28T15:56:18Z</time>
      </trkpt>
      <trkpt lat="43.40445" lon="4.6723">
        <ele>0.3</ele>
        <time>2022-08-28T15:56:23Z</time>
      </trkpt>
      <trkpt lat="43.40447" lon="4.67234">
        <ele>0.3</ele>
        <time>2022-08-28T15:56:24Z</time>
      </trkpt>
      <trkpt lat="43.40454" lon="4.67248">
        <ele>0.3</ele>
        <time>2022-08-28T15:56:27Z</time>
      </trkpt>
      <trkpt lat="43.40459" lon="4.67257">
        <ele>0.3</ele>
        <time>2022-08-28T15:56:29Z</time>
      </trkpt>
      <trkpt lat="43.40461" lon="4.67262">
        <ele>0.3</ele>
        <time>2022-08-28T15:56:30Z</time>
      </trkpt>
      <trkpt lat="43.40464" lon="4.67267">
        <ele>0.3</ele>
        <time>2022-08-28T15:56:31Z</time>
      </trkpt>
      <trkpt lat="43.40472" lon="4.67282">
        <ele>0.3</ele>
        <time>2022-08-28T15:56:34Z</time>
      </trkpt>
      <trkpt lat="43.40474" lon="4.67287">
        <ele>0.3</ele>
        <time>2022-08-28T15:56:35Z</time>
      </trkpt>
      <trkpt lat="43.40477" lon="4.67291">
        <ele>0.3</ele>
        <time>2022-08-28T15:56:36Z</time>
      </trkpt>
      <trkpt lat="43.40482" lon="4.67301">
        <ele>0.3</ele>
        <time>2022-08-28T15:56:38Z</time>
      </trkpt>
      <trkpt lat="43.4049" lon="4.67316">
        <ele>0.3</ele>
        <time>2022-08-28T15:56:41Z</time>
      </trkpt>
      <trkpt lat="43.40497" lon="4.6733">
        <ele>0.3</ele>
        <time>2022-08-28T15:56:44Z</time>
      </trkpt>
      <trkpt lat="43.40529" lon="4.67392">
        <ele>0.3</ele>
        <time>2022-08-28T15:56:58Z</time>
      </trkpt>
      <trkpt lat="43.40543" lon="4.67419">
        <ele>0.3</ele>
        <time>2022-08-28T15:57:04Z</time>
      </trkpt>
      <trkpt lat="43.40561" lon="4.67457">
        <ele>0.3</ele>
        <time>2022-08-28T15:57:12Z</time>
      </trkpt>
      <trkpt lat="43.40574" lon="4.67481">
        <ele>0.3</ele>
        <time>2022-08-28T15:57:17Z</time>
      </trkpt>
      <trkpt lat="43.40586" lon="4.67506">
        <ele>0.2</ele>
        <time>2022-08-28T15:57:22Z</time>
      </trkpt>
      <trkpt lat="43.40618" lon="4.67566">
        <ele>0.1</ele>
        <time>2022-08-28T15:57:34Z</time>
      </trkpt>
      <trkpt lat="43.40655" lon="4.67621">
        <ele>0.1</ele>
        <time>2022-08-28T15:57:46Z</time>
      </trkpt>
      <trkpt lat="43.40695" lon="4.67671">
        <ele>0.2</ele>
        <time>2022-08-28T15:57:58Z</time>
      </trkpt>
      <trkpt lat="43.40712" lon="4.67691">
        <ele>0.2</ele>
        <time>2022-08-28T15:58:03Z</time>
      </trkpt>
      <trkpt lat="43.40721" lon="4.67695">
        <ele>0.2</ele>
        <time>2022-08-28T15:58:05Z</time>
      </trkpt>
      <trkpt lat="43.40731" lon="4.67696">
        <ele>0.2</ele>
        <time>2022-08-28T15:58:07Z</time>
      </trkpt>
      <trkpt lat="43.4078" lon="4.67694">
        <ele>0.3</ele>
        <time>2022-08-28T15:58:18Z</time>
      </trkpt>
      <trkpt lat="43.40835" lon="4.67694">
        <ele>0.4</ele>
        <time>2022-08-28T15:58:30Z</time>
      </trkpt>
      <trkpt lat="43.40891" lon="4.67693">
        <ele>0.5</ele>
        <time>2022-08-28T15:58:43Z</time>
      </trkpt>
      <trkpt lat="43.40946" lon="4.67691">
        <ele>0.4</ele>
        <time>2022-08-28T15:58:56Z</time>
      </trkpt>
      <trkpt lat="43.40967" lon="4.6769">
        <ele>0.3</ele>
        <time>2022-08-28T15:59:01Z</time>
      </trkpt>
      <trkpt lat="43.41021" lon="4.67689">
        <ele>0.2</ele>
        <time>2022-08-28T15:59:14Z</time>
      </trkpt>
      <trkpt lat="43.41077" lon="4.67689">
        <ele>0.5</ele>
        <time>2022-08-28T15:59:29Z</time>
      </trkpt>
      <trkpt lat="43.41131" lon="4.67697">
        <ele>0.7</ele>
        <time>2022-08-28T15:59:46Z</time>
      </trkpt>
      <trkpt lat="43.41173" lon="4.6772">
        <ele>0.6</ele>
        <time>2022-08-28T16:00:01Z</time>
      </trkpt>
      <trkpt lat="43.41191" lon="4.67793">
        <ele>0.7</ele>
        <time>2022-08-28T16:00:16Z</time>
      </trkpt>
      <trkpt lat="43.41195" lon="4.67814">
        <ele>0.7</ele>
        <time>2022-08-28T16:00:20Z</time>
      </trkpt>
      <trkpt lat="43.4121" lon="4.67886">
        <ele>0.6</ele>
        <time>2022-08-28T16:00:34Z</time>
      </trkpt>
      <trkpt lat="43.41215" lon="4.67907">
        <ele>0.6</ele>
        <time>2022-08-28T16:00:38Z</time>
      </trkpt>
      <trkpt lat="43.41232" lon="4.67982">
        <ele>0.5</ele>
        <time>2022-08-28T16:00:51Z</time>
      </trkpt>
      <trkpt lat="43.41247" lon="4.68056">
        <ele>0.7</ele>
        <time>2022-08-28T16:01:04Z</time>
      </trkpt>
      <trkpt lat="43.41262" lon="4.68128">
        <ele>0.7</ele>
        <time>2022-08-28T16:01:17Z</time>
      </trkpt>
      <trkpt lat="43.41268" lon="4.68156">
        <ele>0.8</ele>
        <time>2022-08-28T16:01:22Z</time>
      </trkpt>
      <trkpt lat="43.41283" lon="4.6823">
        <ele>0.8</ele>
        <time>2022-08-28T16:01:36Z</time>
      </trkpt>
      <trkpt lat="43.4129" lon="4.68256">
        <ele>0.9</ele>
        <time>2022-08-28T16:01:41Z</time>
      </trkpt>
      <trkpt lat="43.41297" lon="4.68284">
        <ele>0.9</ele>
        <time>2022-08-28T16:01:46Z</time>
      </trkpt>
      <trkpt lat="43.41306" lon="4.68326">
        <ele>0.9</ele>
        <time>2022-08-28T16:01:53Z</time>
      </trkpt>
      <trkpt lat="43.41321" lon="4.68392">
        <ele>0.8</ele>
        <time>2022-08-28T16:02:04Z</time>
      </trkpt>
      <trkpt lat="43.41323" lon="4.68403">
        <ele>0.8</ele>
        <time>2022-08-28T16:02:06Z</time>
      </trkpt>
      <trkpt lat="43.41338" lon="4.6847">
        <ele>0.9</ele>
        <time>2022-08-28T16:02:18Z</time>
      </trkpt>
      <trkpt lat="43.41353" lon="4.68545">
        <ele>1</ele>
        <time>2022-08-28T16:02:32Z</time>
      </trkpt>
      <trkpt lat="43.4137" lon="4.6862">
        <ele>0.9</ele>
        <time>2022-08-28T16:02:46Z</time>
      </trkpt>
      <trkpt lat="43.41382" lon="4.68677">
        <ele>0.8</ele>
        <time>2022-08-28T16:02:56Z</time>
      </trkpt>
      <trkpt lat="43.41383" lon="4.68756">
        <ele>0.8</ele>
        <time>2022-08-28T16:03:11Z</time>
      </trkpt>
      <trkpt lat="43.41383" lon="4.68803">
        <ele>0.9</ele>
        <time>2022-08-28T16:03:20Z</time>
      </trkpt>
      <trkpt lat="43.41382" lon="4.68863">
        <ele>1</ele>
        <time>2022-08-28T16:03:31Z</time>
      </trkpt>
      <trkpt lat="43.41381" lon="4.68937">
        <ele>0.8</ele>
        <time>2022-08-28T16:03:45Z</time>
      </trkpt>
      <trkpt lat="43.4138" lon="4.69015">
        <ele>0.6</ele>
        <time>2022-08-28T16:03:59Z</time>
      </trkpt>
      <trkpt lat="43.41371" lon="4.69089">
        <ele>0.6</ele>
        <time>2022-08-28T16:04:14Z</time>
      </trkpt>
      <trkpt lat="43.41345" lon="4.69144">
        <ele>0.6</ele>
        <time>2022-08-28T16:04:28Z</time>
      </trkpt>
      <trkpt lat="43.41317" lon="4.69197">
        <ele>0.8</ele>
        <time>2022-08-28T16:04:41Z</time>
      </trkpt>
      <trkpt lat="43.41284" lon="4.69259">
        <ele>0.9</ele>
        <time>2022-08-28T16:04:54Z</time>
      </trkpt>
      <trkpt lat="43.41274" lon="4.69279">
        <ele>0.9</ele>
        <time>2022-08-28T16:04:58Z</time>
      </trkpt>
      <trkpt lat="43.41254" lon="4.69319">
        <ele>1.1</ele>
        <time>2022-08-28T16:05:13Z</time>
      </trkpt>
      <trkpt lat="43.4122" lon="4.69377">
        <ele>1.1</ele>
        <time>2022-08-28T16:05:44Z</time>
      </trkpt>
      <trkpt lat="43.41206" lon="4.69403">
        <ele>1</ele>
        <time>2022-08-28T16:05:53Z</time>
      </trkpt>
      <trkpt lat="43.41194" lon="4.69426">
        <ele>1</ele>
        <time>2022-08-28T16:06:02Z</time>
      </trkpt>
      <trkpt lat="43.41188" lon="4.69436">
        <ele>1</ele>
        <time>2022-08-28T16:06:06Z</time>
      </trkpt>
      <trkpt lat="43.41183" lon="4.69444">
        <ele>1</ele>
        <time>2022-08-28T16:06:09Z</time>
      </trkpt>
      <trkpt lat="43.41175" lon="4.6946">
        <ele>1</ele>
        <time>2022-08-28T16:06:13Z</time>
      </trkpt>
      <trkpt lat="43.41173" lon="4.69465">
        <ele>1</ele>
        <time>2022-08-28T16:06:14Z</time>
      </trkpt>
      <trkpt lat="43.41171" lon="4.6947">
        <ele>1</ele>
        <time>2022-08-28T16:06:15Z</time>
      </trkpt>
      <trkpt lat="43.41168" lon="4.69475">
        <ele>1</ele>
        <time>2022-08-28T16:06:16Z</time>
      </trkpt>
      <trkpt lat="43.41165" lon="4.6948">
        <ele>1</ele>
        <time>2022-08-28T16:06:17Z</time>
      </trkpt>
      <trkpt lat="43.41163" lon="4.69485">
        <ele>1</ele>
        <time>2022-08-28T16:06:18Z</time>
      </trkpt>
      <trkpt lat="43.41158" lon="4.69495">
        <ele>1</ele>
        <time>2022-08-28T16:06:20Z</time>
      </trkpt>
      <trkpt lat="43.41155" lon="4.695">
        <ele>1</ele>
        <time>2022-08-28T16:06:21Z</time>
      </trkpt>
      <trkpt lat="43.41153" lon="4.69505">
        <ele>1</ele>
        <time>2022-08-28T16:06:22Z</time>
      </trkpt>
      <trkpt lat="43.41147" lon="4.69515">
        <ele>1</ele>
        <time>2022-08-28T16:06:24Z</time>
      </trkpt>
      <trkpt lat="43.41144" lon="4.69521">
        <ele>1</ele>
        <time>2022-08-28T16:06:25Z</time>
      </trkpt>
      <trkpt lat="43.41139" lon="4.6953">
        <ele>1</ele>
        <time>2022-08-28T16:06:27Z</time>
      </trkpt>
      <trkpt lat="43.41136" lon="4.69535">
        <ele>1</ele>
        <time>2022-08-28T16:06:28Z</time>
      </trkpt>
      <trkpt lat="43.41131" lon="4.69544">
        <ele>1</ele>
        <time>2022-08-28T16:06:30Z</time>
      </trkpt>
      <trkpt lat="43.41126" lon="4.69553">
        <ele>1</ele>
        <time>2022-08-28T16:06:32Z</time>
      </trkpt>
      <trkpt lat="43.41123" lon="4.69558">
        <ele>1</ele>
        <time>2022-08-28T16:06:33Z</time>
      </trkpt>
      <trkpt lat="43.41121" lon="4.69563">
        <ele>1</ele>
        <time>2022-08-28T16:06:34Z</time>
      </trkpt>
      <trkpt lat="43.41113" lon="4.69577">
        <ele>1</ele>
        <time>2022-08-28T16:06:37Z</time>
      </trkpt>
      <trkpt lat="43.41108" lon="4.69585">
        <ele>1</ele>
        <time>2022-08-28T16:06:39Z</time>
      </trkpt>
      <trkpt lat="43.41103" lon="4.69595">
        <ele>1</ele>
        <time>2022-08-28T16:06:41Z</time>
      </trkpt>
      <trkpt lat="43.41072" lon="4.69656">
        <ele>1.1</ele>
        <time>2022-08-28T16:06:54Z</time>
      </trkpt>
      <trkpt lat="43.41041" lon="4.69717">
        <ele>1.2</ele>
        <time>2022-08-28T16:07:08Z</time>
      </trkpt>
      <trkpt lat="43.41009" lon="4.69777">
        <ele>1.2</ele>
        <time>2022-08-28T16:07:21Z</time>
      </trkpt>
      <trkpt lat="43.40976" lon="4.6984">
        <ele>1.3</ele>
        <time>2022-08-28T16:07:35Z</time>
      </trkpt>
      <trkpt lat="43.40944" lon="4.699">
        <ele>1.4</ele>
        <time>2022-08-28T16:07:51Z</time>
      </trkpt>
      <trkpt lat="43.40925" lon="4.69935">
        <ele>1.3</ele>
        <time>2022-08-28T16:08:04Z</time>
      </trkpt>
      <trkpt lat="43.40915" lon="4.69954">
        <ele>1.4</ele>
        <time>2022-08-28T16:08:15Z</time>
      </trkpt>
      <trkpt lat="43.40885" lon="4.7002">
        <ele>1.2</ele>
        <time>2022-08-28T16:08:33Z</time>
      </trkpt>
      <trkpt lat="43.40885" lon="4.7003">
        <ele>1.2</ele>
        <time>2022-08-28T16:08:35Z</time>
      </trkpt>
      <trkpt lat="43.40888" lon="4.70058">
        <ele>1.2</ele>
        <time>2022-08-28T16:08:40Z</time>
      </trkpt>
      <trkpt lat="43.40888" lon="4.70097">
        <ele>1.4</ele>
        <time>2022-08-28T16:08:49Z</time>
      </trkpt>
      <trkpt lat="43.40881" lon="4.7011">
        <ele>1.4</ele>
        <time>2022-08-28T16:08:53Z</time>
      </trkpt>
      <trkpt lat="43.40876" lon="4.7012">
        <ele>1.4</ele>
        <time>2022-08-28T16:08:56Z</time>
      </trkpt>
      <trkpt lat="43.4087" lon="4.70129">
        <ele>1.4</ele>
        <time>2022-08-28T16:08:59Z</time>
      </trkpt>
      <trkpt lat="43.40857" lon="4.70152">
        <ele>1.4</ele>
        <time>2022-08-28T16:09:07Z</time>
      </trkpt>
      <trkpt lat="43.40833" lon="4.70221">
        <ele>1.6</ele>
        <time>2022-08-28T16:09:22Z</time>
      </trkpt>
      <trkpt lat="43.40804" lon="4.70285">
        <ele>1.6</ele>
        <time>2022-08-28T16:09:32Z</time>
      </trkpt>
      <trkpt lat="43.40791" lon="4.70317">
        <ele>1.4</ele>
        <time>2022-08-28T16:09:37Z</time>
      </trkpt>
      <trkpt lat="43.40786" lon="4.7033">
        <ele>1.4</ele>
        <time>2022-08-28T16:09:39Z</time>
      </trkpt>
      <trkpt lat="43.40783" lon="4.70337">
        <ele>1.4</ele>
        <time>2022-08-28T16:09:40Z</time>
      </trkpt>
      <trkpt lat="43.4078" lon="4.70344">
        <ele>1.3</ele>
        <time>2022-08-28T16:09:41Z</time>
      </trkpt>
      <trkpt lat="43.40777" lon="4.70351">
        <ele>1.3</ele>
        <time>2022-08-28T16:09:42Z</time>
      </trkpt>
      <trkpt lat="43.40772" lon="4.70364">
        <ele>1.3</ele>
        <time>2022-08-28T16:09:44Z</time>
      </trkpt>
      <trkpt lat="43.40769" lon="4.70371">
        <ele>1.3</ele>
        <time>2022-08-28T16:09:45Z</time>
      </trkpt>
      <trkpt lat="43.40766" lon="4.70378">
        <ele>1.3</ele>
        <time>2022-08-28T16:09:46Z</time>
      </trkpt>
      <trkpt lat="43.40756" lon="4.70405">
        <ele>1.3</ele>
        <time>2022-08-28T16:09:50Z</time>
      </trkpt>
      <trkpt lat="43.40754" lon="4.70411">
        <ele>1.3</ele>
        <time>2022-08-28T16:09:51Z</time>
      </trkpt>
      <trkpt lat="43.40751" lon="4.70417">
        <ele>1.3</ele>
        <time>2022-08-28T16:09:52Z</time>
      </trkpt>
      <trkpt lat="43.40726" lon="4.70484">
        <ele>1.4</ele>
        <time>2022-08-28T16:10:02Z</time>
      </trkpt>
      <trkpt lat="43.40699" lon="4.70551">
        <ele>1.4</ele>
        <time>2022-08-28T16:10:12Z</time>
      </trkpt>
      <trkpt lat="43.40693" lon="4.7057">
        <ele>1.5</ele>
        <time>2022-08-28T16:10:15Z</time>
      </trkpt>
      <trkpt lat="43.4069" lon="4.70577">
        <ele>1.5</ele>
        <time>2022-08-28T16:10:16Z</time>
      </trkpt>
      <trkpt lat="43.40665" lon="4.70645">
        <ele>1.5</ele>
        <time>2022-08-28T16:10:26Z</time>
      </trkpt>
      <trkpt lat="43.40658" lon="4.70665">
        <ele>1.5</ele>
        <time>2022-08-28T16:10:29Z</time>
      </trkpt>
      <trkpt lat="43.40642" lon="4.70704">
        <ele>1.5</ele>
        <time>2022-08-28T16:10:35Z</time>
      </trkpt>
      <trkpt lat="43.4063" lon="4.7074">
        <ele>1.5</ele>
        <time>2022-08-28T16:10:40Z</time>
      </trkpt>
      <trkpt lat="43.40619" lon="4.70767">
        <ele>1.5</ele>
        <time>2022-08-28T16:10:44Z</time>
      </trkpt>
      <trkpt lat="43.40616" lon="4.70774">
        <ele>1.5</ele>
        <time>2022-08-28T16:10:45Z</time>
      </trkpt>
      <trkpt lat="43.40613" lon="4.70781">
        <ele>1.5</ele>
        <time>2022-08-28T16:10:46Z</time>
      </trkpt>
      <trkpt lat="43.40606" lon="4.70802">
        <ele>1.5</ele>
        <time>2022-08-28T16:10:49Z</time>
      </trkpt>
      <trkpt lat="43.40578" lon="4.70872">
        <ele>1.4</ele>
        <time>2022-08-28T16:10:59Z</time>
      </trkpt>
      <trkpt lat="43.40553" lon="4.70941">
        <ele>1.4</ele>
        <time>2022-08-28T16:11:09Z</time>
      </trkpt>
      <trkpt lat="43.40527" lon="4.71009">
        <ele>1.4</ele>
        <time>2022-08-28T16:11:19Z</time>
      </trkpt>
      <trkpt lat="43.40519" lon="4.7103">
        <ele>1.4</ele>
        <time>2022-08-28T16:11:22Z</time>
      </trkpt>
      <trkpt lat="43.40492" lon="4.711">
        <ele>1.4</ele>
        <time>2022-08-28T16:11:32Z</time>
      </trkpt>
      <trkpt lat="43.40484" lon="4.7112">
        <ele>1.4</ele>
        <time>2022-08-28T16:11:35Z</time>
      </trkpt>
      <trkpt lat="43.40479" lon="4.71134">
        <ele>1.4</ele>
        <time>2022-08-28T16:11:37Z</time>
      </trkpt>
      <trkpt lat="43.40461" lon="4.71182">
        <ele>1.4</ele>
        <time>2022-08-28T16:11:44Z</time>
      </trkpt>
      <trkpt lat="43.40453" lon="4.71202">
        <ele>1.5</ele>
        <time>2022-08-28T16:11:47Z</time>
      </trkpt>
      <trkpt lat="43.40448" lon="4.71215">
        <ele>1.5</ele>
        <time>2022-08-28T16:11:49Z</time>
      </trkpt>
      <trkpt lat="43.40445" lon="4.71222">
        <ele>1.5</ele>
        <time>2022-08-28T16:11:50Z</time>
      </trkpt>
      <trkpt lat="43.40443" lon="4.71229">
        <ele>1.5</ele>
        <time>2022-08-28T16:11:51Z</time>
      </trkpt>
      <trkpt lat="43.40435" lon="4.7125">
        <ele>1.4</ele>
        <time>2022-08-28T16:11:54Z</time>
      </trkpt>
      <trkpt lat="43.40432" lon="4.71257">
        <ele>1.4</ele>
        <time>2022-08-28T16:11:55Z</time>
      </trkpt>
      <trkpt lat="43.4043" lon="4.71264">
        <ele>1.4</ele>
        <time>2022-08-28T16:11:56Z</time>
      </trkpt>
      <trkpt lat="43.40428" lon="4.71271">
        <ele>1.4</ele>
        <time>2022-08-28T16:11:57Z</time>
      </trkpt>
      <trkpt lat="43.40427" lon="4.71278">
        <ele>1.4</ele>
        <time>2022-08-28T16:11:58Z</time>
      </trkpt>
      <trkpt lat="43.40426" lon="4.71285">
        <ele>1.4</ele>
        <time>2022-08-28T16:11:59Z</time>
      </trkpt>
      <trkpt lat="43.40426" lon="4.71292">
        <ele>1.4</ele>
        <time>2022-08-28T16:12:00Z</time>
      </trkpt>
      <trkpt lat="43.4043" lon="4.71305">
        <ele>1.3</ele>
        <time>2022-08-28T16:12:02Z</time>
      </trkpt>
      <trkpt lat="43.40432" lon="4.71311">
        <ele>1.3</ele>
        <time>2022-08-28T16:12:03Z</time>
      </trkpt>
      <trkpt lat="43.40437" lon="4.71329">
        <ele>1.3</ele>
        <time>2022-08-28T16:12:06Z</time>
      </trkpt>
      <trkpt lat="43.40459" lon="4.71394">
        <ele>1.3</ele>
        <time>2022-08-28T16:12:17Z</time>
      </trkpt>
      <trkpt lat="43.40484" lon="4.71465">
        <ele>1.4</ele>
        <time>2022-08-28T16:12:28Z</time>
      </trkpt>
      <trkpt lat="43.40503" lon="4.71519">
        <ele>1.5</ele>
        <time>2022-08-28T16:12:36Z</time>
      </trkpt>
      <trkpt lat="43.40505" lon="4.71526">
        <ele>1.5</ele>
        <time>2022-08-28T16:12:37Z</time>
      </trkpt>
      <trkpt lat="43.40508" lon="4.71533">
        <ele>1.5</ele>
        <time>2022-08-28T16:12:38Z</time>
      </trkpt>
      <trkpt lat="43.40532" lon="4.71605">
        <ele>1.5</ele>
        <time>2022-08-28T16:12:48Z</time>
      </trkpt>
      <trkpt lat="43.40539" lon="4.71626">
        <ele>1.5</ele>
        <time>2022-08-28T16:12:51Z</time>
      </trkpt>
      <trkpt lat="43.40556" lon="4.71674">
        <ele>1.6</ele>
        <time>2022-08-28T16:12:58Z</time>
      </trkpt>
      <trkpt lat="43.40578" lon="4.71744">
        <ele>1.6</ele>
        <time>2022-08-28T16:13:08Z</time>
      </trkpt>
      <trkpt lat="43.40581" lon="4.71759">
        <ele>1.6</ele>
        <time>2022-08-28T16:13:10Z</time>
      </trkpt>
      <trkpt lat="43.40582" lon="4.71799">
        <ele>1.5</ele>
        <time>2022-08-28T16:13:15Z</time>
      </trkpt>
      <trkpt lat="43.40573" lon="4.71874">
        <ele>1.3</ele>
        <time>2022-08-28T16:13:25Z</time>
      </trkpt>
      <trkpt lat="43.40563" lon="4.71942">
        <ele>1.3</ele>
        <time>2022-08-28T16:13:34Z</time>
      </trkpt>
      <trkpt lat="43.40552" lon="4.72016">
        <ele>1.3</ele>
        <time>2022-08-28T16:13:44Z</time>
      </trkpt>
      <trkpt lat="43.40548" lon="4.72046">
        <ele>1.3</ele>
        <time>2022-08-28T16:13:48Z</time>
      </trkpt>
      <trkpt lat="43.40541" lon="4.721">
        <ele>1.3</ele>
        <time>2022-08-28T16:13:55Z</time>
      </trkpt>
      <trkpt lat="43.40537" lon="4.72133">
        <ele>1.3</ele>
        <time>2022-08-28T16:13:59Z</time>
      </trkpt>
      <trkpt lat="43.40534" lon="4.7215">
        <ele>1.3</ele>
        <time>2022-08-28T16:14:01Z</time>
      </trkpt>
      <trkpt lat="43.40532" lon="4.72167">
        <ele>1.3</ele>
        <time>2022-08-28T16:14:03Z</time>
      </trkpt>
      <trkpt lat="43.40529" lon="4.72191">
        <ele>1.3</ele>
        <time>2022-08-28T16:14:06Z</time>
      </trkpt>
      <trkpt lat="43.40527" lon="4.72208">
        <ele>1.3</ele>
        <time>2022-08-28T16:14:08Z</time>
      </trkpt>
      <trkpt lat="43.40526" lon="4.72216">
        <ele>1.3</ele>
        <time>2022-08-28T16:14:09Z</time>
      </trkpt>
      <trkpt lat="43.40523" lon="4.72232">
        <ele>1.3</ele>
        <time>2022-08-28T16:14:11Z</time>
      </trkpt>
      <trkpt lat="43.40519" lon="4.72255">
        <ele>1.4</ele>
        <time>2022-08-28T16:14:14Z</time>
      </trkpt>
      <trkpt lat="43.40516" lon="4.72269">
        <ele>1.4</ele>
        <time>2022-08-28T16:14:16Z</time>
      </trkpt>
      <trkpt lat="43.40515" lon="4.72276">
        <ele>1.4</ele>
        <time>2022-08-28T16:14:17Z</time>
      </trkpt>
      <trkpt lat="43.40511" lon="4.72305">
        <ele>1.4</ele>
        <time>2022-08-28T16:14:22Z</time>
      </trkpt>
      <trkpt lat="43.4051" lon="4.72316">
        <ele>1.4</ele>
        <time>2022-08-28T16:14:24Z</time>
      </trkpt>
      <trkpt lat="43.40506" lon="4.72344">
        <ele>1.3</ele>
        <time>2022-08-28T16:14:29Z</time>
      </trkpt>
      <trkpt lat="43.40505" lon="4.72361">
        <ele>1.2</ele>
        <time>2022-08-28T16:14:32Z</time>
      </trkpt>
      <trkpt lat="43.40505" lon="4.72367">
        <ele>1.2</ele>
        <time>2022-08-28T16:14:33Z</time>
      </trkpt>
      <trkpt lat="43.40505" lon="4.72372">
        <ele>1.2</ele>
        <time>2022-08-28T16:14:34Z</time>
      </trkpt>
      <trkpt lat="43.40505" lon="4.72377">
        <ele>1.2</ele>
        <time>2022-08-28T16:14:35Z</time>
      </trkpt>
      <trkpt lat="43.40504" lon="4.72382">
        <ele>1.2</ele>
        <time>2022-08-28T16:14:36Z</time>
      </trkpt>
      <trkpt lat="43.40504" lon="4.72387">
        <ele>1.2</ele>
        <time>2022-08-28T16:14:37Z</time>
      </trkpt>
      <trkpt lat="43.40503" lon="4.72392">
        <ele>1.2</ele>
        <time>2022-08-28T16:14:38Z</time>
      </trkpt>
      <trkpt lat="43.40503" lon="4.72407">
        <ele>1.2</ele>
        <time>2022-08-28T16:14:41Z</time>
      </trkpt>
      <trkpt lat="43.40504" lon="4.72443">
        <ele>1.3</ele>
        <time>2022-08-28T16:14:49Z</time>
      </trkpt>
      <trkpt lat="43.40508" lon="4.72457">
        <ele>1.3</ele>
        <time>2022-08-28T16:14:52Z</time>
      </trkpt>
      <trkpt lat="43.40513" lon="4.72465">
        <ele>1.3</ele>
        <time>2022-08-28T16:14:54Z</time>
      </trkpt>
      <trkpt lat="43.40516" lon="4.72469">
        <ele>1.3</ele>
        <time>2022-08-28T16:14:55Z</time>
      </trkpt>
      <trkpt lat="43.40519" lon="4.72472">
        <ele>1.3</ele>
        <time>2022-08-28T16:14:56Z</time>
      </trkpt>
      <trkpt lat="43.40527" lon="4.72478">
        <ele>1.3</ele>
        <time>2022-08-28T16:14:58Z</time>
      </trkpt>
      <trkpt lat="43.40535" lon="4.72482">
        <ele>1.4</ele>
        <time>2022-08-28T16:15:00Z</time>
      </trkpt>
      <trkpt lat="43.40542" lon="4.72485">
        <ele>1.4</ele>
        <time>2022-08-28T16:15:02Z</time>
      </trkpt>
      <trkpt lat="43.40551" lon="4.7249">
        <ele>1.4</ele>
        <time>2022-08-28T16:15:04Z</time>
      </trkpt>
      <trkpt lat="43.40555" lon="4.72492">
        <ele>1.4</ele>
        <time>2022-08-28T16:15:05Z</time>
      </trkpt>
      <trkpt lat="43.40567" lon="4.72498">
        <ele>1.4</ele>
        <time>2022-08-28T16:15:08Z</time>
      </trkpt>
      <trkpt lat="43.40571" lon="4.725">
        <ele>1.4</ele>
        <time>2022-08-28T16:15:09Z</time>
      </trkpt>
      <trkpt lat="43.40575" lon="4.72502">
        <ele>1.4</ele>
        <time>2022-08-28T16:15:10Z</time>
      </trkpt>
      <trkpt lat="43.40579" lon="4.72504">
        <ele>1.4</ele>
        <time>2022-08-28T16:15:11Z</time>
      </trkpt>
      <trkpt lat="43.40589" lon="4.7251">
        <ele>1.5</ele>
        <time>2022-08-28T16:15:14Z</time>
      </trkpt>
      <trkpt lat="43.40608" lon="4.72521">
        <ele>1.5</ele>
        <time>2022-08-28T16:15:20Z</time>
      </trkpt>
      <trkpt lat="43.40626" lon="4.7253">
        <ele>1.6</ele>
        <time>2022-08-28T16:15:25Z</time>
      </trkpt>
      <trkpt lat="43.40643" lon="4.7254">
        <ele>1.6</ele>
        <time>2022-08-28T16:15:29Z</time>
      </trkpt>
      <trkpt lat="43.40681" lon="4.72557">
        <ele>1.7</ele>
        <time>2022-08-28T16:15:37Z</time>
      </trkpt>
      <trkpt lat="43.40698" lon="4.72567">
        <ele>1.7</ele>
        <time>2022-08-28T16:15:41Z</time>
      </trkpt>
      <trkpt lat="43.40706" lon="4.72572">
        <ele>1.7</ele>
        <time>2022-08-28T16:15:43Z</time>
      </trkpt>
      <trkpt lat="43.40724" lon="4.72581">
        <ele>1.7</ele>
        <time>2022-08-28T16:15:47Z</time>
      </trkpt>
      <trkpt lat="43.40729" lon="4.72583">
        <ele>1.7</ele>
        <time>2022-08-28T16:15:48Z</time>
      </trkpt>
      <trkpt lat="43.40733" lon="4.72585">
        <ele>1.7</ele>
        <time>2022-08-28T16:15:49Z</time>
      </trkpt>
      <trkpt lat="43.40787" lon="4.72612">
        <ele>1.8</ele>
        <time>2022-08-28T16:16:01Z</time>
      </trkpt>
      <trkpt lat="43.40819" lon="4.72628">
        <ele>1.9</ele>
        <time>2022-08-28T16:16:08Z</time>
      </trkpt>
      <trkpt lat="43.40827" lon="4.72633">
        <ele>1.9</ele>
        <time>2022-08-28T16:16:10Z</time>
      </trkpt>
      <trkpt lat="43.40831" lon="4.72636">
        <ele>1.9</ele>
        <time>2022-08-28T16:16:11Z</time>
      </trkpt>
      <trkpt lat="43.40849" lon="4.72645">
        <ele>1.9</ele>
        <time>2022-08-28T16:16:15Z</time>
      </trkpt>
      <trkpt lat="43.40853" lon="4.72647">
        <ele>1.9</ele>
        <time>2022-08-28T16:16:16Z</time>
      </trkpt>
      <trkpt lat="43.40866" lon="4.72653">
        <ele>1.9</ele>
        <time>2022-08-28T16:16:19Z</time>
      </trkpt>
      <trkpt lat="43.40871" lon="4.72655">
        <ele>1.9</ele>
        <time>2022-08-28T16:16:20Z</time>
      </trkpt>
      <trkpt lat="43.40879" lon="4.7266">
        <ele>1.9</ele>
        <time>2022-08-28T16:16:22Z</time>
      </trkpt>
      <trkpt lat="43.40883" lon="4.72662">
        <ele>1.9</ele>
        <time>2022-08-28T16:16:23Z</time>
      </trkpt>
      <trkpt lat="43.40927" lon="4.72683">
        <ele>1.9</ele>
        <time>2022-08-28T16:16:34Z</time>
      </trkpt>
      <trkpt lat="43.40978" lon="4.7271">
        <ele>1.8</ele>
        <time>2022-08-28T16:16:47Z</time>
      </trkpt>
      <trkpt lat="43.40994" lon="4.72718">
        <ele>1.8</ele>
        <time>2022-08-28T16:16:51Z</time>
      </trkpt>
      <trkpt lat="43.41034" lon="4.72736">
        <ele>1.9</ele>
        <time>2022-08-28T16:17:00Z</time>
      </trkpt>
      <trkpt lat="43.41084" lon="4.72766">
        <ele>1.9</ele>
        <time>2022-08-28T16:17:13Z</time>
      </trkpt>
      <trkpt lat="43.41136" lon="4.72794">
        <ele>2</ele>
        <time>2022-08-28T16:17:25Z</time>
      </trkpt>
      <trkpt lat="43.41158" lon="4.72805">
        <ele>2</ele>
        <time>2022-08-28T16:17:30Z</time>
      </trkpt>
      <trkpt lat="43.41186" lon="4.72817">
        <ele>2.2</ele>
        <time>2022-08-28T16:17:36Z</time>
      </trkpt>
      <trkpt lat="43.412" lon="4.72822">
        <ele>2.3</ele>
        <time>2022-08-28T16:17:39Z</time>
      </trkpt>
      <trkpt lat="43.41209" lon="4.72822">
        <ele>2.4</ele>
        <time>2022-08-28T16:17:41Z</time>
      </trkpt>
      <trkpt lat="43.41213" lon="4.72821">
        <ele>2.4</ele>
        <time>2022-08-28T16:17:42Z</time>
      </trkpt>
      <trkpt lat="43.41261" lon="4.72804">
        <ele>2.5</ele>
        <time>2022-08-28T16:17:53Z</time>
      </trkpt>
      <trkpt lat="43.41272" lon="4.72803">
        <ele>2.4</ele>
        <time>2022-08-28T16:17:55Z</time>
      </trkpt>
      <trkpt lat="43.41282" lon="4.72805">
        <ele>2.4</ele>
        <time>2022-08-28T16:17:57Z</time>
      </trkpt>
      <trkpt lat="43.41313" lon="4.72824">
        <ele>2.5</ele>
        <time>2022-08-28T16:18:04Z</time>
      </trkpt>
      <trkpt lat="43.41325" lon="4.72834">
        <ele>2.6</ele>
        <time>2022-08-28T16:18:07Z</time>
      </trkpt>
      <trkpt lat="43.41335" lon="4.72844">
        <ele>2.7</ele>
        <time>2022-08-28T16:18:09Z</time>
      </trkpt>
      <trkpt lat="43.41345" lon="4.72863">
        <ele>2.7</ele>
        <time>2022-08-28T16:18:12Z</time>
      </trkpt>
      <trkpt lat="43.41365" lon="4.72935">
        <ele>2.4</ele>
        <time>2022-08-28T16:18:25Z</time>
      </trkpt>
      <trkpt lat="43.41381" lon="4.73011">
        <ele>2.3</ele>
        <time>2022-08-28T16:18:39Z</time>
      </trkpt>
      <trkpt lat="43.41407" lon="4.73074">
        <ele>2.1</ele>
        <time>2022-08-28T16:18:52Z</time>
      </trkpt>
      <trkpt lat="43.41441" lon="4.73138">
        <ele>2.2</ele>
        <time>2022-08-28T16:19:05Z</time>
      </trkpt>
      <trkpt lat="43.41461" lon="4.73177">
        <ele>2.3</ele>
        <time>2022-08-28T16:19:13Z</time>
      </trkpt>
      <trkpt lat="43.41492" lon="4.73239">
        <ele>2.2</ele>
        <time>2022-08-28T16:19:25Z</time>
      </trkpt>
      <trkpt lat="43.41523" lon="4.73303">
        <ele>2</ele>
        <time>2022-08-28T16:19:39Z</time>
      </trkpt>
      <trkpt lat="43.41552" lon="4.73367">
        <ele>2.1</ele>
        <time>2022-08-28T16:19:51Z</time>
      </trkpt>
      <trkpt lat="43.41579" lon="4.73436">
        <ele>2</ele>
        <time>2022-08-28T16:20:06Z</time>
      </trkpt>
      <trkpt lat="43.41589" lon="4.73466">
        <ele>2.1</ele>
        <time>2022-08-28T16:20:12Z</time>
      </trkpt>
      <trkpt lat="43.41598" lon="4.73488">
        <ele>2.1</ele>
        <time>2022-08-28T16:20:16Z</time>
      </trkpt>
      <trkpt lat="43.41607" lon="4.73507">
        <ele>2.1</ele>
        <time>2022-08-28T16:20:20Z</time>
      </trkpt>
      <trkpt lat="43.41607" lon="4.7351">
        <ele>2.1</ele>
        <time>2022-08-28T16:20:21Z</time>
      </trkpt>
      <trkpt lat="43.41603" lon="4.73522">
        <ele>2.3</ele>
        <time>2022-08-28T16:20:26Z</time>
      </trkpt>
      <trkpt lat="43.41602" lon="4.73524">
        <ele>2.3</ele>
        <time>2022-08-28T16:20:27Z</time>
      </trkpt>
      <trkpt lat="43.41601" lon="4.73526">
        <ele>2.3</ele>
        <time>2022-08-28T16:20:28Z</time>
      </trkpt>
      <trkpt lat="43.41599" lon="4.7353">
        <ele>2.3</ele>
        <time>2022-08-28T16:20:30Z</time>
      </trkpt>
      <trkpt lat="43.41597" lon="4.73533">
        <ele>2.3</ele>
        <time>2022-08-28T16:20:32Z</time>
      </trkpt>
      <trkpt lat="43.41593" lon="4.7354">
        <ele>2.3</ele>
        <time>2022-08-28T16:20:35Z</time>
      </trkpt>
      <trkpt lat="43.41589" lon="4.73543">
        <ele>2.3</ele>
        <time>2022-08-28T16:20:37Z</time>
      </trkpt>
      <trkpt lat="43.4158" lon="4.73553">
        <ele>2.4</ele>
        <time>2022-08-28T16:20:42Z</time>
      </trkpt>
      <trkpt lat="43.41571" lon="4.73563">
        <ele>2.5</ele>
        <time>2022-08-28T16:20:46Z</time>
      </trkpt>
      <trkpt lat="43.41566" lon="4.7357">
        <ele>2.5</ele>
        <time>2022-08-28T16:20:48Z</time>
      </trkpt>
      <trkpt lat="43.41549" lon="4.73586">
        <ele>2.6</ele>
        <time>2022-08-28T16:20:54Z</time>
      </trkpt>
      <trkpt lat="43.41535" lon="4.73604">
        <ele>2.7</ele>
        <time>2022-08-28T16:20:58Z</time>
      </trkpt>
      <trkpt lat="43.41526" lon="4.73613">
        <ele>2.7</ele>
        <time>2022-08-28T16:21:00Z</time>
      </trkpt>
      <trkpt lat="43.41506" lon="4.73632">
        <ele>2.7</ele>
        <time>2022-08-28T16:21:06Z</time>
      </trkpt>
      <trkpt lat="43.41486" lon="4.73651">
        <ele>2.7</ele>
        <time>2022-08-28T16:21:12Z</time>
      </trkpt>
      <trkpt lat="43.41476" lon="4.73661">
        <ele>2.6</ele>
        <time>2022-08-28T16:21:15Z</time>
      </trkpt>
      <trkpt lat="43.41467" lon="4.7367">
        <ele>2.6</ele>
        <time>2022-08-28T16:21:17Z</time>
      </trkpt>
      <trkpt lat="43.4142" lon="4.73708">
        <ele>2.7</ele>
        <time>2022-08-28T16:21:28Z</time>
      </trkpt>
      <trkpt lat="43.414" lon="4.73723">
        <ele>2.6</ele>
        <time>2022-08-28T16:21:33Z</time>
      </trkpt>
      <trkpt lat="43.41367" lon="4.73753">
        <ele>2.5</ele>
        <time>2022-08-28T16:21:42Z</time>
      </trkpt>
      <trkpt lat="43.4134" lon="4.73781">
        <ele>2.6</ele>
        <time>2022-08-28T16:21:50Z</time>
      </trkpt>
      <trkpt lat="43.41337" lon="4.73787">
        <ele>2.6</ele>
        <time>2022-08-28T16:21:52Z</time>
      </trkpt>
      <trkpt lat="43.41346" lon="4.73851">
        <ele>2.4</ele>
        <time>2022-08-28T16:22:06Z</time>
      </trkpt>
      <trkpt lat="43.41366" lon="4.73916">
        <ele>2.6</ele>
        <time>2022-08-28T16:22:26Z</time>
      </trkpt>
    </trkseg>
  </trk>
</gpx>